<?xml version='1.0' encoding='UTF-8'?><gpx version="1.1" creator="JPX - https://github.com/jenetics/jpx" xmlns="http://www.topografix.com/GPX/1/1"><trk><trkseg><trkpt lat="41.1926024" lon="9.4504909"><ele>6.0</ele><time>2026-04-25T08:11:22.347Z</time></trkpt><trkpt lat="41.1926769" lon="9.4504827"><ele>6.0</ele><time>2026-04-25T08:11:31.376Z</time></trkpt><trkpt lat="41.1927747" lon="9.4504049"><ele>6.0</ele><time>2026-04-25T08:11:34.379Z</time></trkpt><trkpt lat="41.1928313" lon="9.4503479"><ele>6.0</ele><time>2026-04-25T08:11:38.971Z</time></trkpt><trkpt lat="41.1928615" lon="9.4502717"><ele>6.0</ele><time>2026-04-25T08:11:47.917Z</time></trkpt><trkpt lat="41.1928048" lon="9.4502342"><ele>6.0</ele><time>2026-04-25T08:12:00.913Z</time></trkpt><trkpt lat="41.1927531" lon="9.4501463"><ele>5.8</ele><time>2026-04-25T08:12:03.826Z</time></trkpt><trkpt lat="41.1927456" lon="9.4500377"><ele>5.6</ele><time>2026-04-25T08:12:05.918Z</time></trkpt><trkpt lat="41.1928147" lon="9.4499346"><ele>5.4</ele><time>2026-04-25T08:12:07.918Z</time></trkpt><trkpt lat="41.1928908" lon="9.4498899"><ele>5.2</ele><time>2026-04-25T08:12:09.915Z</time></trkpt><trkpt lat="41.192953" lon="9.4499206"><ele>5.0</ele><time>2026-04-25T08:12:10.915Z</time></trkpt><trkpt lat="41.1930678" lon="9.4499697"><ele>6.2</ele><time>2026-04-25T08:12:12.901Z</time></trkpt><trkpt lat="41.1931764" lon="9.450024"><ele>7.4</ele><time>2026-04-25T08:12:14.901Z</time></trkpt><trkpt lat="41.1932761" lon="9.4500778"><ele>8.600000000000001</ele><time>2026-04-25T08:12:16.896Z</time></trkpt><trkpt lat="41.1933728" lon="9.4501127"><ele>9.8</ele><time>2026-04-25T08:12:18.896Z</time></trkpt><trkpt lat="41.1934662" lon="9.4501285"><ele>11.0</ele><time>2026-04-25T08:12:20.893Z</time></trkpt><trkpt lat="41.1935461" lon="9.4502039"><ele>11.0</ele><time>2026-04-25T08:12:23.912Z</time></trkpt><trkpt lat="41.1935883" lon="9.4503211"><ele>11.0</ele><time>2026-04-25T08:12:25.909Z</time></trkpt><trkpt lat="41.1936179" lon="9.4504522"><ele>11.0</ele><time>2026-04-25T08:12:27.912Z</time></trkpt><trkpt lat="41.1936561" lon="9.4505529"><ele>11.0</ele><time>2026-04-25T08:12:29.906Z</time></trkpt><trkpt lat="41.1937206" lon="9.4506577"><ele>11.0</ele><time>2026-04-25T08:12:31.913Z</time></trkpt><trkpt lat="41.1938015" lon="9.4507372"><ele>10.8</ele><time>2026-04-25T08:12:33.915Z</time></trkpt><trkpt lat="41.1939045" lon="9.4508024"><ele>10.600000000000001</ele><time>2026-04-25T08:12:35.916Z</time></trkpt><trkpt lat="41.1939571" lon="9.4508486"><ele>10.4</ele><time>2026-04-25T08:12:36.916Z</time></trkpt><trkpt lat="41.1940594" lon="9.4509187"><ele>10.2</ele><time>2026-04-25T08:12:38.913Z</time></trkpt><trkpt lat="41.1941319" lon="9.4510095"><ele>10.0</ele><time>2026-04-25T08:12:40.917Z</time></trkpt><trkpt lat="41.1941889" lon="9.4511091"><ele>10.0</ele><time>2026-04-25T08:12:42.923Z</time></trkpt><trkpt lat="41.1942333" lon="9.4511725"><ele>10.0</ele><time>2026-04-25T08:12:43.917Z</time></trkpt><trkpt lat="41.1942844" lon="9.451234"><ele>10.0</ele><time>2026-04-25T08:12:44.916Z</time></trkpt><trkpt lat="41.194341" lon="9.4512961"><ele>10.0</ele><time>2026-04-25T08:12:45.916Z</time></trkpt><trkpt lat="41.1943981" lon="9.4513499"><ele>10.0</ele><time>2026-04-25T08:12:46.919Z</time></trkpt><trkpt lat="41.1945094" lon="9.4514097"><ele>10.0</ele><time>2026-04-25T08:12:48.916Z</time></trkpt><trkpt lat="41.1946106" lon="9.4514494"><ele>10.0</ele><time>2026-04-25T08:12:50.914Z</time></trkpt><trkpt lat="41.1947077" lon="9.4514872"><ele>10.0</ele><time>2026-04-25T08:12:52.916Z</time></trkpt><trkpt lat="41.1948186" lon="9.4515291"><ele>10.0</ele><time>2026-04-25T08:12:54.911Z</time></trkpt><trkpt lat="41.1949179" lon="9.4515621"><ele>10.0</ele><time>2026-04-25T08:12:56.906Z</time></trkpt><trkpt lat="41.1950001" lon="9.4515707"><ele>10.0</ele><time>2026-04-25T08:12:58.908Z</time></trkpt><trkpt lat="41.1950988" lon="9.451571"><ele>10.333333333333334</ele><time>2026-04-25T08:13:00.914Z</time></trkpt><trkpt lat="41.1951928" lon="9.4515555"><ele>10.666666666666668</ele><time>2026-04-25T08:13:02.91Z</time></trkpt><trkpt lat="41.1952665" lon="9.4515678"><ele>11.0</ele><time>2026-04-25T08:13:04.918Z</time></trkpt><trkpt lat="41.1953489" lon="9.4515792"><ele>11.333333333333334</ele><time>2026-04-25T08:13:06.914Z</time></trkpt><trkpt lat="41.1954392" lon="9.4515682"><ele>11.666666666666666</ele><time>2026-04-25T08:13:08.91Z</time></trkpt><trkpt lat="41.1955227" lon="9.4515586"><ele>12.0</ele><time>2026-04-25T08:13:10.909Z</time></trkpt><trkpt lat="41.1956352" lon="9.4515623"><ele>12.2</ele><time>2026-04-25T08:13:12.907Z</time></trkpt><trkpt lat="41.1957503" lon="9.4515622"><ele>12.399999999999999</ele><time>2026-04-25T08:13:14.908Z</time></trkpt><trkpt lat="41.1958485" lon="9.4515666"><ele>12.600000000000001</ele><time>2026-04-25T08:13:16.909Z</time></trkpt><trkpt lat="41.1959338" lon="9.451586"><ele>12.8</ele><time>2026-04-25T08:13:18.906Z</time></trkpt><trkpt lat="41.1960087" lon="9.4516211"><ele>13.0</ele><time>2026-04-25T08:13:20.916Z</time></trkpt><trkpt lat="41.1960817" lon="9.4516466"><ele>12.999999999999998</ele><time>2026-04-25T08:13:22.908Z</time></trkpt><trkpt lat="41.1961739" lon="9.4516494"><ele>13.0</ele><time>2026-04-25T08:13:24.919Z</time></trkpt><trkpt lat="41.1962372" lon="9.451621"><ele>13.0</ele><time>2026-04-25T08:13:26.915Z</time></trkpt><trkpt lat="41.1963383" lon="9.4516287"><ele>13.0</ele><time>2026-04-25T08:13:28.915Z</time></trkpt><trkpt lat="41.1964466" lon="9.4516441"><ele>12.999999999999998</ele><time>2026-04-25T08:13:30.91Z</time></trkpt><trkpt lat="41.1965237" lon="9.4516425"><ele>13.0</ele><time>2026-04-25T08:13:32.912Z</time></trkpt><trkpt lat="41.1966043" lon="9.4516506"><ele>12.333333333333332</ele><time>2026-04-25T08:13:34.914Z</time></trkpt><trkpt lat="41.1966907" lon="9.4517592"><ele>11.666666666666666</ele><time>2026-04-25T08:13:36.918Z</time></trkpt><trkpt lat="41.1967324" lon="9.4518278"><ele>11.0</ele><time>2026-04-25T08:13:37.917Z</time></trkpt><trkpt lat="41.196771" lon="9.4519022"><ele>10.333333333333332</ele><time>2026-04-25T08:13:38.917Z</time></trkpt><trkpt lat="41.1968074" lon="9.4519766"><ele>9.666666666666666</ele><time>2026-04-25T08:13:39.921Z</time></trkpt><trkpt lat="41.1968793" lon="9.4521118"><ele>9.0</ele><time>2026-04-25T08:13:41.921Z</time></trkpt><trkpt lat="41.1969253" lon="9.4521738"><ele>8.2</ele><time>2026-04-25T08:13:42.919Z</time></trkpt><trkpt lat="41.1969757" lon="9.4522289"><ele>7.4</ele><time>2026-04-25T08:13:43.92Z</time></trkpt><trkpt lat="41.1970683" lon="9.4523245"><ele>6.6</ele><time>2026-04-25T08:13:45.918Z</time></trkpt><trkpt lat="41.1970919" lon="9.4524031"><ele>5.8</ele><time>2026-04-25T08:13:47.916Z</time></trkpt><trkpt lat="41.1970989" lon="9.452547"><ele>5.0</ele><time>2026-04-25T08:13:49.917Z</time></trkpt><trkpt lat="41.1970659" lon="9.4526876"><ele>5.0</ele><time>2026-04-25T08:13:51.918Z</time></trkpt><trkpt lat="41.1970398" lon="9.4527701"><ele>5.0</ele><time>2026-04-25T08:13:52.92Z</time></trkpt><trkpt lat="41.1970194" lon="9.4528533"><ele>5.0</ele><time>2026-04-25T08:13:53.919Z</time></trkpt><trkpt lat="41.1969823" lon="9.4529864"><ele>5.0</ele><time>2026-04-25T08:13:55.919Z</time></trkpt><trkpt lat="41.1969458" lon="9.4531169"><ele>5.0</ele><time>2026-04-25T08:13:57.917Z</time></trkpt><trkpt lat="41.1969181" lon="9.4532808"><ele>4.833333333333334</ele><time>2026-04-25T08:13:59.919Z</time></trkpt><trkpt lat="41.1968967" lon="9.4533624"><ele>4.666666666666667</ele><time>2026-04-25T08:14:00.915Z</time></trkpt><trkpt lat="41.1968335" lon="9.4534978"><ele>4.5</ele><time>2026-04-25T08:14:02.917Z</time></trkpt><trkpt lat="41.1967909" lon="9.4535662"><ele>4.333333333333333</ele><time>2026-04-25T08:14:03.92Z</time></trkpt><trkpt lat="41.1967374" lon="9.4536345"><ele>4.166666666666666</ele><time>2026-04-25T08:14:04.917Z</time></trkpt><trkpt lat="41.1966923" lon="9.4537102"><ele>4.0</ele><time>2026-04-25T08:14:05.914Z</time></trkpt><trkpt lat="41.1966596" lon="9.4537914"><ele>4.0</ele><time>2026-04-25T08:14:06.913Z</time></trkpt><trkpt lat="41.1966304" lon="9.4538755"><ele>3.9999999999999996</ele><time>2026-04-25T08:14:07.924Z</time></trkpt><trkpt lat="41.1966078" lon="9.4539568"><ele>4.0</ele><time>2026-04-25T08:14:08.924Z</time></trkpt><trkpt lat="41.1965698" lon="9.4540394"><ele>4.0</ele><time>2026-04-25T08:14:09.924Z</time></trkpt><trkpt lat="41.1965358" lon="9.45413"><ele>3.9999999999999996</ele><time>2026-04-25T08:14:10.925Z</time></trkpt><trkpt lat="41.1965105" lon="9.4542163"><ele>4.0</ele><time>2026-04-25T08:14:11.921Z</time></trkpt><trkpt lat="41.1964801" lon="9.4543006"><ele>4.0</ele><time>2026-04-25T08:14:12.923Z</time></trkpt><trkpt lat="41.1964394" lon="9.4543881"><ele>4.166666666666666</ele><time>2026-04-25T08:14:13.916Z</time></trkpt><trkpt lat="41.1963953" lon="9.4544774"><ele>4.333333333333333</ele><time>2026-04-25T08:14:14.917Z</time></trkpt><trkpt lat="41.1963481" lon="9.4545564"><ele>4.5</ele><time>2026-04-25T08:14:15.923Z</time></trkpt><trkpt lat="41.196297" lon="9.4546333"><ele>4.666666666666667</ele><time>2026-04-25T08:14:16.917Z</time></trkpt><trkpt lat="41.1962481" lon="9.4547052"><ele>4.833333333333334</ele><time>2026-04-25T08:14:17.923Z</time></trkpt><trkpt lat="41.1962016" lon="9.4547662"><ele>5.0</ele><time>2026-04-25T08:14:18.921Z</time></trkpt><trkpt lat="41.196121" lon="9.4548573"><ele>5.0</ele><time>2026-04-25T08:14:20.91Z</time></trkpt><trkpt lat="41.1960149" lon="9.4549218"><ele>5.0</ele><time>2026-04-25T08:14:22.923Z</time></trkpt><trkpt lat="41.1959224" lon="9.4550111"><ele>5.0</ele><time>2026-04-25T08:14:24.917Z</time></trkpt><trkpt lat="41.1959043" lon="9.4551568"><ele>5.0</ele><time>2026-04-25T08:14:26.923Z</time></trkpt><trkpt lat="41.19593" lon="9.4552495"><ele>5.0</ele><time>2026-04-25T08:14:27.922Z</time></trkpt><trkpt lat="41.1959594" lon="9.4553469"><ele>5.0</ele><time>2026-04-25T08:14:28.92Z</time></trkpt><trkpt lat="41.1960013" lon="9.4554368"><ele>5.0</ele><time>2026-04-25T08:14:29.917Z</time></trkpt><trkpt lat="41.1960418" lon="9.4555095"><ele>5.0</ele><time>2026-04-25T08:14:30.921Z</time></trkpt><trkpt lat="41.1961069" lon="9.4556412"><ele>5.0</ele><time>2026-04-25T08:14:32.917Z</time></trkpt><trkpt lat="41.1961824" lon="9.4557692"><ele>5.0</ele><time>2026-04-25T08:14:34.921Z</time></trkpt><trkpt lat="41.1962666" lon="9.4558728"><ele>4.8</ele><time>2026-04-25T08:14:36.92Z</time></trkpt><trkpt lat="41.1962926" lon="9.456021"><ele>4.6</ele><time>2026-04-25T08:14:38.921Z</time></trkpt><trkpt lat="41.1963214" lon="9.4561805"><ele>4.4</ele><time>2026-04-25T08:14:40.919Z</time></trkpt><trkpt lat="41.1963559" lon="9.4563381"><ele>4.2</ele><time>2026-04-25T08:14:42.918Z</time></trkpt><trkpt lat="41.1963726" lon="9.4564197"><ele>4.0</ele><time>2026-04-25T08:14:43.916Z</time></trkpt><trkpt lat="41.1963904" lon="9.4565712"><ele>4.0</ele><time>2026-04-25T08:14:45.917Z</time></trkpt><trkpt lat="41.1964109" lon="9.4567269"><ele>4.0</ele><time>2026-04-25T08:14:47.916Z</time></trkpt><trkpt lat="41.1964309" lon="9.4568799"><ele>4.0</ele><time>2026-04-25T08:14:49.916Z</time></trkpt><trkpt lat="41.1964379" lon="9.4570025"><ele>4.0</ele><time>2026-04-25T08:14:51.918Z</time></trkpt><trkpt lat="41.1964334" lon="9.4570878"><ele>4.0</ele><time>2026-04-25T08:14:53.916Z</time></trkpt><trkpt lat="41.1964069" lon="9.4571662"><ele>4.2</ele><time>2026-04-25T08:14:55.918Z</time></trkpt><trkpt lat="41.1963606" lon="9.4572299"><ele>4.4</ele><time>2026-04-25T08:14:57.916Z</time></trkpt><trkpt lat="41.1962489" lon="9.4572843"><ele>4.6</ele><time>2026-04-25T08:15:19.919Z</time></trkpt><trkpt lat="41.1961237" lon="9.457356"><ele>4.8</ele><time>2026-04-25T08:15:20.92Z</time></trkpt><trkpt lat="41.1960293" lon="9.4574118"><ele>5.0</ele><time>2026-04-25T08:15:21.92Z</time></trkpt><trkpt lat="41.1959375" lon="9.457461"><ele>5.0</ele><time>2026-04-25T08:15:22.925Z</time></trkpt><trkpt lat="41.1958554" lon="9.4575004"><ele>5.0</ele><time>2026-04-25T08:15:23.921Z</time></trkpt><trkpt lat="41.1957862" lon="9.4575377"><ele>5.0</ele><time>2026-04-25T08:15:24.925Z</time></trkpt><trkpt lat="41.1957202" lon="9.4575725"><ele>5.0</ele><time>2026-04-25T08:15:25.926Z</time></trkpt><trkpt lat="41.1956524" lon="9.4576046"><ele>5.0</ele><time>2026-04-25T08:15:26.925Z</time></trkpt><trkpt lat="41.1955797" lon="9.4576362"><ele>5.0</ele><time>2026-04-25T08:15:27.925Z</time></trkpt><trkpt lat="41.1955052" lon="9.4576694"><ele>5.5</ele><time>2026-04-25T08:15:28.927Z</time></trkpt><trkpt lat="41.1954273" lon="9.4576966"><ele>6.0</ele><time>2026-04-25T08:15:29.922Z</time></trkpt><trkpt lat="41.1953484" lon="9.4577186"><ele>6.5</ele><time>2026-04-25T08:15:30.921Z</time></trkpt><trkpt lat="41.1952629" lon="9.4577256"><ele>7.0</ele><time>2026-04-25T08:15:31.925Z</time></trkpt><trkpt lat="41.1951809" lon="9.4577233"><ele>7.499999999999999</ele><time>2026-04-25T08:15:32.925Z</time></trkpt><trkpt lat="41.1950996" lon="9.4577215"><ele>8.0</ele><time>2026-04-25T08:15:33.924Z</time></trkpt><trkpt lat="41.1950166" lon="9.4577217"><ele>7.999999999999999</ele><time>2026-04-25T08:15:34.927Z</time></trkpt><trkpt lat="41.1949333" lon="9.4577271"><ele>8.0</ele><time>2026-04-25T08:15:35.927Z</time></trkpt><trkpt lat="41.1948519" lon="9.4577306"><ele>8.0</ele><time>2026-04-25T08:15:36.927Z</time></trkpt><trkpt lat="41.1947668" lon="9.4577337"><ele>8.0</ele><time>2026-04-25T08:15:37.931Z</time></trkpt><trkpt lat="41.1946741" lon="9.4577365"><ele>7.999999999999999</ele><time>2026-04-25T08:15:38.931Z</time></trkpt><trkpt lat="41.1945796" lon="9.4577364"><ele>8.0</ele><time>2026-04-25T08:15:39.925Z</time></trkpt><trkpt lat="41.194492" lon="9.457724"><ele>9.0</ele><time>2026-04-25T08:15:40.924Z</time></trkpt><trkpt lat="41.1944157" lon="9.4576838"><ele>10.0</ele><time>2026-04-25T08:15:41.921Z</time></trkpt><trkpt lat="41.1943514" lon="9.457611"><ele>11.0</ele><time>2026-04-25T08:15:42.925Z</time></trkpt><trkpt lat="41.1942889" lon="9.4575143"><ele>12.0</ele><time>2026-04-25T08:15:43.924Z</time></trkpt><trkpt lat="41.194228" lon="9.4573987"><ele>13.0</ele><time>2026-04-25T08:15:44.923Z</time></trkpt><trkpt lat="41.194172" lon="9.4572563"><ele>13.0</ele><time>2026-04-25T08:15:45.928Z</time></trkpt><trkpt lat="41.1941182" lon="9.4571058"><ele>13.0</ele><time>2026-04-25T08:15:46.93Z</time></trkpt><trkpt lat="41.1940621" lon="9.4569535"><ele>13.0</ele><time>2026-04-25T08:15:47.931Z</time></trkpt><trkpt lat="41.1940064" lon="9.4568036"><ele>13.0</ele><time>2026-04-25T08:15:48.942Z</time></trkpt><trkpt lat="41.1939556" lon="9.4566647"><ele>13.0</ele><time>2026-04-25T08:15:49.929Z</time></trkpt><trkpt lat="41.1939051" lon="9.4565341"><ele>13.0</ele><time>2026-04-25T08:15:50.93Z</time></trkpt><trkpt lat="41.1938532" lon="9.4564031"><ele>13.0</ele><time>2026-04-25T08:15:51.935Z</time></trkpt><trkpt lat="41.1938047" lon="9.4562781"><ele>13.0</ele><time>2026-04-25T08:15:52.931Z</time></trkpt><trkpt lat="41.1937547" lon="9.4561627"><ele>13.0</ele><time>2026-04-25T08:15:53.929Z</time></trkpt><trkpt lat="41.1937013" lon="9.4560639"><ele>12.8</ele><time>2026-04-25T08:15:54.926Z</time></trkpt><trkpt lat="41.1936469" lon="9.4559798"><ele>12.600000000000001</ele><time>2026-04-25T08:15:55.92Z</time></trkpt><trkpt lat="41.1935819" lon="9.4559195"><ele>12.399999999999999</ele><time>2026-04-25T08:15:56.925Z</time></trkpt><trkpt lat="41.1934879" lon="9.4559067"><ele>12.2</ele><time>2026-04-25T08:15:57.921Z</time></trkpt><trkpt lat="41.1933742" lon="9.4559176"><ele>12.0</ele><time>2026-04-25T08:15:58.922Z</time></trkpt><trkpt lat="41.1932351" lon="9.4559455"><ele>11.0</ele><time>2026-04-25T08:15:59.923Z</time></trkpt><trkpt lat="41.1931007" lon="9.4559606"><ele>10.0</ele><time>2026-04-25T08:16:00.924Z</time></trkpt><trkpt lat="41.1929594" lon="9.4559686"><ele>9.0</ele><time>2026-04-25T08:16:01.921Z</time></trkpt><trkpt lat="41.1928171" lon="9.4559742"><ele>8.0</ele><time>2026-04-25T08:16:02.929Z</time></trkpt><trkpt lat="41.1926778" lon="9.4559803"><ele>8.0</ele><time>2026-04-25T08:16:03.924Z</time></trkpt><trkpt lat="41.1925357" lon="9.4559864"><ele>8.0</ele><time>2026-04-25T08:16:04.928Z</time></trkpt><trkpt lat="41.1923913" lon="9.4559985"><ele>8.0</ele><time>2026-04-25T08:16:05.929Z</time></trkpt><trkpt lat="41.1922607" lon="9.4559995"><ele>8.0</ele><time>2026-04-25T08:16:06.928Z</time></trkpt><trkpt lat="41.1921216" lon="9.4560006"><ele>8.5</ele><time>2026-04-25T08:16:07.933Z</time></trkpt><trkpt lat="41.1919902" lon="9.4559963"><ele>9.0</ele><time>2026-04-25T08:16:08.928Z</time></trkpt><trkpt lat="41.1918598" lon="9.4560042"><ele>9.5</ele><time>2026-04-25T08:16:09.934Z</time></trkpt><trkpt lat="41.1917328" lon="9.4560193"><ele>10.0</ele><time>2026-04-25T08:16:10.933Z</time></trkpt><trkpt lat="41.1916274" lon="9.456018"><ele>10.0</ele><time>2026-04-25T08:16:11.937Z</time></trkpt><trkpt lat="41.1915232" lon="9.4560088"><ele>10.0</ele><time>2026-04-25T08:16:12.936Z</time></trkpt><trkpt lat="41.1914111" lon="9.4560165"><ele>10.0</ele><time>2026-04-25T08:16:13.935Z</time></trkpt><trkpt lat="41.1912825" lon="9.4560258"><ele>10.0</ele><time>2026-04-25T08:16:15.003Z</time></trkpt><trkpt lat="41.191146" lon="9.4560373"><ele>9.0</ele><time>2026-04-25T08:16:16.014Z</time></trkpt><trkpt lat="41.1910076" lon="9.4560533"><ele>8.0</ele><time>2026-04-25T08:16:17.009Z</time></trkpt><trkpt lat="41.1908671" lon="9.4560703"><ele>7.0</ele><time>2026-04-25T08:16:18.001Z</time></trkpt><trkpt lat="41.1907246" lon="9.4560902"><ele>6.0</ele><time>2026-04-25T08:16:19.019Z</time></trkpt><trkpt lat="41.1905817" lon="9.4561125"><ele>4.75</ele><time>2026-04-25T08:16:20.004Z</time></trkpt><trkpt lat="41.1904386" lon="9.4561322"><ele>3.5</ele><time>2026-04-25T08:16:21.011Z</time></trkpt><trkpt lat="41.1903003" lon="9.4561442"><ele>2.25</ele><time>2026-04-25T08:16:22.016Z</time></trkpt><trkpt lat="41.1901686" lon="9.4561479"><ele>1.0</ele><time>2026-04-25T08:16:23.012Z</time></trkpt><trkpt lat="41.1900376" lon="9.456154"><ele>1.0</ele><time>2026-04-25T08:16:24.007Z</time></trkpt><trkpt lat="41.189903" lon="9.4561633"><ele>1.0</ele><time>2026-04-25T08:16:25.006Z</time></trkpt><trkpt lat="41.1897786" lon="9.4561669"><ele>1.0</ele><time>2026-04-25T08:16:26.006Z</time></trkpt><trkpt lat="41.1896391" lon="9.4561894"><ele>1.0</ele><time>2026-04-25T08:16:27.015Z</time></trkpt><trkpt lat="41.1894964" lon="9.4562155"><ele>1.0</ele><time>2026-04-25T08:16:28.01Z</time></trkpt><trkpt lat="41.1893557" lon="9.4562358"><ele>1.0</ele><time>2026-04-25T08:16:29.012Z</time></trkpt><trkpt lat="41.1892209" lon="9.4562446"><ele>1.0</ele><time>2026-04-25T08:16:30.005Z</time></trkpt><trkpt lat="41.1890859" lon="9.456241"><ele>1.0</ele><time>2026-04-25T08:16:31.002Z</time></trkpt><trkpt lat="41.18895" lon="9.4562256"><ele>1.25</ele><time>2026-04-25T08:16:32.005Z</time></trkpt><trkpt lat="41.188822" lon="9.4562073"><ele>1.5</ele><time>2026-04-25T08:16:32.991Z</time></trkpt><trkpt lat="41.1886971" lon="9.4562001"><ele>1.75</ele><time>2026-04-25T08:16:33.992Z</time></trkpt><trkpt lat="41.1885734" lon="9.4562051"><ele>2.0</ele><time>2026-04-25T08:16:34.993Z</time></trkpt><trkpt lat="41.1884526" lon="9.456229"><ele>2.0</ele><time>2026-04-25T08:16:35.993Z</time></trkpt><trkpt lat="41.1883236" lon="9.4562808"><ele>2.0</ele><time>2026-04-25T08:16:37.002Z</time></trkpt><trkpt lat="41.1881915" lon="9.4563273"><ele>2.0</ele><time>2026-04-25T08:16:38.012Z</time></trkpt><trkpt lat="41.1880569" lon="9.456374"><ele>2.0</ele><time>2026-04-25T08:16:39.008Z</time></trkpt><trkpt lat="41.1879195" lon="9.4564207"><ele>2.5</ele><time>2026-04-25T08:16:40.012Z</time></trkpt><trkpt lat="41.1877846" lon="9.4564664"><ele>3.0</ele><time>2026-04-25T08:16:41.005Z</time></trkpt><trkpt lat="41.1876531" lon="9.456502"><ele>3.5</ele><time>2026-04-25T08:16:42.001Z</time></trkpt><trkpt lat="41.1875216" lon="9.456518"><ele>4.0</ele><time>2026-04-25T08:16:43.003Z</time></trkpt><trkpt lat="41.1873968" lon="9.4565087"><ele>4.75</ele><time>2026-04-25T08:16:43.987Z</time></trkpt><trkpt lat="41.1872738" lon="9.4564765"><ele>5.5</ele><time>2026-04-25T08:16:44.989Z</time></trkpt><trkpt lat="41.1871629" lon="9.4564526"><ele>6.25</ele><time>2026-04-25T08:16:45.989Z</time></trkpt><trkpt lat="41.1870546" lon="9.45646"><ele>7.0</ele><time>2026-04-25T08:16:46.991Z</time></trkpt><trkpt lat="41.1869263" lon="9.4564484"><ele>7.0</ele><time>2026-04-25T08:16:47.915Z</time></trkpt><trkpt lat="41.1867949" lon="9.4564623"><ele>7.0</ele><time>2026-04-25T08:16:48.918Z</time></trkpt><trkpt lat="41.1866633" lon="9.4564898"><ele>7.0</ele><time>2026-04-25T08:16:49.926Z</time></trkpt><trkpt lat="41.186538" lon="9.4565214"><ele>7.0</ele><time>2026-04-25T08:16:50.917Z</time></trkpt><trkpt lat="41.1864146" lon="9.4565604"><ele>8.0</ele><time>2026-04-25T08:16:51.923Z</time></trkpt><trkpt lat="41.1862875" lon="9.4566018"><ele>9.0</ele><time>2026-04-25T08:16:52.914Z</time></trkpt><trkpt lat="41.1861647" lon="9.4566346"><ele>10.0</ele><time>2026-04-25T08:16:53.917Z</time></trkpt><trkpt lat="41.1860453" lon="9.4566563"><ele>11.0</ele><time>2026-04-25T08:16:54.913Z</time></trkpt><trkpt lat="41.1859319" lon="9.4566608"><ele>11.0</ele><time>2026-04-25T08:16:55.917Z</time></trkpt><trkpt lat="41.185829" lon="9.456655"><ele>11.0</ele><time>2026-04-25T08:16:56.921Z</time></trkpt><trkpt lat="41.1857292" lon="9.4566379"><ele>11.0</ele><time>2026-04-25T08:16:57.915Z</time></trkpt><trkpt lat="41.1856344" lon="9.4566121"><ele>11.0</ele><time>2026-04-25T08:16:58.91Z</time></trkpt><trkpt lat="41.1855503" lon="9.4565794"><ele>11.0</ele><time>2026-04-25T08:16:59.919Z</time></trkpt><trkpt lat="41.1854683" lon="9.4565553"><ele>10.833333333333332</ele><time>2026-04-25T08:17:00.912Z</time></trkpt><trkpt lat="41.1853898" lon="9.4565394"><ele>10.666666666666666</ele><time>2026-04-25T08:17:01.909Z</time></trkpt><trkpt lat="41.1853117" lon="9.4565488"><ele>10.5</ele><time>2026-04-25T08:17:02.915Z</time></trkpt><trkpt lat="41.1852455" lon="9.4565898"><ele>10.333333333333334</ele><time>2026-04-25T08:17:03.916Z</time></trkpt><trkpt lat="41.1851638" lon="9.456668"><ele>10.166666666666668</ele><time>2026-04-25T08:17:04.915Z</time></trkpt><trkpt lat="41.185085" lon="9.4567506"><ele>10.0</ele><time>2026-04-25T08:17:05.913Z</time></trkpt><trkpt lat="41.1850205" lon="9.4568271"><ele>10.0</ele><time>2026-04-25T08:17:06.919Z</time></trkpt><trkpt lat="41.1849616" lon="9.4569193"><ele>10.0</ele><time>2026-04-25T08:17:07.908Z</time></trkpt><trkpt lat="41.1849051" lon="9.4570269"><ele>10.0</ele><time>2026-04-25T08:17:08.913Z</time></trkpt><trkpt lat="41.1848532" lon="9.457154"><ele>10.0</ele><time>2026-04-25T08:17:09.9Z</time></trkpt><trkpt lat="41.1848165" lon="9.457279"><ele>10.0</ele><time>2026-04-25T08:17:10.904Z</time></trkpt><trkpt lat="41.1847905" lon="9.4573979"><ele>10.2</ele><time>2026-04-25T08:17:11.901Z</time></trkpt><trkpt lat="41.1847643" lon="9.4575118"><ele>10.4</ele><time>2026-04-25T08:17:12.904Z</time></trkpt><trkpt lat="41.1847268" lon="9.4576179"><ele>10.600000000000001</ele><time>2026-04-25T08:17:13.902Z</time></trkpt><trkpt lat="41.1846913" lon="9.4577059"><ele>10.8</ele><time>2026-04-25T08:17:14.896Z</time></trkpt><trkpt lat="41.1846568" lon="9.4577794"><ele>11.0</ele><time>2026-04-25T08:17:15.904Z</time></trkpt><trkpt lat="41.1845192" lon="9.4577551"><ele>11.0</ele><time>2026-04-25T08:17:17.901Z</time></trkpt><trkpt lat="41.1844307" lon="9.4576858"><ele>11.0</ele><time>2026-04-25T08:17:18.907Z</time></trkpt><trkpt lat="41.1843468" lon="9.4576555"><ele>11.0</ele><time>2026-04-25T08:17:19.908Z</time></trkpt><trkpt lat="41.1842658" lon="9.4576503"><ele>11.0</ele><time>2026-04-25T08:17:20.915Z</time></trkpt><trkpt lat="41.1841804" lon="9.4576608"><ele>11.0</ele><time>2026-04-25T08:17:21.902Z</time></trkpt><trkpt lat="41.1840959" lon="9.4577161"><ele>11.0</ele><time>2026-04-25T08:17:22.913Z</time></trkpt><trkpt lat="41.1840139" lon="9.4578117"><ele>11.0</ele><time>2026-04-25T08:17:23.903Z</time></trkpt><trkpt lat="41.1839182" lon="9.4579202"><ele>11.0</ele><time>2026-04-25T08:17:24.903Z</time></trkpt><trkpt lat="41.1838175" lon="9.4580197"><ele>11.0</ele><time>2026-04-25T08:17:25.905Z</time></trkpt><trkpt lat="41.1837218" lon="9.4580907"><ele>12.4</ele><time>2026-04-25T08:17:26.912Z</time></trkpt><trkpt lat="41.1836176" lon="9.4581522"><ele>13.8</ele><time>2026-04-25T08:17:27.906Z</time></trkpt><trkpt lat="41.1835177" lon="9.4582131"><ele>15.200000000000001</ele><time>2026-04-25T08:17:28.908Z</time></trkpt><trkpt lat="41.1834235" lon="9.4582679"><ele>16.6</ele><time>2026-04-25T08:17:29.907Z</time></trkpt><trkpt lat="41.1833314" lon="9.4583238"><ele>18.0</ele><time>2026-04-25T08:17:30.907Z</time></trkpt><trkpt lat="41.1832418" lon="9.4583935"><ele>16.833333333333332</ele><time>2026-04-25T08:17:31.918Z</time></trkpt><trkpt lat="41.1831554" lon="9.4584637"><ele>15.666666666666666</ele><time>2026-04-25T08:17:32.918Z</time></trkpt><trkpt lat="41.1830788" lon="9.458542"><ele>14.5</ele><time>2026-04-25T08:17:33.916Z</time></trkpt><trkpt lat="41.1830194" lon="9.458624"><ele>13.333333333333332</ele><time>2026-04-25T08:17:34.913Z</time></trkpt><trkpt lat="41.1829725" lon="9.4587139"><ele>12.166666666666666</ele><time>2026-04-25T08:17:35.91Z</time></trkpt><trkpt lat="41.1829364" lon="9.4588104"><ele>11.0</ele><time>2026-04-25T08:17:36.913Z</time></trkpt><trkpt lat="41.1829139" lon="9.458906"><ele>10.833333333333332</ele><time>2026-04-25T08:17:37.921Z</time></trkpt><trkpt lat="41.1829029" lon="9.4589934"><ele>10.666666666666666</ele><time>2026-04-25T08:17:38.912Z</time></trkpt><trkpt lat="41.1829037" lon="9.4591417"><ele>10.5</ele><time>2026-04-25T08:17:40.916Z</time></trkpt><trkpt lat="41.1829189" lon="9.4592257"><ele>10.333333333333334</ele><time>2026-04-25T08:17:41.915Z</time></trkpt><trkpt lat="41.1829417" lon="9.4593216"><ele>10.166666666666668</ele><time>2026-04-25T08:17:42.913Z</time></trkpt><trkpt lat="41.1829708" lon="9.4594137"><ele>10.0</ele><time>2026-04-25T08:17:43.912Z</time></trkpt><trkpt lat="41.1830052" lon="9.4594886"><ele>10.0</ele><time>2026-04-25T08:17:44.916Z</time></trkpt><trkpt lat="41.1831056" lon="9.4595759"><ele>10.0</ele><time>2026-04-25T08:17:46.914Z</time></trkpt><trkpt lat="41.1831644" lon="9.4596221"><ele>10.0</ele><time>2026-04-25T08:17:47.916Z</time></trkpt><trkpt lat="41.1832356" lon="9.4597432"><ele>10.0</ele><time>2026-04-25T08:17:49.912Z</time></trkpt><trkpt lat="41.1832692" lon="9.4598778"><ele>10.0</ele><time>2026-04-25T08:17:51.916Z</time></trkpt><trkpt lat="41.1831871" lon="9.460009"><ele>10.2</ele><time>2026-04-25T08:17:53.908Z</time></trkpt><trkpt lat="41.1831116" lon="9.4600547"><ele>10.4</ele><time>2026-04-25T08:17:54.911Z</time></trkpt><trkpt lat="41.1830385" lon="9.4600933"><ele>10.600000000000001</ele><time>2026-04-25T08:17:55.918Z</time></trkpt><trkpt lat="41.1829794" lon="9.4601367"><ele>10.8</ele><time>2026-04-25T08:17:56.913Z</time></trkpt><trkpt lat="41.1829027" lon="9.4602352"><ele>11.0</ele><time>2026-04-25T08:17:58.917Z</time></trkpt><trkpt lat="41.1828605" lon="9.4603778"><ele>11.25</ele><time>2026-04-25T08:18:00.913Z</time></trkpt><trkpt lat="41.1828348" lon="9.4605218"><ele>11.5</ele><time>2026-04-25T08:18:02.921Z</time></trkpt><trkpt lat="41.182812" lon="9.460671"><ele>11.75</ele><time>2026-04-25T08:18:04.918Z</time></trkpt><trkpt lat="41.182794" lon="9.460839"><ele>12.0</ele><time>2026-04-25T08:18:06.919Z</time></trkpt><trkpt lat="41.1828168" lon="9.460996"><ele>11.999999999999998</ele><time>2026-04-25T08:18:08.916Z</time></trkpt><trkpt lat="41.1828431" lon="9.4610746"><ele>12.0</ele><time>2026-04-25T08:18:09.917Z</time></trkpt><trkpt lat="41.1828694" lon="9.4611602"><ele>12.0</ele><time>2026-04-25T08:18:10.916Z</time></trkpt><trkpt lat="41.1828893" lon="9.4612495"><ele>12.0</ele><time>2026-04-25T08:18:11.916Z</time></trkpt><trkpt lat="41.1829117" lon="9.4613307"><ele>12.0</ele><time>2026-04-25T08:18:12.914Z</time></trkpt><trkpt lat="41.1829362" lon="9.4614123"><ele>11.999999999999998</ele><time>2026-04-25T08:18:13.912Z</time></trkpt><trkpt lat="41.1829562" lon="9.461492"><ele>12.0</ele><time>2026-04-25T08:18:14.912Z</time></trkpt><trkpt lat="41.1829752" lon="9.4615725"><ele>10.714285714285714</ele><time>2026-04-25T08:18:15.914Z</time></trkpt><trkpt lat="41.1829959" lon="9.4616629"><ele>9.428571428571429</ele><time>2026-04-25T08:18:16.917Z</time></trkpt><trkpt lat="41.1830193" lon="9.461744"><ele>8.142857142857142</ele><time>2026-04-25T08:18:17.918Z</time></trkpt><trkpt lat="41.1830396" lon="9.4618297"><ele>6.857142857142857</ele><time>2026-04-25T08:18:18.916Z</time></trkpt><trkpt lat="41.1830597" lon="9.4619197"><ele>5.571428571428571</ele><time>2026-04-25T08:18:19.916Z</time></trkpt><trkpt lat="41.183086" lon="9.4620139"><ele>4.285714285714286</ele><time>2026-04-25T08:18:20.916Z</time></trkpt><trkpt lat="41.183115" lon="9.4621189"><ele>3.0</ele><time>2026-04-25T08:18:21.912Z</time></trkpt><trkpt lat="41.1831412" lon="9.462223"><ele>2.714285714285714</ele><time>2026-04-25T08:18:22.918Z</time></trkpt><trkpt lat="41.1831656" lon="9.4623243"><ele>2.4285714285714284</ele><time>2026-04-25T08:18:23.914Z</time></trkpt><trkpt lat="41.1831878" lon="9.4624231"><ele>2.142857142857143</ele><time>2026-04-25T08:18:24.913Z</time></trkpt><trkpt lat="41.1832098" lon="9.4625136"><ele>1.857142857142857</ele><time>2026-04-25T08:18:25.908Z</time></trkpt><trkpt lat="41.1832354" lon="9.4626021"><ele>1.5714285714285712</ele><time>2026-04-25T08:18:26.913Z</time></trkpt><trkpt lat="41.1832562" lon="9.4626861"><ele>1.2857142857142856</ele><time>2026-04-25T08:18:27.915Z</time></trkpt><trkpt lat="41.1832741" lon="9.4627726"><ele>1.0</ele><time>2026-04-25T08:18:28.92Z</time></trkpt><trkpt lat="41.183283" lon="9.4628606"><ele>1.0</ele><time>2026-04-25T08:18:29.919Z</time></trkpt><trkpt lat="41.1832782" lon="9.4629471"><ele>1.0</ele><time>2026-04-25T08:18:30.912Z</time></trkpt><trkpt lat="41.1832571" lon="9.4630916"><ele>1.0</ele><time>2026-04-25T08:18:32.923Z</time></trkpt><trkpt lat="41.1832207" lon="9.4632243"><ele>1.0</ele><time>2026-04-25T08:18:34.926Z</time></trkpt><trkpt lat="41.1831751" lon="9.4633507"><ele>1.0</ele><time>2026-04-25T08:18:36.926Z</time></trkpt><trkpt lat="41.1831332" lon="9.4634674"><ele>0.8333333333333333</ele><time>2026-04-25T08:18:38.925Z</time></trkpt><trkpt lat="41.1830923" lon="9.4635802"><ele>0.6666666666666666</ele><time>2026-04-25T08:18:40.922Z</time></trkpt><trkpt lat="41.1830644" lon="9.463672"><ele>0.5</ele><time>2026-04-25T08:18:42.926Z</time></trkpt><trkpt lat="41.1830335" lon="9.4637713"><ele>0.3333333333333333</ele><time>2026-04-25T08:18:44.929Z</time></trkpt><trkpt lat="41.1829799" lon="9.4638638"><ele>0.16666666666666666</ele><time>2026-04-25T08:18:46.93Z</time></trkpt><trkpt lat="41.182924" lon="9.4639059"><ele>0.0</ele><time>2026-04-25T08:18:48.927Z</time></trkpt><trkpt lat="41.1828298" lon="9.4639107"><ele>0.4</ele><time>2026-04-25T08:18:50.93Z</time></trkpt><trkpt lat="41.1827294" lon="9.4638793"><ele>0.8</ele><time>2026-04-25T08:18:52.923Z</time></trkpt><trkpt lat="41.1826285" lon="9.4638642"><ele>1.2000000000000002</ele><time>2026-04-25T08:18:54.92Z</time></trkpt><trkpt lat="41.1825315" lon="9.4638536"><ele>1.6</ele><time>2026-04-25T08:18:56.93Z</time></trkpt><trkpt lat="41.1824255" lon="9.4638498"><ele>2.0</ele><time>2026-04-25T08:18:58.923Z</time></trkpt><trkpt lat="41.182315" lon="9.4638406"><ele>2.0</ele><time>2026-04-25T08:19:00.919Z</time></trkpt><trkpt lat="41.1822136" lon="9.4638344"><ele>2.0</ele><time>2026-04-25T08:19:02.915Z</time></trkpt><trkpt lat="41.1821075" lon="9.4638869"><ele>2.0</ele><time>2026-04-25T08:19:04.913Z</time></trkpt><trkpt lat="41.1820003" lon="9.4639409"><ele>2.0</ele><time>2026-04-25T08:19:06.918Z</time></trkpt><trkpt lat="41.1819124" lon="9.4640098"><ele>2.0</ele><time>2026-04-25T08:19:08.918Z</time></trkpt><trkpt lat="41.1818264" lon="9.4640518"><ele>1.9999999999999998</ele><time>2026-04-25T08:19:10.911Z</time></trkpt><trkpt lat="41.1817508" lon="9.4640837"><ele>2.0</ele><time>2026-04-25T08:19:12.919Z</time></trkpt><trkpt lat="41.1816943" lon="9.4641262"><ele>2.0</ele><time>2026-04-25T08:19:14.922Z</time></trkpt><trkpt lat="41.1816694" lon="9.4642078"><ele>2.0</ele><time>2026-04-25T08:19:16.922Z</time></trkpt><trkpt lat="41.1816971" lon="9.4643376"><ele>1.9999999999999998</ele><time>2026-04-25T08:19:19.917Z</time></trkpt><trkpt lat="41.1817421" lon="9.4644222"><ele>2.0</ele><time>2026-04-25T08:19:21.92Z</time></trkpt><trkpt lat="41.1817827" lon="9.4645169"><ele>1.8</ele><time>2026-04-25T08:19:23.918Z</time></trkpt><trkpt lat="41.1818139" lon="9.4646259"><ele>1.6</ele><time>2026-04-25T08:19:25.92Z</time></trkpt><trkpt lat="41.1818397" lon="9.4647631"><ele>1.4000000000000001</ele><time>2026-04-25T08:19:27.919Z</time></trkpt><trkpt lat="41.1818768" lon="9.4648929"><ele>1.2000000000000002</ele><time>2026-04-25T08:19:29.913Z</time></trkpt><trkpt lat="41.1818975" lon="9.4650023"><ele>1.0</ele><time>2026-04-25T08:19:31.918Z</time></trkpt><trkpt lat="41.1819083" lon="9.4651221"><ele>1.0</ele><time>2026-04-25T08:19:33.913Z</time></trkpt><trkpt lat="41.1819187" lon="9.4652407"><ele>1.0</ele><time>2026-04-25T08:19:35.913Z</time></trkpt><trkpt lat="41.1819325" lon="9.4653434"><ele>1.0</ele><time>2026-04-25T08:19:37.918Z</time></trkpt><trkpt lat="41.1819613" lon="9.465463"><ele>1.0</ele><time>2026-04-25T08:19:39.914Z</time></trkpt><trkpt lat="41.1819755" lon="9.4655852"><ele>1.0</ele><time>2026-04-25T08:19:41.916Z</time></trkpt><trkpt lat="41.1819693" lon="9.4657361"><ele>0.8</ele><time>2026-04-25T08:19:43.911Z</time></trkpt><trkpt lat="41.1819819" lon="9.4658896"><ele>0.6000000000000001</ele><time>2026-04-25T08:19:45.914Z</time></trkpt><trkpt lat="41.1820208" lon="9.4660326"><ele>0.4</ele><time>2026-04-25T08:19:47.912Z</time></trkpt><trkpt lat="41.182063" lon="9.4661768"><ele>0.2</ele><time>2026-04-25T08:19:49.92Z</time></trkpt><trkpt lat="41.1820773" lon="9.4663012"><ele>0.0</ele><time>2026-04-25T08:19:51.918Z</time></trkpt><trkpt lat="41.1820716" lon="9.4664204"><ele>0.4</ele><time>2026-04-25T08:19:53.915Z</time></trkpt><trkpt lat="41.182066" lon="9.4665457"><ele>0.8</ele><time>2026-04-25T08:19:55.918Z</time></trkpt><trkpt lat="41.1820402" lon="9.4666836"><ele>1.2000000000000002</ele><time>2026-04-25T08:19:57.914Z</time></trkpt><trkpt lat="41.1819807" lon="9.4668078"><ele>1.6</ele><time>2026-04-25T08:19:59.92Z</time></trkpt><trkpt lat="41.1819054" lon="9.4669316"><ele>2.0</ele><time>2026-04-25T08:20:01.917Z</time></trkpt><trkpt lat="41.1818609" lon="9.4670002"><ele>1.9999999999999998</ele><time>2026-04-25T08:20:02.913Z</time></trkpt><trkpt lat="41.1818135" lon="9.4670768"><ele>2.0</ele><time>2026-04-25T08:20:03.91Z</time></trkpt><trkpt lat="41.1817732" lon="9.4671568"><ele>2.0</ele><time>2026-04-25T08:20:04.91Z</time></trkpt><trkpt lat="41.1817514" lon="9.4672425"><ele>2.0</ele><time>2026-04-25T08:20:05.911Z</time></trkpt><trkpt lat="41.1817605" lon="9.4674031"><ele>1.9999999999999998</ele><time>2026-04-25T08:20:07.915Z</time></trkpt><trkpt lat="41.1817639" lon="9.4674885"><ele>2.0</ele><time>2026-04-25T08:20:08.915Z</time></trkpt><trkpt lat="41.1817464" lon="9.4676409"><ele>2.6666666666666665</ele><time>2026-04-25T08:20:10.915Z</time></trkpt><trkpt lat="41.1816943" lon="9.4677852"><ele>3.333333333333333</ele><time>2026-04-25T08:20:12.906Z</time></trkpt><trkpt lat="41.1816473" lon="9.4678552"><ele>4.0</ele><time>2026-04-25T08:20:13.911Z</time></trkpt><trkpt lat="41.1815918" lon="9.4679165"><ele>4.666666666666667</ele><time>2026-04-25T08:20:14.914Z</time></trkpt><trkpt lat="41.1815364" lon="9.4679797"><ele>5.333333333333333</ele><time>2026-04-25T08:20:15.912Z</time></trkpt><trkpt lat="41.1814972" lon="9.4680572"><ele>6.0</ele><time>2026-04-25T08:20:16.914Z</time></trkpt><trkpt lat="41.1814682" lon="9.4681409"><ele>6.0</ele><time>2026-04-25T08:20:17.912Z</time></trkpt><trkpt lat="41.1814504" lon="9.4682264"><ele>6.0</ele><time>2026-04-25T08:20:18.911Z</time></trkpt><trkpt lat="41.1814375" lon="9.468316"><ele>6.0</ele><time>2026-04-25T08:20:19.909Z</time></trkpt><trkpt lat="41.1814279" lon="9.4684059"><ele>6.0</ele><time>2026-04-25T08:20:20.909Z</time></trkpt><trkpt lat="41.1814207" lon="9.4684959"><ele>6.0</ele><time>2026-04-25T08:20:21.926Z</time></trkpt><trkpt lat="41.1814129" lon="9.4686503"><ele>6.0</ele><time>2026-04-25T08:20:23.92Z</time></trkpt><trkpt lat="41.1813942" lon="9.4687865"><ele>5.8</ele><time>2026-04-25T08:20:25.921Z</time></trkpt><trkpt lat="41.1813355" lon="9.4689046"><ele>5.6</ele><time>2026-04-25T08:20:27.924Z</time></trkpt><trkpt lat="41.1812367" lon="9.4689838"><ele>5.4</ele><time>2026-04-25T08:20:29.925Z</time></trkpt><trkpt lat="41.1811717" lon="9.4690076"><ele>5.2</ele><time>2026-04-25T08:20:30.926Z</time></trkpt><trkpt lat="41.1810531" lon="9.4690574"><ele>5.0</ele><time>2026-04-25T08:20:32.925Z</time></trkpt><trkpt lat="41.1809614" lon="9.4691277"><ele>5.0</ele><time>2026-04-25T08:20:34.926Z</time></trkpt><trkpt lat="41.1808798" lon="9.469226"><ele>5.0</ele><time>2026-04-25T08:20:36.928Z</time></trkpt><trkpt lat="41.1807969" lon="9.4693443"><ele>5.0</ele><time>2026-04-25T08:20:38.929Z</time></trkpt><trkpt lat="41.1807438" lon="9.469401"><ele>5.0</ele><time>2026-04-25T08:20:39.926Z</time></trkpt><trkpt lat="41.1806891" lon="9.4694442"><ele>5.0</ele><time>2026-04-25T08:20:40.93Z</time></trkpt><trkpt lat="41.1805781" lon="9.4695006"><ele>5.4</ele><time>2026-04-25T08:20:42.927Z</time></trkpt><trkpt lat="41.1804751" lon="9.4695565"><ele>5.8</ele><time>2026-04-25T08:20:44.927Z</time></trkpt><trkpt lat="41.1803761" lon="9.4696075"><ele>6.199999999999999</ele><time>2026-04-25T08:20:46.933Z</time></trkpt><trkpt lat="41.1802668" lon="9.4696364"><ele>6.6</ele><time>2026-04-25T08:20:48.931Z</time></trkpt><trkpt lat="41.1801604" lon="9.4696286"><ele>7.0</ele><time>2026-04-25T08:20:50.935Z</time></trkpt><trkpt lat="41.1800436" lon="9.4696141"><ele>6.3999999999999995</ele><time>2026-04-25T08:20:52.937Z</time></trkpt><trkpt lat="41.1799411" lon="9.4696023"><ele>5.799999999999999</ele><time>2026-04-25T08:20:54.936Z</time></trkpt><trkpt lat="41.1798473" lon="9.4695735"><ele>5.2</ele><time>2026-04-25T08:20:56.931Z</time></trkpt><trkpt lat="41.1797501" lon="9.469592"><ele>4.6</ele><time>2026-04-25T08:20:58.941Z</time></trkpt><trkpt lat="41.1796512" lon="9.4696498"><ele>4.0</ele><time>2026-04-25T08:21:00.938Z</time></trkpt><trkpt lat="41.1795458" lon="9.4697091"><ele>3.9999999999999996</ele><time>2026-04-25T08:21:02.932Z</time></trkpt><trkpt lat="41.1794619" lon="9.4697637"><ele>4.0</ele><time>2026-04-25T08:21:04.928Z</time></trkpt><trkpt lat="41.1793942" lon="9.4697895"><ele>4.0</ele><time>2026-04-25T08:21:06.935Z</time></trkpt><trkpt lat="41.1793074" lon="9.4697867"><ele>4.0</ele><time>2026-04-25T08:21:09.936Z</time></trkpt><trkpt lat="41.1792196" lon="9.4697851"><ele>3.9999999999999996</ele><time>2026-04-25T08:21:12.927Z</time></trkpt><trkpt lat="41.1791534" lon="9.4697885"><ele>4.0</ele><time>2026-04-25T08:21:13.927Z</time></trkpt><trkpt lat="41.1790783" lon="9.4697914"><ele>4.0</ele><time>2026-04-25T08:21:14.93Z</time></trkpt><trkpt lat="41.1790077" lon="9.4697972"><ele>4.0</ele><time>2026-04-25T08:21:15.926Z</time></trkpt><trkpt lat="41.1788926" lon="9.4698073"><ele>4.0</ele><time>2026-04-25T08:21:17.929Z</time></trkpt><trkpt lat="41.178779" lon="9.469815"><ele>4.0</ele><time>2026-04-25T08:21:19.926Z</time></trkpt><trkpt lat="41.1787173" lon="9.4698359"><ele>4.0</ele><time>2026-04-25T08:21:20.929Z</time></trkpt><trkpt lat="41.1786004" lon="9.4698546"><ele>4.0</ele><time>2026-04-25T08:21:22.925Z</time></trkpt><trkpt lat="41.1784849" lon="9.4698579"><ele>4.0</ele><time>2026-04-25T08:21:24.931Z</time></trkpt><trkpt lat="41.1783764" lon="9.469865"><ele>4.0</ele><time>2026-04-25T08:21:26.932Z</time></trkpt><trkpt lat="41.1782734" lon="9.4698635"><ele>4.0</ele><time>2026-04-25T08:21:28.937Z</time></trkpt><trkpt lat="41.1781643" lon="9.4698652"><ele>4.0</ele><time>2026-04-25T08:21:30.927Z</time></trkpt><trkpt lat="41.1780524" lon="9.4698609"><ele>3.8000000000000003</ele><time>2026-04-25T08:21:32.925Z</time></trkpt><trkpt lat="41.177941" lon="9.4698662"><ele>3.6000000000000005</ele><time>2026-04-25T08:21:34.921Z</time></trkpt><trkpt lat="41.1778344" lon="9.4698638"><ele>3.4</ele><time>2026-04-25T08:21:36.924Z</time></trkpt><trkpt lat="41.1777391" lon="9.4698686"><ele>3.2</ele><time>2026-04-25T08:21:38.928Z</time></trkpt><trkpt lat="41.1776531" lon="9.4698793"><ele>3.0</ele><time>2026-04-25T08:21:40.927Z</time></trkpt><trkpt lat="41.1775573" lon="9.4698852"><ele>3.0</ele><time>2026-04-25T08:21:42.926Z</time></trkpt><trkpt lat="41.1774683" lon="9.4698944"><ele>3.0</ele><time>2026-04-25T08:21:44.928Z</time></trkpt><trkpt lat="41.1773778" lon="9.4698965"><ele>3.0</ele><time>2026-04-25T08:21:46.929Z</time></trkpt><trkpt lat="41.1772891" lon="9.4698891"><ele>3.0</ele><time>2026-04-25T08:21:48.897Z</time></trkpt><trkpt lat="41.1772216" lon="9.4698964"><ele>3.0</ele><time>2026-04-25T08:21:50.929Z</time></trkpt><trkpt lat="41.1771468" lon="9.4699025"><ele>3.0</ele><time>2026-04-25T08:21:53.929Z</time></trkpt><trkpt lat="41.1770509" lon="9.4699182"><ele>3.2</ele><time>2026-04-25T08:22:17.93Z</time></trkpt><trkpt lat="41.1769629" lon="9.4699343"><ele>3.4</ele><time>2026-04-25T08:22:19.937Z</time></trkpt><trkpt lat="41.1768515" lon="9.4699506"><ele>3.6000000000000005</ele><time>2026-04-25T08:22:21.942Z</time></trkpt><trkpt lat="41.1767523" lon="9.4699218"><ele>3.8000000000000003</ele><time>2026-04-25T08:22:23.921Z</time></trkpt><trkpt lat="41.176679" lon="9.4698418"><ele>4.0</ele><time>2026-04-25T08:22:25.892Z</time></trkpt><trkpt lat="41.1766032" lon="9.4697583"><ele>3.9999999999999996</ele><time>2026-04-25T08:22:27.931Z</time></trkpt><trkpt lat="41.1765155" lon="9.4697104"><ele>4.0</ele><time>2026-04-25T08:22:29.926Z</time></trkpt><trkpt lat="41.1764295" lon="9.4696883"><ele>4.0</ele><time>2026-04-25T08:22:31.928Z</time></trkpt><trkpt lat="41.1763461" lon="9.4696611"><ele>4.0</ele><time>2026-04-25T08:22:33.93Z</time></trkpt><trkpt lat="41.1762765" lon="9.4696091"><ele>3.9999999999999996</ele><time>2026-04-25T08:22:35.893Z</time></trkpt><trkpt lat="41.1762423" lon="9.4695349"><ele>4.0</ele><time>2026-04-25T08:22:37.926Z</time></trkpt><trkpt lat="41.1762063" lon="9.469459"><ele>3.9999999999999996</ele><time>2026-04-25T08:22:39.931Z</time></trkpt><trkpt lat="41.1761799" lon="9.469368"><ele>4.0</ele><time>2026-04-25T08:22:41.93Z</time></trkpt><trkpt lat="41.1761454" lon="9.4692686"><ele>4.0</ele><time>2026-04-25T08:22:43.935Z</time></trkpt><trkpt lat="41.1760985" lon="9.4691701"><ele>4.0</ele><time>2026-04-25T08:22:45.936Z</time></trkpt><trkpt lat="41.1760458" lon="9.469086"><ele>3.9999999999999996</ele><time>2026-04-25T08:22:47.928Z</time></trkpt><trkpt lat="41.1759886" lon="9.4690284"><ele>4.0</ele><time>2026-04-25T08:22:49.933Z</time></trkpt><trkpt lat="41.1759127" lon="9.4689945"><ele>3.9999999999999996</ele><time>2026-04-25T08:22:51.932Z</time></trkpt><trkpt lat="41.1758186" lon="9.4690069"><ele>4.0</ele><time>2026-04-25T08:22:53.937Z</time></trkpt><trkpt lat="41.1757348" lon="9.4690162"><ele>4.0</ele><time>2026-04-25T08:22:55.937Z</time></trkpt><trkpt lat="41.1756592" lon="9.4690026"><ele>4.0</ele><time>2026-04-25T08:22:57.936Z</time></trkpt><trkpt lat="41.1755852" lon="9.4689984"><ele>3.9999999999999996</ele><time>2026-04-25T08:22:59.934Z</time></trkpt><trkpt lat="41.1755177" lon="9.4690146"><ele>4.0</ele><time>2026-04-25T08:23:01.779Z</time></trkpt><trkpt lat="41.1754564" lon="9.4690457"><ele>3.9999999999999996</ele><time>2026-04-25T08:23:03.926Z</time></trkpt><trkpt lat="41.1753819" lon="9.4690654"><ele>4.0</ele><time>2026-04-25T08:23:06.935Z</time></trkpt><trkpt lat="41.1754294" lon="9.4691323"><ele>4.0</ele><time>2026-04-25T08:23:12.924Z</time></trkpt><trkpt lat="41.1754835" lon="9.4690831"><ele>4.0</ele><time>2026-04-25T08:23:14.921Z</time></trkpt><trkpt lat="41.1755596" lon="9.4690348"><ele>3.9999999999999996</ele><time>2026-04-25T08:23:16.927Z</time></trkpt><trkpt lat="41.1756428" lon="9.4690142"><ele>4.0</ele><time>2026-04-25T08:23:18.921Z</time></trkpt><trkpt lat="41.1757485" lon="9.4690133"><ele>4.0</ele><time>2026-04-25T08:23:20.919Z</time></trkpt><trkpt lat="41.1758509" lon="9.4690316"><ele>4.0</ele><time>2026-04-25T08:23:22.923Z</time></trkpt><trkpt lat="41.1759486" lon="9.4690586"><ele>4.0</ele><time>2026-04-25T08:23:24.926Z</time></trkpt><trkpt lat="41.1760277" lon="9.4691221"><ele>4.0</ele><time>2026-04-25T08:23:26.927Z</time></trkpt><trkpt lat="41.1760942" lon="9.469211"><ele>4.0</ele><time>2026-04-25T08:23:28.929Z</time></trkpt><trkpt lat="41.1761633" lon="9.4693174"><ele>4.0</ele><time>2026-04-25T08:23:30.928Z</time></trkpt><trkpt lat="41.1762315" lon="9.4694347"><ele>4.0</ele><time>2026-04-25T08:23:32.93Z</time></trkpt><trkpt lat="41.1762989" lon="9.4695419"><ele>4.0</ele><time>2026-04-25T08:23:34.93Z</time></trkpt><trkpt lat="41.176373" lon="9.4696085"><ele>4.0</ele><time>2026-04-25T08:23:36.934Z</time></trkpt><trkpt lat="41.1764483" lon="9.4696334"><ele>4.0</ele><time>2026-04-25T08:23:38.931Z</time></trkpt><trkpt lat="41.1765236" lon="9.4696855"><ele>3.9999999999999996</ele><time>2026-04-25T08:23:41.935Z</time></trkpt><trkpt lat="41.176598" lon="9.4697528"><ele>4.0</ele><time>2026-04-25T08:23:44.936Z</time></trkpt><trkpt lat="41.1766276" lon="9.4698629"><ele>4.0</ele><time>2026-04-25T08:23:46.938Z</time></trkpt><trkpt lat="41.1766977" lon="9.4698412"><ele>4.0</ele><time>2026-04-25T08:23:47.937Z</time></trkpt><trkpt lat="41.1768059" lon="9.4698344"><ele>3.9999999999999996</ele><time>2026-04-25T08:23:49.933Z</time></trkpt><trkpt lat="41.1768902" lon="9.4698426"><ele>4.0</ele><time>2026-04-25T08:23:51.932Z</time></trkpt><trkpt lat="41.1769709" lon="9.4698312"><ele>3.9999999999999996</ele><time>2026-04-25T08:23:53.931Z</time></trkpt><trkpt lat="41.1770485" lon="9.4698415"><ele>4.0</ele><time>2026-04-25T08:23:55.931Z</time></trkpt><trkpt lat="41.1771292" lon="9.4698464"><ele>4.0</ele><time>2026-04-25T08:23:57.932Z</time></trkpt><trkpt lat="41.1772132" lon="9.4698389"><ele>4.0</ele><time>2026-04-25T08:23:59.927Z</time></trkpt><trkpt lat="41.1772943" lon="9.4698521"><ele>3.9999999999999996</ele><time>2026-04-25T08:24:01.932Z</time></trkpt><trkpt lat="41.1773847" lon="9.4698738"><ele>4.0</ele><time>2026-04-25T08:24:03.934Z</time></trkpt><trkpt lat="41.1775064" lon="9.469858"><ele>3.8000000000000003</ele><time>2026-04-25T08:24:05.923Z</time></trkpt><trkpt lat="41.1776179" lon="9.4698465"><ele>3.6000000000000005</ele><time>2026-04-25T08:24:07.925Z</time></trkpt><trkpt lat="41.1777295" lon="9.4698358"><ele>3.4</ele><time>2026-04-25T08:24:09.926Z</time></trkpt><trkpt lat="41.1778335" lon="9.4698161"><ele>3.2</ele><time>2026-04-25T08:24:11.926Z</time></trkpt><trkpt lat="41.1779382" lon="9.4698197"><ele>3.0</ele><time>2026-04-25T08:24:13.925Z</time></trkpt><trkpt lat="41.1780397" lon="9.4698367"><ele>3.0</ele><time>2026-04-25T08:24:15.924Z</time></trkpt><trkpt lat="41.1781347" lon="9.4698414"><ele>3.0</ele><time>2026-04-25T08:24:17.925Z</time></trkpt><trkpt lat="41.1782365" lon="9.469851"><ele>3.0</ele><time>2026-04-25T08:24:19.924Z</time></trkpt><trkpt lat="41.1783364" lon="9.4698569"><ele>3.0</ele><time>2026-04-25T08:24:21.925Z</time></trkpt><trkpt lat="41.1784166" lon="9.4698652"><ele>3.0</ele><time>2026-04-25T08:24:23.927Z</time></trkpt><trkpt lat="41.1784984" lon="9.4698436"><ele>3.2</ele><time>2026-04-25T08:24:25.928Z</time></trkpt><trkpt lat="41.1785952" lon="9.4698239"><ele>3.4</ele><time>2026-04-25T08:24:27.927Z</time></trkpt><trkpt lat="41.1786942" lon="9.469805"><ele>3.6000000000000005</ele><time>2026-04-25T08:24:29.931Z</time></trkpt><trkpt lat="41.1787971" lon="9.4697988"><ele>3.8000000000000003</ele><time>2026-04-25T08:24:31.933Z</time></trkpt><trkpt lat="41.1789004" lon="9.4698064"><ele>4.0</ele><time>2026-04-25T08:24:33.93Z</time></trkpt><trkpt lat="41.1789858" lon="9.4698165"><ele>3.9999999999999996</ele><time>2026-04-25T08:24:35.932Z</time></trkpt><trkpt lat="41.1790868" lon="9.4698135"><ele>4.0</ele><time>2026-04-25T08:24:37.926Z</time></trkpt><trkpt lat="41.1791511" lon="9.4698043"><ele>4.0</ele><time>2026-04-25T08:24:38.926Z</time></trkpt><trkpt lat="41.1792151" lon="9.4697958"><ele>4.0</ele><time>2026-04-25T08:24:39.928Z</time></trkpt><trkpt lat="41.179317" lon="9.4697737"><ele>3.9999999999999996</ele><time>2026-04-25T08:24:41.928Z</time></trkpt><trkpt lat="41.1794106" lon="9.4698138"><ele>4.0</ele><time>2026-04-25T08:24:44.926Z</time></trkpt><trkpt lat="41.1795167" lon="9.4698419"><ele>4.0</ele><time>2026-04-25T08:24:46.923Z</time></trkpt><trkpt lat="41.1796103" lon="9.4698784"><ele>4.0</ele><time>2026-04-25T08:24:48.925Z</time></trkpt><trkpt lat="41.179722" lon="9.4699115"><ele>4.0</ele><time>2026-04-25T08:24:50.927Z</time></trkpt><trkpt lat="41.179834" lon="9.4699368"><ele>4.0</ele><time>2026-04-25T08:24:52.93Z</time></trkpt><trkpt lat="41.1799205" lon="9.4699861"><ele>4.0</ele><time>2026-04-25T08:24:54.93Z</time></trkpt><trkpt lat="41.1800003" lon="9.4700263"><ele>4.6</ele><time>2026-04-25T08:24:56.928Z</time></trkpt><trkpt lat="41.180092" lon="9.4701276"><ele>5.2</ele><time>2026-04-25T08:24:58.932Z</time></trkpt><trkpt lat="41.1801385" lon="9.470194"><ele>5.799999999999999</ele><time>2026-04-25T08:24:59.931Z</time></trkpt><trkpt lat="41.1802098" lon="9.4703104"><ele>6.3999999999999995</ele><time>2026-04-25T08:25:01.933Z</time></trkpt><trkpt lat="41.1802498" lon="9.4704259"><ele>7.0</ele><time>2026-04-25T08:25:03.926Z</time></trkpt><trkpt lat="41.1802731" lon="9.4705398"><ele>7.199999999999999</ele><time>2026-04-25T08:25:05.938Z</time></trkpt><trkpt lat="41.1803271" lon="9.4706609"><ele>7.3999999999999995</ele><time>2026-04-25T08:25:07.927Z</time></trkpt><trkpt lat="41.1803664" lon="9.4707922"><ele>7.6000000000000005</ele><time>2026-04-25T08:25:09.93Z</time></trkpt><trkpt lat="41.1803827" lon="9.470907"><ele>7.800000000000001</ele><time>2026-04-25T08:25:11.927Z</time></trkpt><trkpt lat="41.1804084" lon="9.4710357"><ele>8.0</ele><time>2026-04-25T08:25:13.921Z</time></trkpt><trkpt lat="41.1804321" lon="9.4711446"><ele>7.999999999999999</ele><time>2026-04-25T08:25:15.917Z</time></trkpt><trkpt lat="41.1804107" lon="9.4712672"><ele>8.0</ele><time>2026-04-25T08:25:18.939Z</time></trkpt><trkpt lat="41.180392" lon="9.4713679"><ele>8.0</ele><time>2026-04-25T08:25:20.864Z</time></trkpt><trkpt lat="41.18041" lon="9.4714713"><ele>8.0</ele><time>2026-04-25T08:25:22.939Z</time></trkpt><trkpt lat="41.1804646" lon="9.4715489"><ele>7.999999999999999</ele><time>2026-04-25T08:25:24.938Z</time></trkpt><trkpt lat="41.1805118" lon="9.4716376"><ele>8.0</ele><time>2026-04-25T08:25:26.942Z</time></trkpt><trkpt lat="41.1805329" lon="9.4717472"><ele>7.571428571428571</ele><time>2026-04-25T08:25:28.944Z</time></trkpt><trkpt lat="41.1805444" lon="9.4718574"><ele>7.142857142857142</ele><time>2026-04-25T08:25:30.937Z</time></trkpt><trkpt lat="41.1805703" lon="9.4719382"><ele>6.7142857142857135</ele><time>2026-04-25T08:25:32.937Z</time></trkpt><trkpt lat="41.1806024" lon="9.4720133"><ele>6.285714285714286</ele><time>2026-04-25T08:25:34.933Z</time></trkpt><trkpt lat="41.1806293" lon="9.4720981"><ele>5.857142857142858</ele><time>2026-04-25T08:25:36.94Z</time></trkpt><trkpt lat="41.1806453" lon="9.4722054"><ele>5.428571428571429</ele><time>2026-04-25T08:25:39.927Z</time></trkpt><trkpt lat="41.1806578" lon="9.4721194"><ele>5.0</ele><time>2026-04-25T08:26:52.945Z</time></trkpt><trkpt lat="41.1806605" lon="9.4722272"><ele>5.428571428571429</ele><time>2026-04-25T08:26:58.943Z</time></trkpt><trkpt lat="41.1807086" lon="9.4723332"><ele>5.857142857142858</ele><time>2026-04-25T08:27:01.946Z</time></trkpt><trkpt lat="41.1807223" lon="9.4724179"><ele>6.285714285714286</ele><time>2026-04-25T08:27:03.948Z</time></trkpt><trkpt lat="41.1807343" lon="9.4725028"><ele>6.7142857142857135</ele><time>2026-04-25T08:27:05.938Z</time></trkpt><trkpt lat="41.180731" lon="9.472591"><ele>7.142857142857142</ele><time>2026-04-25T08:27:07.927Z</time></trkpt><trkpt lat="41.1807371" lon="9.4726763"><ele>7.571428571428571</ele><time>2026-04-25T08:27:09.937Z</time></trkpt><trkpt lat="41.1807623" lon="9.4727577"><ele>8.0</ele><time>2026-04-25T08:27:11.93Z</time></trkpt><trkpt lat="41.180784" lon="9.4728662"><ele>7.833333333333333</ele><time>2026-04-25T08:27:13.949Z</time></trkpt><trkpt lat="41.1808111" lon="9.4729847"><ele>7.666666666666666</ele><time>2026-04-25T08:27:15.937Z</time></trkpt><trkpt lat="41.1808177" lon="9.4730823"><ele>7.5</ele><time>2026-04-25T08:27:17.939Z</time></trkpt><trkpt lat="41.1807908" lon="9.4731771"><ele>7.333333333333334</ele><time>2026-04-25T08:27:19.942Z</time></trkpt><trkpt lat="41.1807783" lon="9.4732817"><ele>7.166666666666667</ele><time>2026-04-25T08:27:21.949Z</time></trkpt><trkpt lat="41.1808033" lon="9.4733655"><ele>7.0</ele><time>2026-04-25T08:27:23.944Z</time></trkpt><trkpt lat="41.1808623" lon="9.4734921"><ele>7.0</ele><time>2026-04-25T08:27:25.94Z</time></trkpt><trkpt lat="41.180896" lon="9.4735999"><ele>7.0</ele><time>2026-04-25T08:27:27.946Z</time></trkpt><trkpt lat="41.1809072" lon="9.4737"><ele>7.0</ele><time>2026-04-25T08:27:29.902Z</time></trkpt><trkpt lat="41.1809076" lon="9.4737915"><ele>7.0</ele><time>2026-04-25T08:27:31.923Z</time></trkpt><trkpt lat="41.1808937" lon="9.4738826"><ele>7.0</ele><time>2026-04-25T08:27:33.95Z</time></trkpt><trkpt lat="41.180882" lon="9.4739753"><ele>7.0</ele><time>2026-04-25T08:27:35.942Z</time></trkpt><trkpt lat="41.1808814" lon="9.474063"><ele>7.0</ele><time>2026-04-25T08:27:37.939Z</time></trkpt><trkpt lat="41.1809005" lon="9.4741461"><ele>6.666666666666667</ele><time>2026-04-25T08:27:41.933Z</time></trkpt><trkpt lat="41.180981" lon="9.474144"><ele>6.333333333333334</ele><time>2026-04-25T08:28:10.932Z</time></trkpt><trkpt lat="41.1810231" lon="9.4742221"><ele>6.0</ele><time>2026-04-25T08:28:13.929Z</time></trkpt><trkpt lat="41.1809556" lon="9.4741634"><ele>5.666666666666667</ele><time>2026-04-25T09:17:40.972Z</time></trkpt><trkpt lat="41.180887" lon="9.4741447"><ele>5.333333333333334</ele><time>2026-04-25T09:17:42.972Z</time></trkpt><trkpt lat="41.1808379" lon="9.4740826"><ele>5.0</ele><time>2026-04-25T09:17:44.963Z</time></trkpt><trkpt lat="41.1808352" lon="9.473977"><ele>5.0</ele><time>2026-04-25T09:17:46.953Z</time></trkpt><trkpt lat="41.1808595" lon="9.4738334"><ele>5.0</ele><time>2026-04-25T09:17:48.965Z</time></trkpt><trkpt lat="41.180869" lon="9.473685"><ele>5.0</ele><time>2026-04-25T09:17:50.97Z</time></trkpt><trkpt lat="41.1808421" lon="9.4735495"><ele>5.0</ele><time>2026-04-25T09:17:52.963Z</time></trkpt><trkpt lat="41.1807953" lon="9.4734365"><ele>5.0</ele><time>2026-04-25T09:17:54.972Z</time></trkpt><trkpt lat="41.1807486" lon="9.4733439"><ele>5.333333333333334</ele><time>2026-04-25T09:17:56.97Z</time></trkpt><trkpt lat="41.1807327" lon="9.4732396"><ele>5.666666666666667</ele><time>2026-04-25T09:17:58.96Z</time></trkpt><trkpt lat="41.1807694" lon="9.4731312"><ele>6.0</ele><time>2026-04-25T09:18:01.959Z</time></trkpt><trkpt lat="41.1807873" lon="9.4730306"><ele>6.333333333333334</ele><time>2026-04-25T09:18:03.956Z</time></trkpt><trkpt lat="41.1807654" lon="9.4729422"><ele>6.666666666666667</ele><time>2026-04-25T09:18:05.961Z</time></trkpt><trkpt lat="41.1807281" lon="9.4728584"><ele>7.0</ele><time>2026-04-25T09:18:07.966Z</time></trkpt><trkpt lat="41.1807076" lon="9.472771"><ele>7.166666666666667</ele><time>2026-04-25T09:18:09.963Z</time></trkpt><trkpt lat="41.1806933" lon="9.4726847"><ele>7.333333333333334</ele><time>2026-04-25T09:18:11.961Z</time></trkpt><trkpt lat="41.1806595" lon="9.4726082"><ele>7.5</ele><time>2026-04-25T09:18:13.962Z</time></trkpt><trkpt lat="41.1806821" lon="9.4724707"><ele>7.666666666666666</ele><time>2026-04-25T09:18:16.96Z</time></trkpt><trkpt lat="41.180688" lon="9.472377"><ele>7.833333333333333</ele><time>2026-04-25T09:18:18.954Z</time></trkpt><trkpt lat="41.1806761" lon="9.4722693"><ele>8.0</ele><time>2026-04-25T09:18:20.957Z</time></trkpt><trkpt lat="41.1806527" lon="9.4721688"><ele>7.4</ele><time>2026-04-25T09:18:22.957Z</time></trkpt><trkpt lat="41.1806376" lon="9.4720535"><ele>6.800000000000001</ele><time>2026-04-25T09:18:24.958Z</time></trkpt><trkpt lat="41.1805763" lon="9.4719129"><ele>6.2</ele><time>2026-04-25T09:18:26.962Z</time></trkpt><trkpt lat="41.1805261" lon="9.4717849"><ele>5.6</ele><time>2026-04-25T09:18:28.964Z</time></trkpt><trkpt lat="41.1804807" lon="9.471677"><ele>5.0</ele><time>2026-04-25T09:18:30.962Z</time></trkpt><trkpt lat="41.1804453" lon="9.4715601"><ele>5.0</ele><time>2026-04-25T09:18:32.964Z</time></trkpt><trkpt lat="41.1804121" lon="9.4714621"><ele>5.0</ele><time>2026-04-25T09:18:34.964Z</time></trkpt><trkpt lat="41.1803923" lon="9.4713772"><ele>5.0</ele><time>2026-04-25T09:18:36.965Z</time></trkpt><trkpt lat="41.1803787" lon="9.4712859"><ele>5.0</ele><time>2026-04-25T09:18:38.964Z</time></trkpt><trkpt lat="41.1804036" lon="9.4711808"><ele>5.0</ele><time>2026-04-25T09:18:40.962Z</time></trkpt><trkpt lat="41.1803983" lon="9.4710672"><ele>5.0</ele><time>2026-04-25T09:18:43.963Z</time></trkpt><trkpt lat="41.1803624" lon="9.4709948"><ele>5.333333333333334</ele><time>2026-04-25T09:18:45.966Z</time></trkpt><trkpt lat="41.1803361" lon="9.4709018"><ele>5.666666666666667</ele><time>2026-04-25T09:18:47.958Z</time></trkpt><trkpt lat="41.1803108" lon="9.4707863"><ele>6.0</ele><time>2026-04-25T09:18:49.957Z</time></trkpt><trkpt lat="41.1802873" lon="9.4706757"><ele>6.333333333333334</ele><time>2026-04-25T09:18:51.959Z</time></trkpt><trkpt lat="41.1802427" lon="9.4705702"><ele>6.666666666666667</ele><time>2026-04-25T09:18:53.96Z</time></trkpt><trkpt lat="41.1802201" lon="9.4704698"><ele>7.0</ele><time>2026-04-25T09:18:55.958Z</time></trkpt><trkpt lat="41.1801848" lon="9.4703563"><ele>7.000000000000001</ele><time>2026-04-25T09:18:58.957Z</time></trkpt><trkpt lat="41.1801583" lon="9.47027"><ele>7.0</ele><time>2026-04-25T09:19:00.956Z</time></trkpt><trkpt lat="41.1800938" lon="9.4701614"><ele>7.0</ele><time>2026-04-25T09:19:03.963Z</time></trkpt><trkpt lat="41.1800511" lon="9.4700867"><ele>7.0</ele><time>2026-04-25T09:19:05.952Z</time></trkpt><trkpt lat="41.179985" lon="9.4700472"><ele>7.000000000000001</ele><time>2026-04-25T09:19:07.948Z</time></trkpt><trkpt lat="41.1799194" lon="9.4700212"><ele>7.0</ele><time>2026-04-25T09:19:09.949Z</time></trkpt><trkpt lat="41.1798375" lon="9.4699776"><ele>6.500000000000001</ele><time>2026-04-25T09:19:12.951Z</time></trkpt><trkpt lat="41.1797755" lon="9.4699449"><ele>6.0</ele><time>2026-04-25T09:19:14.952Z</time></trkpt><trkpt lat="41.1797004" lon="9.4699199"><ele>5.5</ele><time>2026-04-25T09:19:16.958Z</time></trkpt><trkpt lat="41.1796227" lon="9.469905"><ele>5.0</ele><time>2026-04-25T09:19:18.949Z</time></trkpt><trkpt lat="41.179542" lon="9.4698881"><ele>4.5</ele><time>2026-04-25T09:19:20.957Z</time></trkpt><trkpt lat="41.1794734" lon="9.4698745"><ele>4.0</ele><time>2026-04-25T09:19:22.939Z</time></trkpt><trkpt lat="41.1794229" lon="9.4697739"><ele>3.9999999999999996</ele><time>2026-04-25T09:19:25.945Z</time></trkpt><trkpt lat="41.1794843" lon="9.4696797"><ele>4.0</ele><time>2026-04-25T09:19:28.952Z</time></trkpt><trkpt lat="41.1795512" lon="9.4696509"><ele>4.0</ele><time>2026-04-25T09:19:30.947Z</time></trkpt><trkpt lat="41.179611" lon="9.4696152"><ele>4.0</ele><time>2026-04-25T09:19:32.945Z</time></trkpt><trkpt lat="41.1796962" lon="9.4696063"><ele>3.9999999999999996</ele><time>2026-04-25T09:19:35.95Z</time></trkpt><trkpt lat="41.1797625" lon="9.4695889"><ele>4.0</ele><time>2026-04-25T09:19:37.948Z</time></trkpt><trkpt lat="41.1798371" lon="9.4695606"><ele>3.6666666666666665</ele><time>2026-04-25T09:19:39.948Z</time></trkpt><trkpt lat="41.179923" lon="9.4695666"><ele>3.333333333333333</ele><time>2026-04-25T09:19:41.952Z</time></trkpt><trkpt lat="41.1799926" lon="9.469573"><ele>3.0</ele><time>2026-04-25T09:19:43.95Z</time></trkpt><trkpt lat="41.180069" lon="9.4695622"><ele>2.6666666666666665</ele><time>2026-04-25T09:19:45.952Z</time></trkpt><trkpt lat="41.1801524" lon="9.4695613"><ele>2.333333333333333</ele><time>2026-04-25T09:19:47.95Z</time></trkpt><trkpt lat="41.1802378" lon="9.4695731"><ele>2.0</ele><time>2026-04-25T09:19:49.952Z</time></trkpt><trkpt lat="41.1803163" lon="9.469575"><ele>1.9999999999999998</ele><time>2026-04-25T09:19:51.951Z</time></trkpt><trkpt lat="41.1803946" lon="9.4695682"><ele>2.0</ele><time>2026-04-25T09:19:53.95Z</time></trkpt><trkpt lat="41.1804649" lon="9.4695318"><ele>2.0</ele><time>2026-04-25T09:19:55.947Z</time></trkpt><trkpt lat="41.1805345" lon="9.4694896"><ele>2.0</ele><time>2026-04-25T09:19:57.949Z</time></trkpt><trkpt lat="41.1806192" lon="9.4694517"><ele>1.9999999999999998</ele><time>2026-04-25T09:19:59.95Z</time></trkpt><trkpt lat="41.1807055" lon="9.4694123"><ele>2.0</ele><time>2026-04-25T09:20:01.943Z</time></trkpt><trkpt lat="41.1807954" lon="9.469335"><ele>2.6</ele><time>2026-04-25T09:20:03.945Z</time></trkpt><trkpt lat="41.1808491" lon="9.4692341"><ele>3.2</ele><time>2026-04-25T09:20:05.951Z</time></trkpt><trkpt lat="41.1809089" lon="9.4691393"><ele>3.8</ele><time>2026-04-25T09:20:07.949Z</time></trkpt><trkpt lat="41.1809736" lon="9.4690382"><ele>4.4</ele><time>2026-04-25T09:20:09.949Z</time></trkpt><trkpt lat="41.1810646" lon="9.4689724"><ele>5.0</ele><time>2026-04-25T09:20:11.942Z</time></trkpt><trkpt lat="41.1811651" lon="9.4689134"><ele>5.0</ele><time>2026-04-25T09:20:13.935Z</time></trkpt><trkpt lat="41.1812381" lon="9.4688756"><ele>5.0</ele><time>2026-04-25T09:20:15.941Z</time></trkpt><trkpt lat="41.1813081" lon="9.4688193"><ele>5.0</ele><time>2026-04-25T09:20:17.944Z</time></trkpt><trkpt lat="41.1813642" lon="9.4687318"><ele>5.0</ele><time>2026-04-25T09:20:19.944Z</time></trkpt><trkpt lat="41.1814021" lon="9.4686331"><ele>5.0</ele><time>2026-04-25T09:20:21.949Z</time></trkpt><trkpt lat="41.1814168" lon="9.4685309"><ele>5.0</ele><time>2026-04-25T09:20:23.947Z</time></trkpt><trkpt lat="41.1814223" lon="9.4684206"><ele>5.166666666666667</ele><time>2026-04-25T09:20:26.94Z</time></trkpt><trkpt lat="41.1814385" lon="9.468302"><ele>5.333333333333334</ele><time>2026-04-25T09:20:28.935Z</time></trkpt><trkpt lat="41.1814626" lon="9.4681876"><ele>5.5</ele><time>2026-04-25T09:20:30.946Z</time></trkpt><trkpt lat="41.1814933" lon="9.4681044"><ele>5.666666666666667</ele><time>2026-04-25T09:20:32.945Z</time></trkpt><trkpt lat="41.1815133" lon="9.4680079"><ele>5.833333333333333</ele><time>2026-04-25T09:20:34.943Z</time></trkpt><trkpt lat="41.1815436" lon="9.46792"><ele>6.0</ele><time>2026-04-25T09:20:36.948Z</time></trkpt><trkpt lat="41.1815822" lon="9.4678332"><ele>6.199999999999999</ele><time>2026-04-25T09:20:38.947Z</time></trkpt><trkpt lat="41.1816375" lon="9.4677524"><ele>6.3999999999999995</ele><time>2026-04-25T09:20:40.941Z</time></trkpt><trkpt lat="41.1816961" lon="9.4676573"><ele>6.6</ele><time>2026-04-25T09:20:42.941Z</time></trkpt><trkpt lat="41.1817399" lon="9.4675397"><ele>6.8</ele><time>2026-04-25T09:20:44.944Z</time></trkpt><trkpt lat="41.1817555" lon="9.4674192"><ele>7.0</ele><time>2026-04-25T09:20:46.944Z</time></trkpt><trkpt lat="41.1817531" lon="9.4673023"><ele>7.000000000000001</ele><time>2026-04-25T09:20:48.949Z</time></trkpt><trkpt lat="41.1817667" lon="9.4671847"><ele>7.0</ele><time>2026-04-25T09:20:50.955Z</time></trkpt><trkpt lat="41.181787" lon="9.467095"><ele>7.0</ele><time>2026-04-25T09:20:52.952Z</time></trkpt><trkpt lat="41.1818334" lon="9.4669997"><ele>7.0</ele><time>2026-04-25T09:20:54.953Z</time></trkpt><trkpt lat="41.1818873" lon="9.4669026"><ele>7.000000000000001</ele><time>2026-04-25T09:20:56.953Z</time></trkpt><trkpt lat="41.1819381" lon="9.4668145"><ele>7.0</ele><time>2026-04-25T09:20:58.948Z</time></trkpt><trkpt lat="41.1819753" lon="9.4667"><ele>6.0</ele><time>2026-04-25T09:21:00.945Z</time></trkpt><trkpt lat="41.1819948" lon="9.4665675"><ele>4.999999999999999</ele><time>2026-04-25T09:21:02.943Z</time></trkpt><trkpt lat="41.1820087" lon="9.4664368"><ele>4.0</ele><time>2026-04-25T09:21:04.942Z</time></trkpt><trkpt lat="41.181996" lon="9.4662968"><ele>3.0</ele><time>2026-04-25T09:21:06.95Z</time></trkpt><trkpt lat="41.1819924" lon="9.4661742"><ele>2.0</ele><time>2026-04-25T09:21:08.95Z</time></trkpt><trkpt lat="41.1819851" lon="9.4660334"><ele>1.8</ele><time>2026-04-25T09:21:10.947Z</time></trkpt><trkpt lat="41.1819535" lon="9.4659146"><ele>1.6</ele><time>2026-04-25T09:21:12.948Z</time></trkpt><trkpt lat="41.1819317" lon="9.4657948"><ele>1.4000000000000001</ele><time>2026-04-25T09:21:14.95Z</time></trkpt><trkpt lat="41.181913" lon="9.4656566"><ele>1.2000000000000002</ele><time>2026-04-25T09:21:16.951Z</time></trkpt><trkpt lat="41.1819204" lon="9.4655333"><ele>1.0</ele><time>2026-04-25T09:21:18.95Z</time></trkpt><trkpt lat="41.1818835" lon="9.4653991"><ele>1.0</ele><time>2026-04-25T09:21:20.953Z</time></trkpt><trkpt lat="41.1818556" lon="9.4652576"><ele>1.0</ele><time>2026-04-25T09:21:22.95Z</time></trkpt><trkpt lat="41.1818363" lon="9.4651288"><ele>1.0</ele><time>2026-04-25T09:21:24.947Z</time></trkpt><trkpt lat="41.1818219" lon="9.4650171"><ele>1.0</ele><time>2026-04-25T09:21:26.952Z</time></trkpt><trkpt lat="41.1818079" lon="9.4649078"><ele>1.0</ele><time>2026-04-25T09:21:28.953Z</time></trkpt><trkpt lat="41.1817656" lon="9.4647817"><ele>0.9999999999999999</ele><time>2026-04-25T09:21:30.947Z</time></trkpt><trkpt lat="41.1817414" lon="9.4646625"><ele>1.0</ele><time>2026-04-25T09:21:32.955Z</time></trkpt><trkpt lat="41.1817116" lon="9.4645523"><ele>1.0</ele><time>2026-04-25T09:21:34.958Z</time></trkpt><trkpt lat="41.1816937" lon="9.4644377"><ele>1.0</ele><time>2026-04-25T09:21:36.944Z</time></trkpt><trkpt lat="41.1816561" lon="9.4643346"><ele>0.9999999999999999</ele><time>2026-04-25T09:21:38.954Z</time></trkpt><trkpt lat="41.1816403" lon="9.4642472"><ele>1.0</ele><time>2026-04-25T09:21:40.957Z</time></trkpt><trkpt lat="41.1816461" lon="9.4641333"><ele>1.1666666666666665</ele><time>2026-04-25T09:21:42.956Z</time></trkpt><trkpt lat="41.1816886" lon="9.4640579"><ele>1.3333333333333333</ele><time>2026-04-25T09:21:44.956Z</time></trkpt><trkpt lat="41.1817525" lon="9.464003"><ele>1.5</ele><time>2026-04-25T09:21:46.953Z</time></trkpt><trkpt lat="41.1818468" lon="9.4639755"><ele>1.6666666666666665</ele><time>2026-04-25T09:21:48.939Z</time></trkpt><trkpt lat="41.1819449" lon="9.4639389"><ele>1.8333333333333333</ele><time>2026-04-25T09:21:50.93Z</time></trkpt><trkpt lat="41.1820308" lon="9.4638861"><ele>2.0</ele><time>2026-04-25T09:21:52.936Z</time></trkpt><trkpt lat="41.1821302" lon="9.4638371"><ele>2.0</ele><time>2026-04-25T09:21:54.934Z</time></trkpt><trkpt lat="41.1822191" lon="9.4637919"><ele>2.0</ele><time>2026-04-25T09:21:56.938Z</time></trkpt><trkpt lat="41.182317" lon="9.4637921"><ele>2.0</ele><time>2026-04-25T09:21:58.936Z</time></trkpt><trkpt lat="41.1823954" lon="9.4638114"><ele>2.0</ele><time>2026-04-25T09:22:00.944Z</time></trkpt><trkpt lat="41.1824881" lon="9.4638231"><ele>2.0</ele><time>2026-04-25T09:22:02.935Z</time></trkpt><trkpt lat="41.1825775" lon="9.4638401"><ele>2.142857142857143</ele><time>2026-04-25T09:22:04.935Z</time></trkpt><trkpt lat="41.1826538" lon="9.4638545"><ele>2.2857142857142856</ele><time>2026-04-25T09:22:06.94Z</time></trkpt><trkpt lat="41.1827186" lon="9.4638748"><ele>2.4285714285714284</ele><time>2026-04-25T09:22:08.94Z</time></trkpt><trkpt lat="41.1827839" lon="9.4638836"><ele>2.571428571428571</ele><time>2026-04-25T09:22:10.939Z</time></trkpt><trkpt lat="41.1828567" lon="9.4638798"><ele>2.7142857142857144</ele><time>2026-04-25T09:22:12.947Z</time></trkpt><trkpt lat="41.1829387" lon="9.4638625"><ele>2.8571428571428568</ele><time>2026-04-25T09:22:14.945Z</time></trkpt><trkpt lat="41.1829999" lon="9.4638068"><ele>3.0</ele><time>2026-04-25T09:22:16.961Z</time></trkpt><trkpt lat="41.1830565" lon="9.4636979"><ele>2.6</ele><time>2026-04-25T09:22:18.96Z</time></trkpt><trkpt lat="41.1830877" lon="9.4635843"><ele>2.1999999999999997</ele><time>2026-04-25T09:22:20.967Z</time></trkpt><trkpt lat="41.1831012" lon="9.4634504"><ele>1.8</ele><time>2026-04-25T09:22:22.964Z</time></trkpt><trkpt lat="41.1831408" lon="9.4633424"><ele>1.4</ele><time>2026-04-25T09:22:24.97Z</time></trkpt><trkpt lat="41.1831897" lon="9.4632165"><ele>1.0</ele><time>2026-04-25T09:22:26.965Z</time></trkpt><trkpt lat="41.1832237" lon="9.4630865"><ele>0.9999999999999999</ele><time>2026-04-25T09:22:28.967Z</time></trkpt><trkpt lat="41.1832481" lon="9.4629754"><ele>1.0</ele><time>2026-04-25T09:22:30.974Z</time></trkpt><trkpt lat="41.1832575" lon="9.4628631"><ele>1.0</ele><time>2026-04-25T09:22:32.977Z</time></trkpt><trkpt lat="41.1832488" lon="9.4626987"><ele>1.0</ele><time>2026-04-25T09:22:34.97Z</time></trkpt><trkpt lat="41.1832407" lon="9.4626035"><ele>0.9999999999999999</ele><time>2026-04-25T09:22:35.971Z</time></trkpt><trkpt lat="41.1832143" lon="9.4625056"><ele>1.0</ele><time>2026-04-25T09:22:36.971Z</time></trkpt><trkpt lat="41.1831855" lon="9.4624153"><ele>1.0</ele><time>2026-04-25T09:22:37.969Z</time></trkpt><trkpt lat="41.1831496" lon="9.4623171"><ele>1.0</ele><time>2026-04-25T09:22:38.97Z</time></trkpt><trkpt lat="41.1831149" lon="9.4622075"><ele>1.0</ele><time>2026-04-25T09:22:39.973Z</time></trkpt><trkpt lat="41.183087" lon="9.4620886"><ele>1.0</ele><time>2026-04-25T09:22:40.969Z</time></trkpt><trkpt lat="41.1830601" lon="9.4619746"><ele>1.0</ele><time>2026-04-25T09:22:41.967Z</time></trkpt><trkpt lat="41.1830322" lon="9.4618538"><ele>1.4</ele><time>2026-04-25T09:22:42.97Z</time></trkpt><trkpt lat="41.1829987" lon="9.461731"><ele>1.8</ele><time>2026-04-25T09:22:43.97Z</time></trkpt><trkpt lat="41.1829612" lon="9.4616145"><ele>2.1999999999999997</ele><time>2026-04-25T09:22:44.971Z</time></trkpt><trkpt lat="41.1829276" lon="9.461489"><ele>2.6</ele><time>2026-04-25T09:22:45.972Z</time></trkpt><trkpt lat="41.1828958" lon="9.4613688"><ele>3.0</ele><time>2026-04-25T09:22:46.972Z</time></trkpt><trkpt lat="41.1828566" lon="9.4612587"><ele>4.5</ele><time>2026-04-25T09:22:47.972Z</time></trkpt><trkpt lat="41.1828386" lon="9.4611429"><ele>6.0</ele><time>2026-04-25T09:22:48.97Z</time></trkpt><trkpt lat="41.1828114" lon="9.4610309"><ele>7.5</ele><time>2026-04-25T09:22:49.971Z</time></trkpt><trkpt lat="41.1827902" lon="9.4609093"><ele>9.0</ele><time>2026-04-25T09:22:50.968Z</time></trkpt><trkpt lat="41.1827741" lon="9.460797"><ele>10.5</ele><time>2026-04-25T09:22:51.965Z</time></trkpt><trkpt lat="41.1827686" lon="9.460681"><ele>12.0</ele><time>2026-04-25T09:22:52.958Z</time></trkpt><trkpt lat="41.1827787" lon="9.4605617"><ele>11.833333333333334</ele><time>2026-04-25T09:22:53.961Z</time></trkpt><trkpt lat="41.1828013" lon="9.4604484"><ele>11.666666666666666</ele><time>2026-04-25T09:22:54.96Z</time></trkpt><trkpt lat="41.1828288" lon="9.4603342"><ele>11.5</ele><time>2026-04-25T09:22:55.963Z</time></trkpt><trkpt lat="41.182862" lon="9.4602303"><ele>11.333333333333332</ele><time>2026-04-25T09:22:56.968Z</time></trkpt><trkpt lat="41.1829035" lon="9.460151"><ele>11.166666666666666</ele><time>2026-04-25T09:22:57.966Z</time></trkpt><trkpt lat="41.1829522" lon="9.4600717"><ele>11.0</ele><time>2026-04-25T09:22:58.959Z</time></trkpt><trkpt lat="41.1830081" lon="9.4600105"><ele>11.0</ele><time>2026-04-25T09:22:59.951Z</time></trkpt><trkpt lat="41.1830698" lon="9.4599552"><ele>11.0</ele><time>2026-04-25T09:23:00.954Z</time></trkpt><trkpt lat="41.1831348" lon="9.4599189"><ele>11.0</ele><time>2026-04-25T09:23:01.954Z</time></trkpt><trkpt lat="41.1831977" lon="9.4598907"><ele>11.0</ele><time>2026-04-25T09:23:02.947Z</time></trkpt><trkpt lat="41.1832793" lon="9.4597739"><ele>11.0</ele><time>2026-04-25T09:23:04.942Z</time></trkpt><trkpt lat="41.1832555" lon="9.4596103"><ele>10.833333333333332</ele><time>2026-04-25T09:23:06.949Z</time></trkpt><trkpt lat="41.1832034" lon="9.4595249"><ele>10.666666666666666</ele><time>2026-04-25T09:23:07.949Z</time></trkpt><trkpt lat="41.1831322" lon="9.4594682"><ele>10.5</ele><time>2026-04-25T09:23:08.958Z</time></trkpt><trkpt lat="41.1830645" lon="9.459436"><ele>10.333333333333334</ele><time>2026-04-25T09:23:09.958Z</time></trkpt><trkpt lat="41.1829912" lon="9.4593941"><ele>10.166666666666668</ele><time>2026-04-25T09:23:10.956Z</time></trkpt><trkpt lat="41.1829331" lon="9.4593367"><ele>10.0</ele><time>2026-04-25T09:23:11.952Z</time></trkpt><trkpt lat="41.1828926" lon="9.4592552"><ele>10.0</ele><time>2026-04-25T09:23:12.956Z</time></trkpt><trkpt lat="41.1828685" lon="9.4591548"><ele>10.0</ele><time>2026-04-25T09:23:13.954Z</time></trkpt><trkpt lat="41.1828732" lon="9.4590491"><ele>10.0</ele><time>2026-04-25T09:23:14.954Z</time></trkpt><trkpt lat="41.1829004" lon="9.4589462"><ele>10.0</ele><time>2026-04-25T09:23:15.958Z</time></trkpt><trkpt lat="41.1829471" lon="9.4588456"><ele>10.0</ele><time>2026-04-25T09:23:16.953Z</time></trkpt><trkpt lat="41.1829972" lon="9.4587431"><ele>10.0</ele><time>2026-04-25T09:23:17.962Z</time></trkpt><trkpt lat="41.1830558" lon="9.4586521"><ele>10.166666666666668</ele><time>2026-04-25T09:23:18.964Z</time></trkpt><trkpt lat="41.183094" lon="9.4585803"><ele>10.333333333333334</ele><time>2026-04-25T09:23:19.962Z</time></trkpt><trkpt lat="41.183137" lon="9.4585108"><ele>10.5</ele><time>2026-04-25T09:23:20.96Z</time></trkpt><trkpt lat="41.1831869" lon="9.4584532"><ele>10.666666666666666</ele><time>2026-04-25T09:23:21.963Z</time></trkpt><trkpt lat="41.1832579" lon="9.4583769"><ele>10.833333333333332</ele><time>2026-04-25T09:23:23.957Z</time></trkpt><trkpt lat="41.1833204" lon="9.4583534"><ele>11.0</ele><time>2026-04-25T09:23:25.96Z</time></trkpt><trkpt lat="41.1834223" lon="9.4582917"><ele>12.166666666666666</ele><time>2026-04-25T09:24:54.963Z</time></trkpt><trkpt lat="41.183482" lon="9.4582522"><ele>13.333333333333332</ele><time>2026-04-25T09:24:55.964Z</time></trkpt><trkpt lat="41.1835442" lon="9.4582114"><ele>14.5</ele><time>2026-04-25T09:24:56.966Z</time></trkpt><trkpt lat="41.1836314" lon="9.4581501"><ele>15.666666666666666</ele><time>2026-04-25T09:24:57.968Z</time></trkpt><trkpt lat="41.1837207" lon="9.4580911"><ele>16.833333333333332</ele><time>2026-04-25T09:24:58.964Z</time></trkpt><trkpt lat="41.1838014" lon="9.4580356"><ele>18.0</ele><time>2026-04-25T09:24:59.965Z</time></trkpt><trkpt lat="41.1838815" lon="9.4579764"><ele>17.000000000000004</ele><time>2026-04-25T09:25:00.965Z</time></trkpt><trkpt lat="41.1839451" lon="9.4579252"><ele>16.0</ele><time>2026-04-25T09:25:01.963Z</time></trkpt><trkpt lat="41.1840097" lon="9.4578768"><ele>15.0</ele><time>2026-04-25T09:25:02.977Z</time></trkpt><trkpt lat="41.1840682" lon="9.4578167"><ele>14.0</ele><time>2026-04-25T09:25:03.964Z</time></trkpt><trkpt lat="41.1841228" lon="9.4577546"><ele>13.0</ele><time>2026-04-25T09:25:04.964Z</time></trkpt><trkpt lat="41.1841753" lon="9.4576942"><ele>12.0</ele><time>2026-04-25T09:25:05.964Z</time></trkpt><trkpt lat="41.1842327" lon="9.4576269"><ele>11.0</ele><time>2026-04-25T09:25:06.957Z</time></trkpt><trkpt lat="41.1843007" lon="9.4575848"><ele>11.0</ele><time>2026-04-25T09:25:07.958Z</time></trkpt><trkpt lat="41.1843725" lon="9.4575601"><ele>11.0</ele><time>2026-04-25T09:25:08.956Z</time></trkpt><trkpt lat="41.1844448" lon="9.4575502"><ele>11.0</ele><time>2026-04-25T09:25:09.964Z</time></trkpt><trkpt lat="41.1845272" lon="9.4575696"><ele>11.0</ele><time>2026-04-25T09:25:10.962Z</time></trkpt><trkpt lat="41.1846002" lon="9.4576072"><ele>11.0</ele><time>2026-04-25T09:25:11.965Z</time></trkpt><trkpt lat="41.1846782" lon="9.4576459"><ele>11.0</ele><time>2026-04-25T09:25:12.972Z</time></trkpt><trkpt lat="41.1847455" lon="9.4576489"><ele>11.0</ele><time>2026-04-25T09:25:13.954Z</time></trkpt><trkpt lat="41.1848429" lon="9.4575827"><ele>11.0</ele><time>2026-04-25T09:25:15.957Z</time></trkpt><trkpt lat="41.1848894" lon="9.4574847"><ele>11.0</ele><time>2026-04-25T09:25:16.957Z</time></trkpt><trkpt lat="41.1849212" lon="9.4573721"><ele>11.0</ele><time>2026-04-25T09:25:17.958Z</time></trkpt><trkpt lat="41.184954" lon="9.4572477"><ele>11.0</ele><time>2026-04-25T09:25:18.965Z</time></trkpt><trkpt lat="41.1849848" lon="9.4571288"><ele>10.833333333333332</ele><time>2026-04-25T09:25:20.044Z</time></trkpt><trkpt lat="41.185012" lon="9.4570145"><ele>10.666666666666666</ele><time>2026-04-25T09:25:21.042Z</time></trkpt><trkpt lat="41.1850481" lon="9.4569108"><ele>10.5</ele><time>2026-04-25T09:25:22.037Z</time></trkpt><trkpt lat="41.1850971" lon="9.456839"><ele>10.333333333333334</ele><time>2026-04-25T09:25:23.046Z</time></trkpt><trkpt lat="41.1851671" lon="9.4567535"><ele>10.166666666666668</ele><time>2026-04-25T09:25:24.023Z</time></trkpt><trkpt lat="41.1852347" lon="9.4566788"><ele>10.0</ele><time>2026-04-25T09:25:25.027Z</time></trkpt><trkpt lat="41.1852997" lon="9.4566173"><ele>10.0</ele><time>2026-04-25T09:25:26.028Z</time></trkpt><trkpt lat="41.1853598" lon="9.4565699"><ele>10.0</ele><time>2026-04-25T09:25:27.026Z</time></trkpt><trkpt lat="41.1854222" lon="9.4565343"><ele>10.0</ele><time>2026-04-25T09:25:28.041Z</time></trkpt><trkpt lat="41.1854861" lon="9.4565217"><ele>10.0</ele><time>2026-04-25T09:25:29.037Z</time></trkpt><trkpt lat="41.1855497" lon="9.4565312"><ele>10.0</ele><time>2026-04-25T09:25:30.023Z</time></trkpt><trkpt lat="41.1856856" lon="9.4565262"><ele>10.0</ele><time>2026-04-25T09:25:32.031Z</time></trkpt><trkpt lat="41.1857657" lon="9.4565413"><ele>10.2</ele><time>2026-04-25T09:25:33.042Z</time></trkpt><trkpt lat="41.1858522" lon="9.4565547"><ele>10.4</ele><time>2026-04-25T09:25:34.045Z</time></trkpt><trkpt lat="41.1859536" lon="9.4565771"><ele>10.600000000000001</ele><time>2026-04-25T09:25:35.039Z</time></trkpt><trkpt lat="41.1860401" lon="9.45658"><ele>10.8</ele><time>2026-04-25T09:25:36.044Z</time></trkpt><trkpt lat="41.1861403" lon="9.4565827"><ele>11.0</ele><time>2026-04-25T09:25:37.043Z</time></trkpt><trkpt lat="41.1862411" lon="9.4565787"><ele>11.0</ele><time>2026-04-25T09:25:38.047Z</time></trkpt><trkpt lat="41.1863375" lon="9.4565586"><ele>11.0</ele><time>2026-04-25T09:25:39.047Z</time></trkpt><trkpt lat="41.1864349" lon="9.4565339"><ele>11.0</ele><time>2026-04-25T09:25:40.055Z</time></trkpt><trkpt lat="41.1865306" lon="9.4565067"><ele>11.0</ele><time>2026-04-25T09:25:41.051Z</time></trkpt><trkpt lat="41.1866266" lon="9.4564828"><ele>11.0</ele><time>2026-04-25T09:25:42.049Z</time></trkpt><trkpt lat="41.1867154" lon="9.4564618"><ele>10.333333333333332</ele><time>2026-04-25T09:25:43.06Z</time></trkpt><trkpt lat="41.1868035" lon="9.4564403"><ele>9.666666666666666</ele><time>2026-04-25T09:25:44.051Z</time></trkpt><trkpt lat="41.1868849" lon="9.4564207"><ele>9.0</ele><time>2026-04-25T09:25:45.046Z</time></trkpt><trkpt lat="41.186962" lon="9.456403"><ele>8.333333333333334</ele><time>2026-04-25T09:25:46.049Z</time></trkpt><trkpt lat="41.1870331" lon="9.456385"><ele>7.666666666666667</ele><time>2026-04-25T09:25:47.046Z</time></trkpt><trkpt lat="41.1871004" lon="9.4563633"><ele>7.0</ele><time>2026-04-25T09:25:48.041Z</time></trkpt><trkpt lat="41.1872105" lon="9.4563582"><ele>7.000000000000001</ele><time>2026-04-25T09:25:50.038Z</time></trkpt><trkpt lat="41.1872739" lon="9.4563525"><ele>7.0</ele><time>2026-04-25T09:25:56.053Z</time></trkpt><trkpt lat="41.18734" lon="9.4563596"><ele>7.0</ele><time>2026-04-25T09:26:02.041Z</time></trkpt><trkpt lat="41.1874134" lon="9.4563787"><ele>7.0</ele><time>2026-04-25T09:26:15.042Z</time></trkpt><trkpt lat="41.1874928" lon="9.4563902"><ele>7.000000000000001</ele><time>2026-04-25T09:26:17.049Z</time></trkpt><trkpt lat="41.1875972" lon="9.4563938"><ele>7.0</ele><time>2026-04-25T09:26:19.029Z</time></trkpt><trkpt lat="41.1876623" lon="9.4563872"><ele>6.500000000000001</ele><time>2026-04-25T09:26:20.021Z</time></trkpt><trkpt lat="41.1877325" lon="9.4563636"><ele>6.0</ele><time>2026-04-25T09:26:21.023Z</time></trkpt><trkpt lat="41.1878199" lon="9.4563315"><ele>5.5</ele><time>2026-04-25T09:26:22.027Z</time></trkpt><trkpt lat="41.1879058" lon="9.4562974"><ele>5.0</ele><time>2026-04-25T09:26:23.046Z</time></trkpt><trkpt lat="41.1879904" lon="9.4562655"><ele>4.5</ele><time>2026-04-25T09:26:24.046Z</time></trkpt><trkpt lat="41.1880815" lon="9.4562319"><ele>4.0</ele><time>2026-04-25T09:26:25.041Z</time></trkpt><trkpt lat="41.1881767" lon="9.4561999"><ele>3.6</ele><time>2026-04-25T09:26:26.043Z</time></trkpt><trkpt lat="41.1882975" lon="9.4562127"><ele>3.2</ele><time>2026-04-25T09:26:27.042Z</time></trkpt><trkpt lat="41.1883987" lon="9.4561882"><ele>2.8000000000000003</ele><time>2026-04-25T09:26:28.039Z</time></trkpt><trkpt lat="41.1884955" lon="9.4561538"><ele>2.4000000000000004</ele><time>2026-04-25T09:26:29.037Z</time></trkpt><trkpt lat="41.1885864" lon="9.4561395"><ele>2.0</ele><time>2026-04-25T09:26:30.034Z</time></trkpt><trkpt lat="41.188688" lon="9.4561312"><ele>2.0</ele><time>2026-04-25T09:26:31.037Z</time></trkpt><trkpt lat="41.1887825" lon="9.4561408"><ele>2.0</ele><time>2026-04-25T09:26:32.032Z</time></trkpt><trkpt lat="41.1888879" lon="9.4561598"><ele>2.0</ele><time>2026-04-25T09:26:33.033Z</time></trkpt><trkpt lat="41.1889953" lon="9.4561839"><ele>2.0</ele><time>2026-04-25T09:26:34.023Z</time></trkpt><trkpt lat="41.1891069" lon="9.4561977"><ele>2.0</ele><time>2026-04-25T09:26:35.018Z</time></trkpt><trkpt lat="41.1892143" lon="9.4562055"><ele>1.75</ele><time>2026-04-25T09:26:36.017Z</time></trkpt><trkpt lat="41.1893298" lon="9.4562009"><ele>1.5</ele><time>2026-04-25T09:26:37.036Z</time></trkpt><trkpt lat="41.1894488" lon="9.4561965"><ele>1.25</ele><time>2026-04-25T09:26:38.036Z</time></trkpt><trkpt lat="41.1895672" lon="9.4561863"><ele>1.0</ele><time>2026-04-25T09:26:39.039Z</time></trkpt><trkpt lat="41.189688" lon="9.4561733"><ele>1.0</ele><time>2026-04-25T09:26:40.04Z</time></trkpt><trkpt lat="41.1898085" lon="9.4561563"><ele>1.0</ele><time>2026-04-25T09:26:41.042Z</time></trkpt><trkpt lat="41.18993" lon="9.4561341"><ele>1.0</ele><time>2026-04-25T09:26:42.044Z</time></trkpt><trkpt lat="41.1900584" lon="9.4561169"><ele>1.0</ele><time>2026-04-25T09:26:43.055Z</time></trkpt><trkpt lat="41.1901812" lon="9.4561021"><ele>1.0</ele><time>2026-04-25T09:26:44.041Z</time></trkpt><trkpt lat="41.1903076" lon="9.4560972"><ele>1.0</ele><time>2026-04-25T09:26:45.041Z</time></trkpt><trkpt lat="41.1904314" lon="9.4560939"><ele>1.0</ele><time>2026-04-25T09:26:46.042Z</time></trkpt><trkpt lat="41.1905497" lon="9.4560862"><ele>1.0</ele><time>2026-04-25T09:26:47.04Z</time></trkpt><trkpt lat="41.1906671" lon="9.4560733"><ele>2.25</ele><time>2026-04-25T09:26:48.039Z</time></trkpt><trkpt lat="41.1907895" lon="9.4560637"><ele>3.5</ele><time>2026-04-25T09:26:49.038Z</time></trkpt><trkpt lat="41.1909116" lon="9.4560517"><ele>4.75</ele><time>2026-04-25T09:26:50.04Z</time></trkpt><trkpt lat="41.1910341" lon="9.4560384"><ele>6.0</ele><time>2026-04-25T09:26:51.042Z</time></trkpt><trkpt lat="41.1911567" lon="9.4560248"><ele>6.0</ele><time>2026-04-25T09:26:52.04Z</time></trkpt><trkpt lat="41.1912794" lon="9.4560134"><ele>6.0</ele><time>2026-04-25T09:26:53.045Z</time></trkpt><trkpt lat="41.1914035" lon="9.4560044"><ele>6.0</ele><time>2026-04-25T09:26:54.037Z</time></trkpt><trkpt lat="41.1915348" lon="9.4559967"><ele>6.0</ele><time>2026-04-25T09:26:55.042Z</time></trkpt><trkpt lat="41.1916728" lon="9.4559919"><ele>7.0</ele><time>2026-04-25T09:26:56.042Z</time></trkpt><trkpt lat="41.1918148" lon="9.4559914"><ele>8.0</ele><time>2026-04-25T09:26:57.04Z</time></trkpt><trkpt lat="41.1919592" lon="9.4559934"><ele>9.0</ele><time>2026-04-25T09:26:58.041Z</time></trkpt><trkpt lat="41.1921052" lon="9.4559973"><ele>10.0</ele><time>2026-04-25T09:26:59.038Z</time></trkpt><trkpt lat="41.1922542" lon="9.4560008"><ele>9.333333333333334</ele><time>2026-04-25T09:27:00.036Z</time></trkpt><trkpt lat="41.1924062" lon="9.4560044"><ele>8.666666666666666</ele><time>2026-04-25T09:27:01.038Z</time></trkpt><trkpt lat="41.1925568" lon="9.4560067"><ele>8.0</ele><time>2026-04-25T09:27:02.038Z</time></trkpt><trkpt lat="41.1927073" lon="9.4560031"><ele>8.0</ele><time>2026-04-25T09:27:03.051Z</time></trkpt><trkpt lat="41.1928567" lon="9.4559994"><ele>8.0</ele><time>2026-04-25T09:27:04.039Z</time></trkpt><trkpt lat="41.1929995" lon="9.4559945"><ele>8.0</ele><time>2026-04-25T09:27:05.04Z</time></trkpt><trkpt lat="41.1931431" lon="9.4559849"><ele>8.0</ele><time>2026-04-25T09:27:06.036Z</time></trkpt><trkpt lat="41.1932854" lon="9.4559821"><ele>9.0</ele><time>2026-04-25T09:27:07.032Z</time></trkpt><trkpt lat="41.1934212" lon="9.4559916"><ele>10.0</ele><time>2026-04-25T09:27:08.033Z</time></trkpt><trkpt lat="41.1935522" lon="9.4560002"><ele>11.0</ele><time>2026-04-25T09:27:09.039Z</time></trkpt><trkpt lat="41.1936559" lon="9.456028"><ele>12.0</ele><time>2026-04-25T09:27:10.033Z</time></trkpt><trkpt lat="41.1937333" lon="9.4560768"><ele>12.0</ele><time>2026-04-25T09:27:11.035Z</time></trkpt><trkpt lat="41.1937761" lon="9.4561689"><ele>12.0</ele><time>2026-04-25T09:27:12.014Z</time></trkpt><trkpt lat="41.1938136" lon="9.4562767"><ele>12.0</ele><time>2026-04-25T09:27:13.029Z</time></trkpt><trkpt lat="41.1938639" lon="9.4563916"><ele>12.0</ele><time>2026-04-25T09:27:14.022Z</time></trkpt><trkpt lat="41.1939278" lon="9.4565294"><ele>12.0</ele><time>2026-04-25T09:27:15.021Z</time></trkpt><trkpt lat="41.1939947" lon="9.4566789"><ele>12.25</ele><time>2026-04-25T09:27:16.041Z</time></trkpt><trkpt lat="41.1940629" lon="9.4568327"><ele>12.5</ele><time>2026-04-25T09:27:17.04Z</time></trkpt><trkpt lat="41.1941312" lon="9.4569881"><ele>12.75</ele><time>2026-04-25T09:27:18.042Z</time></trkpt><trkpt lat="41.194202" lon="9.4571437"><ele>13.0</ele><time>2026-04-25T09:27:19.047Z</time></trkpt><trkpt lat="41.1942745" lon="9.4572918"><ele>13.0</ele><time>2026-04-25T09:27:20.037Z</time></trkpt><trkpt lat="41.1943356" lon="9.4574254"><ele>13.0</ele><time>2026-04-25T09:27:21.043Z</time></trkpt><trkpt lat="41.1943908" lon="9.4575562"><ele>13.0</ele><time>2026-04-25T09:27:22.043Z</time></trkpt><trkpt lat="41.1944484" lon="9.4576766"><ele>13.0</ele><time>2026-04-25T09:27:23.046Z</time></trkpt><trkpt lat="41.1945147" lon="9.4577712"><ele>13.0</ele><time>2026-04-25T09:27:24.034Z</time></trkpt><trkpt lat="41.1945996" lon="9.4578077"><ele>13.0</ele><time>2026-04-25T09:27:25.019Z</time></trkpt><trkpt lat="41.1946846" lon="9.4577998"><ele>13.0</ele><time>2026-04-25T09:27:26.01Z</time></trkpt><trkpt lat="41.1947802" lon="9.4577846"><ele>13.0</ele><time>2026-04-25T09:27:27.013Z</time></trkpt><trkpt lat="41.1948861" lon="9.4577682"><ele>13.0</ele><time>2026-04-25T09:27:28.017Z</time></trkpt><trkpt lat="41.1950016" lon="9.4577931"><ele>13.0</ele><time>2026-04-25T09:27:29.014Z</time></trkpt><trkpt lat="41.1951219" lon="9.4577788"><ele>11.75</ele><time>2026-04-25T09:27:30.028Z</time></trkpt><trkpt lat="41.1952406" lon="9.4577685"><ele>10.5</ele><time>2026-04-25T09:27:31.021Z</time></trkpt><trkpt lat="41.1953607" lon="9.4577545"><ele>9.25</ele><time>2026-04-25T09:27:32.028Z</time></trkpt><trkpt lat="41.1954772" lon="9.4577357"><ele>8.0</ele><time>2026-04-25T09:27:33.035Z</time></trkpt><trkpt lat="41.1955902" lon="9.4577064"><ele>7.4</ele><time>2026-04-25T09:27:34.026Z</time></trkpt><trkpt lat="41.1956967" lon="9.4576635"><ele>6.800000000000001</ele><time>2026-04-25T09:27:35.028Z</time></trkpt><trkpt lat="41.1957983" lon="9.4576182"><ele>6.2</ele><time>2026-04-25T09:27:36.034Z</time></trkpt><trkpt lat="41.1958973" lon="9.4575783"><ele>5.6</ele><time>2026-04-25T09:27:37.019Z</time></trkpt><trkpt lat="41.1959917" lon="9.4575398"><ele>5.0</ele><time>2026-04-25T09:27:38.02Z</time></trkpt><trkpt lat="41.1960687" lon="9.4574995"><ele>5.0</ele><time>2026-04-25T09:27:39.02Z</time></trkpt><trkpt lat="41.196153" lon="9.4574616"><ele>5.0</ele><time>2026-04-25T09:27:40.019Z</time></trkpt><trkpt lat="41.1962303" lon="9.4574245"><ele>5.0</ele><time>2026-04-25T09:27:41.032Z</time></trkpt><trkpt lat="41.1962961" lon="9.4573954"><ele>5.0</ele><time>2026-04-25T09:27:42.031Z</time></trkpt><trkpt lat="41.1963731" lon="9.457386"><ele>5.0</ele><time>2026-04-25T09:27:44.022Z</time></trkpt><trkpt lat="41.1963742" lon="9.4574904"><ele>5.0</ele><time>2026-04-25T09:27:48.95Z</time></trkpt><trkpt lat="41.1963484" lon="9.4575739"><ele>5.0</ele><time>2026-04-25T09:27:49.947Z</time></trkpt><trkpt lat="41.1963128" lon="9.4576776"><ele>5.0</ele><time>2026-04-25T09:27:50.943Z</time></trkpt><trkpt lat="41.1962836" lon="9.4578074"><ele>5.0</ele><time>2026-04-25T09:27:51.946Z</time></trkpt><trkpt lat="41.1962682" lon="9.4579508"><ele>5.0</ele><time>2026-04-25T09:27:52.931Z</time></trkpt><trkpt lat="41.1962623" lon="9.4581063"><ele>5.0</ele><time>2026-04-25T09:27:53.937Z</time></trkpt><trkpt lat="41.1962445" lon="9.4582655"><ele>5.75</ele><time>2026-04-25T09:27:54.931Z</time></trkpt><trkpt lat="41.1962371" lon="9.4584318"><ele>6.5</ele><time>2026-04-25T09:27:55.934Z</time></trkpt><trkpt lat="41.1962268" lon="9.4585865"><ele>7.25</ele><time>2026-04-25T09:27:56.933Z</time></trkpt><trkpt lat="41.1962107" lon="9.4587424"><ele>8.0</ele><time>2026-04-25T09:27:57.941Z</time></trkpt><trkpt lat="41.1961881" lon="9.4588952"><ele>8.0</ele><time>2026-04-25T09:27:58.937Z</time></trkpt><trkpt lat="41.1961732" lon="9.4590519"><ele>8.0</ele><time>2026-04-25T09:27:59.944Z</time></trkpt><trkpt lat="41.1961631" lon="9.459206"><ele>8.0</ele><time>2026-04-25T09:28:00.941Z</time></trkpt><trkpt lat="41.1961643" lon="9.4593495"><ele>8.0</ele><time>2026-04-25T09:28:01.946Z</time></trkpt><trkpt lat="41.1961594" lon="9.4594796"><ele>8.0</ele><time>2026-04-25T09:28:02.942Z</time></trkpt><trkpt lat="41.1961702" lon="9.4595997"><ele>8.200000000000001</ele><time>2026-04-25T09:28:03.946Z</time></trkpt><trkpt lat="41.1961952" lon="9.4597016"><ele>8.4</ele><time>2026-04-25T09:28:04.947Z</time></trkpt><trkpt lat="41.1962483" lon="9.4598032"><ele>8.600000000000001</ele><time>2026-04-25T09:28:05.948Z</time></trkpt><trkpt lat="41.196301" lon="9.4599089"><ele>8.8</ele><time>2026-04-25T09:28:06.949Z</time></trkpt><trkpt lat="41.1963692" lon="9.4600177"><ele>9.0</ele><time>2026-04-25T09:28:07.952Z</time></trkpt><trkpt lat="41.1964483" lon="9.4601318"><ele>8.75</ele><time>2026-04-25T09:28:08.947Z</time></trkpt><trkpt lat="41.1965163" lon="9.4602463"><ele>8.5</ele><time>2026-04-25T09:28:09.944Z</time></trkpt><trkpt lat="41.1965934" lon="9.4603677"><ele>8.25</ele><time>2026-04-25T09:28:10.948Z</time></trkpt><trkpt lat="41.1966711" lon="9.4604811"><ele>8.0</ele><time>2026-04-25T09:28:11.943Z</time></trkpt><trkpt lat="41.196749" lon="9.4605927"><ele>8.5</ele><time>2026-04-25T09:28:12.942Z</time></trkpt><trkpt lat="41.1968067" lon="9.4606984"><ele>9.0</ele><time>2026-04-25T09:28:13.942Z</time></trkpt><trkpt lat="41.1968604" lon="9.4607849"><ele>9.5</ele><time>2026-04-25T09:28:14.94Z</time></trkpt><trkpt lat="41.1969137" lon="9.4608714"><ele>10.0</ele><time>2026-04-25T09:28:15.943Z</time></trkpt><trkpt lat="41.1969599" lon="9.4609426"><ele>10.5</ele><time>2026-04-25T09:28:16.933Z</time></trkpt><trkpt lat="41.1969971" lon="9.461026"><ele>11.0</ele><time>2026-04-25T09:28:17.934Z</time></trkpt><trkpt lat="41.1970147" lon="9.461131"><ele>11.0</ele><time>2026-04-25T09:28:18.932Z</time></trkpt><trkpt lat="41.1970194" lon="9.4612568"><ele>11.0</ele><time>2026-04-25T09:28:19.93Z</time></trkpt><trkpt lat="41.1970099" lon="9.4613804"><ele>11.0</ele><time>2026-04-25T09:28:20.94Z</time></trkpt><trkpt lat="41.1970005" lon="9.4615273"><ele>11.0</ele><time>2026-04-25T09:28:21.937Z</time></trkpt><trkpt lat="41.1969997" lon="9.461677"><ele>11.0</ele><time>2026-04-25T09:28:22.933Z</time></trkpt><trkpt lat="41.1969992" lon="9.4618229"><ele>11.600000000000001</ele><time>2026-04-25T09:28:23.937Z</time></trkpt><trkpt lat="41.1970046" lon="9.4619523"><ele>12.2</ele><time>2026-04-25T09:28:24.933Z</time></trkpt><trkpt lat="41.1970127" lon="9.4620742"><ele>12.799999999999999</ele><time>2026-04-25T09:28:25.935Z</time></trkpt><trkpt lat="41.1970332" lon="9.462194"><ele>13.399999999999999</ele><time>2026-04-25T09:28:26.942Z</time></trkpt><trkpt lat="41.1970933" lon="9.4622706"><ele>14.0</ele><time>2026-04-25T09:28:27.934Z</time></trkpt><trkpt lat="41.1971656" lon="9.4623446"><ele>15.0</ele><time>2026-04-25T09:28:28.931Z</time></trkpt><trkpt lat="41.1972384" lon="9.4624173"><ele>15.999999999999998</ele><time>2026-04-25T09:28:29.938Z</time></trkpt><trkpt lat="41.1973123" lon="9.4625025"><ele>17.0</ele><time>2026-04-25T09:28:30.938Z</time></trkpt><trkpt lat="41.1973846" lon="9.4625955"><ele>18.0</ele><time>2026-04-25T09:28:31.939Z</time></trkpt><trkpt lat="41.1974484" lon="9.4626852"><ele>19.0</ele><time>2026-04-25T09:28:32.939Z</time></trkpt><trkpt lat="41.1975094" lon="9.4627783"><ele>19.0</ele><time>2026-04-25T09:28:33.938Z</time></trkpt><trkpt lat="41.1975709" lon="9.4628583"><ele>19.0</ele><time>2026-04-25T09:28:34.937Z</time></trkpt><trkpt lat="41.1976227" lon="9.4629399"><ele>19.0</ele><time>2026-04-25T09:28:35.943Z</time></trkpt><trkpt lat="41.1976521" lon="9.4630213"><ele>19.0</ele><time>2026-04-25T09:28:36.946Z</time></trkpt><trkpt lat="41.1976869" lon="9.4631096"><ele>19.0</ele><time>2026-04-25T09:28:37.947Z</time></trkpt><trkpt lat="41.1977189" lon="9.4632118"><ele>19.0</ele><time>2026-04-25T09:28:38.945Z</time></trkpt><trkpt lat="41.1977607" lon="9.463326"><ele>20.2</ele><time>2026-04-25T09:28:39.948Z</time></trkpt><trkpt lat="41.1977924" lon="9.4634405"><ele>21.4</ele><time>2026-04-25T09:28:40.944Z</time></trkpt><trkpt lat="41.1978194" lon="9.463562"><ele>22.6</ele><time>2026-04-25T09:28:41.944Z</time></trkpt><trkpt lat="41.1978497" lon="9.4636852"><ele>23.8</ele><time>2026-04-25T09:28:42.94Z</time></trkpt><trkpt lat="41.1978762" lon="9.4638165"><ele>25.0</ele><time>2026-04-25T09:28:43.941Z</time></trkpt><trkpt lat="41.1979053" lon="9.4639521"><ele>26.6</ele><time>2026-04-25T09:28:44.938Z</time></trkpt><trkpt lat="41.1979349" lon="9.4640913"><ele>28.2</ele><time>2026-04-25T09:28:45.935Z</time></trkpt><trkpt lat="41.1979507" lon="9.4642214"><ele>29.799999999999997</ele><time>2026-04-25T09:28:46.938Z</time></trkpt><trkpt lat="41.1979709" lon="9.464356"><ele>31.4</ele><time>2026-04-25T09:28:47.933Z</time></trkpt><trkpt lat="41.1979869" lon="9.4644931"><ele>33.0</ele><time>2026-04-25T09:28:48.934Z</time></trkpt><trkpt lat="41.1979967" lon="9.4646394"><ele>34.0</ele><time>2026-04-25T09:28:49.933Z</time></trkpt><trkpt lat="41.1980181" lon="9.4647853"><ele>35.0</ele><time>2026-04-25T09:28:50.939Z</time></trkpt><trkpt lat="41.1980395" lon="9.4649262"><ele>36.0</ele><time>2026-04-25T09:28:51.94Z</time></trkpt><trkpt lat="41.1980564" lon="9.4650618"><ele>37.0</ele><time>2026-04-25T09:28:52.935Z</time></trkpt><trkpt lat="41.1980782" lon="9.4651894"><ele>38.0</ele><time>2026-04-25T09:28:53.94Z</time></trkpt><trkpt lat="41.1980922" lon="9.4653291"><ele>38.199999999999996</ele><time>2026-04-25T09:28:54.936Z</time></trkpt><trkpt lat="41.1980941" lon="9.465457"><ele>38.4</ele><time>2026-04-25T09:28:55.938Z</time></trkpt><trkpt lat="41.1980859" lon="9.4655842"><ele>38.599999999999994</ele><time>2026-04-25T09:28:56.938Z</time></trkpt><trkpt lat="41.1980608" lon="9.4657131"><ele>38.8</ele><time>2026-04-25T09:28:57.936Z</time></trkpt><trkpt lat="41.1980422" lon="9.4658534"><ele>39.0</ele><time>2026-04-25T09:28:58.929Z</time></trkpt><trkpt lat="41.1980436" lon="9.4659919"><ele>39.0</ele><time>2026-04-25T09:28:59.934Z</time></trkpt><trkpt lat="41.1980516" lon="9.4661121"><ele>39.0</ele><time>2026-04-25T09:29:00.932Z</time></trkpt><trkpt lat="41.1980625" lon="9.4662299"><ele>39.0</ele><time>2026-04-25T09:29:01.935Z</time></trkpt><trkpt lat="41.1980586" lon="9.4663456"><ele>39.0</ele><time>2026-04-25T09:29:02.931Z</time></trkpt><trkpt lat="41.1980394" lon="9.4664531"><ele>39.0</ele><time>2026-04-25T09:29:03.927Z</time></trkpt><trkpt lat="41.1980053" lon="9.4665648"><ele>39.0</ele><time>2026-04-25T09:29:04.929Z</time></trkpt><trkpt lat="41.197958" lon="9.4666738"><ele>39.6</ele><time>2026-04-25T09:29:05.929Z</time></trkpt><trkpt lat="41.1979115" lon="9.4667838"><ele>40.2</ele><time>2026-04-25T09:29:06.927Z</time></trkpt><trkpt lat="41.1978791" lon="9.4668955"><ele>40.800000000000004</ele><time>2026-04-25T09:29:07.929Z</time></trkpt><trkpt lat="41.1978601" lon="9.4670249"><ele>41.4</ele><time>2026-04-25T09:29:08.933Z</time></trkpt><trkpt lat="41.1978507" lon="9.4671569"><ele>42.0</ele><time>2026-04-25T09:29:09.933Z</time></trkpt><trkpt lat="41.1978427" lon="9.4672964"><ele>43.6</ele><time>2026-04-25T09:29:10.934Z</time></trkpt><trkpt lat="41.1978341" lon="9.4674386"><ele>45.2</ele><time>2026-04-25T09:29:11.939Z</time></trkpt><trkpt lat="41.1978226" lon="9.4675877"><ele>46.8</ele><time>2026-04-25T09:29:12.934Z</time></trkpt><trkpt lat="41.1978124" lon="9.4677273"><ele>48.4</ele><time>2026-04-25T09:29:13.935Z</time></trkpt><trkpt lat="41.1978064" lon="9.467857"><ele>50.0</ele><time>2026-04-25T09:29:14.935Z</time></trkpt><trkpt lat="41.1978039" lon="9.4679586"><ele>51.00000000000001</ele><time>2026-04-25T09:29:15.932Z</time></trkpt><trkpt lat="41.1978087" lon="9.4680474"><ele>52.0</ele><time>2026-04-25T09:29:16.932Z</time></trkpt><trkpt lat="41.1978683" lon="9.4682018"><ele>53.0</ele><time>2026-04-25T09:29:18.928Z</time></trkpt><trkpt lat="41.1979203" lon="9.4682773"><ele>54.0</ele><time>2026-04-25T09:29:19.926Z</time></trkpt><trkpt lat="41.1979868" lon="9.4683383"><ele>55.00000000000001</ele><time>2026-04-25T09:29:20.927Z</time></trkpt><trkpt lat="41.1980466" lon="9.4683832"><ele>56.0</ele><time>2026-04-25T09:29:21.929Z</time></trkpt><trkpt lat="41.1981225" lon="9.4684112"><ele>55.599999999999994</ele><time>2026-04-25T09:29:22.926Z</time></trkpt><trkpt lat="41.1982034" lon="9.4684012"><ele>55.199999999999996</ele><time>2026-04-25T09:29:23.934Z</time></trkpt><trkpt lat="41.1982941" lon="9.4683703"><ele>54.800000000000004</ele><time>2026-04-25T09:29:24.933Z</time></trkpt><trkpt lat="41.1983964" lon="9.4683249"><ele>54.400000000000006</ele><time>2026-04-25T09:29:25.938Z</time></trkpt><trkpt lat="41.1984918" lon="9.4682801"><ele>54.0</ele><time>2026-04-25T09:29:26.935Z</time></trkpt><trkpt lat="41.1985846" lon="9.4682507"><ele>54.0</ele><time>2026-04-25T09:29:27.932Z</time></trkpt><trkpt lat="41.1986709" lon="9.4682465"><ele>54.00000000000001</ele><time>2026-04-25T09:29:28.933Z</time></trkpt><trkpt lat="41.1987537" lon="9.4682903"><ele>54.00000000000001</ele><time>2026-04-25T09:29:29.937Z</time></trkpt><trkpt lat="41.198841" lon="9.468348"><ele>54.0</ele><time>2026-04-25T09:29:30.943Z</time></trkpt><trkpt lat="41.198935" lon="9.4683968"><ele>54.0</ele><time>2026-04-25T09:29:31.94Z</time></trkpt><trkpt lat="41.1990351" lon="9.4684226"><ele>55.0</ele><time>2026-04-25T09:29:32.935Z</time></trkpt><trkpt lat="41.1991432" lon="9.4684397"><ele>56.00000000000001</ele><time>2026-04-25T09:29:33.929Z</time></trkpt><trkpt lat="41.1992464" lon="9.4684427"><ele>57.00000000000001</ele><time>2026-04-25T09:29:34.943Z</time></trkpt><trkpt lat="41.1993451" lon="9.4684294"><ele>58.0</ele><time>2026-04-25T09:29:35.943Z</time></trkpt><trkpt lat="41.1994414" lon="9.4683982"><ele>59.0</ele><time>2026-04-25T09:29:36.943Z</time></trkpt><trkpt lat="41.1995316" lon="9.468341"><ele>59.0</ele><time>2026-04-25T09:29:37.948Z</time></trkpt><trkpt lat="41.1996212" lon="9.4682709"><ele>59.00000000000001</ele><time>2026-04-25T09:29:38.933Z</time></trkpt><trkpt lat="41.1996976" lon="9.4681937"><ele>59.00000000000001</ele><time>2026-04-25T09:29:39.94Z</time></trkpt><trkpt lat="41.1997671" lon="9.4681483"><ele>59.0</ele><time>2026-04-25T09:29:40.928Z</time></trkpt><trkpt lat="41.1998451" lon="9.4681267"><ele>59.0</ele><time>2026-04-25T09:29:41.934Z</time></trkpt><trkpt lat="41.1999403" lon="9.4681198"><ele>61.2</ele><time>2026-04-25T09:29:42.928Z</time></trkpt><trkpt lat="41.2000431" lon="9.4681368"><ele>63.400000000000006</ele><time>2026-04-25T09:29:43.934Z</time></trkpt><trkpt lat="41.200138" lon="9.4681783"><ele>65.6</ele><time>2026-04-25T09:29:44.941Z</time></trkpt><trkpt lat="41.2002207" lon="9.4682146"><ele>67.8</ele><time>2026-04-25T09:29:45.941Z</time></trkpt><trkpt lat="41.2003223" lon="9.4682368"><ele>70.0</ele><time>2026-04-25T09:29:46.938Z</time></trkpt><trkpt lat="41.200426" lon="9.4682675"><ele>70.0</ele><time>2026-04-25T09:29:47.938Z</time></trkpt><trkpt lat="41.2005285" lon="9.4683019"><ele>70.0</ele><time>2026-04-25T09:29:48.944Z</time></trkpt><trkpt lat="41.2006318" lon="9.4683289"><ele>70.0</ele><time>2026-04-25T09:29:49.944Z</time></trkpt><trkpt lat="41.2007254" lon="9.4683477"><ele>70.0</ele><time>2026-04-25T09:29:50.941Z</time></trkpt><trkpt lat="41.2008299" lon="9.4683574"><ele>70.0</ele><time>2026-04-25T09:29:51.942Z</time></trkpt><trkpt lat="41.200932" lon="9.4683515"><ele>71.0</ele><time>2026-04-25T09:29:52.937Z</time></trkpt><trkpt lat="41.2010309" lon="9.4683239"><ele>72.0</ele><time>2026-04-25T09:29:53.944Z</time></trkpt><trkpt lat="41.2011136" lon="9.4682988"><ele>73.0</ele><time>2026-04-25T09:29:54.938Z</time></trkpt><trkpt lat="41.2012048" lon="9.4682685"><ele>74.0</ele><time>2026-04-25T09:29:55.937Z</time></trkpt><trkpt lat="41.2012748" lon="9.4682626"><ele>75.0</ele><time>2026-04-25T09:29:56.941Z</time></trkpt><trkpt lat="41.2013408" lon="9.4682599"><ele>76.0</ele><time>2026-04-25T09:29:57.941Z</time></trkpt><trkpt lat="41.2014597" lon="9.4683419"><ele>75.66666666666666</ele><time>2026-04-25T09:29:59.932Z</time></trkpt><trkpt lat="41.2015145" lon="9.4684124"><ele>75.33333333333333</ele><time>2026-04-25T09:30:00.938Z</time></trkpt><trkpt lat="41.2015387" lon="9.4685257"><ele>75.0</ele><time>2026-04-25T09:30:01.933Z</time></trkpt><trkpt lat="41.2015658" lon="9.468637"><ele>74.66666666666667</ele><time>2026-04-25T09:30:02.939Z</time></trkpt><trkpt lat="41.2015761" lon="9.4687471"><ele>74.33333333333334</ele><time>2026-04-25T09:30:03.932Z</time></trkpt><trkpt lat="41.2015855" lon="9.4688634"><ele>74.0</ele><time>2026-04-25T09:30:04.929Z</time></trkpt><trkpt lat="41.2015927" lon="9.4690202"><ele>75.4</ele><time>2026-04-25T09:30:06.932Z</time></trkpt><trkpt lat="41.2016188" lon="9.469129"><ele>76.80000000000001</ele><time>2026-04-25T09:30:08.938Z</time></trkpt><trkpt lat="41.2017017" lon="9.4692199"><ele>78.19999999999999</ele><time>2026-04-25T09:30:10.938Z</time></trkpt><trkpt lat="41.2017537" lon="9.469283"><ele>79.6</ele><time>2026-04-25T09:30:11.952Z</time></trkpt><trkpt lat="41.2018129" lon="9.4693383"><ele>81.0</ele><time>2026-04-25T09:30:12.945Z</time></trkpt><trkpt lat="41.2019245" lon="9.4694299"><ele>81.0</ele><time>2026-04-25T09:30:14.945Z</time></trkpt><trkpt lat="41.201986" lon="9.4694688"><ele>81.0</ele><time>2026-04-25T09:30:15.941Z</time></trkpt><trkpt lat="41.2020673" lon="9.4694763"><ele>81.0</ele><time>2026-04-25T09:30:17.942Z</time></trkpt><trkpt lat="41.2021312" lon="9.4694783"><ele>81.0</ele><time>2026-04-25T09:30:19.941Z</time></trkpt><trkpt lat="41.2022182" lon="9.4694629"><ele>81.0</ele><time>2026-04-25T09:30:22.948Z</time></trkpt><trkpt lat="41.2022995" lon="9.4694268"><ele>81.0</ele><time>2026-04-25T09:30:24.956Z</time></trkpt><trkpt lat="41.2023972" lon="9.4693527"><ele>82.0</ele><time>2026-04-25T09:30:26.959Z</time></trkpt><trkpt lat="41.2024488" lon="9.4693037"><ele>83.0</ele><time>2026-04-25T09:30:27.96Z</time></trkpt><trkpt lat="41.2025186" lon="9.4691616"><ele>84.0</ele><time>2026-04-25T09:30:29.96Z</time></trkpt><trkpt lat="41.2025424" lon="9.4690757"><ele>85.0</ele><time>2026-04-25T09:30:30.964Z</time></trkpt><trkpt lat="41.2025609" lon="9.4689922"><ele>86.0</ele><time>2026-04-25T09:30:31.965Z</time></trkpt><trkpt lat="41.2025976" lon="9.4688752"><ele>87.0</ele><time>2026-04-25T09:30:33.957Z</time></trkpt><trkpt lat="41.2026884" lon="9.4688512"><ele>87.0</ele><time>2026-04-25T09:30:35.962Z</time></trkpt><trkpt lat="41.2028149" lon="9.4688783"><ele>87.0</ele><time>2026-04-25T09:30:37.96Z</time></trkpt><trkpt lat="41.2029215" lon="9.4689154"><ele>87.0</ele><time>2026-04-25T09:30:39.959Z</time></trkpt><trkpt lat="41.203006" lon="9.4689281"><ele>87.0</ele><time>2026-04-25T09:30:41.96Z</time></trkpt><trkpt lat="41.2030999" lon="9.4689393"><ele>87.0</ele><time>2026-04-25T09:30:43.96Z</time></trkpt><trkpt lat="41.2032022" lon="9.4689349"><ele>87.39999999999999</ele><time>2026-04-25T09:30:45.96Z</time></trkpt><trkpt lat="41.2033039" lon="9.4688916"><ele>87.8</ele><time>2026-04-25T09:30:47.955Z</time></trkpt><trkpt lat="41.2033905" lon="9.4688043"><ele>88.2</ele><time>2026-04-25T09:30:49.951Z</time></trkpt><trkpt lat="41.2034425" lon="9.4687535"><ele>88.6</ele><time>2026-04-25T09:30:50.953Z</time></trkpt><trkpt lat="41.2035517" lon="9.4686942"><ele>89.0</ele><time>2026-04-25T09:30:52.949Z</time></trkpt><trkpt lat="41.2036758" lon="9.468619"><ele>89.0</ele><time>2026-04-25T09:30:54.947Z</time></trkpt><trkpt lat="41.2037437" lon="9.4686119"><ele>89.0</ele><time>2026-04-25T09:30:55.948Z</time></trkpt><trkpt lat="41.2038207" lon="9.4686127"><ele>89.0</ele><time>2026-04-25T09:30:56.952Z</time></trkpt><trkpt lat="41.2039051" lon="9.468594"><ele>89.0</ele><time>2026-04-25T09:30:57.946Z</time></trkpt><trkpt lat="41.2039878" lon="9.4685708"><ele>89.0</ele><time>2026-04-25T09:30:58.949Z</time></trkpt><trkpt lat="41.2040591" lon="9.468554"><ele>89.0</ele><time>2026-04-25T09:30:59.941Z</time></trkpt><trkpt lat="41.2041222" lon="9.4685557"><ele>88.5</ele><time>2026-04-25T09:31:00.94Z</time></trkpt><trkpt lat="41.2041939" lon="9.4685578"><ele>88.0</ele><time>2026-04-25T09:31:01.951Z</time></trkpt><trkpt lat="41.2042629" lon="9.4685725"><ele>87.5</ele><time>2026-04-25T09:31:02.944Z</time></trkpt><trkpt lat="41.2043931" lon="9.4685932"><ele>87.0</ele><time>2026-04-25T09:31:04.95Z</time></trkpt><trkpt lat="41.204459" lon="9.4686097"><ele>86.5</ele><time>2026-04-25T09:31:05.949Z</time></trkpt><trkpt lat="41.2045344" lon="9.4686119"><ele>86.0</ele><time>2026-04-25T09:31:06.948Z</time></trkpt><trkpt lat="41.2046088" lon="9.4686199"><ele>86.0</ele><time>2026-04-25T09:31:07.946Z</time></trkpt><trkpt lat="41.2046797" lon="9.4686404"><ele>86.0</ele><time>2026-04-25T09:31:08.939Z</time></trkpt><trkpt lat="41.2047469" lon="9.4686781"><ele>86.0</ele><time>2026-04-25T09:31:09.942Z</time></trkpt><trkpt lat="41.2048118" lon="9.4687114"><ele>86.0</ele><time>2026-04-25T09:31:10.943Z</time></trkpt><trkpt lat="41.2049215" lon="9.4687525"><ele>86.0</ele><time>2026-04-25T09:31:12.944Z</time></trkpt><trkpt lat="41.2050124" lon="9.4687768"><ele>86.0</ele><time>2026-04-25T09:31:14.941Z</time></trkpt><trkpt lat="41.2051199" lon="9.4687618"><ele>85.66666666666667</ele><time>2026-04-25T09:31:16.942Z</time></trkpt><trkpt lat="41.2052114" lon="9.4687251"><ele>85.33333333333334</ele><time>2026-04-25T09:31:18.942Z</time></trkpt><trkpt lat="41.2052753" lon="9.4686587"><ele>85.0</ele><time>2026-04-25T09:31:20.949Z</time></trkpt><trkpt lat="41.2053245" lon="9.4686007"><ele>84.66666666666667</ele><time>2026-04-25T09:31:21.943Z</time></trkpt><trkpt lat="41.2053818" lon="9.4685631"><ele>84.33333333333333</ele><time>2026-04-25T09:31:22.94Z</time></trkpt><trkpt lat="41.2054418" lon="9.4685234"><ele>84.0</ele><time>2026-04-25T09:31:23.942Z</time></trkpt><trkpt lat="41.2055596" lon="9.4684606"><ele>84.0</ele><time>2026-04-25T09:31:25.945Z</time></trkpt><trkpt lat="41.2056311" lon="9.4684222"><ele>84.0</ele><time>2026-04-25T09:31:26.952Z</time></trkpt><trkpt lat="41.2057054" lon="9.4683852"><ele>84.0</ele><time>2026-04-25T09:31:27.952Z</time></trkpt><trkpt lat="41.205792" lon="9.468352"><ele>84.0</ele><time>2026-04-25T09:31:28.945Z</time></trkpt><trkpt lat="41.2058798" lon="9.4683217"><ele>84.0</ele><time>2026-04-25T09:31:29.944Z</time></trkpt><trkpt lat="41.2059577" lon="9.4682795"><ele>84.0</ele><time>2026-04-25T09:31:30.94Z</time></trkpt><trkpt lat="41.2060372" lon="9.468246"><ele>84.0</ele><time>2026-04-25T09:31:31.943Z</time></trkpt><trkpt lat="41.2061096" lon="9.4682234"><ele>84.0</ele><time>2026-04-25T09:31:32.943Z</time></trkpt><trkpt lat="41.2061829" lon="9.4681854"><ele>84.0</ele><time>2026-04-25T09:31:33.943Z</time></trkpt><trkpt lat="41.2062557" lon="9.4681466"><ele>84.0</ele><time>2026-04-25T09:31:34.939Z</time></trkpt><trkpt lat="41.2063278" lon="9.4681166"><ele>84.0</ele><time>2026-04-25T09:31:35.941Z</time></trkpt><trkpt lat="41.2064131" lon="9.4680843"><ele>84.0</ele><time>2026-04-25T09:31:36.939Z</time></trkpt><trkpt lat="41.2064951" lon="9.4680421"><ele>83.66666666666667</ele><time>2026-04-25T09:31:37.943Z</time></trkpt><trkpt lat="41.2065687" lon="9.4679971"><ele>83.33333333333333</ele><time>2026-04-25T09:31:38.947Z</time></trkpt><trkpt lat="41.2066335" lon="9.4679333"><ele>83.0</ele><time>2026-04-25T09:31:39.939Z</time></trkpt><trkpt lat="41.2067062" lon="9.4678549"><ele>82.66666666666666</ele><time>2026-04-25T09:31:40.943Z</time></trkpt><trkpt lat="41.2067714" lon="9.4677678"><ele>82.33333333333333</ele><time>2026-04-25T09:31:41.947Z</time></trkpt><trkpt lat="41.2068373" lon="9.4676805"><ele>82.0</ele><time>2026-04-25T09:31:42.953Z</time></trkpt><trkpt lat="41.206885" lon="9.4675904"><ele>80.71428571428571</ele><time>2026-04-25T09:31:43.948Z</time></trkpt><trkpt lat="41.206924" lon="9.4675214"><ele>79.42857142857143</ele><time>2026-04-25T09:31:44.951Z</time></trkpt><trkpt lat="41.2069763" lon="9.4674463"><ele>78.14285714285714</ele><time>2026-04-25T09:31:45.949Z</time></trkpt><trkpt lat="41.2070299" lon="9.4673702"><ele>76.85714285714286</ele><time>2026-04-25T09:31:46.948Z</time></trkpt><trkpt lat="41.2070745" lon="9.4673011"><ele>75.57142857142857</ele><time>2026-04-25T09:31:47.95Z</time></trkpt><trkpt lat="41.2071301" lon="9.4672332"><ele>74.28571428571428</ele><time>2026-04-25T09:31:48.951Z</time></trkpt><trkpt lat="41.2071883" lon="9.4671703"><ele>73.0</ele><time>2026-04-25T09:31:49.944Z</time></trkpt><trkpt lat="41.2072432" lon="9.4671088"><ele>71.33333333333333</ele><time>2026-04-25T09:31:50.945Z</time></trkpt><trkpt lat="41.2072883" lon="9.4670447"><ele>69.66666666666666</ele><time>2026-04-25T09:31:51.952Z</time></trkpt><trkpt lat="41.2073319" lon="9.4669619"><ele>68.0</ele><time>2026-04-25T09:31:52.951Z</time></trkpt><trkpt lat="41.2073853" lon="9.4668791"><ele>66.33333333333333</ele><time>2026-04-25T09:31:53.947Z</time></trkpt><trkpt lat="41.2074381" lon="9.4667953"><ele>64.66666666666667</ele><time>2026-04-25T09:31:54.952Z</time></trkpt><trkpt lat="41.207485" lon="9.4667056"><ele>63.0</ele><time>2026-04-25T09:31:55.947Z</time></trkpt><trkpt lat="41.2075117" lon="9.4666068"><ele>63.0</ele><time>2026-04-25T09:31:56.94Z</time></trkpt><trkpt lat="41.2075293" lon="9.4665103"><ele>63.0</ele><time>2026-04-25T09:31:57.945Z</time></trkpt><trkpt lat="41.2075207" lon="9.4664107"><ele>63.0</ele><time>2026-04-25T09:31:58.944Z</time></trkpt><trkpt lat="41.2075216" lon="9.4663145"><ele>63.0</ele><time>2026-04-25T09:31:59.948Z</time></trkpt><trkpt lat="41.2075141" lon="9.4662278"><ele>63.0</ele><time>2026-04-25T09:32:00.943Z</time></trkpt><trkpt lat="41.2074975" lon="9.4661348"><ele>63.0</ele><time>2026-04-25T09:32:01.949Z</time></trkpt><trkpt lat="41.2074873" lon="9.4660433"><ele>63.0</ele><time>2026-04-25T09:32:02.944Z</time></trkpt><trkpt lat="41.2074887" lon="9.4659586"><ele>62.166666666666664</ele><time>2026-04-25T09:32:03.937Z</time></trkpt><trkpt lat="41.207499" lon="9.4658689"><ele>61.33333333333333</ele><time>2026-04-25T09:32:04.933Z</time></trkpt><trkpt lat="41.2075275" lon="9.4657833"><ele>60.5</ele><time>2026-04-25T09:32:05.93Z</time></trkpt><trkpt lat="41.2075905" lon="9.4657204"><ele>59.666666666666664</ele><time>2026-04-25T09:32:06.933Z</time></trkpt><trkpt lat="41.2076834" lon="9.4656874"><ele>58.83333333333333</ele><time>2026-04-25T09:32:07.951Z</time></trkpt><trkpt lat="41.2077813" lon="9.4656595"><ele>58.0</ele><time>2026-04-25T09:32:08.952Z</time></trkpt><trkpt lat="41.2078792" lon="9.4656381"><ele>57.99999999999999</ele><time>2026-04-25T09:32:09.95Z</time></trkpt><trkpt lat="41.2079663" lon="9.4656108"><ele>58.0</ele><time>2026-04-25T09:32:10.945Z</time></trkpt><trkpt lat="41.2080494" lon="9.4655918"><ele>58.0</ele><time>2026-04-25T09:32:11.941Z</time></trkpt><trkpt lat="41.2081246" lon="9.4655732"><ele>58.0</ele><time>2026-04-25T09:32:12.945Z</time></trkpt><trkpt lat="41.2082077" lon="9.4655562"><ele>57.99999999999999</ele><time>2026-04-25T09:32:14.944Z</time></trkpt><trkpt lat="41.2082803" lon="9.4656043"><ele>58.0</ele><time>2026-04-25T09:32:17.954Z</time></trkpt><trkpt lat="41.2083533" lon="9.4656733"><ele>57.83333333333333</ele><time>2026-04-25T09:32:19.958Z</time></trkpt><trkpt lat="41.2084102" lon="9.4657361"><ele>57.666666666666664</ele><time>2026-04-25T09:32:20.957Z</time></trkpt><trkpt lat="41.208463" lon="9.4657992"><ele>57.5</ele><time>2026-04-25T09:32:21.957Z</time></trkpt><trkpt lat="41.208546" lon="9.4658462"><ele>57.33333333333333</ele><time>2026-04-25T09:32:22.956Z</time></trkpt><trkpt lat="41.2086307" lon="9.4659037"><ele>57.166666666666664</ele><time>2026-04-25T09:32:23.947Z</time></trkpt><trkpt lat="41.2087131" lon="9.4659779"><ele>57.0</ele><time>2026-04-25T09:32:24.946Z</time></trkpt><trkpt lat="41.208792" lon="9.4660547"><ele>57.0</ele><time>2026-04-25T09:32:25.947Z</time></trkpt><trkpt lat="41.2088666" lon="9.4661346"><ele>57.0</ele><time>2026-04-25T09:32:26.948Z</time></trkpt><trkpt lat="41.2089557" lon="9.4662197"><ele>57.0</ele><time>2026-04-25T09:32:27.955Z</time></trkpt><trkpt lat="41.2090363" lon="9.4663091"><ele>57.0</ele><time>2026-04-25T09:32:28.949Z</time></trkpt><trkpt lat="41.2091225" lon="9.4663949"><ele>57.0</ele><time>2026-04-25T09:32:29.947Z</time></trkpt><trkpt lat="41.2092101" lon="9.466468"><ele>59.400000000000006</ele><time>2026-04-25T09:32:30.951Z</time></trkpt><trkpt lat="41.2092913" lon="9.4665353"><ele>61.800000000000004</ele><time>2026-04-25T09:32:31.949Z</time></trkpt><trkpt lat="41.2093882" lon="9.4665896"><ele>64.2</ele><time>2026-04-25T09:32:32.947Z</time></trkpt><trkpt lat="41.2094881" lon="9.4666306"><ele>66.60000000000001</ele><time>2026-04-25T09:32:33.949Z</time></trkpt><trkpt lat="41.2095862" lon="9.4666648"><ele>69.0</ele><time>2026-04-25T09:32:34.949Z</time></trkpt><trkpt lat="41.2096835" lon="9.4666863"><ele>69.0</ele><time>2026-04-25T09:32:35.952Z</time></trkpt><trkpt lat="41.2097955" lon="9.4667228"><ele>69.0</ele><time>2026-04-25T09:32:36.951Z</time></trkpt><trkpt lat="41.2098965" lon="9.4667655"><ele>69.0</ele><time>2026-04-25T09:32:37.949Z</time></trkpt><trkpt lat="41.2100024" lon="9.4668011"><ele>69.0</ele><time>2026-04-25T09:32:38.949Z</time></trkpt><trkpt lat="41.2101045" lon="9.4668394"><ele>69.0</ele><time>2026-04-25T09:32:39.947Z</time></trkpt><trkpt lat="41.2101983" lon="9.4668598"><ele>70.0</ele><time>2026-04-25T09:32:40.954Z</time></trkpt><trkpt lat="41.2103055" lon="9.4668889"><ele>71.0</ele><time>2026-04-25T09:32:41.948Z</time></trkpt><trkpt lat="41.2104143" lon="9.4668994"><ele>72.0</ele><time>2026-04-25T09:32:42.949Z</time></trkpt><trkpt lat="41.2105262" lon="9.4668988"><ele>73.0</ele><time>2026-04-25T09:32:43.943Z</time></trkpt><trkpt lat="41.2106242" lon="9.4668748"><ele>74.0</ele><time>2026-04-25T09:32:44.949Z</time></trkpt><trkpt lat="41.2107445" lon="9.4668417"><ele>74.5</ele><time>2026-04-25T09:32:45.949Z</time></trkpt><trkpt lat="41.2108519" lon="9.4667938"><ele>75.0</ele><time>2026-04-25T09:32:46.948Z</time></trkpt><trkpt lat="41.2109549" lon="9.4667388"><ele>75.5</ele><time>2026-04-25T09:32:47.949Z</time></trkpt><trkpt lat="41.211062" lon="9.4666926"><ele>76.0</ele><time>2026-04-25T09:32:48.942Z</time></trkpt><trkpt lat="41.2111808" lon="9.4666464"><ele>76.0</ele><time>2026-04-25T09:32:49.956Z</time></trkpt><trkpt lat="41.2112895" lon="9.4665775"><ele>76.0</ele><time>2026-04-25T09:32:50.951Z</time></trkpt><trkpt lat="41.2113971" lon="9.4665032"><ele>76.0</ele><time>2026-04-25T09:32:51.953Z</time></trkpt><trkpt lat="41.211505" lon="9.4664572"><ele>76.0</ele><time>2026-04-25T09:32:52.951Z</time></trkpt><trkpt lat="41.2116106" lon="9.466397"><ele>76.0</ele><time>2026-04-25T09:32:53.957Z</time></trkpt><trkpt lat="41.2117237" lon="9.4663349"><ele>76.0</ele><time>2026-04-25T09:32:54.961Z</time></trkpt><trkpt lat="41.211828" lon="9.4662902"><ele>76.0</ele><time>2026-04-25T09:32:55.957Z</time></trkpt><trkpt lat="41.2119312" lon="9.4662607"><ele>76.0</ele><time>2026-04-25T09:32:56.949Z</time></trkpt><trkpt lat="41.2120294" lon="9.4662565"><ele>76.0</ele><time>2026-04-25T09:32:57.954Z</time></trkpt><trkpt lat="41.2121331" lon="9.4662531"><ele>76.0</ele><time>2026-04-25T09:32:58.954Z</time></trkpt><trkpt lat="41.2122361" lon="9.4662611"><ele>76.0</ele><time>2026-04-25T09:32:59.943Z</time></trkpt><trkpt lat="41.212363" lon="9.4662637"><ele>76.0</ele><time>2026-04-25T09:33:00.943Z</time></trkpt><trkpt lat="41.2124849" lon="9.4662752"><ele>76.0</ele><time>2026-04-25T09:33:01.942Z</time></trkpt><trkpt lat="41.2126024" lon="9.4662882"><ele>76.2</ele><time>2026-04-25T09:33:02.942Z</time></trkpt><trkpt lat="41.2127266" lon="9.4662954"><ele>76.39999999999999</ele><time>2026-04-25T09:33:03.944Z</time></trkpt><trkpt lat="41.2128264" lon="9.4663022"><ele>76.6</ele><time>2026-04-25T09:33:04.943Z</time></trkpt><trkpt lat="41.2129247" lon="9.4662976"><ele>76.8</ele><time>2026-04-25T09:33:05.943Z</time></trkpt><trkpt lat="41.2130287" lon="9.4663229"><ele>77.0</ele><time>2026-04-25T09:33:06.937Z</time></trkpt><trkpt lat="41.2131069" lon="9.466377"><ele>75.6</ele><time>2026-04-25T09:33:07.947Z</time></trkpt><trkpt lat="41.2131644" lon="9.4664657"><ele>74.2</ele><time>2026-04-25T09:33:08.94Z</time></trkpt><trkpt lat="41.2132095" lon="9.466567"><ele>72.8</ele><time>2026-04-25T09:33:09.937Z</time></trkpt><trkpt lat="41.2132465" lon="9.466704"><ele>71.4</ele><time>2026-04-25T09:33:10.946Z</time></trkpt><trkpt lat="41.2132838" lon="9.4668429"><ele>70.0</ele><time>2026-04-25T09:33:11.951Z</time></trkpt><trkpt lat="41.2133052" lon="9.4669816"><ele>70.0</ele><time>2026-04-25T09:33:12.95Z</time></trkpt><trkpt lat="41.2132868" lon="9.4670936"><ele>70.0</ele><time>2026-04-25T09:33:13.943Z</time></trkpt><trkpt lat="41.2132664" lon="9.4671956"><ele>70.0</ele><time>2026-04-25T09:33:14.942Z</time></trkpt><trkpt lat="41.2132343" lon="9.4673029"><ele>70.0</ele><time>2026-04-25T09:33:15.941Z</time></trkpt><trkpt lat="41.2131898" lon="9.4673971"><ele>70.0</ele><time>2026-04-25T09:33:16.936Z</time></trkpt><trkpt lat="41.2131259" lon="9.4674781"><ele>70.0</ele><time>2026-04-25T09:33:17.937Z</time></trkpt><trkpt lat="41.2130962" lon="9.4675823"><ele>71.66666666666666</ele><time>2026-04-25T09:33:18.934Z</time></trkpt><trkpt lat="41.2130881" lon="9.4676814"><ele>73.33333333333333</ele><time>2026-04-25T09:33:19.938Z</time></trkpt><trkpt lat="41.2130854" lon="9.4677877"><ele>75.0</ele><time>2026-04-25T09:33:20.938Z</time></trkpt><trkpt lat="41.213093" lon="9.467888"><ele>76.66666666666667</ele><time>2026-04-25T09:33:21.943Z</time></trkpt><trkpt lat="41.2130828" lon="9.4679982"><ele>78.33333333333334</ele><time>2026-04-25T09:33:22.935Z</time></trkpt><trkpt lat="41.2130643" lon="9.4681261"><ele>80.0</ele><time>2026-04-25T09:33:23.946Z</time></trkpt><trkpt lat="41.2130332" lon="9.4682636"><ele>80.8</ele><time>2026-04-25T09:33:24.952Z</time></trkpt><trkpt lat="41.2130387" lon="9.4684011"><ele>81.6</ele><time>2026-04-25T09:33:25.955Z</time></trkpt><trkpt lat="41.213056" lon="9.4685114"><ele>82.4</ele><time>2026-04-25T09:33:26.943Z</time></trkpt><trkpt lat="41.2130925" lon="9.4686316"><ele>83.2</ele><time>2026-04-25T09:33:27.943Z</time></trkpt><trkpt lat="41.2131401" lon="9.468755"><ele>84.0</ele><time>2026-04-25T09:33:28.941Z</time></trkpt><trkpt lat="41.2132005" lon="9.4688964"><ele>84.25</ele><time>2026-04-25T09:33:29.944Z</time></trkpt><trkpt lat="41.2132687" lon="9.4690358"><ele>84.5</ele><time>2026-04-25T09:33:30.947Z</time></trkpt><trkpt lat="41.213332" lon="9.4691795"><ele>84.75</ele><time>2026-04-25T09:33:31.94Z</time></trkpt><trkpt lat="41.2133881" lon="9.469315"><ele>85.0</ele><time>2026-04-25T09:33:32.941Z</time></trkpt><trkpt lat="41.2134443" lon="9.4694567"><ele>85.0</ele><time>2026-04-25T09:33:33.93Z</time></trkpt><trkpt lat="41.2135052" lon="9.469598"><ele>85.0</ele><time>2026-04-25T09:33:34.933Z</time></trkpt><trkpt lat="41.2135687" lon="9.469721"><ele>85.0</ele><time>2026-04-25T09:33:35.927Z</time></trkpt><trkpt lat="41.2136384" lon="9.46984"><ele>85.0</ele><time>2026-04-25T09:33:36.928Z</time></trkpt><trkpt lat="41.2137215" lon="9.4699393"><ele>86.6</ele><time>2026-04-25T09:33:37.924Z</time></trkpt><trkpt lat="41.2138056" lon="9.4700192"><ele>88.2</ele><time>2026-04-25T09:33:38.925Z</time></trkpt><trkpt lat="41.2139098" lon="9.470091"><ele>89.80000000000001</ele><time>2026-04-25T09:33:39.937Z</time></trkpt><trkpt lat="41.2139948" lon="9.4701574"><ele>91.4</ele><time>2026-04-25T09:33:40.937Z</time></trkpt><trkpt lat="41.2140884" lon="9.4701918"><ele>93.0</ele><time>2026-04-25T09:33:41.941Z</time></trkpt><trkpt lat="41.2141898" lon="9.4702282"><ele>93.0</ele><time>2026-04-25T09:33:42.941Z</time></trkpt><trkpt lat="41.2143022" lon="9.4702334"><ele>93.0</ele><time>2026-04-25T09:33:43.941Z</time></trkpt><trkpt lat="41.2144186" lon="9.4702315"><ele>93.0</ele><time>2026-04-25T09:33:44.942Z</time></trkpt><trkpt lat="41.2145321" lon="9.4702305"><ele>93.0</ele><time>2026-04-25T09:33:45.946Z</time></trkpt><trkpt lat="41.2146542" lon="9.4702239"><ele>93.0</ele><time>2026-04-25T09:33:46.944Z</time></trkpt><trkpt lat="41.2147592" lon="9.4702214"><ele>93.0</ele><time>2026-04-25T09:33:47.939Z</time></trkpt><trkpt lat="41.2148706" lon="9.4702505"><ele>93.0</ele><time>2026-04-25T09:33:48.945Z</time></trkpt><trkpt lat="41.2149763" lon="9.4702792"><ele>93.0</ele><time>2026-04-25T09:33:49.945Z</time></trkpt><trkpt lat="41.2150679" lon="9.470317"><ele>93.0</ele><time>2026-04-25T09:33:50.945Z</time></trkpt><trkpt lat="41.2151726" lon="9.4703897"><ele>95.2</ele><time>2026-04-25T09:33:51.945Z</time></trkpt><trkpt lat="41.2152781" lon="9.470458"><ele>97.4</ele><time>2026-04-25T09:33:52.944Z</time></trkpt><trkpt lat="41.2153787" lon="9.4705364"><ele>99.60000000000001</ele><time>2026-04-25T09:33:53.942Z</time></trkpt><trkpt lat="41.2154714" lon="9.4705998"><ele>101.80000000000001</ele><time>2026-04-25T09:33:54.94Z</time></trkpt><trkpt lat="41.215552" lon="9.4706585"><ele>104.0</ele><time>2026-04-25T09:33:55.938Z</time></trkpt><trkpt lat="41.2156411" lon="9.4707318"><ele>104.2</ele><time>2026-04-25T09:33:56.942Z</time></trkpt><trkpt lat="41.2157268" lon="9.4708133"><ele>104.4</ele><time>2026-04-25T09:33:57.943Z</time></trkpt><trkpt lat="41.2158163" lon="9.470885"><ele>104.6</ele><time>2026-04-25T09:33:58.931Z</time></trkpt><trkpt lat="41.215903" lon="9.4709603"><ele>104.8</ele><time>2026-04-25T09:33:59.932Z</time></trkpt><trkpt lat="41.2159981" lon="9.4710391"><ele>105.0</ele><time>2026-04-25T09:34:00.939Z</time></trkpt><trkpt lat="41.2161054" lon="9.4710779"><ele>105.0</ele><time>2026-04-25T09:34:01.938Z</time></trkpt><trkpt lat="41.2161959" lon="9.4711037"><ele>105.0</ele><time>2026-04-25T09:34:02.936Z</time></trkpt><trkpt lat="41.2163039" lon="9.4711557"><ele>105.0</ele><time>2026-04-25T09:34:03.943Z</time></trkpt><trkpt lat="41.2164114" lon="9.4712005"><ele>105.0</ele><time>2026-04-25T09:34:04.936Z</time></trkpt><trkpt lat="41.2165234" lon="9.4712655"><ele>105.0</ele><time>2026-04-25T09:34:05.93Z</time></trkpt><trkpt lat="41.2166163" lon="9.471308"><ele>106.0</ele><time>2026-04-25T09:34:06.932Z</time></trkpt><trkpt lat="41.2166998" lon="9.4713347"><ele>107.0</ele><time>2026-04-25T09:34:07.922Z</time></trkpt><trkpt lat="41.216783" lon="9.4713514"><ele>108.0</ele><time>2026-04-25T09:34:08.922Z</time></trkpt><trkpt lat="41.2168727" lon="9.4713236"><ele>109.0</ele><time>2026-04-25T09:34:09.921Z</time></trkpt><trkpt lat="41.21695" lon="9.4712923"><ele>110.0</ele><time>2026-04-25T09:34:10.934Z</time></trkpt><trkpt lat="41.2170388" lon="9.4711375"><ele>107.6</ele><time>2026-04-25T09:34:12.933Z</time></trkpt><trkpt lat="41.217105" lon="9.4710443"><ele>105.2</ele><time>2026-04-25T09:34:13.929Z</time></trkpt><trkpt lat="41.2171736" lon="9.4709739"><ele>102.80000000000001</ele><time>2026-04-25T09:34:14.929Z</time></trkpt><trkpt lat="41.2172635" lon="9.470939"><ele>100.4</ele><time>2026-04-25T09:34:15.933Z</time></trkpt><trkpt lat="41.2173604" lon="9.4709121"><ele>98.0</ele><time>2026-04-25T09:34:16.947Z</time></trkpt><trkpt lat="41.2174648" lon="9.4709017"><ele>98.0</ele><time>2026-04-25T09:34:17.938Z</time></trkpt><trkpt lat="41.2175546" lon="9.4709112"><ele>98.0</ele><time>2026-04-25T09:34:18.948Z</time></trkpt><trkpt lat="41.2176427" lon="9.4709408"><ele>98.0</ele><time>2026-04-25T09:34:19.944Z</time></trkpt><trkpt lat="41.2177181" lon="9.4709861"><ele>98.0</ele><time>2026-04-25T09:34:20.946Z</time></trkpt><trkpt lat="41.2178014" lon="9.4710364"><ele>98.0</ele><time>2026-04-25T09:34:21.948Z</time></trkpt><trkpt lat="41.2178961" lon="9.4710857"><ele>97.99999999999999</ele><time>2026-04-25T09:34:22.948Z</time></trkpt><trkpt lat="41.2179682" lon="9.4711363"><ele>98.0</ele><time>2026-04-25T09:34:23.943Z</time></trkpt><trkpt lat="41.218033" lon="9.4711928"><ele>98.0</ele><time>2026-04-25T09:34:24.948Z</time></trkpt><trkpt lat="41.2180933" lon="9.4712644"><ele>98.0</ele><time>2026-04-25T09:34:25.944Z</time></trkpt><trkpt lat="41.2181525" lon="9.4713447"><ele>97.99999999999999</ele><time>2026-04-25T09:34:26.942Z</time></trkpt><trkpt lat="41.2181989" lon="9.4714722"><ele>98.0</ele><time>2026-04-25T09:34:27.939Z</time></trkpt><trkpt lat="41.218231" lon="9.4716146"><ele>99.4</ele><time>2026-04-25T09:34:28.934Z</time></trkpt><trkpt lat="41.2182599" lon="9.4717503"><ele>100.80000000000001</ele><time>2026-04-25T09:34:29.932Z</time></trkpt><trkpt lat="41.218294" lon="9.4718718"><ele>102.2</ele><time>2026-04-25T09:34:30.925Z</time></trkpt><trkpt lat="41.2183613" lon="9.4719493"><ele>103.6</ele><time>2026-04-25T09:34:31.927Z</time></trkpt><trkpt lat="41.2184419" lon="9.4720154"><ele>105.0</ele><time>2026-04-25T09:34:32.933Z</time></trkpt><trkpt lat="41.218548" lon="9.4720632"><ele>105.0</ele><time>2026-04-25T09:34:33.925Z</time></trkpt><trkpt lat="41.2186565" lon="9.4720963"><ele>105.0</ele><time>2026-04-25T09:34:34.933Z</time></trkpt><trkpt lat="41.2187514" lon="9.4721348"><ele>105.0</ele><time>2026-04-25T09:34:35.942Z</time></trkpt><trkpt lat="41.2188306" lon="9.472185"><ele>105.0</ele><time>2026-04-25T09:34:36.941Z</time></trkpt><trkpt lat="41.2188818" lon="9.4722539"><ele>105.0</ele><time>2026-04-25T09:34:37.928Z</time></trkpt><trkpt lat="41.2189252" lon="9.4724073"><ele>105.2</ele><time>2026-04-25T09:34:39.933Z</time></trkpt><trkpt lat="41.2188886" lon="9.4725062"><ele>105.4</ele><time>2026-04-25T09:34:40.924Z</time></trkpt><trkpt lat="41.2188408" lon="9.4726035"><ele>105.6</ele><time>2026-04-25T09:34:41.924Z</time></trkpt><trkpt lat="41.2187943" lon="9.4727185"><ele>105.8</ele><time>2026-04-25T09:34:42.919Z</time></trkpt><trkpt lat="41.2187707" lon="9.4728647"><ele>106.0</ele><time>2026-04-25T09:34:43.92Z</time></trkpt><trkpt lat="41.218737" lon="9.4730138"><ele>106.6</ele><time>2026-04-25T09:34:44.922Z</time></trkpt><trkpt lat="41.2187197" lon="9.4731431"><ele>107.19999999999999</ele><time>2026-04-25T09:34:45.926Z</time></trkpt><trkpt lat="41.2187035" lon="9.4732704"><ele>107.80000000000001</ele><time>2026-04-25T09:34:46.924Z</time></trkpt><trkpt lat="41.2187059" lon="9.4733796"><ele>108.4</ele><time>2026-04-25T09:34:47.931Z</time></trkpt><trkpt lat="41.2187192" lon="9.4735003"><ele>109.0</ele><time>2026-04-25T09:34:48.928Z</time></trkpt><trkpt lat="41.2187271" lon="9.4736272"><ele>109.00000000000001</ele><time>2026-04-25T09:34:49.926Z</time></trkpt><trkpt lat="41.21876" lon="9.473712"><ele>109.0</ele><time>2026-04-25T09:34:50.923Z</time></trkpt><trkpt lat="41.2188303" lon="9.4738562"><ele>109.0</ele><time>2026-04-25T09:34:52.906Z</time></trkpt><trkpt lat="41.2188804" lon="9.4739428"><ele>109.0</ele><time>2026-04-25T09:34:53.911Z</time></trkpt><trkpt lat="41.2189461" lon="9.4740071"><ele>109.00000000000001</ele><time>2026-04-25T09:34:54.907Z</time></trkpt><trkpt lat="41.2190188" lon="9.4740536"><ele>109.0</ele><time>2026-04-25T09:34:55.906Z</time></trkpt><trkpt lat="41.2191222" lon="9.4741063"><ele>110.33333333333334</ele><time>2026-04-25T09:34:56.914Z</time></trkpt><trkpt lat="41.2192769" lon="9.4741091"><ele>111.66666666666666</ele><time>2026-04-25T09:34:57.917Z</time></trkpt><trkpt lat="41.2194304" lon="9.4740683"><ele>113.0</ele><time>2026-04-25T09:34:58.914Z</time></trkpt><trkpt lat="41.219629" lon="9.4740285"><ele>111.33333333333333</ele><time>2026-04-25T09:34:59.919Z</time></trkpt><trkpt lat="41.2198187" lon="9.4738814"><ele>109.66666666666666</ele><time>2026-04-25T09:35:00.926Z</time></trkpt><trkpt lat="41.2199623" lon="9.4737508"><ele>108.0</ele><time>2026-04-25T09:35:01.934Z</time></trkpt><trkpt lat="41.2200799" lon="9.4736342"><ele>106.75</ele><time>2026-04-25T09:35:02.928Z</time></trkpt><trkpt lat="41.2202063" lon="9.4735699"><ele>105.5</ele><time>2026-04-25T09:35:03.929Z</time></trkpt><trkpt lat="41.2203293" lon="9.4735266"><ele>104.25</ele><time>2026-04-25T09:35:04.925Z</time></trkpt><trkpt lat="41.2204613" lon="9.4734863"><ele>103.0</ele><time>2026-04-25T09:35:05.93Z</time></trkpt><trkpt lat="41.2206128" lon="9.4734531"><ele>102.75</ele><time>2026-04-25T09:35:06.931Z</time></trkpt><trkpt lat="41.2207477" lon="9.4734151"><ele>102.5</ele><time>2026-04-25T09:35:07.93Z</time></trkpt><trkpt lat="41.2208725" lon="9.4733926"><ele>102.25</ele><time>2026-04-25T09:35:08.927Z</time></trkpt><trkpt lat="41.2209814" lon="9.4734029"><ele>102.0</ele><time>2026-04-25T09:35:09.927Z</time></trkpt><trkpt lat="41.2210821" lon="9.4734242"><ele>102.0</ele><time>2026-04-25T09:35:10.928Z</time></trkpt><trkpt lat="41.2211731" lon="9.4734472"><ele>102.0</ele><time>2026-04-25T09:35:11.922Z</time></trkpt><trkpt lat="41.2212632" lon="9.4734735"><ele>102.0</ele><time>2026-04-25T09:35:12.928Z</time></trkpt><trkpt lat="41.2213573" lon="9.4734927"><ele>102.0</ele><time>2026-04-25T09:35:13.924Z</time></trkpt><trkpt lat="41.2214374" lon="9.473495"><ele>102.0</ele><time>2026-04-25T09:35:14.927Z</time></trkpt><trkpt lat="41.2215163" lon="9.4735128"><ele>102.0</ele><time>2026-04-25T09:35:15.928Z</time></trkpt><trkpt lat="41.2216403" lon="9.4735923"><ele>100.19999999999999</ele><time>2026-04-25T09:35:16.924Z</time></trkpt><trkpt lat="41.2217422" lon="9.4736193"><ele>98.4</ele><time>2026-04-25T09:35:17.928Z</time></trkpt><trkpt lat="41.2217967" lon="9.4735529"><ele>96.6</ele><time>2026-04-25T09:35:18.939Z</time></trkpt><trkpt lat="41.221871" lon="9.4734279"><ele>94.80000000000001</ele><time>2026-04-25T09:35:19.939Z</time></trkpt><trkpt lat="41.2219662" lon="9.4733062"><ele>93.0</ele><time>2026-04-25T09:35:20.944Z</time></trkpt><trkpt lat="41.2220523" lon="9.4731847"><ele>93.0</ele><time>2026-04-25T09:35:21.949Z</time></trkpt><trkpt lat="41.2221436" lon="9.4730756"><ele>93.0</ele><time>2026-04-25T09:35:22.936Z</time></trkpt><trkpt lat="41.222238" lon="9.4729835"><ele>93.0</ele><time>2026-04-25T09:35:23.942Z</time></trkpt><trkpt lat="41.2223294" lon="9.4729133"><ele>93.0</ele><time>2026-04-25T09:35:24.936Z</time></trkpt><trkpt lat="41.2224225" lon="9.4728654"><ele>93.0</ele><time>2026-04-25T09:35:25.943Z</time></trkpt><trkpt lat="41.2224946" lon="9.4728192"><ele>93.0</ele><time>2026-04-25T09:35:26.937Z</time></trkpt><trkpt lat="41.2225535" lon="9.472753"><ele>93.0</ele><time>2026-04-25T09:35:27.942Z</time></trkpt><trkpt lat="41.2225973" lon="9.4726735"><ele>93.0</ele><time>2026-04-25T09:35:28.95Z</time></trkpt><trkpt lat="41.2226331" lon="9.4725825"><ele>93.0</ele><time>2026-04-25T09:35:29.947Z</time></trkpt><trkpt lat="41.2226815" lon="9.4724815"><ele>93.0</ele><time>2026-04-25T09:35:30.95Z</time></trkpt><trkpt lat="41.222741" lon="9.4723919"><ele>93.0</ele><time>2026-04-25T09:35:31.947Z</time></trkpt><trkpt lat="41.2228055" lon="9.4723095"><ele>93.0</ele><time>2026-04-25T09:35:32.947Z</time></trkpt><trkpt lat="41.222871" lon="9.472245"><ele>93.0</ele><time>2026-04-25T09:35:33.95Z</time></trkpt><trkpt lat="41.2229587" lon="9.4721963"><ele>93.0</ele><time>2026-04-25T09:35:34.949Z</time></trkpt><trkpt lat="41.2230407" lon="9.4721685"><ele>93.0</ele><time>2026-04-25T09:35:35.948Z</time></trkpt><trkpt lat="41.2231269" lon="9.4721479"><ele>93.0</ele><time>2026-04-25T09:35:36.946Z</time></trkpt><trkpt lat="41.2232175" lon="9.4721219"><ele>93.0</ele><time>2026-04-25T09:35:37.95Z</time></trkpt><trkpt lat="41.2233035" lon="9.472111"><ele>92.66666666666667</ele><time>2026-04-25T09:35:38.946Z</time></trkpt><trkpt lat="41.2233893" lon="9.4721014"><ele>92.33333333333333</ele><time>2026-04-25T09:35:39.944Z</time></trkpt><trkpt lat="41.223474" lon="9.4721057"><ele>92.0</ele><time>2026-04-25T09:35:40.947Z</time></trkpt><trkpt lat="41.2235523" lon="9.4721127"><ele>91.66666666666666</ele><time>2026-04-25T09:35:41.943Z</time></trkpt><trkpt lat="41.2236346" lon="9.4721259"><ele>91.33333333333333</ele><time>2026-04-25T09:35:42.943Z</time></trkpt><trkpt lat="41.2237173" lon="9.4721323"><ele>91.0</ele><time>2026-04-25T09:35:43.939Z</time></trkpt><trkpt lat="41.2238052" lon="9.4721295"><ele>91.16666666666666</ele><time>2026-04-25T09:35:44.939Z</time></trkpt><trkpt lat="41.2238916" lon="9.4721208"><ele>91.33333333333333</ele><time>2026-04-25T09:35:45.94Z</time></trkpt><trkpt lat="41.223979" lon="9.4721202"><ele>91.5</ele><time>2026-04-25T09:35:46.937Z</time></trkpt><trkpt lat="41.22406" lon="9.472121"><ele>91.66666666666667</ele><time>2026-04-25T09:35:47.939Z</time></trkpt><trkpt lat="41.2241367" lon="9.4721238"><ele>91.83333333333334</ele><time>2026-04-25T09:35:48.94Z</time></trkpt><trkpt lat="41.2242133" lon="9.472117"><ele>92.0</ele><time>2026-04-25T09:35:49.942Z</time></trkpt><trkpt lat="41.2242777" lon="9.4721038"><ele>94.0</ele><time>2026-04-25T09:35:50.943Z</time></trkpt><trkpt lat="41.2243516" lon="9.4721154"><ele>96.0</ele><time>2026-04-25T09:35:51.949Z</time></trkpt><trkpt lat="41.2244244" lon="9.4721243"><ele>98.0</ele><time>2026-04-25T09:35:52.942Z</time></trkpt><trkpt lat="41.2244908" lon="9.4721371"><ele>100.0</ele><time>2026-04-25T09:35:53.938Z</time></trkpt><trkpt lat="41.2245962" lon="9.4721556"><ele>101.99999999999999</ele><time>2026-04-25T09:35:55.941Z</time></trkpt><trkpt lat="41.2246778" lon="9.4721805"><ele>104.0</ele><time>2026-04-25T09:35:57.954Z</time></trkpt><trkpt lat="41.2247692" lon="9.4721793"><ele>103.33333333333333</ele><time>2026-04-25T09:37:34.966Z</time></trkpt><trkpt lat="41.2248942" lon="9.4721834"><ele>102.66666666666666</ele><time>2026-04-25T09:37:36.968Z</time></trkpt><trkpt lat="41.2249708" lon="9.4722029"><ele>102.0</ele><time>2026-04-25T09:37:37.969Z</time></trkpt><trkpt lat="41.225038" lon="9.4722248"><ele>101.33333333333334</ele><time>2026-04-25T09:37:38.973Z</time></trkpt><trkpt lat="41.2250992" lon="9.4722518"><ele>100.66666666666667</ele><time>2026-04-25T09:37:39.969Z</time></trkpt><trkpt lat="41.2251575" lon="9.4722841"><ele>100.0</ele><time>2026-04-25T09:37:40.969Z</time></trkpt><trkpt lat="41.2252154" lon="9.4723217"><ele>100.00000000000001</ele><time>2026-04-25T09:37:41.964Z</time></trkpt><trkpt lat="41.2252784" lon="9.4723561"><ele>100.0</ele><time>2026-04-25T09:37:42.966Z</time></trkpt><trkpt lat="41.2253392" lon="9.4723963"><ele>100.0</ele><time>2026-04-25T09:37:43.973Z</time></trkpt><trkpt lat="41.225398" lon="9.4724349"><ele>100.0</ele><time>2026-04-25T09:37:44.961Z</time></trkpt><trkpt lat="41.2254802" lon="9.4725438"><ele>100.00000000000001</ele><time>2026-04-25T09:37:46.963Z</time></trkpt><trkpt lat="41.2255094" lon="9.4726279"><ele>100.0</ele><time>2026-04-25T09:37:47.967Z</time></trkpt><trkpt lat="41.2255309" lon="9.4727188"><ele>100.00000000000001</ele><time>2026-04-25T09:37:48.955Z</time></trkpt><trkpt lat="41.225539" lon="9.4728123"><ele>100.0</ele><time>2026-04-25T09:37:49.957Z</time></trkpt><trkpt lat="41.2255515" lon="9.4729151"><ele>100.0</ele><time>2026-04-25T09:37:50.954Z</time></trkpt><trkpt lat="41.225566" lon="9.4730167"><ele>100.0</ele><time>2026-04-25T09:37:51.955Z</time></trkpt><trkpt lat="41.2255993" lon="9.4731147"><ele>100.00000000000001</ele><time>2026-04-25T09:37:52.959Z</time></trkpt><trkpt lat="41.2256403" lon="9.4731976"><ele>100.0</ele><time>2026-04-25T09:37:53.975Z</time></trkpt><trkpt lat="41.2257077" lon="9.4732585"><ele>99.00000000000001</ele><time>2026-04-25T09:37:54.956Z</time></trkpt><trkpt lat="41.2257793" lon="9.473326"><ele>98.0</ele><time>2026-04-25T09:37:55.952Z</time></trkpt><trkpt lat="41.2258491" lon="9.4734"><ele>97.0</ele><time>2026-04-25T09:37:56.958Z</time></trkpt><trkpt lat="41.2259102" lon="9.4734751"><ele>96.0</ele><time>2026-04-25T09:37:57.958Z</time></trkpt><trkpt lat="41.2259757" lon="9.4735442"><ele>95.0</ele><time>2026-04-25T09:37:58.954Z</time></trkpt><trkpt lat="41.2260404" lon="9.4736175"><ele>94.0</ele><time>2026-04-25T09:37:59.957Z</time></trkpt><trkpt lat="41.2261221" lon="9.4736912"><ele>94.0</ele><time>2026-04-25T09:38:00.956Z</time></trkpt><trkpt lat="41.2261956" lon="9.4737678"><ele>94.0</ele><time>2026-04-25T09:38:01.955Z</time></trkpt><trkpt lat="41.2262717" lon="9.4738518"><ele>94.0</ele><time>2026-04-25T09:38:02.955Z</time></trkpt><trkpt lat="41.2263421" lon="9.4739377"><ele>94.0</ele><time>2026-04-25T09:38:03.965Z</time></trkpt><trkpt lat="41.2264127" lon="9.4740168"><ele>94.0</ele><time>2026-04-25T09:38:04.947Z</time></trkpt><trkpt lat="41.2264833" lon="9.4741036"><ele>95.2</ele><time>2026-04-25T09:38:05.945Z</time></trkpt><trkpt lat="41.2265495" lon="9.4741602"><ele>96.4</ele><time>2026-04-25T09:38:06.947Z</time></trkpt><trkpt lat="41.2266677" lon="9.4741964"><ele>97.6</ele><time>2026-04-25T09:38:08.949Z</time></trkpt><trkpt lat="41.2267974" lon="9.474175"><ele>98.8</ele><time>2026-04-25T09:38:10.958Z</time></trkpt><trkpt lat="41.2268682" lon="9.4741632"><ele>100.0</ele><time>2026-04-25T09:38:11.951Z</time></trkpt><trkpt lat="41.2269474" lon="9.474158"><ele>100.0</ele><time>2026-04-25T09:38:12.949Z</time></trkpt><trkpt lat="41.2270376" lon="9.4741577"><ele>100.0</ele><time>2026-04-25T09:38:13.948Z</time></trkpt><trkpt lat="41.2271315" lon="9.4741599"><ele>100.0</ele><time>2026-04-25T09:38:14.968Z</time></trkpt><trkpt lat="41.227226" lon="9.4741642"><ele>100.0</ele><time>2026-04-25T09:38:15.955Z</time></trkpt><trkpt lat="41.2273184" lon="9.474175"><ele>100.0</ele><time>2026-04-25T09:38:16.953Z</time></trkpt><trkpt lat="41.2274031" lon="9.4741938"><ele>100.2</ele><time>2026-04-25T09:38:17.949Z</time></trkpt><trkpt lat="41.2274966" lon="9.4742114"><ele>100.4</ele><time>2026-04-25T09:38:18.952Z</time></trkpt><trkpt lat="41.2275873" lon="9.4742354"><ele>100.6</ele><time>2026-04-25T09:38:19.947Z</time></trkpt><trkpt lat="41.2276773" lon="9.4742651"><ele>100.8</ele><time>2026-04-25T09:38:20.942Z</time></trkpt><trkpt lat="41.2277653" lon="9.4743026"><ele>101.0</ele><time>2026-04-25T09:38:21.945Z</time></trkpt><trkpt lat="41.2278431" lon="9.4743519"><ele>100.99999999999999</ele><time>2026-04-25T09:38:22.951Z</time></trkpt><trkpt lat="41.2279164" lon="9.4743984"><ele>101.0</ele><time>2026-04-25T09:38:23.943Z</time></trkpt><trkpt lat="41.2279862" lon="9.4744274"><ele>101.0</ele><time>2026-04-25T09:38:24.958Z</time></trkpt><trkpt lat="41.2280621" lon="9.4744507"><ele>101.0</ele><time>2026-04-25T09:38:25.949Z</time></trkpt><trkpt lat="41.228133" lon="9.4744484"><ele>100.99999999999999</ele><time>2026-04-25T09:38:26.944Z</time></trkpt><trkpt lat="41.2282062" lon="9.4744005"><ele>101.0</ele><time>2026-04-25T09:38:27.945Z</time></trkpt><trkpt lat="41.2282681" lon="9.4743051"><ele>101.19999999999999</ele><time>2026-04-25T09:38:28.941Z</time></trkpt><trkpt lat="41.2283282" lon="9.4742028"><ele>101.39999999999999</ele><time>2026-04-25T09:38:29.949Z</time></trkpt><trkpt lat="41.2283879" lon="9.4741007"><ele>101.6</ele><time>2026-04-25T09:38:30.949Z</time></trkpt><trkpt lat="41.2284567" lon="9.4739968"><ele>101.8</ele><time>2026-04-25T09:38:31.949Z</time></trkpt><trkpt lat="41.2285308" lon="9.4739173"><ele>102.0</ele><time>2026-04-25T09:38:32.946Z</time></trkpt><trkpt lat="41.2285952" lon="9.4738388"><ele>101.66666666666667</ele><time>2026-04-25T09:38:33.944Z</time></trkpt><trkpt lat="41.2286586" lon="9.4737694"><ele>101.33333333333334</ele><time>2026-04-25T09:38:34.959Z</time></trkpt><trkpt lat="41.2287179" lon="9.4736942"><ele>101.0</ele><time>2026-04-25T09:38:35.943Z</time></trkpt><trkpt lat="41.2287797" lon="9.4736257"><ele>100.66666666666667</ele><time>2026-04-25T09:38:36.949Z</time></trkpt><trkpt lat="41.2288386" lon="9.4735705"><ele>100.33333333333334</ele><time>2026-04-25T09:38:37.942Z</time></trkpt><trkpt lat="41.2289042" lon="9.473537"><ele>100.0</ele><time>2026-04-25T09:38:38.948Z</time></trkpt><trkpt lat="41.2290143" lon="9.4734966"><ele>99.66666666666667</ele><time>2026-04-25T09:38:40.945Z</time></trkpt><trkpt lat="41.2290833" lon="9.4735028"><ele>99.33333333333334</ele><time>2026-04-25T09:38:41.944Z</time></trkpt><trkpt lat="41.2291565" lon="9.4735072"><ele>99.0</ele><time>2026-04-25T09:38:42.947Z</time></trkpt><trkpt lat="41.2292394" lon="9.4735149"><ele>98.66666666666666</ele><time>2026-04-25T09:38:43.942Z</time></trkpt><trkpt lat="41.2293252" lon="9.4735197"><ele>98.33333333333333</ele><time>2026-04-25T09:38:44.955Z</time></trkpt><trkpt lat="41.2294153" lon="9.4735157"><ele>98.0</ele><time>2026-04-25T09:38:45.946Z</time></trkpt><trkpt lat="41.2295065" lon="9.4735138"><ele>97.99999999999999</ele><time>2026-04-25T09:38:46.947Z</time></trkpt><trkpt lat="41.2295923" lon="9.4735085"><ele>98.0</ele><time>2026-04-25T09:38:47.946Z</time></trkpt><trkpt lat="41.2296765" lon="9.4735035"><ele>98.0</ele><time>2026-04-25T09:38:48.943Z</time></trkpt><trkpt lat="41.2297495" lon="9.4734979"><ele>98.0</ele><time>2026-04-25T09:38:49.945Z</time></trkpt><trkpt lat="41.2298167" lon="9.4734884"><ele>97.99999999999999</ele><time>2026-04-25T09:38:50.946Z</time></trkpt><trkpt lat="41.2299171" lon="9.4734505"><ele>98.0</ele><time>2026-04-25T09:38:52.941Z</time></trkpt><trkpt lat="41.2299976" lon="9.4734036"><ele>98.33333333333333</ele><time>2026-04-25T09:38:55.953Z</time></trkpt><trkpt lat="41.2300884" lon="9.4733758"><ele>98.66666666666666</ele><time>2026-04-25T09:38:58.948Z</time></trkpt><trkpt lat="41.2301288" lon="9.4732871"><ele>99.0</ele><time>2026-04-25T09:39:01.935Z</time></trkpt><trkpt lat="41.2300657" lon="9.4731768"><ele>99.33333333333334</ele><time>2026-04-25T09:39:10.943Z</time></trkpt><trkpt lat="41.2300083" lon="9.4731034"><ele>99.66666666666667</ele><time>2026-04-25T09:39:12.934Z</time></trkpt><trkpt lat="41.2299568" lon="9.4730382"><ele>100.0</ele><time>2026-04-25T09:39:14.945Z</time></trkpt><trkpt lat="41.2299041" lon="9.4729921"><ele>100.00000000000001</ele><time>2026-04-25T09:39:16.936Z</time></trkpt><trkpt lat="41.2298466" lon="9.4729443"><ele>100.0</ele><time>2026-04-25T09:39:56.948Z</time></trkpt><trkpt lat="41.2299296" lon="9.4729819"><ele>100.0</ele><time>2026-04-25T09:40:24.954Z</time></trkpt><trkpt lat="41.2299899" lon="9.4730364"><ele>100.0</ele><time>2026-04-25T09:40:26.946Z</time></trkpt><trkpt lat="41.2300612" lon="9.4731337"><ele>100.00000000000001</ele><time>2026-04-25T09:40:28.949Z</time></trkpt><trkpt lat="41.2301074" lon="9.4732327"><ele>100.0</ele><time>2026-04-25T09:40:30.938Z</time></trkpt><trkpt lat="41.2301259" lon="9.4733306"><ele>100.00000000000001</ele><time>2026-04-25T09:40:32.939Z</time></trkpt><trkpt lat="41.2301141" lon="9.4734439"><ele>100.0</ele><time>2026-04-25T09:40:34.952Z</time></trkpt><trkpt lat="41.2300729" lon="9.473538"><ele>100.0</ele><time>2026-04-25T09:40:36.936Z</time></trkpt><trkpt lat="41.2299665" lon="9.4735477"><ele>100.0</ele><time>2026-04-25T09:40:38.941Z</time></trkpt><trkpt lat="41.2298976" lon="9.4735578"><ele>100.00000000000001</ele><time>2026-04-25T09:40:39.936Z</time></trkpt><trkpt lat="41.2298241" lon="9.4735634"><ele>100.0</ele><time>2026-04-25T09:40:40.938Z</time></trkpt><trkpt lat="41.2297471" lon="9.4735673"><ele>99.6</ele><time>2026-04-25T09:40:41.936Z</time></trkpt><trkpt lat="41.2296583" lon="9.4735673"><ele>99.2</ele><time>2026-04-25T09:40:42.937Z</time></trkpt><trkpt lat="41.2295645" lon="9.4735675"><ele>98.80000000000001</ele><time>2026-04-25T09:40:43.94Z</time></trkpt><trkpt lat="41.2294682" lon="9.473561"><ele>98.4</ele><time>2026-04-25T09:40:44.951Z</time></trkpt><trkpt lat="41.2293655" lon="9.4735467"><ele>98.0</ele><time>2026-04-25T09:40:45.939Z</time></trkpt><trkpt lat="41.229269" lon="9.4735538"><ele>98.0</ele><time>2026-04-25T09:40:46.94Z</time></trkpt><trkpt lat="41.2291695" lon="9.4735556"><ele>98.0</ele><time>2026-04-25T09:40:47.938Z</time></trkpt><trkpt lat="41.2290698" lon="9.4735597"><ele>98.0</ele><time>2026-04-25T09:40:48.939Z</time></trkpt><trkpt lat="41.2289638" lon="9.4735869"><ele>98.0</ele><time>2026-04-25T09:40:49.94Z</time></trkpt><trkpt lat="41.2288696" lon="9.4736166"><ele>98.0</ele><time>2026-04-25T09:40:50.938Z</time></trkpt><trkpt lat="41.2287803" lon="9.4736803"><ele>98.4</ele><time>2026-04-25T09:40:51.949Z</time></trkpt><trkpt lat="41.2286992" lon="9.4737473"><ele>98.80000000000001</ele><time>2026-04-25T09:40:52.941Z</time></trkpt><trkpt lat="41.2286254" lon="9.4738266"><ele>99.2</ele><time>2026-04-25T09:40:53.949Z</time></trkpt><trkpt lat="41.2285515" lon="9.4739229"><ele>99.6</ele><time>2026-04-25T09:40:54.955Z</time></trkpt><trkpt lat="41.228465" lon="9.4740204"><ele>100.0</ele><time>2026-04-25T09:40:55.948Z</time></trkpt><trkpt lat="41.2283785" lon="9.4741175"><ele>100.2</ele><time>2026-04-25T09:40:56.944Z</time></trkpt><trkpt lat="41.228305" lon="9.4742065"><ele>100.4</ele><time>2026-04-25T09:40:57.944Z</time></trkpt><trkpt lat="41.2282317" lon="9.4743061"><ele>100.6</ele><time>2026-04-25T09:40:58.941Z</time></trkpt><trkpt lat="41.2281668" lon="9.4743784"><ele>100.8</ele><time>2026-04-25T09:40:59.939Z</time></trkpt><trkpt lat="41.2280986" lon="9.4744418"><ele>101.0</ele><time>2026-04-25T09:41:00.932Z</time></trkpt><trkpt lat="41.2280219" lon="9.4744766"><ele>101.0</ele><time>2026-04-25T09:41:01.932Z</time></trkpt><trkpt lat="41.2279347" lon="9.4744727"><ele>101.0</ele><time>2026-04-25T09:41:02.936Z</time></trkpt><trkpt lat="41.2278363" lon="9.4744225"><ele>101.0</ele><time>2026-04-25T09:41:03.934Z</time></trkpt><trkpt lat="41.2277392" lon="9.4743718"><ele>101.0</ele><time>2026-04-25T09:41:04.954Z</time></trkpt><trkpt lat="41.2276453" lon="9.4742971"><ele>101.0</ele><time>2026-04-25T09:41:05.943Z</time></trkpt><trkpt lat="41.2275498" lon="9.4742442"><ele>101.0</ele><time>2026-04-25T09:41:06.943Z</time></trkpt><trkpt lat="41.2274533" lon="9.4742092"><ele>101.0</ele><time>2026-04-25T09:41:07.941Z</time></trkpt><trkpt lat="41.2273581" lon="9.474206"><ele>101.0</ele><time>2026-04-25T09:41:08.943Z</time></trkpt><trkpt lat="41.2272642" lon="9.4742028"><ele>101.0</ele><time>2026-04-25T09:41:09.949Z</time></trkpt><trkpt lat="41.227175" lon="9.4742071"><ele>101.0</ele><time>2026-04-25T09:41:10.944Z</time></trkpt><trkpt lat="41.227093" lon="9.4742146"><ele>100.8</ele><time>2026-04-25T09:41:11.939Z</time></trkpt><trkpt lat="41.2270097" lon="9.4742218"><ele>100.6</ele><time>2026-04-25T09:41:12.939Z</time></trkpt><trkpt lat="41.2269148" lon="9.4742342"><ele>100.4</ele><time>2026-04-25T09:41:13.942Z</time></trkpt><trkpt lat="41.2268234" lon="9.4742391"><ele>100.2</ele><time>2026-04-25T09:41:14.953Z</time></trkpt><trkpt lat="41.2267277" lon="9.4742236"><ele>100.0</ele><time>2026-04-25T09:41:15.948Z</time></trkpt><trkpt lat="41.226625" lon="9.4741973"><ele>100.0</ele><time>2026-04-25T09:41:16.944Z</time></trkpt><trkpt lat="41.2265416" lon="9.4741577"><ele>100.0</ele><time>2026-04-25T09:41:17.944Z</time></trkpt><trkpt lat="41.2264552" lon="9.474105"><ele>100.0</ele><time>2026-04-25T09:41:18.943Z</time></trkpt><trkpt lat="41.2263829" lon="9.4740205"><ele>100.0</ele><time>2026-04-25T09:41:19.944Z</time></trkpt><trkpt lat="41.2263066" lon="9.473924"><ele>100.0</ele><time>2026-04-25T09:41:20.948Z</time></trkpt><trkpt lat="41.226232" lon="9.4738183"><ele>98.8</ele><time>2026-04-25T09:41:21.948Z</time></trkpt><trkpt lat="41.2261629" lon="9.4737124"><ele>97.6</ele><time>2026-04-25T09:41:22.949Z</time></trkpt><trkpt lat="41.2260772" lon="9.4736261"><ele>96.4</ele><time>2026-04-25T09:41:23.952Z</time></trkpt><trkpt lat="41.2259913" lon="9.4735478"><ele>95.2</ele><time>2026-04-25T09:41:24.968Z</time></trkpt><trkpt lat="41.2259013" lon="9.473459"><ele>94.0</ele><time>2026-04-25T09:41:25.953Z</time></trkpt><trkpt lat="41.2258187" lon="9.4733727"><ele>94.0</ele><time>2026-04-25T09:41:26.96Z</time></trkpt><trkpt lat="41.2257483" lon="9.4732847"><ele>94.0</ele><time>2026-04-25T09:41:27.956Z</time></trkpt><trkpt lat="41.2256672" lon="9.4731979"><ele>94.0</ele><time>2026-04-25T09:41:28.956Z</time></trkpt><trkpt lat="41.2255874" lon="9.4731112"><ele>94.0</ele><time>2026-04-25T09:41:29.959Z</time></trkpt><trkpt lat="41.2255254" lon="9.4730124"><ele>94.0</ele><time>2026-04-25T09:41:30.957Z</time></trkpt><trkpt lat="41.2254782" lon="9.4729149"><ele>95.2</ele><time>2026-04-25T09:41:31.948Z</time></trkpt><trkpt lat="41.2254656" lon="9.4727964"><ele>96.4</ele><time>2026-04-25T09:41:32.955Z</time></trkpt><trkpt lat="41.2254488" lon="9.4726835"><ele>97.6</ele><time>2026-04-25T09:41:33.954Z</time></trkpt><trkpt lat="41.2254281" lon="9.4725833"><ele>98.8</ele><time>2026-04-25T09:41:34.967Z</time></trkpt><trkpt lat="41.2253912" lon="9.4724441"><ele>100.0</ele><time>2026-04-25T09:41:35.951Z</time></trkpt><trkpt lat="41.225348" lon="9.472339"><ele>100.0</ele><time>2026-04-25T09:41:36.945Z</time></trkpt><trkpt lat="41.2252787" lon="9.4722835"><ele>100.0</ele><time>2026-04-25T09:41:37.946Z</time></trkpt><trkpt lat="41.2251902" lon="9.4722329"><ele>100.0</ele><time>2026-04-25T09:41:38.947Z</time></trkpt><trkpt lat="41.2250761" lon="9.4721778"><ele>100.0</ele><time>2026-04-25T09:41:39.951Z</time></trkpt><trkpt lat="41.2249668" lon="9.4721379"><ele>100.0</ele><time>2026-04-25T09:41:40.947Z</time></trkpt><trkpt lat="41.2248595" lon="9.4721182"><ele>101.0</ele><time>2026-04-25T09:41:41.946Z</time></trkpt><trkpt lat="41.2247503" lon="9.4721273"><ele>102.0</ele><time>2026-04-25T09:41:42.954Z</time></trkpt><trkpt lat="41.2246295" lon="9.4721413"><ele>103.0</ele><time>2026-04-25T09:41:43.956Z</time></trkpt><trkpt lat="41.2245163" lon="9.4721561"><ele>104.0</ele><time>2026-04-25T09:41:44.964Z</time></trkpt><trkpt lat="41.2243972" lon="9.4721666"><ele>104.0</ele><time>2026-04-25T09:41:45.954Z</time></trkpt><trkpt lat="41.2242718" lon="9.4721737"><ele>104.0</ele><time>2026-04-25T09:41:46.96Z</time></trkpt><trkpt lat="41.2241541" lon="9.4721716"><ele>104.0</ele><time>2026-04-25T09:41:47.955Z</time></trkpt><trkpt lat="41.2240343" lon="9.4721557"><ele>104.0</ele><time>2026-04-25T09:41:48.954Z</time></trkpt><trkpt lat="41.2239168" lon="9.4721465"><ele>102.75</ele><time>2026-04-25T09:41:49.948Z</time></trkpt><trkpt lat="41.2238017" lon="9.4721342"><ele>101.5</ele><time>2026-04-25T09:41:50.943Z</time></trkpt><trkpt lat="41.2236878" lon="9.4721317"><ele>100.25</ele><time>2026-04-25T09:41:51.942Z</time></trkpt><trkpt lat="41.2235742" lon="9.4721335"><ele>99.0</ele><time>2026-04-25T09:41:52.938Z</time></trkpt><trkpt lat="41.2234639" lon="9.4721301"><ele>99.0</ele><time>2026-04-25T09:41:53.937Z</time></trkpt><trkpt lat="41.2233579" lon="9.4721314"><ele>99.0</ele><time>2026-04-25T09:41:54.952Z</time></trkpt><trkpt lat="41.2232456" lon="9.4721338"><ele>99.0</ele><time>2026-04-25T09:41:55.941Z</time></trkpt><trkpt lat="41.2231268" lon="9.472159"><ele>99.0</ele><time>2026-04-25T09:41:56.95Z</time></trkpt><trkpt lat="41.2230183" lon="9.4722001"><ele>97.80000000000001</ele><time>2026-04-25T09:41:57.954Z</time></trkpt><trkpt lat="41.2229169" lon="9.4722449"><ele>96.60000000000001</ele><time>2026-04-25T09:41:58.952Z</time></trkpt><trkpt lat="41.2228191" lon="9.4723015"><ele>95.4</ele><time>2026-04-25T09:41:59.951Z</time></trkpt><trkpt lat="41.2227269" lon="9.4723606"><ele>94.2</ele><time>2026-04-25T09:42:00.945Z</time></trkpt><trkpt lat="41.2226429" lon="9.4724257"><ele>93.0</ele><time>2026-04-25T09:42:01.948Z</time></trkpt><trkpt lat="41.2225748" lon="9.47251"><ele>93.0</ele><time>2026-04-25T09:42:02.942Z</time></trkpt><trkpt lat="41.2225187" lon="9.4726126"><ele>93.0</ele><time>2026-04-25T09:42:03.941Z</time></trkpt><trkpt lat="41.2224711" lon="9.4727139"><ele>93.0</ele><time>2026-04-25T09:42:04.944Z</time></trkpt><trkpt lat="41.2224163" lon="9.4728088"><ele>93.0</ele><time>2026-04-25T09:42:05.932Z</time></trkpt><trkpt lat="41.2223521" lon="9.4728761"><ele>93.0</ele><time>2026-04-25T09:42:06.93Z</time></trkpt><trkpt lat="41.2222722" lon="9.4729302"><ele>93.0</ele><time>2026-04-25T09:42:07.937Z</time></trkpt><trkpt lat="41.2221728" lon="9.4729832"><ele>93.0</ele><time>2026-04-25T09:42:08.943Z</time></trkpt><trkpt lat="41.2220885" lon="9.4730422"><ele>93.0</ele><time>2026-04-25T09:42:09.943Z</time></trkpt><trkpt lat="41.2220051" lon="9.4731228"><ele>93.0</ele><time>2026-04-25T09:42:10.943Z</time></trkpt><trkpt lat="41.2219137" lon="9.4732148"><ele>93.0</ele><time>2026-04-25T09:42:11.943Z</time></trkpt><trkpt lat="41.2218278" lon="9.4733004"><ele>93.0</ele><time>2026-04-25T09:42:12.939Z</time></trkpt><trkpt lat="41.2217522" lon="9.4733822"><ele>93.0</ele><time>2026-04-25T09:42:13.941Z</time></trkpt><trkpt lat="41.2216786" lon="9.4734505"><ele>93.0</ele><time>2026-04-25T09:42:14.937Z</time></trkpt><trkpt lat="41.2215995" lon="9.4734974"><ele>93.0</ele><time>2026-04-25T09:42:15.935Z</time></trkpt><trkpt lat="41.2215108" lon="9.473529"><ele>93.0</ele><time>2026-04-25T09:42:16.93Z</time></trkpt><trkpt lat="41.221418" lon="9.473533"><ele>93.0</ele><time>2026-04-25T09:42:17.928Z</time></trkpt><trkpt lat="41.2213363" lon="9.473509"><ele>93.0</ele><time>2026-04-25T09:42:18.927Z</time></trkpt><trkpt lat="41.221238" lon="9.4734777"><ele>94.80000000000001</ele><time>2026-04-25T09:42:19.933Z</time></trkpt><trkpt lat="41.2211389" lon="9.4734421"><ele>96.6</ele><time>2026-04-25T09:42:20.927Z</time></trkpt><trkpt lat="41.221051" lon="9.4733998"><ele>98.4</ele><time>2026-04-25T09:42:21.935Z</time></trkpt><trkpt lat="41.2209629" lon="9.4733727"><ele>100.19999999999999</ele><time>2026-04-25T09:42:22.933Z</time></trkpt><trkpt lat="41.2208702" lon="9.4733412"><ele>102.0</ele><time>2026-04-25T09:42:23.94Z</time></trkpt><trkpt lat="41.220772" lon="9.473308"><ele>102.0</ele><time>2026-04-25T09:42:24.927Z</time></trkpt><trkpt lat="41.2206684" lon="9.4733025"><ele>102.0</ele><time>2026-04-25T09:42:25.93Z</time></trkpt><trkpt lat="41.2205567" lon="9.4733115"><ele>102.0</ele><time>2026-04-25T09:42:26.929Z</time></trkpt><trkpt lat="41.2204349" lon="9.4733541"><ele>102.0</ele><time>2026-04-25T09:42:27.923Z</time></trkpt><trkpt lat="41.2203305" lon="9.4733964"><ele>102.25</ele><time>2026-04-25T09:42:28.924Z</time></trkpt><trkpt lat="41.2202235" lon="9.4734132"><ele>102.5</ele><time>2026-04-25T09:42:29.919Z</time></trkpt><trkpt lat="41.2200892" lon="9.4734445"><ele>102.75</ele><time>2026-04-25T09:42:30.926Z</time></trkpt><trkpt lat="41.2199851" lon="9.4734629"><ele>103.0</ele><time>2026-04-25T09:42:31.932Z</time></trkpt><trkpt lat="41.2198623" lon="9.473471"><ele>103.2</ele><time>2026-04-25T09:42:32.931Z</time></trkpt><trkpt lat="41.2197605" lon="9.4734639"><ele>103.4</ele><time>2026-04-25T09:42:33.93Z</time></trkpt><trkpt lat="41.2196592" lon="9.4734472"><ele>103.60000000000001</ele><time>2026-04-25T09:42:34.921Z</time></trkpt><trkpt lat="41.2195603" lon="9.473433"><ele>103.80000000000001</ele><time>2026-04-25T09:42:35.923Z</time></trkpt><trkpt lat="41.2194496" lon="9.4734144"><ele>104.0</ele><time>2026-04-25T09:42:36.918Z</time></trkpt><trkpt lat="41.2193392" lon="9.4733938"><ele>104.0</ele><time>2026-04-25T09:42:37.919Z</time></trkpt><trkpt lat="41.2192319" lon="9.4733529"><ele>104.0</ele><time>2026-04-25T09:42:38.916Z</time></trkpt><trkpt lat="41.2191252" lon="9.4733367"><ele>104.0</ele><time>2026-04-25T09:42:39.916Z</time></trkpt><trkpt lat="41.2190076" lon="9.4733271"><ele>104.0</ele><time>2026-04-25T09:42:40.921Z</time></trkpt><trkpt lat="41.2189122" lon="9.4733175"><ele>104.0</ele><time>2026-04-25T09:42:41.927Z</time></trkpt><trkpt lat="41.2188165" lon="9.4733016"><ele>104.33333333333333</ele><time>2026-04-25T09:42:42.918Z</time></trkpt><trkpt lat="41.2187252" lon="9.4732732"><ele>104.66666666666666</ele><time>2026-04-25T09:42:43.921Z</time></trkpt><trkpt lat="41.2186474" lon="9.4732445"><ele>105.0</ele><time>2026-04-25T09:42:44.922Z</time></trkpt><trkpt lat="41.2185898" lon="9.4732015"><ele>105.33333333333334</ele><time>2026-04-25T09:42:45.916Z</time></trkpt><trkpt lat="41.2186002" lon="9.4731058"><ele>105.66666666666667</ele><time>2026-04-25T09:42:46.938Z</time></trkpt><trkpt lat="41.2186346" lon="9.4729663"><ele>106.0</ele><time>2026-04-25T09:42:47.934Z</time></trkpt><trkpt lat="41.2186696" lon="9.4728034"><ele>106.0</ele><time>2026-04-25T09:42:48.932Z</time></trkpt><trkpt lat="41.2186999" lon="9.4726531"><ele>106.0</ele><time>2026-04-25T09:42:49.927Z</time></trkpt><trkpt lat="41.2187442" lon="9.4725077"><ele>106.0</ele><time>2026-04-25T09:42:50.929Z</time></trkpt><trkpt lat="41.218774" lon="9.4723766"><ele>106.0</ele><time>2026-04-25T09:42:51.932Z</time></trkpt><trkpt lat="41.2187905" lon="9.4722795"><ele>106.0</ele><time>2026-04-25T09:42:52.93Z</time></trkpt><trkpt lat="41.2187859" lon="9.4721774"><ele>105.83333333333334</ele><time>2026-04-25T09:42:53.95Z</time></trkpt><trkpt lat="41.2187927" lon="9.4720672"><ele>105.66666666666667</ele><time>2026-04-25T09:42:54.959Z</time></trkpt><trkpt lat="41.2187174" lon="9.4719346"><ele>105.5</ele><time>2026-04-25T09:42:56.955Z</time></trkpt><trkpt lat="41.2186468" lon="9.4718945"><ele>105.33333333333334</ele><time>2026-04-25T09:42:57.959Z</time></trkpt><trkpt lat="41.2185634" lon="9.4718893"><ele>105.16666666666667</ele><time>2026-04-25T09:42:58.95Z</time></trkpt><trkpt lat="41.2184887" lon="9.4718872"><ele>105.0</ele><time>2026-04-25T09:42:59.956Z</time></trkpt><trkpt lat="41.2184205" lon="9.471866"><ele>105.0</ele><time>2026-04-25T09:43:00.955Z</time></trkpt><trkpt lat="41.2183234" lon="9.4718124"><ele>105.0</ele><time>2026-04-25T09:43:02.947Z</time></trkpt><trkpt lat="41.2182715" lon="9.4717603"><ele>105.0</ele><time>2026-04-25T09:43:03.95Z</time></trkpt><trkpt lat="41.2182379" lon="9.4716838"><ele>105.0</ele><time>2026-04-25T09:43:04.935Z</time></trkpt><trkpt lat="41.218198" lon="9.4715806"><ele>105.0</ele><time>2026-04-25T09:43:05.944Z</time></trkpt><trkpt lat="41.2181769" lon="9.4714645"><ele>105.0</ele><time>2026-04-25T09:43:06.936Z</time></trkpt><trkpt lat="41.2181614" lon="9.4713577"><ele>103.6</ele><time>2026-04-25T09:43:07.946Z</time></trkpt><trkpt lat="41.2181137" lon="9.4712554"><ele>102.2</ele><time>2026-04-25T09:43:08.946Z</time></trkpt><trkpt lat="41.2180642" lon="9.4711492"><ele>100.80000000000001</ele><time>2026-04-25T09:43:09.952Z</time></trkpt><trkpt lat="41.2180096" lon="9.471037"><ele>99.4</ele><time>2026-04-25T09:43:10.953Z</time></trkpt><trkpt lat="41.2179305" lon="9.4709627"><ele>98.0</ele><time>2026-04-25T09:43:11.946Z</time></trkpt><trkpt lat="41.2178367" lon="9.4709204"><ele>97.99999999999999</ele><time>2026-04-25T09:43:12.956Z</time></trkpt><trkpt lat="41.2177337" lon="9.4708913"><ele>98.0</ele><time>2026-04-25T09:43:13.956Z</time></trkpt><trkpt lat="41.2176413" lon="9.4708608"><ele>98.0</ele><time>2026-04-25T09:43:14.954Z</time></trkpt><trkpt lat="41.2175616" lon="9.47084"><ele>98.0</ele><time>2026-04-25T09:43:15.957Z</time></trkpt><trkpt lat="41.2174881" lon="9.4708308"><ele>97.99999999999999</ele><time>2026-04-25T09:43:16.958Z</time></trkpt><trkpt lat="41.2174096" lon="9.4708306"><ele>98.0</ele><time>2026-04-25T09:43:17.964Z</time></trkpt><trkpt lat="41.2173275" lon="9.4708318"><ele>98.0</ele><time>2026-04-25T09:43:18.96Z</time></trkpt><trkpt lat="41.2172491" lon="9.4708354"><ele>98.0</ele><time>2026-04-25T09:43:19.956Z</time></trkpt><trkpt lat="41.2171622" lon="9.4708534"><ele>98.0</ele><time>2026-04-25T09:43:20.96Z</time></trkpt><trkpt lat="41.2170599" lon="9.4708947"><ele>98.0</ele><time>2026-04-25T09:43:21.955Z</time></trkpt><trkpt lat="41.216954" lon="9.4709394"><ele>98.0</ele><time>2026-04-25T09:43:22.946Z</time></trkpt><trkpt lat="41.2168589" lon="9.4710023"><ele>97.99999999999999</ele><time>2026-04-25T09:43:23.944Z</time></trkpt><trkpt lat="41.2167796" lon="9.4710963"><ele>98.0</ele><time>2026-04-25T09:43:24.947Z</time></trkpt><trkpt lat="41.2167288" lon="9.4711788"><ele>98.0</ele><time>2026-04-25T09:43:25.956Z</time></trkpt><trkpt lat="41.2166802" lon="9.4712478"><ele>98.0</ele><time>2026-04-25T09:43:26.946Z</time></trkpt><trkpt lat="41.2166251" lon="9.4712971"><ele>97.99999999999999</ele><time>2026-04-25T09:43:27.948Z</time></trkpt><trkpt lat="41.2165496" lon="9.4712763"><ele>98.0</ele><time>2026-04-25T09:43:28.94Z</time></trkpt><trkpt lat="41.2164585" lon="9.4712549"><ele>99.4</ele><time>2026-04-25T09:43:29.933Z</time></trkpt><trkpt lat="41.21636" lon="9.4712183"><ele>100.80000000000001</ele><time>2026-04-25T09:43:30.936Z</time></trkpt><trkpt lat="41.2162632" lon="9.471173"><ele>102.2</ele><time>2026-04-25T09:43:31.935Z</time></trkpt><trkpt lat="41.2161668" lon="9.4711198"><ele>103.6</ele><time>2026-04-25T09:43:32.942Z</time></trkpt><trkpt lat="41.2160718" lon="9.4710668"><ele>105.0</ele><time>2026-04-25T09:43:33.947Z</time></trkpt><trkpt lat="41.2159747" lon="9.4710154"><ele>105.0</ele><time>2026-04-25T09:43:34.945Z</time></trkpt><trkpt lat="41.2158775" lon="9.4709628"><ele>105.0</ele><time>2026-04-25T09:43:35.946Z</time></trkpt><trkpt lat="41.2157792" lon="9.4708913"><ele>105.0</ele><time>2026-04-25T09:43:36.955Z</time></trkpt><trkpt lat="41.2157021" lon="9.4708086"><ele>105.0</ele><time>2026-04-25T09:43:37.953Z</time></trkpt><trkpt lat="41.2156112" lon="9.4707249"><ele>105.0</ele><time>2026-04-25T09:43:38.947Z</time></trkpt><trkpt lat="41.2155221" lon="9.4706434"><ele>104.8</ele><time>2026-04-25T09:43:39.949Z</time></trkpt><trkpt lat="41.2154295" lon="9.4705659"><ele>104.6</ele><time>2026-04-25T09:43:40.943Z</time></trkpt><trkpt lat="41.215323" lon="9.4704847"><ele>104.4</ele><time>2026-04-25T09:43:41.945Z</time></trkpt><trkpt lat="41.2152289" lon="9.4704118"><ele>104.2</ele><time>2026-04-25T09:43:42.95Z</time></trkpt><trkpt lat="41.2151485" lon="9.470338"><ele>104.0</ele><time>2026-04-25T09:43:43.953Z</time></trkpt><trkpt lat="41.2150701" lon="9.4702845"><ele>101.80000000000001</ele><time>2026-04-25T09:43:44.955Z</time></trkpt><trkpt lat="41.2149907" lon="9.4702288"><ele>99.60000000000001</ele><time>2026-04-25T09:43:45.949Z</time></trkpt><trkpt lat="41.2149023" lon="9.4701819"><ele>97.4</ele><time>2026-04-25T09:43:46.946Z</time></trkpt><trkpt lat="41.2148119" lon="9.4701544"><ele>95.2</ele><time>2026-04-25T09:43:47.937Z</time></trkpt><trkpt lat="41.2147115" lon="9.4701608"><ele>93.0</ele><time>2026-04-25T09:43:48.939Z</time></trkpt><trkpt lat="41.2146082" lon="9.4701746"><ele>93.0</ele><time>2026-04-25T09:43:49.948Z</time></trkpt><trkpt lat="41.2144999" lon="9.470188"><ele>93.0</ele><time>2026-04-25T09:43:50.951Z</time></trkpt><trkpt lat="41.2143843" lon="9.4702078"><ele>93.0</ele><time>2026-04-25T09:43:51.953Z</time></trkpt><trkpt lat="41.2142811" lon="9.4701988"><ele>93.0</ele><time>2026-04-25T09:43:52.954Z</time></trkpt><trkpt lat="41.2141801" lon="9.470187"><ele>93.0</ele><time>2026-04-25T09:43:53.953Z</time></trkpt><trkpt lat="41.2140903" lon="9.4701656"><ele>93.0</ele><time>2026-04-25T09:43:54.949Z</time></trkpt><trkpt lat="41.2139995" lon="9.4701121"><ele>93.0</ele><time>2026-04-25T09:43:55.956Z</time></trkpt><trkpt lat="41.2139078" lon="9.4700409"><ele>93.0</ele><time>2026-04-25T09:43:56.949Z</time></trkpt><trkpt lat="41.2138277" lon="9.4699598"><ele>93.0</ele><time>2026-04-25T09:43:57.954Z</time></trkpt><trkpt lat="41.2137418" lon="9.4698674"><ele>93.0</ele><time>2026-04-25T09:43:58.952Z</time></trkpt><trkpt lat="41.2136488" lon="9.4697712"><ele>93.25</ele><time>2026-04-25T09:43:59.948Z</time></trkpt><trkpt lat="41.2135523" lon="9.4696608"><ele>93.5</ele><time>2026-04-25T09:44:00.949Z</time></trkpt><trkpt lat="41.2134726" lon="9.4695406"><ele>93.75</ele><time>2026-04-25T09:44:01.944Z</time></trkpt><trkpt lat="41.2134144" lon="9.4694161"><ele>94.0</ele><time>2026-04-25T09:44:02.943Z</time></trkpt><trkpt lat="41.2133724" lon="9.4692829"><ele>92.2</ele><time>2026-04-25T09:44:03.946Z</time></trkpt><trkpt lat="41.2133235" lon="9.4691457"><ele>90.4</ele><time>2026-04-25T09:44:04.945Z</time></trkpt><trkpt lat="41.2132767" lon="9.4690206"><ele>88.6</ele><time>2026-04-25T09:44:05.945Z</time></trkpt><trkpt lat="41.213233" lon="9.4688891"><ele>86.8</ele><time>2026-04-25T09:44:06.947Z</time></trkpt><trkpt lat="41.2131813" lon="9.4687661"><ele>85.0</ele><time>2026-04-25T09:44:07.953Z</time></trkpt><trkpt lat="41.2131351" lon="9.4686457"><ele>84.8</ele><time>2026-04-25T09:44:08.953Z</time></trkpt><trkpt lat="41.2130879" lon="9.4685231"><ele>84.6</ele><time>2026-04-25T09:44:09.951Z</time></trkpt><trkpt lat="41.2130406" lon="9.468413"><ele>84.4</ele><time>2026-04-25T09:44:10.953Z</time></trkpt><trkpt lat="41.2129997" lon="9.468301"><ele>84.2</ele><time>2026-04-25T09:44:11.95Z</time></trkpt><trkpt lat="41.2129797" lon="9.4681843"><ele>84.0</ele><time>2026-04-25T09:44:12.947Z</time></trkpt><trkpt lat="41.2129772" lon="9.468062"><ele>84.0</ele><time>2026-04-25T09:44:13.943Z</time></trkpt><trkpt lat="41.212998" lon="9.4679436"><ele>84.0</ele><time>2026-04-25T09:44:14.939Z</time></trkpt><trkpt lat="41.2130067" lon="9.4678283"><ele>84.0</ele><time>2026-04-25T09:44:15.939Z</time></trkpt><trkpt lat="41.2130323" lon="9.4677225"><ele>84.0</ele><time>2026-04-25T09:44:16.936Z</time></trkpt><trkpt lat="41.2130525" lon="9.4676048"><ele>84.0</ele><time>2026-04-25T09:44:17.933Z</time></trkpt><trkpt lat="41.2130313" lon="9.4674842"><ele>84.0</ele><time>2026-04-25T09:44:18.932Z</time></trkpt><trkpt lat="41.2130218" lon="9.4673708"><ele>83.33333333333333</ele><time>2026-04-25T09:44:19.923Z</time></trkpt><trkpt lat="41.2130347" lon="9.4672596"><ele>82.66666666666667</ele><time>2026-04-25T09:44:20.926Z</time></trkpt><trkpt lat="41.2130837" lon="9.4671418"><ele>82.0</ele><time>2026-04-25T09:44:21.929Z</time></trkpt><trkpt lat="41.213118" lon="9.4670221"><ele>81.33333333333334</ele><time>2026-04-25T09:44:22.927Z</time></trkpt><trkpt lat="41.213173" lon="9.466922"><ele>80.66666666666667</ele><time>2026-04-25T09:44:23.931Z</time></trkpt><trkpt lat="41.2132149" lon="9.4668539"><ele>80.0</ele><time>2026-04-25T09:44:24.935Z</time></trkpt><trkpt lat="41.2132223" lon="9.466735"><ele>79.4</ele><time>2026-04-25T09:44:26.952Z</time></trkpt><trkpt lat="41.2131631" lon="9.466592"><ele>78.8</ele><time>2026-04-25T09:44:28.949Z</time></trkpt><trkpt lat="41.2131143" lon="9.466471"><ele>78.2</ele><time>2026-04-25T09:44:29.95Z</time></trkpt><trkpt lat="41.2130493" lon="9.4663659"><ele>77.6</ele><time>2026-04-25T09:44:30.951Z</time></trkpt><trkpt lat="41.2129833" lon="9.466268"><ele>77.0</ele><time>2026-04-25T09:44:31.945Z</time></trkpt><trkpt lat="41.2129194" lon="9.4662215"><ele>76.4</ele><time>2026-04-25T09:44:32.95Z</time></trkpt><trkpt lat="41.2128445" lon="9.466187"><ele>75.80000000000001</ele><time>2026-04-25T09:44:33.943Z</time></trkpt><trkpt lat="41.2127433" lon="9.4661815"><ele>75.2</ele><time>2026-04-25T09:44:34.944Z</time></trkpt><trkpt lat="41.2126314" lon="9.4662024"><ele>74.60000000000001</ele><time>2026-04-25T09:44:35.949Z</time></trkpt><trkpt lat="41.2125424" lon="9.4661999"><ele>74.0</ele><time>2026-04-25T09:44:36.937Z</time></trkpt><trkpt lat="41.2124381" lon="9.4662001"><ele>74.5</ele><time>2026-04-25T09:44:37.944Z</time></trkpt><trkpt lat="41.2123142" lon="9.4662051"><ele>75.0</ele><time>2026-04-25T09:44:38.943Z</time></trkpt><trkpt lat="41.2121876" lon="9.4662082"><ele>75.5</ele><time>2026-04-25T09:44:39.944Z</time></trkpt><trkpt lat="41.2120678" lon="9.4661941"><ele>76.0</ele><time>2026-04-25T09:44:40.947Z</time></trkpt><trkpt lat="41.2119487" lon="9.4662043"><ele>76.0</ele><time>2026-04-25T09:44:41.937Z</time></trkpt><trkpt lat="41.2118475" lon="9.4662092"><ele>76.0</ele><time>2026-04-25T09:44:42.941Z</time></trkpt><trkpt lat="41.2117558" lon="9.4662077"><ele>76.0</ele><time>2026-04-25T09:44:43.939Z</time></trkpt><trkpt lat="41.2116605" lon="9.4662451"><ele>76.0</ele><time>2026-04-25T09:44:44.95Z</time></trkpt><trkpt lat="41.2115658" lon="9.4662934"><ele>76.0</ele><time>2026-04-25T09:44:45.955Z</time></trkpt><trkpt lat="41.2114515" lon="9.466372"><ele>76.0</ele><time>2026-04-25T09:44:46.951Z</time></trkpt><trkpt lat="41.2113331" lon="9.4664482"><ele>76.0</ele><time>2026-04-25T09:44:47.952Z</time></trkpt><trkpt lat="41.2112188" lon="9.4665164"><ele>76.0</ele><time>2026-04-25T09:44:48.951Z</time></trkpt><trkpt lat="41.2111087" lon="9.4665784"><ele>76.0</ele><time>2026-04-25T09:44:49.949Z</time></trkpt><trkpt lat="41.2109929" lon="9.4666414"><ele>76.0</ele><time>2026-04-25T09:44:50.948Z</time></trkpt><trkpt lat="41.2108748" lon="9.4666948"><ele>76.0</ele><time>2026-04-25T09:44:51.949Z</time></trkpt><trkpt lat="41.2107589" lon="9.4667555"><ele>76.0</ele><time>2026-04-25T09:44:52.943Z</time></trkpt><trkpt lat="41.2106494" lon="9.4668143"><ele>76.0</ele><time>2026-04-25T09:44:53.945Z</time></trkpt><trkpt lat="41.2105426" lon="9.4668682"><ele>75.5</ele><time>2026-04-25T09:44:54.941Z</time></trkpt><trkpt lat="41.2104321" lon="9.4669193"><ele>75.0</ele><time>2026-04-25T09:44:55.942Z</time></trkpt><trkpt lat="41.2103195" lon="9.4669347"><ele>74.5</ele><time>2026-04-25T09:44:56.938Z</time></trkpt><trkpt lat="41.2102027" lon="9.4669246"><ele>74.0</ele><time>2026-04-25T09:44:57.949Z</time></trkpt><trkpt lat="41.2100888" lon="9.4668948"><ele>74.0</ele><time>2026-04-25T09:44:58.93Z</time></trkpt><trkpt lat="41.209986" lon="9.466866"><ele>74.0</ele><time>2026-04-25T09:44:59.927Z</time></trkpt><trkpt lat="41.209888" lon="9.4668167"><ele>74.0</ele><time>2026-04-25T09:45:00.926Z</time></trkpt><trkpt lat="41.2097927" lon="9.4667656"><ele>74.0</ele><time>2026-04-25T09:45:01.936Z</time></trkpt><trkpt lat="41.2097" lon="9.466725"><ele>74.0</ele><time>2026-04-25T09:45:02.932Z</time></trkpt><trkpt lat="41.2095898" lon="9.4666742"><ele>73.0</ele><time>2026-04-25T09:45:03.937Z</time></trkpt><trkpt lat="41.2094724" lon="9.4666285"><ele>72.0</ele><time>2026-04-25T09:45:04.937Z</time></trkpt><trkpt lat="41.2093607" lon="9.4665955"><ele>71.0</ele><time>2026-04-25T09:45:05.935Z</time></trkpt><trkpt lat="41.2092597" lon="9.4665527"><ele>70.0</ele><time>2026-04-25T09:45:06.941Z</time></trkpt><trkpt lat="41.2091788" lon="9.4664939"><ele>69.0</ele><time>2026-04-25T09:45:07.942Z</time></trkpt><trkpt lat="41.2090967" lon="9.466421"><ele>69.0</ele><time>2026-04-25T09:45:08.944Z</time></trkpt><trkpt lat="41.2090039" lon="9.4663302"><ele>69.0</ele><time>2026-04-25T09:45:09.945Z</time></trkpt><trkpt lat="41.2089059" lon="9.4662394"><ele>69.0</ele><time>2026-04-25T09:45:10.941Z</time></trkpt><trkpt lat="41.2088049" lon="9.4661495"><ele>69.0</ele><time>2026-04-25T09:45:11.945Z</time></trkpt><trkpt lat="41.208725" lon="9.4660504"><ele>66.60000000000001</ele><time>2026-04-25T09:45:12.943Z</time></trkpt><trkpt lat="41.2086354" lon="9.4659596"><ele>64.2</ele><time>2026-04-25T09:45:13.944Z</time></trkpt><trkpt lat="41.2085484" lon="9.4658719"><ele>61.800000000000004</ele><time>2026-04-25T09:45:14.937Z</time></trkpt><trkpt lat="41.2084588" lon="9.4657856"><ele>59.400000000000006</ele><time>2026-04-25T09:45:15.946Z</time></trkpt><trkpt lat="41.2083728" lon="9.4657115"><ele>57.0</ele><time>2026-04-25T09:45:16.945Z</time></trkpt><trkpt lat="41.2083049" lon="9.4656449"><ele>57.0</ele><time>2026-04-25T09:45:17.938Z</time></trkpt><trkpt lat="41.2082361" lon="9.4655703"><ele>57.0</ele><time>2026-04-25T09:45:18.941Z</time></trkpt><trkpt lat="41.2081787" lon="9.4654849"><ele>57.0</ele><time>2026-04-25T09:45:19.943Z</time></trkpt><trkpt lat="41.2081597" lon="9.4653752"><ele>57.0</ele><time>2026-04-25T09:45:20.941Z</time></trkpt><trkpt lat="41.2081454" lon="9.465261"><ele>57.0</ele><time>2026-04-25T09:45:21.943Z</time></trkpt><trkpt lat="41.2081491" lon="9.4651507"><ele>57.0</ele><time>2026-04-25T09:45:22.941Z</time></trkpt><trkpt lat="41.208154" lon="9.4650418"><ele>57.400000000000006</ele><time>2026-04-25T09:45:23.944Z</time></trkpt><trkpt lat="41.2081563" lon="9.4649355"><ele>57.800000000000004</ele><time>2026-04-25T09:45:24.934Z</time></trkpt><trkpt lat="41.2082041" lon="9.464783"><ele>58.2</ele><time>2026-04-25T09:45:26.929Z</time></trkpt><trkpt lat="41.2082695" lon="9.4647115"><ele>58.6</ele><time>2026-04-25T09:45:27.937Z</time></trkpt><trkpt lat="41.2083535" lon="9.4646489"><ele>59.0</ele><time>2026-04-25T09:45:28.933Z</time></trkpt><trkpt lat="41.2084405" lon="9.4645713"><ele>57.0</ele><time>2026-04-25T09:45:29.94Z</time></trkpt><trkpt lat="41.2085301" lon="9.4645013"><ele>55.00000000000001</ele><time>2026-04-25T09:45:30.938Z</time></trkpt><trkpt lat="41.2086082" lon="9.4644131"><ele>53.0</ele><time>2026-04-25T09:45:31.937Z</time></trkpt><trkpt lat="41.2086951" lon="9.4643237"><ele>51.0</ele><time>2026-04-25T09:45:32.939Z</time></trkpt><trkpt lat="41.208786" lon="9.4642408"><ele>49.0</ele><time>2026-04-25T09:45:33.942Z</time></trkpt><trkpt lat="41.2088641" lon="9.4641471"><ele>49.0</ele><time>2026-04-25T09:45:34.934Z</time></trkpt><trkpt lat="41.2089398" lon="9.4640443"><ele>49.0</ele><time>2026-04-25T09:45:35.945Z</time></trkpt><trkpt lat="41.209002" lon="9.4639493"><ele>49.0</ele><time>2026-04-25T09:45:36.934Z</time></trkpt><trkpt lat="41.2090603" lon="9.4638473"><ele>49.0</ele><time>2026-04-25T09:45:37.937Z</time></trkpt><trkpt lat="41.2091023" lon="9.4637259"><ele>49.0</ele><time>2026-04-25T09:45:38.926Z</time></trkpt><trkpt lat="41.2091331" lon="9.46359"><ele>46.5</ele><time>2026-04-25T09:45:39.926Z</time></trkpt><trkpt lat="41.2091285" lon="9.4634248"><ele>44.0</ele><time>2026-04-25T09:45:40.928Z</time></trkpt><trkpt lat="41.2091284" lon="9.463264"><ele>41.5</ele><time>2026-04-25T09:45:41.936Z</time></trkpt><trkpt lat="41.2091349" lon="9.4630919"><ele>39.0</ele><time>2026-04-25T09:45:42.93Z</time></trkpt><trkpt lat="41.2091402" lon="9.4629354"><ele>38.6</ele><time>2026-04-25T09:45:43.932Z</time></trkpt><trkpt lat="41.2091453" lon="9.4627873"><ele>38.2</ele><time>2026-04-25T09:45:44.933Z</time></trkpt><trkpt lat="41.2091386" lon="9.462647"><ele>37.800000000000004</ele><time>2026-04-25T09:45:45.938Z</time></trkpt><trkpt lat="41.2091386" lon="9.4625575"><ele>37.4</ele><time>2026-04-25T09:45:46.931Z</time></trkpt><trkpt lat="41.2091121" lon="9.4624455"><ele>37.0</ele><time>2026-04-25T09:45:47.93Z</time></trkpt><trkpt lat="41.2090586" lon="9.4623513"><ele>37.6</ele><time>2026-04-25T09:45:48.943Z</time></trkpt><trkpt lat="41.2089902" lon="9.4622559"><ele>38.2</ele><time>2026-04-25T09:45:49.938Z</time></trkpt><trkpt lat="41.20893" lon="9.4621587"><ele>38.8</ele><time>2026-04-25T09:45:50.943Z</time></trkpt><trkpt lat="41.208862" lon="9.4620547"><ele>39.4</ele><time>2026-04-25T09:45:51.935Z</time></trkpt><trkpt lat="41.2088083" lon="9.4619424"><ele>40.0</ele><time>2026-04-25T09:45:52.939Z</time></trkpt><trkpt lat="41.2087731" lon="9.4618329"><ele>40.0</ele><time>2026-04-25T09:45:53.943Z</time></trkpt><trkpt lat="41.2087355" lon="9.4617221"><ele>40.0</ele><time>2026-04-25T09:45:54.947Z</time></trkpt><trkpt lat="41.2086922" lon="9.4616219"><ele>40.0</ele><time>2026-04-25T09:45:55.941Z</time></trkpt><trkpt lat="41.2086637" lon="9.4615417"><ele>40.0</ele><time>2026-04-25T09:45:56.938Z</time></trkpt><trkpt lat="41.2086418" lon="9.4614452"><ele>40.0</ele><time>2026-04-25T09:45:59.936Z</time></trkpt><trkpt lat="41.2087111" lon="9.461402"><ele>40.0</ele><time>2026-04-25T09:46:02.943Z</time></trkpt><trkpt lat="41.2087826" lon="9.4614323"><ele>40.0</ele><time>2026-04-25T09:46:03.932Z</time></trkpt><trkpt lat="41.2088564" lon="9.4614799"><ele>40.0</ele><time>2026-04-25T09:46:04.937Z</time></trkpt><trkpt lat="41.2089298" lon="9.4615237"><ele>40.0</ele><time>2026-04-25T09:46:05.934Z</time></trkpt><trkpt lat="41.2090101" lon="9.4615915"><ele>40.0</ele><time>2026-04-25T09:46:06.929Z</time></trkpt><trkpt lat="41.2090975" lon="9.4616665"><ele>40.0</ele><time>2026-04-25T09:46:07.934Z</time></trkpt><trkpt lat="41.2091864" lon="9.4617433"><ele>39.0</ele><time>2026-04-25T09:46:08.931Z</time></trkpt><trkpt lat="41.2092653" lon="9.4618094"><ele>38.0</ele><time>2026-04-25T09:46:09.931Z</time></trkpt><trkpt lat="41.2093379" lon="9.4618713"><ele>37.0</ele><time>2026-04-25T09:46:10.93Z</time></trkpt><trkpt lat="41.2094256" lon="9.4619208"><ele>36.0</ele><time>2026-04-25T09:46:11.928Z</time></trkpt><trkpt lat="41.2095094" lon="9.4619892"><ele>35.0</ele><time>2026-04-25T09:46:12.934Z</time></trkpt><trkpt lat="41.2095865" lon="9.4620365"><ele>35.0</ele><time>2026-04-25T09:46:13.933Z</time></trkpt><trkpt lat="41.209648" lon="9.4620838"><ele>35.0</ele><time>2026-04-25T09:46:14.929Z</time></trkpt><trkpt lat="41.2097153" lon="9.4621274"><ele>35.0</ele><time>2026-04-25T09:46:15.928Z</time></trkpt><trkpt lat="41.2097816" lon="9.4621643"><ele>35.0</ele><time>2026-04-25T09:46:16.924Z</time></trkpt><trkpt lat="41.2098574" lon="9.4622291"><ele>35.0</ele><time>2026-04-25T09:46:18.928Z</time></trkpt><trkpt lat="41.2100038" lon="9.4621652"><ele>34.6</ele><time>2026-04-25T09:46:23.931Z</time></trkpt><trkpt lat="41.2100033" lon="9.4620633"><ele>34.2</ele><time>2026-04-25T09:46:24.923Z</time></trkpt><trkpt lat="41.2099992" lon="9.4619545"><ele>33.8</ele><time>2026-04-25T09:46:25.928Z</time></trkpt><trkpt lat="41.2099931" lon="9.4618199"><ele>33.4</ele><time>2026-04-25T09:46:26.922Z</time></trkpt><trkpt lat="41.2099918" lon="9.4616637"><ele>33.0</ele><time>2026-04-25T09:46:27.928Z</time></trkpt><trkpt lat="41.2099886" lon="9.4615063"><ele>33.0</ele><time>2026-04-25T09:46:28.925Z</time></trkpt><trkpt lat="41.2099904" lon="9.4613612"><ele>33.0</ele><time>2026-04-25T09:46:29.919Z</time></trkpt><trkpt lat="41.209989" lon="9.4612253"><ele>33.0</ele><time>2026-04-25T09:46:30.923Z</time></trkpt><trkpt lat="41.2099996" lon="9.4610837"><ele>33.0</ele><time>2026-04-25T09:46:31.919Z</time></trkpt><trkpt lat="41.210012" lon="9.4609548"><ele>33.0</ele><time>2026-04-25T09:46:32.928Z</time></trkpt><trkpt lat="41.2100195" lon="9.4608198"><ele>32.199999999999996</ele><time>2026-04-25T09:46:33.926Z</time></trkpt><trkpt lat="41.2100201" lon="9.4606709"><ele>31.4</ele><time>2026-04-25T09:46:34.926Z</time></trkpt><trkpt lat="41.2100305" lon="9.4605378"><ele>30.599999999999998</ele><time>2026-04-25T09:46:35.925Z</time></trkpt><trkpt lat="41.2100415" lon="9.4604256"><ele>29.799999999999997</ele><time>2026-04-25T09:46:36.927Z</time></trkpt><trkpt lat="41.2100447" lon="9.4602909"><ele>29.0</ele><time>2026-04-25T09:46:37.932Z</time></trkpt><trkpt lat="41.2100558" lon="9.4601668"><ele>28.4</ele><time>2026-04-25T09:46:38.931Z</time></trkpt><trkpt lat="41.2100704" lon="9.4600292"><ele>27.799999999999997</ele><time>2026-04-25T09:46:39.932Z</time></trkpt><trkpt lat="41.2100785" lon="9.4598988"><ele>27.200000000000003</ele><time>2026-04-25T09:46:40.932Z</time></trkpt><trkpt lat="41.2100863" lon="9.4597426"><ele>26.6</ele><time>2026-04-25T09:46:41.932Z</time></trkpt><trkpt lat="41.2100995" lon="9.4596"><ele>26.0</ele><time>2026-04-25T09:46:42.934Z</time></trkpt><trkpt lat="41.2101101" lon="9.459464"><ele>25.200000000000003</ele><time>2026-04-25T09:46:43.934Z</time></trkpt><trkpt lat="41.2101213" lon="9.4593262"><ele>24.400000000000002</ele><time>2026-04-25T09:46:44.932Z</time></trkpt><trkpt lat="41.210142" lon="9.4591734"><ele>23.6</ele><time>2026-04-25T09:46:45.931Z</time></trkpt><trkpt lat="41.2101626" lon="9.4590278"><ele>22.8</ele><time>2026-04-25T09:46:46.93Z</time></trkpt><trkpt lat="41.2101942" lon="9.4588819"><ele>22.0</ele><time>2026-04-25T09:46:47.929Z</time></trkpt><trkpt lat="41.2102134" lon="9.4587349"><ele>22.0</ele><time>2026-04-25T09:46:48.93Z</time></trkpt><trkpt lat="41.2102316" lon="9.4585889"><ele>22.0</ele><time>2026-04-25T09:46:49.932Z</time></trkpt><trkpt lat="41.2102566" lon="9.4584347"><ele>22.0</ele><time>2026-04-25T09:46:50.931Z</time></trkpt><trkpt lat="41.2102838" lon="9.4582784"><ele>22.0</ele><time>2026-04-25T09:46:51.937Z</time></trkpt><trkpt lat="41.2103061" lon="9.4581152"><ele>22.0</ele><time>2026-04-25T09:46:52.932Z</time></trkpt><trkpt lat="41.2103232" lon="9.4579423"><ele>22.0</ele><time>2026-04-25T09:46:53.938Z</time></trkpt><trkpt lat="41.2103517" lon="9.4577762"><ele>22.0</ele><time>2026-04-25T09:46:54.933Z</time></trkpt><trkpt lat="41.2103663" lon="9.4576058"><ele>22.0</ele><time>2026-04-25T09:46:55.934Z</time></trkpt><trkpt lat="41.2103802" lon="9.4574335"><ele>22.0</ele><time>2026-04-25T09:46:56.933Z</time></trkpt><trkpt lat="41.2103891" lon="9.4572764"><ele>22.0</ele><time>2026-04-25T09:46:57.935Z</time></trkpt><trkpt lat="41.2103959" lon="9.4571198"><ele>22.0</ele><time>2026-04-25T09:46:58.932Z</time></trkpt><trkpt lat="41.2104076" lon="9.4569749"><ele>22.0</ele><time>2026-04-25T09:46:59.931Z</time></trkpt><trkpt lat="41.2104171" lon="9.4568341"><ele>22.400000000000002</ele><time>2026-04-25T09:47:00.926Z</time></trkpt><trkpt lat="41.2104257" lon="9.4566974"><ele>22.8</ele><time>2026-04-25T09:47:01.928Z</time></trkpt><trkpt lat="41.2104303" lon="9.4565701"><ele>23.2</ele><time>2026-04-25T09:47:02.93Z</time></trkpt><trkpt lat="41.2104375" lon="9.4564455"><ele>23.6</ele><time>2026-04-25T09:47:03.926Z</time></trkpt><trkpt lat="41.2104506" lon="9.4563318"><ele>24.0</ele><time>2026-04-25T09:47:04.922Z</time></trkpt><trkpt lat="41.210443" lon="9.4562234"><ele>24.0</ele><time>2026-04-25T09:47:05.923Z</time></trkpt><trkpt lat="41.2104604" lon="9.4561165"><ele>24.0</ele><time>2026-04-25T09:47:06.919Z</time></trkpt><trkpt lat="41.2104891" lon="9.4560131"><ele>24.0</ele><time>2026-04-25T09:47:07.917Z</time></trkpt><trkpt lat="41.2105303" lon="9.4558972"><ele>24.0</ele><time>2026-04-25T09:47:08.921Z</time></trkpt><trkpt lat="41.2105681" lon="9.4558029"><ele>24.0</ele><time>2026-04-25T09:47:09.916Z</time></trkpt><trkpt lat="41.2106155" lon="9.4557048"><ele>24.0</ele><time>2026-04-25T09:47:10.928Z</time></trkpt><trkpt lat="41.2106969" lon="9.4556179"><ele>23.0</ele><time>2026-04-25T09:47:11.921Z</time></trkpt><trkpt lat="41.2107911" lon="9.4555521"><ele>22.0</ele><time>2026-04-25T09:47:12.926Z</time></trkpt><trkpt lat="41.2109012" lon="9.4554926"><ele>21.0</ele><time>2026-04-25T09:47:13.924Z</time></trkpt><trkpt lat="41.21103" lon="9.4554582"><ele>20.0</ele><time>2026-04-25T09:47:14.93Z</time></trkpt><trkpt lat="41.2111428" lon="9.4554142"><ele>20.0</ele><time>2026-04-25T09:47:15.931Z</time></trkpt><trkpt lat="41.2112688" lon="9.4553709"><ele>20.0</ele><time>2026-04-25T09:47:16.928Z</time></trkpt><trkpt lat="41.2113727" lon="9.4553202"><ele>20.0</ele><time>2026-04-25T09:47:17.927Z</time></trkpt><trkpt lat="41.2114713" lon="9.4552704"><ele>20.0</ele><time>2026-04-25T09:47:18.927Z</time></trkpt><trkpt lat="41.2115711" lon="9.4552235"><ele>19.0</ele><time>2026-04-25T09:47:19.925Z</time></trkpt><trkpt lat="41.2116733" lon="9.4551942"><ele>18.0</ele><time>2026-04-25T09:47:20.933Z</time></trkpt><trkpt lat="41.2117852" lon="9.4551692"><ele>17.0</ele><time>2026-04-25T09:47:21.935Z</time></trkpt><trkpt lat="41.2118897" lon="9.455147"><ele>16.0</ele><time>2026-04-25T09:47:22.931Z</time></trkpt><trkpt lat="41.2119867" lon="9.4551214"><ele>15.0</ele><time>2026-04-25T09:47:23.932Z</time></trkpt><trkpt lat="41.2120795" lon="9.4550895"><ele>15.0</ele><time>2026-04-25T09:47:24.93Z</time></trkpt><trkpt lat="41.2121696" lon="9.4550584"><ele>15.0</ele><time>2026-04-25T09:47:25.931Z</time></trkpt><trkpt lat="41.2122695" lon="9.4550179"><ele>15.0</ele><time>2026-04-25T09:47:26.936Z</time></trkpt><trkpt lat="41.212374" lon="9.4549824"><ele>15.0</ele><time>2026-04-25T09:47:27.939Z</time></trkpt><trkpt lat="41.2124753" lon="9.4549467"><ele>15.0</ele><time>2026-04-25T09:47:28.932Z</time></trkpt><trkpt lat="41.2125842" lon="9.4549022"><ele>14.6</ele><time>2026-04-25T09:47:29.935Z</time></trkpt><trkpt lat="41.2126787" lon="9.4548563"><ele>14.2</ele><time>2026-04-25T09:47:30.934Z</time></trkpt><trkpt lat="41.2127686" lon="9.4548034"><ele>13.8</ele><time>2026-04-25T09:47:31.934Z</time></trkpt><trkpt lat="41.2128652" lon="9.454753"><ele>13.4</ele><time>2026-04-25T09:47:32.935Z</time></trkpt><trkpt lat="41.2129545" lon="9.4547098"><ele>13.0</ele><time>2026-04-25T09:47:33.935Z</time></trkpt><trkpt lat="41.213052" lon="9.4546574"><ele>13.4</ele><time>2026-04-25T09:47:34.934Z</time></trkpt><trkpt lat="41.2131466" lon="9.4546136"><ele>13.8</ele><time>2026-04-25T09:47:35.934Z</time></trkpt><trkpt lat="41.2132569" lon="9.4545669"><ele>14.2</ele><time>2026-04-25T09:47:36.935Z</time></trkpt><trkpt lat="41.2133668" lon="9.4545151"><ele>14.6</ele><time>2026-04-25T09:47:37.936Z</time></trkpt><trkpt lat="41.2134709" lon="9.454462"><ele>15.0</ele><time>2026-04-25T09:47:38.935Z</time></trkpt><trkpt lat="41.2135688" lon="9.4544177"><ele>15.0</ele><time>2026-04-25T09:47:39.935Z</time></trkpt><trkpt lat="41.2136624" lon="9.4543656"><ele>15.0</ele><time>2026-04-25T09:47:40.938Z</time></trkpt><trkpt lat="41.2137561" lon="9.4543087"><ele>15.0</ele><time>2026-04-25T09:47:41.939Z</time></trkpt><trkpt lat="41.2138429" lon="9.4542493"><ele>15.0</ele><time>2026-04-25T09:47:42.939Z</time></trkpt><trkpt lat="41.2139326" lon="9.4541723"><ele>15.0</ele><time>2026-04-25T09:47:43.938Z</time></trkpt><trkpt lat="41.2140199" lon="9.4540705"><ele>14.2</ele><time>2026-04-25T09:47:44.943Z</time></trkpt><trkpt lat="41.2140951" lon="9.4539678"><ele>13.4</ele><time>2026-04-25T09:47:45.932Z</time></trkpt><trkpt lat="41.2141797" lon="9.4538522"><ele>12.600000000000001</ele><time>2026-04-25T09:47:46.935Z</time></trkpt><trkpt lat="41.2142526" lon="9.4537399"><ele>11.8</ele><time>2026-04-25T09:47:47.934Z</time></trkpt><trkpt lat="41.2143092" lon="9.4536247"><ele>11.0</ele><time>2026-04-25T09:47:48.931Z</time></trkpt><trkpt lat="41.2143504" lon="9.4534947"><ele>11.0</ele><time>2026-04-25T09:47:49.931Z</time></trkpt><trkpt lat="41.2143971" lon="9.4533512"><ele>11.0</ele><time>2026-04-25T09:47:50.936Z</time></trkpt><trkpt lat="41.2144248" lon="9.4532142"><ele>11.0</ele><time>2026-04-25T09:47:51.942Z</time></trkpt><trkpt lat="41.2144478" lon="9.45307"><ele>11.0</ele><time>2026-04-25T09:47:52.939Z</time></trkpt><trkpt lat="41.2144577" lon="9.452921"><ele>11.0</ele><time>2026-04-25T09:47:53.939Z</time></trkpt><trkpt lat="41.2144693" lon="9.4527715"><ele>11.0</ele><time>2026-04-25T09:47:54.936Z</time></trkpt><trkpt lat="41.2144844" lon="9.4526216"><ele>11.0</ele><time>2026-04-25T09:47:55.937Z</time></trkpt><trkpt lat="41.2144977" lon="9.4524694"><ele>11.0</ele><time>2026-04-25T09:47:56.94Z</time></trkpt><trkpt lat="41.2145232" lon="9.4523088"><ele>11.0</ele><time>2026-04-25T09:47:57.941Z</time></trkpt><trkpt lat="41.2145497" lon="9.4521479"><ele>10.25</ele><time>2026-04-25T09:47:58.939Z</time></trkpt><trkpt lat="41.2145799" lon="9.4519808"><ele>9.5</ele><time>2026-04-25T09:47:59.939Z</time></trkpt><trkpt lat="41.2146108" lon="9.45181"><ele>8.75</ele><time>2026-04-25T09:48:00.941Z</time></trkpt><trkpt lat="41.2146356" lon="9.4516541"><ele>8.0</ele><time>2026-04-25T09:48:01.94Z</time></trkpt><trkpt lat="41.2146609" lon="9.4514985"><ele>8.0</ele><time>2026-04-25T09:48:02.939Z</time></trkpt><trkpt lat="41.2146867" lon="9.4513397"><ele>8.0</ele><time>2026-04-25T09:48:03.941Z</time></trkpt><trkpt lat="41.2147066" lon="9.4511954"><ele>8.0</ele><time>2026-04-25T09:48:04.941Z</time></trkpt><trkpt lat="41.2147272" lon="9.4510569"><ele>8.0</ele><time>2026-04-25T09:48:05.94Z</time></trkpt><trkpt lat="41.2147413" lon="9.4509125"><ele>8.0</ele><time>2026-04-25T09:48:06.942Z</time></trkpt><trkpt lat="41.214761" lon="9.450777"><ele>7.6000000000000005</ele><time>2026-04-25T09:48:07.941Z</time></trkpt><trkpt lat="41.2147784" lon="9.4506568"><ele>7.200000000000001</ele><time>2026-04-25T09:48:08.943Z</time></trkpt><trkpt lat="41.2148019" lon="9.4505449"><ele>6.8</ele><time>2026-04-25T09:48:09.943Z</time></trkpt><trkpt lat="41.214822" lon="9.4504317"><ele>6.4</ele><time>2026-04-25T09:48:10.94Z</time></trkpt><trkpt lat="41.2148461" lon="9.450316"><ele>6.0</ele><time>2026-04-25T09:48:11.943Z</time></trkpt><trkpt lat="41.2148672" lon="9.4501868"><ele>5.6</ele><time>2026-04-25T09:48:12.936Z</time></trkpt><trkpt lat="41.2148828" lon="9.4500487"><ele>5.199999999999999</ele><time>2026-04-25T09:48:13.94Z</time></trkpt><trkpt lat="41.2149018" lon="9.449905"><ele>4.800000000000001</ele><time>2026-04-25T09:48:14.94Z</time></trkpt><trkpt lat="41.21492" lon="9.4497639"><ele>4.4</ele><time>2026-04-25T09:48:15.942Z</time></trkpt><trkpt lat="41.2149345" lon="9.4496211"><ele>4.0</ele><time>2026-04-25T09:48:16.942Z</time></trkpt><trkpt lat="41.2149552" lon="9.4494659"><ele>3.75</ele><time>2026-04-25T09:48:17.941Z</time></trkpt><trkpt lat="41.2149753" lon="9.449311"><ele>3.5</ele><time>2026-04-25T09:48:18.943Z</time></trkpt><trkpt lat="41.2150024" lon="9.449161"><ele>3.25</ele><time>2026-04-25T09:48:19.942Z</time></trkpt><trkpt lat="41.2150336" lon="9.4490089"><ele>3.0</ele><time>2026-04-25T09:48:20.942Z</time></trkpt><trkpt lat="41.2150651" lon="9.4488669"><ele>3.2</ele><time>2026-04-25T09:48:21.942Z</time></trkpt><trkpt lat="41.2150937" lon="9.448725"><ele>3.4</ele><time>2026-04-25T09:48:22.943Z</time></trkpt><trkpt lat="41.2151198" lon="9.4485802"><ele>3.6000000000000005</ele><time>2026-04-25T09:48:23.945Z</time></trkpt><trkpt lat="41.2151389" lon="9.4484499"><ele>3.8000000000000003</ele><time>2026-04-25T09:48:24.946Z</time></trkpt><trkpt lat="41.215164" lon="9.4483149"><ele>4.0</ele><time>2026-04-25T09:48:25.949Z</time></trkpt><trkpt lat="41.2151807" lon="9.4481795"><ele>4.0</ele><time>2026-04-25T09:48:26.946Z</time></trkpt><trkpt lat="41.2151978" lon="9.448038"><ele>4.0</ele><time>2026-04-25T09:48:27.952Z</time></trkpt><trkpt lat="41.2152185" lon="9.4478986"><ele>4.0</ele><time>2026-04-25T09:48:28.952Z</time></trkpt><trkpt lat="41.2152343" lon="9.4477645"><ele>4.0</ele><time>2026-04-25T09:48:29.952Z</time></trkpt><trkpt lat="41.2152483" lon="9.447644"><ele>4.0</ele><time>2026-04-25T09:48:30.945Z</time></trkpt><trkpt lat="41.2152646" lon="9.4475303"><ele>3.4000000000000004</ele><time>2026-04-25T09:48:31.953Z</time></trkpt><trkpt lat="41.2152824" lon="9.4474126"><ele>2.8000000000000003</ele><time>2026-04-25T09:48:32.942Z</time></trkpt><trkpt lat="41.2153041" lon="9.4472898"><ele>2.2</ele><time>2026-04-25T09:48:33.942Z</time></trkpt><trkpt lat="41.2153293" lon="9.4471732"><ele>1.6</ele><time>2026-04-25T09:48:34.938Z</time></trkpt><trkpt lat="41.2153502" lon="9.4470497"><ele>1.0</ele><time>2026-04-25T09:48:35.937Z</time></trkpt><trkpt lat="41.2153762" lon="9.4469192"><ele>0.8</ele><time>2026-04-25T09:48:36.937Z</time></trkpt><trkpt lat="41.2153922" lon="9.4467899"><ele>0.6000000000000001</ele><time>2026-04-25T09:48:37.937Z</time></trkpt><trkpt lat="41.2154036" lon="9.4466633"><ele>0.4</ele><time>2026-04-25T09:48:38.938Z</time></trkpt><trkpt lat="41.2154171" lon="9.4465394"><ele>0.2</ele><time>2026-04-25T09:48:39.942Z</time></trkpt><trkpt lat="41.2154358" lon="9.446417"><ele>0.0</ele><time>2026-04-25T09:48:40.945Z</time></trkpt><trkpt lat="41.2154536" lon="9.4462965"><ele>0.0</ele><time>2026-04-25T09:48:41.949Z</time></trkpt><trkpt lat="41.2154716" lon="9.4461769"><ele>0.0</ele><time>2026-04-25T09:48:42.947Z</time></trkpt><trkpt lat="41.2154932" lon="9.4460581"><ele>0.0</ele><time>2026-04-25T09:48:43.946Z</time></trkpt><trkpt lat="41.2155086" lon="9.4459467"><ele>0.0</ele><time>2026-04-25T09:48:44.943Z</time></trkpt><trkpt lat="41.2155325" lon="9.4458342"><ele>0.0</ele><time>2026-04-25T09:48:45.947Z</time></trkpt><trkpt lat="41.2155581" lon="9.4457248"><ele>0.0</ele><time>2026-04-25T09:48:46.946Z</time></trkpt><trkpt lat="41.2155767" lon="9.4456006"><ele>0.0</ele><time>2026-04-25T09:48:47.945Z</time></trkpt><trkpt lat="41.2155867" lon="9.4454793"><ele>0.0</ele><time>2026-04-25T09:48:48.947Z</time></trkpt><trkpt lat="41.2156082" lon="9.4453464"><ele>0.0</ele><time>2026-04-25T09:48:49.946Z</time></trkpt><trkpt lat="41.2156168" lon="9.4452196"><ele>0.0</ele><time>2026-04-25T09:48:50.953Z</time></trkpt><trkpt lat="41.2156344" lon="9.4450899"><ele>0.0</ele><time>2026-04-25T09:48:51.951Z</time></trkpt><trkpt lat="41.2156584" lon="9.4449722"><ele>0.0</ele><time>2026-04-25T09:48:52.954Z</time></trkpt><trkpt lat="41.2156765" lon="9.4448581"><ele>0.0</ele><time>2026-04-25T09:48:53.953Z</time></trkpt><trkpt lat="41.2156932" lon="9.4447538"><ele>0.0</ele><time>2026-04-25T09:48:54.949Z</time></trkpt><trkpt lat="41.2157049" lon="9.4446512"><ele>0.0</ele><time>2026-04-25T09:48:55.956Z</time></trkpt><trkpt lat="41.2157182" lon="9.4445507"><ele>0.0</ele><time>2026-04-25T09:48:56.952Z</time></trkpt><trkpt lat="41.2157363" lon="9.4444505"><ele>0.0</ele><time>2026-04-25T09:48:57.954Z</time></trkpt><trkpt lat="41.2157531" lon="9.4443514"><ele>0.0</ele><time>2026-04-25T09:48:58.953Z</time></trkpt><trkpt lat="41.2157725" lon="9.4442471"><ele>0.0</ele><time>2026-04-25T09:48:59.949Z</time></trkpt><trkpt lat="41.2157949" lon="9.444131"><ele>0.0</ele><time>2026-04-25T09:49:00.952Z</time></trkpt><trkpt lat="41.2158092" lon="9.4440122"><ele>0.0</ele><time>2026-04-25T09:49:01.95Z</time></trkpt><trkpt lat="41.2158328" lon="9.4438751"><ele>0.0</ele><time>2026-04-25T09:49:02.953Z</time></trkpt><trkpt lat="41.2158505" lon="9.4437425"><ele>0.0</ele><time>2026-04-25T09:49:03.95Z</time></trkpt><trkpt lat="41.2158684" lon="9.4436134"><ele>0.0</ele><time>2026-04-25T09:49:04.953Z</time></trkpt><trkpt lat="41.2158864" lon="9.4434914"><ele>0.0</ele><time>2026-04-25T09:49:05.945Z</time></trkpt><trkpt lat="41.2159036" lon="9.4433876"><ele>0.0</ele><time>2026-04-25T09:49:06.946Z</time></trkpt><trkpt lat="41.2159217" lon="9.4432912"><ele>0.0</ele><time>2026-04-25T09:49:07.952Z</time></trkpt><trkpt lat="41.215946" lon="9.4431971"><ele>0.0</ele><time>2026-04-25T09:49:08.945Z</time></trkpt><trkpt lat="41.2159655" lon="9.4430975"><ele>0.0</ele><time>2026-04-25T09:49:09.949Z</time></trkpt><trkpt lat="41.2159882" lon="9.4429968"><ele>0.0</ele><time>2026-04-25T09:49:10.945Z</time></trkpt><trkpt lat="41.2160164" lon="9.4428755"><ele>0.0</ele><time>2026-04-25T09:49:11.945Z</time></trkpt><trkpt lat="41.2160426" lon="9.4427348"><ele>0.0</ele><time>2026-04-25T09:49:12.949Z</time></trkpt><trkpt lat="41.2160613" lon="9.4425867"><ele>0.0</ele><time>2026-04-25T09:49:13.942Z</time></trkpt><trkpt lat="41.2160756" lon="9.442438"><ele>0.0</ele><time>2026-04-25T09:49:14.944Z</time></trkpt><trkpt lat="41.2160883" lon="9.442308"><ele>0.0</ele><time>2026-04-25T09:49:15.951Z</time></trkpt><trkpt lat="41.2161104" lon="9.44219"><ele>0.0</ele><time>2026-04-25T09:49:16.947Z</time></trkpt><trkpt lat="41.2161319" lon="9.4420907"><ele>0.0</ele><time>2026-04-25T09:49:17.946Z</time></trkpt><trkpt lat="41.2161586" lon="9.441962"><ele>0.0</ele><time>2026-04-25T09:49:19.948Z</time></trkpt><trkpt lat="41.2161776" lon="9.4418635"><ele>0.0</ele><time>2026-04-25T09:49:22.958Z</time></trkpt><trkpt lat="41.2161963" lon="9.4417204"><ele>0.0</ele><time>2026-04-25T09:49:25.958Z</time></trkpt><trkpt lat="41.2162091" lon="9.4416269"><ele>0.0</ele><time>2026-04-25T09:49:27.962Z</time></trkpt><trkpt lat="41.2162103" lon="9.4415361"><ele>0.0</ele><time>2026-04-25T09:49:29.957Z</time></trkpt><trkpt lat="41.21621" lon="9.4414482"><ele>0.0</ele><time>2026-04-25T09:49:31.957Z</time></trkpt><trkpt lat="41.2162058" lon="9.4413443"><ele>0.0</ele><time>2026-04-25T09:50:14.969Z</time></trkpt><trkpt lat="41.2162042" lon="9.4412399"><ele>0.0</ele><time>2026-04-25T09:50:16.972Z</time></trkpt><trkpt lat="41.2162297" lon="9.4411173"><ele>0.0</ele><time>2026-04-25T09:50:18.967Z</time></trkpt><trkpt lat="41.2162423" lon="9.4410044"><ele>0.0</ele><time>2026-04-25T09:50:29.972Z</time></trkpt><trkpt lat="41.2162708" lon="9.4408776"><ele>0.0</ele><time>2026-04-25T09:50:31.973Z</time></trkpt><trkpt lat="41.2162905" lon="9.4407356"><ele>0.0</ele><time>2026-04-25T09:50:33.955Z</time></trkpt><trkpt lat="41.2163148" lon="9.440594"><ele>0.0</ele><time>2026-04-25T09:50:35.947Z</time></trkpt><trkpt lat="41.2163392" lon="9.440458"><ele>0.0</ele><time>2026-04-25T09:50:37.966Z</time></trkpt><trkpt lat="41.2163548" lon="9.4403035"><ele>0.0</ele><time>2026-04-25T09:50:39.962Z</time></trkpt><trkpt lat="41.216379" lon="9.4401573"><ele>0.0</ele><time>2026-04-25T09:50:41.967Z</time></trkpt><trkpt lat="41.2163947" lon="9.440022"><ele>0.0</ele><time>2026-04-25T09:50:43.965Z</time></trkpt><trkpt lat="41.2164238" lon="9.4398889"><ele>0.0</ele><time>2026-04-25T09:50:45.944Z</time></trkpt><trkpt lat="41.2164309" lon="9.4397923"><ele>0.0</ele><time>2026-04-25T09:50:47.968Z</time></trkpt><trkpt lat="41.216462" lon="9.4396969"><ele>0.0</ele><time>2026-04-25T09:50:54.958Z</time></trkpt><trkpt lat="41.21649" lon="9.4395549"><ele>0.0</ele><time>2026-04-25T09:50:56.967Z</time></trkpt><trkpt lat="41.216531" lon="9.4394258"><ele>0.0</ele><time>2026-04-25T09:50:58.947Z</time></trkpt><trkpt lat="41.2166099" lon="9.4393565"><ele>0.0</ele><time>2026-04-25T09:51:00.937Z</time></trkpt><trkpt lat="41.2166662" lon="9.439318"><ele>0.8</ele><time>2026-04-25T09:51:01.928Z</time></trkpt><trkpt lat="41.2167474" lon="9.4392885"><ele>1.6</ele><time>2026-04-25T09:51:02.943Z</time></trkpt><trkpt lat="41.2168292" lon="9.439266"><ele>2.4000000000000004</ele><time>2026-04-25T09:51:03.938Z</time></trkpt><trkpt lat="41.216918" lon="9.4392363"><ele>3.2</ele><time>2026-04-25T09:51:04.934Z</time></trkpt><trkpt lat="41.2170124" lon="9.4392181"><ele>4.0</ele><time>2026-04-25T09:51:05.93Z</time></trkpt><trkpt lat="41.2171115" lon="9.4391987"><ele>3.9999999999999996</ele><time>2026-04-25T09:51:06.926Z</time></trkpt><trkpt lat="41.2172029" lon="9.4391917"><ele>4.0</ele><time>2026-04-25T09:51:07.927Z</time></trkpt><trkpt lat="41.2172893" lon="9.4391717"><ele>4.0</ele><time>2026-04-25T09:51:08.929Z</time></trkpt><trkpt lat="41.2173668" lon="9.4391305"><ele>4.0</ele><time>2026-04-25T09:51:09.926Z</time></trkpt><trkpt lat="41.2174395" lon="9.4390787"><ele>3.9999999999999996</ele><time>2026-04-25T09:51:10.925Z</time></trkpt><trkpt lat="41.217509" lon="9.4390048"><ele>4.0</ele><time>2026-04-25T09:51:11.923Z</time></trkpt><trkpt lat="41.2175743" lon="9.4389095"><ele>5.0</ele><time>2026-04-25T09:51:12.921Z</time></trkpt><trkpt lat="41.217632" lon="9.4387967"><ele>6.0</ele><time>2026-04-25T09:51:13.922Z</time></trkpt><trkpt lat="41.2176674" lon="9.4386732"><ele>7.0</ele><time>2026-04-25T09:51:14.921Z</time></trkpt><trkpt lat="41.2177008" lon="9.4385494"><ele>8.0</ele><time>2026-04-25T09:51:15.918Z</time></trkpt><trkpt lat="41.21774" lon="9.4384275"><ele>9.0</ele><time>2026-04-25T09:51:16.925Z</time></trkpt><trkpt lat="41.2177851" lon="9.4383116"><ele>9.0</ele><time>2026-04-25T09:51:17.923Z</time></trkpt><trkpt lat="41.2178406" lon="9.4382031"><ele>9.0</ele><time>2026-04-25T09:51:18.922Z</time></trkpt><trkpt lat="41.2179091" lon="9.4381143"><ele>9.0</ele><time>2026-04-25T09:51:19.92Z</time></trkpt><trkpt lat="41.2179878" lon="9.4380315"><ele>9.0</ele><time>2026-04-25T09:51:20.922Z</time></trkpt><trkpt lat="41.2180869" lon="9.4379572"><ele>9.0</ele><time>2026-04-25T09:51:21.926Z</time></trkpt><trkpt lat="41.218199" lon="9.4379009"><ele>9.5</ele><time>2026-04-25T09:51:22.922Z</time></trkpt><trkpt lat="41.2183093" lon="9.4378405"><ele>10.0</ele><time>2026-04-25T09:51:23.92Z</time></trkpt><trkpt lat="41.218425" lon="9.4377852"><ele>10.5</ele><time>2026-04-25T09:51:24.917Z</time></trkpt><trkpt lat="41.2185219" lon="9.4377344"><ele>11.0</ele><time>2026-04-25T09:51:25.919Z</time></trkpt><trkpt lat="41.2186224" lon="9.4376739"><ele>11.0</ele><time>2026-04-25T09:51:26.923Z</time></trkpt><trkpt lat="41.2187165" lon="9.4376097"><ele>11.0</ele><time>2026-04-25T09:51:27.924Z</time></trkpt><trkpt lat="41.218809" lon="9.4375502"><ele>11.0</ele><time>2026-04-25T09:51:28.923Z</time></trkpt><trkpt lat="41.2189172" lon="9.4374821"><ele>11.0</ele><time>2026-04-25T09:51:29.921Z</time></trkpt><trkpt lat="41.2190284" lon="9.4374145"><ele>10.5</ele><time>2026-04-25T09:51:30.921Z</time></trkpt><trkpt lat="41.2191328" lon="9.4373486"><ele>10.0</ele><time>2026-04-25T09:51:31.92Z</time></trkpt><trkpt lat="41.2192408" lon="9.437288"><ele>9.5</ele><time>2026-04-25T09:51:32.921Z</time></trkpt><trkpt lat="41.2193457" lon="9.4372302"><ele>9.0</ele><time>2026-04-25T09:51:33.922Z</time></trkpt><trkpt lat="41.2194576" lon="9.437177"><ele>8.8</ele><time>2026-04-25T09:51:34.921Z</time></trkpt><trkpt lat="41.2195617" lon="9.4371097"><ele>8.600000000000001</ele><time>2026-04-25T09:51:35.926Z</time></trkpt><trkpt lat="41.219664" lon="9.4370404"><ele>8.4</ele><time>2026-04-25T09:51:36.932Z</time></trkpt><trkpt lat="41.2197621" lon="9.4369853"><ele>8.200000000000001</ele><time>2026-04-25T09:51:37.924Z</time></trkpt><trkpt lat="41.2198515" lon="9.4369213"><ele>8.0</ele><time>2026-04-25T09:51:38.923Z</time></trkpt><trkpt lat="41.2199201" lon="9.4368589"><ele>8.0</ele><time>2026-04-25T09:51:39.916Z</time></trkpt><trkpt lat="41.219974" lon="9.4367802"><ele>8.0</ele><time>2026-04-25T09:51:40.916Z</time></trkpt><trkpt lat="41.220002" lon="9.4366935"><ele>8.0</ele><time>2026-04-25T09:51:41.915Z</time></trkpt><trkpt lat="41.220007" lon="9.4365758"><ele>8.0</ele><time>2026-04-25T09:51:42.916Z</time></trkpt><trkpt lat="41.2199826" lon="9.4364241"><ele>8.0</ele><time>2026-04-25T09:51:43.915Z</time></trkpt><trkpt lat="41.2199526" lon="9.4362781"><ele>8.200000000000001</ele><time>2026-04-25T09:51:44.917Z</time></trkpt><trkpt lat="41.219929" lon="9.4361312"><ele>8.4</ele><time>2026-04-25T09:51:45.924Z</time></trkpt><trkpt lat="41.2199034" lon="9.4359866"><ele>8.600000000000001</ele><time>2026-04-25T09:51:46.933Z</time></trkpt><trkpt lat="41.2198956" lon="9.4358429"><ele>8.8</ele><time>2026-04-25T09:51:47.924Z</time></trkpt><trkpt lat="41.2199001" lon="9.4357069"><ele>9.0</ele><time>2026-04-25T09:51:48.922Z</time></trkpt><trkpt lat="41.2198996" lon="9.4355761"><ele>8.4</ele><time>2026-04-25T09:51:49.933Z</time></trkpt><trkpt lat="41.2198969" lon="9.4354421"><ele>7.800000000000001</ele><time>2026-04-25T09:51:50.93Z</time></trkpt><trkpt lat="41.219896" lon="9.4353035"><ele>7.199999999999999</ele><time>2026-04-25T09:51:51.926Z</time></trkpt><trkpt lat="41.2199008" lon="9.4351571"><ele>6.6</ele><time>2026-04-25T09:51:52.924Z</time></trkpt><trkpt lat="41.2198985" lon="9.4350018"><ele>6.0</ele><time>2026-04-25T09:51:53.924Z</time></trkpt><trkpt lat="41.2198846" lon="9.4348358"><ele>6.0</ele><time>2026-04-25T09:51:54.92Z</time></trkpt><trkpt lat="41.2198739" lon="9.4346653"><ele>6.0</ele><time>2026-04-25T09:51:55.925Z</time></trkpt><trkpt lat="41.2198649" lon="9.4345099"><ele>6.0</ele><time>2026-04-25T09:51:56.931Z</time></trkpt><trkpt lat="41.2198503" lon="9.4343613"><ele>6.0</ele><time>2026-04-25T09:51:57.922Z</time></trkpt><trkpt lat="41.2198355" lon="9.4342134"><ele>6.5</ele><time>2026-04-25T09:51:58.922Z</time></trkpt><trkpt lat="41.2198122" lon="9.4340732"><ele>7.0</ele><time>2026-04-25T09:51:59.923Z</time></trkpt><trkpt lat="41.2197878" lon="9.4339331"><ele>7.5</ele><time>2026-04-25T09:52:00.921Z</time></trkpt><trkpt lat="41.2197795" lon="9.4337838"><ele>8.0</ele><time>2026-04-25T09:52:01.922Z</time></trkpt><trkpt lat="41.2197813" lon="9.433623"><ele>8.0</ele><time>2026-04-25T09:52:02.924Z</time></trkpt><trkpt lat="41.2197927" lon="9.4334752"><ele>8.0</ele><time>2026-04-25T09:52:03.927Z</time></trkpt><trkpt lat="41.2198106" lon="9.4333268"><ele>8.0</ele><time>2026-04-25T09:52:04.924Z</time></trkpt><trkpt lat="41.2198259" lon="9.4331827"><ele>8.0</ele><time>2026-04-25T09:52:05.924Z</time></trkpt><trkpt lat="41.2198459" lon="9.4330436"><ele>8.0</ele><time>2026-04-25T09:52:06.937Z</time></trkpt><trkpt lat="41.2198499" lon="9.4329257"><ele>7.833333333333333</ele><time>2026-04-25T09:52:07.922Z</time></trkpt><trkpt lat="41.2198479" lon="9.4328002"><ele>7.666666666666666</ele><time>2026-04-25T09:52:08.921Z</time></trkpt><trkpt lat="41.2198421" lon="9.4326734"><ele>7.5</ele><time>2026-04-25T09:52:09.913Z</time></trkpt><trkpt lat="41.2198338" lon="9.4325612"><ele>7.333333333333334</ele><time>2026-04-25T09:52:10.915Z</time></trkpt><trkpt lat="41.2198188" lon="9.4324706"><ele>7.166666666666667</ele><time>2026-04-25T09:52:11.918Z</time></trkpt><trkpt lat="41.2198122" lon="9.4323825"><ele>7.0</ele><time>2026-04-25T09:52:12.92Z</time></trkpt><trkpt lat="41.2198069" lon="9.4322205"><ele>6.8</ele><time>2026-04-25T09:52:14.917Z</time></trkpt><trkpt lat="41.219784" lon="9.4320808"><ele>6.6</ele><time>2026-04-25T09:52:16.912Z</time></trkpt><trkpt lat="41.2196829" lon="9.431984"><ele>6.3999999999999995</ele><time>2026-04-25T09:52:18.919Z</time></trkpt><trkpt lat="41.2196141" lon="9.4319204"><ele>6.199999999999999</ele><time>2026-04-25T09:52:19.914Z</time></trkpt><trkpt lat="41.2195352" lon="9.4318497"><ele>6.0</ele><time>2026-04-25T09:52:20.912Z</time></trkpt><trkpt lat="41.2194571" lon="9.4317592"><ele>6.0</ele><time>2026-04-25T09:52:21.92Z</time></trkpt><trkpt lat="41.2194306" lon="9.4316288"><ele>6.0</ele><time>2026-04-25T09:52:22.937Z</time></trkpt><trkpt lat="41.2194203" lon="9.431479"><ele>6.0</ele><time>2026-04-25T09:52:23.935Z</time></trkpt><trkpt lat="41.2194042" lon="9.431339"><ele>6.0</ele><time>2026-04-25T09:52:24.928Z</time></trkpt><trkpt lat="41.2194014" lon="9.4311716"><ele>6.0</ele><time>2026-04-25T09:52:25.934Z</time></trkpt><trkpt lat="41.219395" lon="9.4309946"><ele>6.75</ele><time>2026-04-25T09:52:26.93Z</time></trkpt><trkpt lat="41.2193829" lon="9.4308139"><ele>7.5</ele><time>2026-04-25T09:52:27.936Z</time></trkpt><trkpt lat="41.2193774" lon="9.4306312"><ele>8.25</ele><time>2026-04-25T09:52:28.93Z</time></trkpt><trkpt lat="41.2193643" lon="9.4304536"><ele>9.0</ele><time>2026-04-25T09:52:29.934Z</time></trkpt><trkpt lat="41.2193594" lon="9.4302635"><ele>9.0</ele><time>2026-04-25T09:52:30.934Z</time></trkpt><trkpt lat="41.2193438" lon="9.4300718"><ele>9.0</ele><time>2026-04-25T09:52:31.93Z</time></trkpt><trkpt lat="41.2193298" lon="9.4298808"><ele>9.0</ele><time>2026-04-25T09:52:32.943Z</time></trkpt><trkpt lat="41.2193071" lon="9.4297129"><ele>9.0</ele><time>2026-04-25T09:52:33.938Z</time></trkpt><trkpt lat="41.2192901" lon="9.4295662"><ele>9.0</ele><time>2026-04-25T09:52:34.934Z</time></trkpt><trkpt lat="41.2192729" lon="9.4294164"><ele>9.0</ele><time>2026-04-25T09:52:35.934Z</time></trkpt><trkpt lat="41.2192508" lon="9.4292672"><ele>9.0</ele><time>2026-04-25T09:52:36.934Z</time></trkpt><trkpt lat="41.2192291" lon="9.4291123"><ele>9.0</ele><time>2026-04-25T09:52:37.94Z</time></trkpt><trkpt lat="41.2192176" lon="9.4289587"><ele>9.0</ele><time>2026-04-25T09:52:38.93Z</time></trkpt><trkpt lat="41.2192022" lon="9.4288097"><ele>9.0</ele><time>2026-04-25T09:52:39.937Z</time></trkpt><trkpt lat="41.2192044" lon="9.4286702"><ele>9.0</ele><time>2026-04-25T09:52:40.935Z</time></trkpt><trkpt lat="41.2192144" lon="9.4285383"><ele>9.0</ele><time>2026-04-25T09:52:41.933Z</time></trkpt><trkpt lat="41.2192099" lon="9.4284184"><ele>9.0</ele><time>2026-04-25T09:52:42.942Z</time></trkpt><trkpt lat="41.2191774" lon="9.4283114"><ele>9.0</ele><time>2026-04-25T09:52:43.936Z</time></trkpt><trkpt lat="41.2191426" lon="9.4282107"><ele>9.0</ele><time>2026-04-25T09:52:44.924Z</time></trkpt><trkpt lat="41.2191171" lon="9.4281275"><ele>9.0</ele><time>2026-04-25T09:52:45.935Z</time></trkpt><trkpt lat="41.2189619" lon="9.4281431"><ele>9.0</ele><time>2026-04-25T09:52:47.923Z</time></trkpt><trkpt lat="41.2188415" lon="9.4281855"><ele>9.0</ele><time>2026-04-25T09:52:48.924Z</time></trkpt><trkpt lat="41.2187101" lon="9.4282442"><ele>9.0</ele><time>2026-04-25T09:52:49.926Z</time></trkpt><trkpt lat="41.2185672" lon="9.4282773"><ele>9.0</ele><time>2026-04-25T09:52:50.937Z</time></trkpt><trkpt lat="41.2184193" lon="9.4282984"><ele>9.0</ele><time>2026-04-25T09:52:51.938Z</time></trkpt><trkpt lat="41.2182728" lon="9.4283131"><ele>9.0</ele><time>2026-04-25T09:52:52.94Z</time></trkpt><trkpt lat="41.2181317" lon="9.4283436"><ele>8.0</ele><time>2026-04-25T09:52:53.934Z</time></trkpt><trkpt lat="41.2180014" lon="9.4284046"><ele>7.0</ele><time>2026-04-25T09:52:54.93Z</time></trkpt><trkpt lat="41.2178608" lon="9.4284529"><ele>6.0</ele><time>2026-04-25T09:52:55.936Z</time></trkpt><trkpt lat="41.217736" lon="9.4284438"><ele>5.0</ele><time>2026-04-25T09:52:56.931Z</time></trkpt><trkpt lat="41.2176239" lon="9.4284613"><ele>5.0</ele><time>2026-04-25T09:52:57.935Z</time></trkpt><trkpt lat="41.2175" lon="9.4284834"><ele>5.0</ele><time>2026-04-25T09:52:58.935Z</time></trkpt><trkpt lat="41.2173853" lon="9.428504"><ele>5.0</ele><time>2026-04-25T09:52:59.93Z</time></trkpt><trkpt lat="41.2172882" lon="9.4285394"><ele>5.0</ele><time>2026-04-25T09:53:00.931Z</time></trkpt><trkpt lat="41.2171779" lon="9.428559"><ele>4.8</ele><time>2026-04-25T09:53:01.935Z</time></trkpt><trkpt lat="41.2170669" lon="9.4285764"><ele>4.6</ele><time>2026-04-25T09:53:02.939Z</time></trkpt><trkpt lat="41.2169545" lon="9.4285962"><ele>4.4</ele><time>2026-04-25T09:53:03.928Z</time></trkpt><trkpt lat="41.2168517" lon="9.4286108"><ele>4.2</ele><time>2026-04-25T09:53:04.933Z</time></trkpt><trkpt lat="41.2167558" lon="9.4286073"><ele>4.0</ele><time>2026-04-25T09:53:05.925Z</time></trkpt><trkpt lat="41.2166683" lon="9.4285974"><ele>4.0</ele><time>2026-04-25T09:53:06.924Z</time></trkpt><trkpt lat="41.2165791" lon="9.4285514"><ele>4.0</ele><time>2026-04-25T09:53:07.931Z</time></trkpt><trkpt lat="41.2164962" lon="9.4284803"><ele>4.0</ele><time>2026-04-25T09:53:08.929Z</time></trkpt><trkpt lat="41.2164467" lon="9.4283767"><ele>4.0</ele><time>2026-04-25T09:53:09.923Z</time></trkpt><trkpt lat="41.2164162" lon="9.4282377"><ele>4.0</ele><time>2026-04-25T09:53:10.924Z</time></trkpt><trkpt lat="41.2164198" lon="9.4280652"><ele>3.75</ele><time>2026-04-25T09:53:11.927Z</time></trkpt><trkpt lat="41.2164269" lon="9.4278848"><ele>3.5</ele><time>2026-04-25T09:53:12.938Z</time></trkpt><trkpt lat="41.2164268" lon="9.4277098"><ele>3.25</ele><time>2026-04-25T09:53:13.929Z</time></trkpt><trkpt lat="41.2164249" lon="9.4275477"><ele>3.0</ele><time>2026-04-25T09:53:14.926Z</time></trkpt><trkpt lat="41.2164042" lon="9.4273949"><ele>3.0</ele><time>2026-04-25T09:53:15.932Z</time></trkpt><trkpt lat="41.2163452" lon="9.4272448"><ele>3.0</ele><time>2026-04-25T09:53:16.92Z</time></trkpt><trkpt lat="41.2162827" lon="9.427104"><ele>3.0</ele><time>2026-04-25T09:53:17.929Z</time></trkpt><trkpt lat="41.2162128" lon="9.4269943"><ele>3.0</ele><time>2026-04-25T09:53:18.921Z</time></trkpt><trkpt lat="41.2161356" lon="9.4269048"><ele>3.5</ele><time>2026-04-25T09:53:19.928Z</time></trkpt><trkpt lat="41.2160386" lon="9.4268322"><ele>4.0</ele><time>2026-04-25T09:53:20.924Z</time></trkpt><trkpt lat="41.2159365" lon="9.4268048"><ele>4.5</ele><time>2026-04-25T09:53:21.933Z</time></trkpt><trkpt lat="41.2158123" lon="9.4268129"><ele>5.0</ele><time>2026-04-25T09:53:22.936Z</time></trkpt><trkpt lat="41.2156824" lon="9.4268335"><ele>5.0</ele><time>2026-04-25T09:53:23.926Z</time></trkpt><trkpt lat="41.2155495" lon="9.4268652"><ele>5.0</ele><time>2026-04-25T09:53:24.921Z</time></trkpt><trkpt lat="41.2154245" lon="9.4268922"><ele>5.0</ele><time>2026-04-25T09:53:25.923Z</time></trkpt><trkpt lat="41.2153025" lon="9.4269111"><ele>5.0</ele><time>2026-04-25T09:53:26.925Z</time></trkpt><trkpt lat="41.2151807" lon="9.4269074"><ele>5.0</ele><time>2026-04-25T09:53:27.929Z</time></trkpt><trkpt lat="41.2150621" lon="9.4268798"><ele>5.0</ele><time>2026-04-25T09:53:28.923Z</time></trkpt><trkpt lat="41.214943" lon="9.4268266"><ele>5.0</ele><time>2026-04-25T09:53:29.93Z</time></trkpt><trkpt lat="41.214832" lon="9.426765"><ele>5.0</ele><time>2026-04-25T09:53:30.933Z</time></trkpt><trkpt lat="41.2147243" lon="9.4266965"><ele>4.25</ele><time>2026-04-25T09:53:31.935Z</time></trkpt><trkpt lat="41.2146119" lon="9.426629"><ele>3.5</ele><time>2026-04-25T09:53:32.947Z</time></trkpt><trkpt lat="41.2145097" lon="9.4265602"><ele>2.75</ele><time>2026-04-25T09:53:33.935Z</time></trkpt><trkpt lat="41.2144044" lon="9.4264801"><ele>2.0</ele><time>2026-04-25T09:53:34.941Z</time></trkpt><trkpt lat="41.2143097" lon="9.4263964"><ele>2.25</ele><time>2026-04-25T09:53:35.944Z</time></trkpt><trkpt lat="41.2142133" lon="9.4263074"><ele>2.5</ele><time>2026-04-25T09:53:36.937Z</time></trkpt><trkpt lat="41.2141188" lon="9.4262163"><ele>2.75</ele><time>2026-04-25T09:53:37.938Z</time></trkpt><trkpt lat="41.2140355" lon="9.4261151"><ele>3.0</ele><time>2026-04-25T09:53:38.93Z</time></trkpt><trkpt lat="41.2139672" lon="9.42601"><ele>2.4</ele><time>2026-04-25T09:53:39.93Z</time></trkpt><trkpt lat="41.2139124" lon="9.4258936"><ele>1.7999999999999998</ele><time>2026-04-25T09:53:40.929Z</time></trkpt><trkpt lat="41.213886" lon="9.4257645"><ele>1.2</ele><time>2026-04-25T09:53:41.928Z</time></trkpt><trkpt lat="41.2138699" lon="9.4256202"><ele>0.6</ele><time>2026-04-25T09:53:42.94Z</time></trkpt><trkpt lat="41.2138619" lon="9.425459"><ele>0.0</ele><time>2026-04-25T09:53:43.937Z</time></trkpt><trkpt lat="41.21386" lon="9.4252903"><ele>0.0</ele><time>2026-04-25T09:53:44.937Z</time></trkpt><trkpt lat="41.2138604" lon="9.4251349"><ele>0.0</ele><time>2026-04-25T09:53:45.938Z</time></trkpt><trkpt lat="41.2138588" lon="9.4249693"><ele>0.0</ele><time>2026-04-25T09:53:46.938Z</time></trkpt><trkpt lat="41.2138482" lon="9.4248198"><ele>0.0</ele><time>2026-04-25T09:53:47.936Z</time></trkpt><trkpt lat="41.2138403" lon="9.424669"><ele>0.5</ele><time>2026-04-25T09:53:48.938Z</time></trkpt><trkpt lat="41.2138359" lon="9.4245111"><ele>1.0</ele><time>2026-04-25T09:53:49.936Z</time></trkpt><trkpt lat="41.213834" lon="9.4243542"><ele>1.5</ele><time>2026-04-25T09:53:50.937Z</time></trkpt><trkpt lat="41.2138259" lon="9.4242022"><ele>2.0</ele><time>2026-04-25T09:53:51.941Z</time></trkpt><trkpt lat="41.2138096" lon="9.4240485"><ele>2.0</ele><time>2026-04-25T09:53:52.956Z</time></trkpt><trkpt lat="41.2138033" lon="9.4238944"><ele>2.0</ele><time>2026-04-25T09:53:53.942Z</time></trkpt><trkpt lat="41.2137967" lon="9.4237269"><ele>2.0</ele><time>2026-04-25T09:53:54.941Z</time></trkpt><trkpt lat="41.2137952" lon="9.4235679"><ele>2.0</ele><time>2026-04-25T09:53:55.944Z</time></trkpt><trkpt lat="41.2137973" lon="9.4234172"><ele>1.8</ele><time>2026-04-25T09:53:56.941Z</time></trkpt><trkpt lat="41.2137847" lon="9.423274"><ele>1.6</ele><time>2026-04-25T09:53:57.946Z</time></trkpt><trkpt lat="41.2137825" lon="9.4231226"><ele>1.4000000000000001</ele><time>2026-04-25T09:53:58.94Z</time></trkpt><trkpt lat="41.2137815" lon="9.4229698"><ele>1.2000000000000002</ele><time>2026-04-25T09:53:59.938Z</time></trkpt><trkpt lat="41.2137751" lon="9.4228255"><ele>1.0</ele><time>2026-04-25T09:54:00.938Z</time></trkpt><trkpt lat="41.213765" lon="9.4226774"><ele>1.0</ele><time>2026-04-25T09:54:01.933Z</time></trkpt><trkpt lat="41.2137558" lon="9.4225291"><ele>1.0</ele><time>2026-04-25T09:54:02.948Z</time></trkpt><trkpt lat="41.2137411" lon="9.4223772"><ele>1.0</ele><time>2026-04-25T09:54:03.938Z</time></trkpt><trkpt lat="41.2137288" lon="9.4222168"><ele>1.0</ele><time>2026-04-25T09:54:04.937Z</time></trkpt><trkpt lat="41.2137106" lon="9.4220702"><ele>1.0</ele><time>2026-04-25T09:54:05.934Z</time></trkpt><trkpt lat="41.2136996" lon="9.4219219"><ele>1.0</ele><time>2026-04-25T09:54:06.934Z</time></trkpt><trkpt lat="41.2136849" lon="9.4217701"><ele>1.0</ele><time>2026-04-25T09:54:07.933Z</time></trkpt><trkpt lat="41.2136728" lon="9.4216111"><ele>1.0</ele><time>2026-04-25T09:54:08.933Z</time></trkpt><trkpt lat="41.2136608" lon="9.4214456"><ele>1.0</ele><time>2026-04-25T09:54:09.932Z</time></trkpt><trkpt lat="41.21364" lon="9.4213002"><ele>1.0</ele><time>2026-04-25T09:54:10.938Z</time></trkpt><trkpt lat="41.2136319" lon="9.4211428"><ele>1.0</ele><time>2026-04-25T09:54:11.933Z</time></trkpt><trkpt lat="41.2136304" lon="9.4209859"><ele>1.0</ele><time>2026-04-25T09:54:12.933Z</time></trkpt><trkpt lat="41.2136487" lon="9.420825"><ele>1.0</ele><time>2026-04-25T09:54:13.945Z</time></trkpt><trkpt lat="41.2136804" lon="9.420676"><ele>1.0</ele><time>2026-04-25T09:54:14.93Z</time></trkpt><trkpt lat="41.2137385" lon="9.420554"><ele>1.0</ele><time>2026-04-25T09:54:15.936Z</time></trkpt><trkpt lat="41.2137951" lon="9.4204375"><ele>1.0</ele><time>2026-04-25T09:54:16.935Z</time></trkpt><trkpt lat="41.2138654" lon="9.4203364"><ele>1.0</ele><time>2026-04-25T09:54:17.94Z</time></trkpt><trkpt lat="41.2139359" lon="9.420231"><ele>1.4</ele><time>2026-04-25T09:54:18.938Z</time></trkpt><trkpt lat="41.2140136" lon="9.4201174"><ele>1.8</ele><time>2026-04-25T09:54:19.937Z</time></trkpt><trkpt lat="41.2140842" lon="9.4200098"><ele>2.1999999999999997</ele><time>2026-04-25T09:54:20.936Z</time></trkpt><trkpt lat="41.2141521" lon="9.4199005"><ele>2.6</ele><time>2026-04-25T09:54:21.934Z</time></trkpt><trkpt lat="41.2142141" lon="9.4197836"><ele>3.0</ele><time>2026-04-25T09:54:22.933Z</time></trkpt><trkpt lat="41.2142737" lon="9.4196744"><ele>2.8</ele><time>2026-04-25T09:54:23.946Z</time></trkpt><trkpt lat="41.2143246" lon="9.4195767"><ele>2.5999999999999996</ele><time>2026-04-25T09:54:24.932Z</time></trkpt><trkpt lat="41.2143923" lon="9.4194996"><ele>2.4000000000000004</ele><time>2026-04-25T09:54:25.932Z</time></trkpt><trkpt lat="41.2144737" lon="9.4194505"><ele>2.2</ele><time>2026-04-25T09:54:26.932Z</time></trkpt><trkpt lat="41.2145614" lon="9.4194232"><ele>2.0</ele><time>2026-04-25T09:54:27.936Z</time></trkpt><trkpt lat="41.2146682" lon="9.4194195"><ele>2.0</ele><time>2026-04-25T09:54:28.932Z</time></trkpt><trkpt lat="41.2147599" lon="9.4194012"><ele>2.0</ele><time>2026-04-25T09:54:29.932Z</time></trkpt><trkpt lat="41.2148644" lon="9.4193981"><ele>2.0</ele><time>2026-04-25T09:54:30.936Z</time></trkpt><trkpt lat="41.2149807" lon="9.4193807"><ele>2.0</ele><time>2026-04-25T09:54:31.933Z</time></trkpt><trkpt lat="41.2150854" lon="9.419355"><ele>2.0</ele><time>2026-04-25T09:54:32.935Z</time></trkpt><trkpt lat="41.2151892" lon="9.4193296"><ele>2.0</ele><time>2026-04-25T09:54:33.944Z</time></trkpt><trkpt lat="41.215303" lon="9.4193062"><ele>2.0</ele><time>2026-04-25T09:54:34.941Z</time></trkpt><trkpt lat="41.215428" lon="9.4192705"><ele>2.0</ele><time>2026-04-25T09:54:35.934Z</time></trkpt><trkpt lat="41.2155426" lon="9.4192477"><ele>2.0</ele><time>2026-04-25T09:54:36.936Z</time></trkpt><trkpt lat="41.2156538" lon="9.4192216"><ele>2.0</ele><time>2026-04-25T09:54:37.933Z</time></trkpt><trkpt lat="41.2157733" lon="9.4192055"><ele>2.0</ele><time>2026-04-25T09:54:38.929Z</time></trkpt><trkpt lat="41.2158885" lon="9.41919"><ele>2.0</ele><time>2026-04-25T09:54:39.934Z</time></trkpt><trkpt lat="41.2160009" lon="9.4191593"><ele>2.0</ele><time>2026-04-25T09:54:40.929Z</time></trkpt><trkpt lat="41.2161075" lon="9.4191267"><ele>2.0</ele><time>2026-04-25T09:54:41.934Z</time></trkpt><trkpt lat="41.2162198" lon="9.419105"><ele>2.0</ele><time>2026-04-25T09:54:42.93Z</time></trkpt><trkpt lat="41.2163329" lon="9.4190784"><ele>2.0</ele><time>2026-04-25T09:54:43.941Z</time></trkpt><trkpt lat="41.2164386" lon="9.4190297"><ele>2.0</ele><time>2026-04-25T09:54:44.942Z</time></trkpt><trkpt lat="41.2165354" lon="9.4189574"><ele>2.4000000000000004</ele><time>2026-04-25T09:54:45.942Z</time></trkpt><trkpt lat="41.2166204" lon="9.4188793"><ele>2.8000000000000003</ele><time>2026-04-25T09:54:46.932Z</time></trkpt><trkpt lat="41.2166966" lon="9.418787"><ele>3.2</ele><time>2026-04-25T09:54:47.929Z</time></trkpt><trkpt lat="41.2167726" lon="9.41869"><ele>3.6</ele><time>2026-04-25T09:54:48.943Z</time></trkpt><trkpt lat="41.2168529" lon="9.4185906"><ele>4.0</ele><time>2026-04-25T09:54:49.944Z</time></trkpt><trkpt lat="41.216925" lon="9.4184843"><ele>3.9999999999999996</ele><time>2026-04-25T09:54:50.941Z</time></trkpt><trkpt lat="41.2169817" lon="9.4183763"><ele>4.0</ele><time>2026-04-25T09:54:51.94Z</time></trkpt><trkpt lat="41.2170278" lon="9.4182709"><ele>4.0</ele><time>2026-04-25T09:54:52.938Z</time></trkpt><trkpt lat="41.2170636" lon="9.4181668"><ele>4.0</ele><time>2026-04-25T09:54:53.937Z</time></trkpt><trkpt lat="41.217093" lon="9.4180709"><ele>3.9999999999999996</ele><time>2026-04-25T09:54:54.948Z</time></trkpt><trkpt lat="41.2171149" lon="9.4179811"><ele>4.0</ele><time>2026-04-25T09:54:55.941Z</time></trkpt><trkpt lat="41.2171311" lon="9.4178553"><ele>3.6666666666666665</ele><time>2026-04-25T09:54:57.934Z</time></trkpt><trkpt lat="41.2171336" lon="9.4177636"><ele>3.333333333333333</ele><time>2026-04-25T09:55:01.941Z</time></trkpt><trkpt lat="41.2171456" lon="9.4176793"><ele>3.0</ele><time>2026-04-25T09:55:04.943Z</time></trkpt><trkpt lat="41.2171955" lon="9.4176148"><ele>2.6666666666666665</ele><time>2026-04-25T09:55:06.941Z</time></trkpt><trkpt lat="41.2172313" lon="9.4175304"><ele>2.333333333333333</ele><time>2026-04-25T09:55:08.939Z</time></trkpt><trkpt lat="41.2172165" lon="9.4174309"><ele>2.0</ele><time>2026-04-25T09:55:10.932Z</time></trkpt><trkpt lat="41.2172355" lon="9.4172896"><ele>1.9999999999999998</ele><time>2026-04-25T09:55:12.937Z</time></trkpt><trkpt lat="41.217213" lon="9.4171859"><ele>2.0</ele><time>2026-04-25T09:55:13.938Z</time></trkpt><trkpt lat="41.2171936" lon="9.4170909"><ele>2.0</ele><time>2026-04-25T09:55:14.95Z</time></trkpt><trkpt lat="41.2171733" lon="9.4169947"><ele>2.0</ele><time>2026-04-25T09:55:15.94Z</time></trkpt><trkpt lat="41.2171488" lon="9.4168813"><ele>1.9999999999999998</ele><time>2026-04-25T09:55:16.936Z</time></trkpt><trkpt lat="41.217123" lon="9.4167742"><ele>2.0</ele><time>2026-04-25T09:55:17.932Z</time></trkpt><trkpt lat="41.2170919" lon="9.4166604"><ele>2.4000000000000004</ele><time>2026-04-25T09:55:18.935Z</time></trkpt><trkpt lat="41.2170547" lon="9.4165384"><ele>2.8000000000000003</ele><time>2026-04-25T09:55:19.935Z</time></trkpt><trkpt lat="41.2170292" lon="9.4164214"><ele>3.2</ele><time>2026-04-25T09:55:20.927Z</time></trkpt><trkpt lat="41.2169938" lon="9.4162982"><ele>3.6</ele><time>2026-04-25T09:55:21.931Z</time></trkpt><trkpt lat="41.2169552" lon="9.4161708"><ele>4.0</ele><time>2026-04-25T09:55:22.933Z</time></trkpt><trkpt lat="41.2169187" lon="9.4160428"><ele>4.0</ele><time>2026-04-25T09:55:23.927Z</time></trkpt><trkpt lat="41.2168737" lon="9.4159021"><ele>4.0</ele><time>2026-04-25T09:55:24.942Z</time></trkpt><trkpt lat="41.2168287" lon="9.4157572"><ele>4.0</ele><time>2026-04-25T09:55:25.932Z</time></trkpt><trkpt lat="41.2167775" lon="9.415616"><ele>4.0</ele><time>2026-04-25T09:55:26.931Z</time></trkpt><trkpt lat="41.2167242" lon="9.4154722"><ele>4.75</ele><time>2026-04-25T09:55:27.942Z</time></trkpt><trkpt lat="41.2166652" lon="9.415335"><ele>5.5</ele><time>2026-04-25T09:55:28.937Z</time></trkpt><trkpt lat="41.216596" lon="9.415211"><ele>6.25</ele><time>2026-04-25T09:55:29.937Z</time></trkpt><trkpt lat="41.2165198" lon="9.4150997"><ele>7.0</ele><time>2026-04-25T09:55:30.93Z</time></trkpt><trkpt lat="41.2164367" lon="9.4150093"><ele>6.75</ele><time>2026-04-25T09:55:31.934Z</time></trkpt><trkpt lat="41.2163564" lon="9.414904"><ele>6.5</ele><time>2026-04-25T09:55:32.927Z</time></trkpt><trkpt lat="41.2162743" lon="9.4147979"><ele>6.25</ele><time>2026-04-25T09:55:33.927Z</time></trkpt><trkpt lat="41.2161802" lon="9.414714"><ele>6.0</ele><time>2026-04-25T09:55:34.943Z</time></trkpt><trkpt lat="41.2160786" lon="9.4146344"><ele>2.0</ele><time>2026-04-25T09:55:35.929Z</time></trkpt><trkpt lat="41.2148172" lon="9.4125499"><ele>4.0</ele><time>2026-04-25T09:56:35.687Z</time></trkpt><trkpt lat="41.215605" lon="9.4127783"><ele>4.0</ele><time>2026-04-25T09:56:39.154Z</time></trkpt><trkpt lat="41.2150477" lon="9.4122506"><ele>2.0</ele><time>2026-04-25T09:56:43.172Z</time></trkpt><trkpt lat="41.2146299" lon="9.4125822"><ele>2.0</ele><time>2026-04-25T09:56:46.176Z</time></trkpt><trkpt lat="41.2147493" lon="9.4124776"><ele>2.0</ele><time>2026-04-25T09:56:49.193Z</time></trkpt><trkpt lat="41.2147079" lon="9.4124008"><ele>2.0</ele><time>2026-04-25T09:57:03.907Z</time></trkpt><trkpt lat="41.2146805" lon="9.4123247"><ele>2.0</ele><time>2026-04-25T09:57:04.9Z</time></trkpt><trkpt lat="41.2146587" lon="9.4122036"><ele>2.0</ele><time>2026-04-25T09:57:05.906Z</time></trkpt><trkpt lat="41.2146228" lon="9.4120906"><ele>2.142857142857143</ele><time>2026-04-25T09:57:06.925Z</time></trkpt><trkpt lat="41.2145973" lon="9.4119842"><ele>2.2857142857142856</ele><time>2026-04-25T09:57:07.902Z</time></trkpt><trkpt lat="41.2145872" lon="9.4118942"><ele>2.4285714285714284</ele><time>2026-04-25T09:57:08.905Z</time></trkpt><trkpt lat="41.2145777" lon="9.4117908"><ele>2.571428571428571</ele><time>2026-04-25T09:57:09.906Z</time></trkpt><trkpt lat="41.2145774" lon="9.4116899"><ele>2.7142857142857144</ele><time>2026-04-25T09:57:10.912Z</time></trkpt><trkpt lat="41.214585" lon="9.411594"><ele>2.8571428571428568</ele><time>2026-04-25T09:57:11.906Z</time></trkpt><trkpt lat="41.2146061" lon="9.411511"><ele>3.0</ele><time>2026-04-25T09:57:12.907Z</time></trkpt><trkpt lat="41.2146356" lon="9.4114242"><ele>2.6</ele><time>2026-04-25T09:57:13.912Z</time></trkpt><trkpt lat="41.2146901" lon="9.4112993"><ele>2.1999999999999997</ele><time>2026-04-25T09:57:15.919Z</time></trkpt><trkpt lat="41.2147476" lon="9.4111917"><ele>1.8</ele><time>2026-04-25T09:57:17.916Z</time></trkpt><trkpt lat="41.2147961" lon="9.4110881"><ele>1.4</ele><time>2026-04-25T09:57:19.917Z</time></trkpt><trkpt lat="41.2148637" lon="9.4109914"><ele>1.0</ele><time>2026-04-25T09:57:22.924Z</time></trkpt><trkpt lat="41.2149165" lon="9.4109151"><ele>1.0</ele><time>2026-04-25T09:57:24.923Z</time></trkpt><trkpt lat="41.2149985" lon="9.410821"><ele>1.0</ele><time>2026-04-25T09:57:26.912Z</time></trkpt><trkpt lat="41.2150724" lon="9.4107278"><ele>1.0</ele><time>2026-04-25T09:57:28.912Z</time></trkpt><trkpt lat="41.2150745" lon="9.4106091"><ele>1.0</ele><time>2026-04-25T09:57:31.922Z</time></trkpt><trkpt lat="41.2150068" lon="9.4105312"><ele>1.0</ele><time>2026-04-25T09:57:33.918Z</time></trkpt><trkpt lat="41.2149154" lon="9.410448"><ele>0.8333333333333333</ele><time>2026-04-25T09:57:35.912Z</time></trkpt><trkpt lat="41.2148365" lon="9.4103924"><ele>0.6666666666666666</ele><time>2026-04-25T09:57:37.924Z</time></trkpt><trkpt lat="41.2147802" lon="9.4103317"><ele>0.5</ele><time>2026-04-25T09:57:39.917Z</time></trkpt><trkpt lat="41.2147594" lon="9.4102223"><ele>0.3333333333333333</ele><time>2026-04-25T09:57:41.917Z</time></trkpt><trkpt lat="41.214724" lon="9.4101095"><ele>0.16666666666666666</ele><time>2026-04-25T09:57:43.917Z</time></trkpt><trkpt lat="41.2146704" lon="9.4100252"><ele>0.0</ele><time>2026-04-25T09:57:45.91Z</time></trkpt><trkpt lat="41.214625" lon="9.4099166"><ele>0.0</ele><time>2026-04-25T09:57:48.914Z</time></trkpt><trkpt lat="41.2145839" lon="9.409821"><ele>0.0</ele><time>2026-04-25T09:57:50.926Z</time></trkpt><trkpt lat="41.2145524" lon="9.4097237"><ele>0.0</ele><time>2026-04-25T09:57:52.922Z</time></trkpt><trkpt lat="41.2145178" lon="9.4096451"><ele>0.0</ele><time>2026-04-25T09:57:54.924Z</time></trkpt><trkpt lat="41.2144885" lon="9.4095585"><ele>0.0</ele><time>2026-04-25T09:57:56.919Z</time></trkpt><trkpt lat="41.214461" lon="9.4094725"><ele>0.0</ele><time>2026-04-25T09:57:58.925Z</time></trkpt><trkpt lat="41.2144179" lon="9.4093488"><ele>0.0</ele><time>2026-04-25T09:58:00.921Z</time></trkpt><trkpt lat="41.2143876" lon="9.4092205"><ele>0.0</ele><time>2026-04-25T09:58:02.914Z</time></trkpt><trkpt lat="41.2143566" lon="9.4090849"><ele>0.0</ele><time>2026-04-25T09:58:04.915Z</time></trkpt><trkpt lat="41.214334" lon="9.409006"><ele>0.0</ele><time>2026-04-25T09:58:05.913Z</time></trkpt><trkpt lat="41.2143048" lon="9.4089212"><ele>0.0</ele><time>2026-04-25T09:58:06.937Z</time></trkpt><trkpt lat="41.2142831" lon="9.4088393"><ele>0.0</ele><time>2026-04-25T09:58:07.915Z</time></trkpt><trkpt lat="41.2142555" lon="9.4087625"><ele>0.7142857142857143</ele><time>2026-04-25T09:58:08.924Z</time></trkpt><trkpt lat="41.2142124" lon="9.4086765"><ele>1.4285714285714286</ele><time>2026-04-25T09:58:09.912Z</time></trkpt><trkpt lat="41.2141782" lon="9.4085978"><ele>2.142857142857143</ele><time>2026-04-25T09:58:10.911Z</time></trkpt><trkpt lat="41.2141533" lon="9.4085179"><ele>2.857142857142857</ele><time>2026-04-25T09:58:11.912Z</time></trkpt><trkpt lat="41.2141194" lon="9.4084433"><ele>3.5714285714285716</ele><time>2026-04-25T09:58:12.911Z</time></trkpt><trkpt lat="41.2140817" lon="9.4083566"><ele>4.285714285714286</ele><time>2026-04-25T09:58:13.919Z</time></trkpt><trkpt lat="41.2140583" lon="9.408273"><ele>5.0</ele><time>2026-04-25T09:58:14.912Z</time></trkpt><trkpt lat="41.2140156" lon="9.4082066"><ele>4.857142857142857</ele><time>2026-04-25T09:58:15.911Z</time></trkpt><trkpt lat="41.2139572" lon="9.4081383"><ele>4.714285714285714</ele><time>2026-04-25T09:58:16.916Z</time></trkpt><trkpt lat="41.2139009" lon="9.4080807"><ele>4.571428571428571</ele><time>2026-04-25T09:58:17.908Z</time></trkpt><trkpt lat="41.2138452" lon="9.4080308"><ele>4.428571428571429</ele><time>2026-04-25T09:58:18.909Z</time></trkpt><trkpt lat="41.2137865" lon="9.4079795"><ele>4.285714285714286</ele><time>2026-04-25T09:58:19.91Z</time></trkpt><trkpt lat="41.2137277" lon="9.4079308"><ele>4.142857142857142</ele><time>2026-04-25T09:58:20.909Z</time></trkpt><trkpt lat="41.2136675" lon="9.4078768"><ele>4.0</ele><time>2026-04-25T09:58:21.913Z</time></trkpt><trkpt lat="41.2135719" lon="9.4078106"><ele>4.0</ele><time>2026-04-25T09:58:23.917Z</time></trkpt><trkpt lat="41.2134595" lon="9.4077349"><ele>4.0</ele><time>2026-04-25T09:58:25.916Z</time></trkpt><trkpt lat="41.2134033" lon="9.4076857"><ele>4.0</ele><time>2026-04-25T09:58:26.915Z</time></trkpt><trkpt lat="41.213301" lon="9.4076086"><ele>4.0</ele><time>2026-04-25T09:58:28.918Z</time></trkpt><trkpt lat="41.2131989" lon="9.4075229"><ele>4.0</ele><time>2026-04-25T09:58:30.916Z</time></trkpt><trkpt lat="41.2130989" lon="9.4074585"><ele>3.4999999999999996</ele><time>2026-04-25T09:58:32.917Z</time></trkpt><trkpt lat="41.2130177" lon="9.4074137"><ele>3.0</ele><time>2026-04-25T09:58:34.92Z</time></trkpt><trkpt lat="41.2129402" lon="9.4073912"><ele>2.5</ele><time>2026-04-25T09:58:36.934Z</time></trkpt><trkpt lat="41.2128704" lon="9.4073579"><ele>2.0</ele><time>2026-04-25T09:58:38.918Z</time></trkpt><trkpt lat="41.212802" lon="9.4073464"><ele>1.5</ele><time>2026-04-25T09:58:46.916Z</time></trkpt><trkpt lat="41.2127397" lon="9.4073263"><ele>1.0</ele><time>2026-04-25T09:58:54.923Z</time></trkpt><trkpt lat="41.2126502" lon="9.4072579"><ele>0.9999999999999999</ele><time>2026-04-25T09:58:57.924Z</time></trkpt><trkpt lat="41.2125996" lon="9.4072057"><ele>1.0</ele><time>2026-04-25T09:58:58.925Z</time></trkpt><trkpt lat="41.2125493" lon="9.4071372"><ele>1.0</ele><time>2026-04-25T09:58:59.92Z</time></trkpt><trkpt lat="41.2125028" lon="9.4070233"><ele>1.0</ele><time>2026-04-25T09:59:00.924Z</time></trkpt><trkpt lat="41.2124474" lon="9.4069315"><ele>0.9999999999999999</ele><time>2026-04-25T09:59:01.932Z</time></trkpt><trkpt lat="41.2124052" lon="9.4068191"><ele>1.0</ele><time>2026-04-25T09:59:02.926Z</time></trkpt><trkpt lat="41.2123637" lon="9.4066967"><ele>1.1666666666666665</ele><time>2026-04-25T09:59:03.923Z</time></trkpt><trkpt lat="41.2123328" lon="9.4065702"><ele>1.3333333333333333</ele><time>2026-04-25T09:59:04.924Z</time></trkpt><trkpt lat="41.2123003" lon="9.4064537"><ele>1.5</ele><time>2026-04-25T09:59:05.923Z</time></trkpt><trkpt lat="41.2122632" lon="9.4063522"><ele>1.6666666666666665</ele><time>2026-04-25T09:59:06.93Z</time></trkpt><trkpt lat="41.2122296" lon="9.4062783"><ele>1.8333333333333333</ele><time>2026-04-25T09:59:07.921Z</time></trkpt><trkpt lat="41.2122072" lon="9.4061778"><ele>2.0</ele><time>2026-04-25T09:59:08.919Z</time></trkpt><trkpt lat="41.2121885" lon="9.406091"><ele>1.7142857142857142</ele><time>2026-04-25T09:59:09.928Z</time></trkpt><trkpt lat="41.2121711" lon="9.4059998"><ele>1.4285714285714284</ele><time>2026-04-25T09:59:10.919Z</time></trkpt><trkpt lat="41.21215" lon="9.4059177"><ele>1.1428571428571428</ele><time>2026-04-25T09:59:11.92Z</time></trkpt><trkpt lat="41.2121267" lon="9.4058364"><ele>0.8571428571428571</ele><time>2026-04-25T09:59:12.923Z</time></trkpt><trkpt lat="41.2121192" lon="9.405731"><ele>0.5714285714285714</ele><time>2026-04-25T09:59:14.919Z</time></trkpt><trkpt lat="41.2121036" lon="9.4056415"><ele>0.2857142857142857</ele><time>2026-04-25T09:59:17.928Z</time></trkpt><trkpt lat="41.2120793" lon="9.405539"><ele>0.0</ele><time>2026-04-25T09:59:20.92Z</time></trkpt><trkpt lat="41.2120544" lon="9.4054416"><ele>-0.16666666666666666</ele><time>2026-04-25T09:59:22.927Z</time></trkpt><trkpt lat="41.212045" lon="9.405333"><ele>-0.3333333333333333</ele><time>2026-04-25T09:59:24.939Z</time></trkpt><trkpt lat="41.2120851" lon="9.405221"><ele>-0.5</ele><time>2026-04-25T09:59:26.933Z</time></trkpt><trkpt lat="41.2121588" lon="9.4051108"><ele>-0.6666666666666666</ele><time>2026-04-25T09:59:28.932Z</time></trkpt><trkpt lat="41.2122041" lon="9.4050378"><ele>-0.8333333333333333</ele><time>2026-04-25T09:59:29.935Z</time></trkpt><trkpt lat="41.2122431" lon="9.4049622"><ele>-1.0</ele><time>2026-04-25T09:59:30.931Z</time></trkpt><trkpt lat="41.2122778" lon="9.4048857"><ele>-0.49999999999999994</ele><time>2026-04-25T09:59:31.93Z</time></trkpt><trkpt lat="41.212353" lon="9.4047533"><ele>0.0</ele><time>2026-04-25T09:59:33.926Z</time></trkpt><trkpt lat="41.2124008" lon="9.4046916"><ele>0.5</ele><time>2026-04-25T09:59:34.93Z</time></trkpt><trkpt lat="41.2124592" lon="9.4046304"><ele>1.0</ele><time>2026-04-25T09:59:35.925Z</time></trkpt><trkpt lat="41.212512" lon="9.4045599"><ele>1.4999999999999998</ele><time>2026-04-25T09:59:36.934Z</time></trkpt><trkpt lat="41.2125605" lon="9.4044861"><ele>2.0</ele><time>2026-04-25T09:59:37.924Z</time></trkpt><trkpt lat="41.2126054" lon="9.4044115"><ele>2.0</ele><time>2026-04-25T09:59:38.922Z</time></trkpt><trkpt lat="41.2126465" lon="9.4043431"><ele>1.9999999999999998</ele><time>2026-04-25T09:59:39.928Z</time></trkpt><trkpt lat="41.2126878" lon="9.4042797"><ele>2.0</ele><time>2026-04-25T09:59:40.937Z</time></trkpt><trkpt lat="41.2127404" lon="9.4042155"><ele>2.0</ele><time>2026-04-25T09:59:41.927Z</time></trkpt><trkpt lat="41.212798" lon="9.4041458"><ele>1.9999999999999998</ele><time>2026-04-25T09:59:42.931Z</time></trkpt><trkpt lat="41.2128578" lon="9.4040883"><ele>2.0</ele><time>2026-04-25T09:59:43.927Z</time></trkpt><trkpt lat="41.2129126" lon="9.4040293"><ele>2.0</ele><time>2026-04-25T09:59:44.92Z</time></trkpt><trkpt lat="41.212957" lon="9.4039531"><ele>1.9999999999999998</ele><time>2026-04-25T09:59:45.926Z</time></trkpt><trkpt lat="41.2129991" lon="9.4038755"><ele>2.0</ele><time>2026-04-25T09:59:46.924Z</time></trkpt><trkpt lat="41.2130391" lon="9.4038103"><ele>2.0</ele><time>2026-04-25T09:59:47.927Z</time></trkpt><trkpt lat="41.2131155" lon="9.4037122"><ele>2.0</ele><time>2026-04-25T09:59:49.928Z</time></trkpt><trkpt lat="41.2131853" lon="9.4036794"><ele>1.9999999999999998</ele><time>2026-04-25T09:59:57.908Z</time></trkpt><trkpt lat="41.2132263" lon="9.4035965"><ele>2.0</ele><time>2026-04-25T10:00:00.911Z</time></trkpt><trkpt lat="41.2131876" lon="9.4035076"><ele>1.9999999999999998</ele><time>2026-04-25T10:00:02.904Z</time></trkpt><trkpt lat="41.2131577" lon="9.4034075"><ele>2.0</ele><time>2026-04-25T10:00:03.908Z</time></trkpt><trkpt lat="41.213114" lon="9.4033213"><ele>2.0</ele><time>2026-04-25T10:00:04.908Z</time></trkpt><trkpt lat="41.2130669" lon="9.4032546"><ele>2.0</ele><time>2026-04-25T10:00:05.903Z</time></trkpt><trkpt lat="41.2129941" lon="9.4032402"><ele>1.9999999999999998</ele><time>2026-04-25T10:00:07.904Z</time></trkpt><trkpt lat="41.2128747" lon="9.4032948"><ele>2.0</ele><time>2026-04-25T10:00:09.911Z</time></trkpt><trkpt lat="41.2128062" lon="9.4033171"><ele>2.0</ele><time>2026-04-25T10:00:10.91Z</time></trkpt><trkpt lat="41.2127427" lon="9.4033121"><ele>2.0</ele><time>2026-04-25T10:00:11.911Z</time></trkpt><trkpt lat="41.2126281" lon="9.4033188"><ele>2.0</ele><time>2026-04-25T10:00:13.903Z</time></trkpt><trkpt lat="41.2125277" lon="9.4033339"><ele>2.0</ele><time>2026-04-25T10:00:15.911Z</time></trkpt><trkpt lat="41.212423" lon="9.4033669"><ele>2.0</ele><time>2026-04-25T10:00:17.91Z</time></trkpt><trkpt lat="41.2123012" lon="9.4033826"><ele>1.857142857142857</ele><time>2026-04-25T10:00:19.909Z</time></trkpt><trkpt lat="41.212235" lon="9.4033994"><ele>1.714285714285714</ele><time>2026-04-25T10:00:20.909Z</time></trkpt><trkpt lat="41.2121704" lon="9.4034144"><ele>1.5714285714285714</ele><time>2026-04-25T10:00:21.91Z</time></trkpt><trkpt lat="41.2121015" lon="9.4034305"><ele>1.4285714285714284</ele><time>2026-04-25T10:00:22.91Z</time></trkpt><trkpt lat="41.2120347" lon="9.4034327"><ele>1.2857142857142856</ele><time>2026-04-25T10:00:23.913Z</time></trkpt><trkpt lat="41.2119607" lon="9.4034274"><ele>1.1428571428571428</ele><time>2026-04-25T10:00:24.914Z</time></trkpt><trkpt lat="41.211896" lon="9.4034179"><ele>1.0</ele><time>2026-04-25T10:00:25.917Z</time></trkpt><trkpt lat="41.2118226" lon="9.4033987"><ele>1.0</ele><time>2026-04-25T10:00:26.913Z</time></trkpt><trkpt lat="41.2117377" lon="9.4033656"><ele>1.0</ele><time>2026-04-25T10:00:27.912Z</time></trkpt><trkpt lat="41.2116506" lon="9.4033148"><ele>1.0</ele><time>2026-04-25T10:00:28.906Z</time></trkpt><trkpt lat="41.2115824" lon="9.4032426"><ele>1.0</ele><time>2026-04-25T10:00:29.907Z</time></trkpt><trkpt lat="41.2115369" lon="9.4031501"><ele>1.0</ele><time>2026-04-25T10:00:30.906Z</time></trkpt><trkpt lat="41.2115044" lon="9.403017"><ele>1.0</ele><time>2026-04-25T10:00:31.912Z</time></trkpt><trkpt lat="41.2114935" lon="9.4028933"><ele>1.0</ele><time>2026-04-25T10:00:32.909Z</time></trkpt><trkpt lat="41.2114977" lon="9.4027655"><ele>1.0</ele><time>2026-04-25T10:00:33.912Z</time></trkpt><trkpt lat="41.2115035" lon="9.4026263"><ele>1.0</ele><time>2026-04-25T10:00:34.908Z</time></trkpt><trkpt lat="41.2114859" lon="9.4024892"><ele>1.0</ele><time>2026-04-25T10:00:35.911Z</time></trkpt><trkpt lat="41.2114497" lon="9.4023606"><ele>1.0</ele><time>2026-04-25T10:00:36.92Z</time></trkpt><trkpt lat="41.2114025" lon="9.4022465"><ele>1.0</ele><time>2026-04-25T10:00:37.917Z</time></trkpt><trkpt lat="41.2113603" lon="9.4021464"><ele>1.0</ele><time>2026-04-25T10:00:38.917Z</time></trkpt><trkpt lat="41.21133" lon="9.402058"><ele>1.0</ele><time>2026-04-25T10:00:39.912Z</time></trkpt><trkpt lat="41.2113413" lon="9.4019244"><ele>1.0</ele><time>2026-04-25T10:00:41.918Z</time></trkpt><trkpt lat="41.2114378" lon="9.4017999"><ele>2.5</ele><time>2026-04-25T10:00:43.911Z</time></trkpt><trkpt lat="41.2115042" lon="9.4017297"><ele>4.0</ele><time>2026-04-25T10:00:44.921Z</time></trkpt><trkpt lat="41.2115719" lon="9.4016637"><ele>5.5</ele><time>2026-04-25T10:00:45.914Z</time></trkpt><trkpt lat="41.2116406" lon="9.4016142"><ele>7.0</ele><time>2026-04-25T10:00:46.912Z</time></trkpt><trkpt lat="41.2117117" lon="9.4015706"><ele>8.5</ele><time>2026-04-25T10:00:47.913Z</time></trkpt><trkpt lat="41.211785" lon="9.4015415"><ele>10.0</ele><time>2026-04-25T10:00:48.92Z</time></trkpt><trkpt lat="41.2118556" lon="9.4015233"><ele>10.0</ele><time>2026-04-25T10:00:49.921Z</time></trkpt><trkpt lat="41.2119225" lon="9.4014861"><ele>10.0</ele><time>2026-04-25T10:00:50.911Z</time></trkpt><trkpt lat="41.2120018" lon="9.4014566"><ele>10.0</ele><time>2026-04-25T10:00:51.914Z</time></trkpt><trkpt lat="41.2120835" lon="9.4014265"><ele>10.0</ele><time>2026-04-25T10:00:52.908Z</time></trkpt><trkpt lat="41.2121556" lon="9.4014017"><ele>10.0</ele><time>2026-04-25T10:00:53.912Z</time></trkpt><trkpt lat="41.2122181" lon="9.4013788"><ele>10.0</ele><time>2026-04-25T10:00:54.906Z</time></trkpt><trkpt lat="41.2123016" lon="9.4013527"><ele>10.25</ele><time>2026-04-25T10:00:56.912Z</time></trkpt><trkpt lat="41.2123824" lon="9.4011635"><ele>10.5</ele><time>2026-04-25T10:01:31.912Z</time></trkpt><trkpt lat="41.2123659" lon="9.4009918"><ele>10.75</ele><time>2026-04-25T10:01:33.914Z</time></trkpt><trkpt lat="41.2123325" lon="9.4008632"><ele>11.0</ele><time>2026-04-25T10:01:34.916Z</time></trkpt><trkpt lat="41.212276" lon="9.4007688"><ele>11.0</ele><time>2026-04-25T10:01:35.917Z</time></trkpt><trkpt lat="41.2121982" lon="9.4006772"><ele>11.0</ele><time>2026-04-25T10:01:36.925Z</time></trkpt><trkpt lat="41.2121315" lon="9.4005802"><ele>11.0</ele><time>2026-04-25T10:01:37.919Z</time></trkpt><trkpt lat="41.2120597" lon="9.4004873"><ele>11.0</ele><time>2026-04-25T10:01:38.913Z</time></trkpt><trkpt lat="41.2119765" lon="9.4003942"><ele>11.0</ele><time>2026-04-25T10:01:39.911Z</time></trkpt><trkpt lat="41.2118877" lon="9.4003177"><ele>11.8</ele><time>2026-04-25T10:01:40.912Z</time></trkpt><trkpt lat="41.2118086" lon="9.4002245"><ele>12.600000000000001</ele><time>2026-04-25T10:01:41.916Z</time></trkpt><trkpt lat="41.2117434" lon="9.400135"><ele>13.4</ele><time>2026-04-25T10:01:42.914Z</time></trkpt><trkpt lat="41.211662" lon="9.4000504"><ele>14.2</ele><time>2026-04-25T10:01:43.917Z</time></trkpt><trkpt lat="41.2115855" lon="9.3999641"><ele>15.0</ele><time>2026-04-25T10:01:44.919Z</time></trkpt><trkpt lat="41.2115097" lon="9.3998741"><ele>14.5</ele><time>2026-04-25T10:01:45.918Z</time></trkpt><trkpt lat="41.2114208" lon="9.3997822"><ele>14.0</ele><time>2026-04-25T10:01:46.915Z</time></trkpt><trkpt lat="41.2113349" lon="9.3996839"><ele>13.5</ele><time>2026-04-25T10:01:47.917Z</time></trkpt><trkpt lat="41.211243" lon="9.3995867"><ele>13.0</ele><time>2026-04-25T10:01:48.92Z</time></trkpt><trkpt lat="41.2111411" lon="9.3994864"><ele>13.0</ele><time>2026-04-25T10:01:49.914Z</time></trkpt><trkpt lat="41.2110477" lon="9.399396"><ele>13.0</ele><time>2026-04-25T10:01:50.914Z</time></trkpt><trkpt lat="41.2109582" lon="9.3993085"><ele>13.0</ele><time>2026-04-25T10:01:51.907Z</time></trkpt><trkpt lat="41.2108611" lon="9.3992217"><ele>13.0</ele><time>2026-04-25T10:01:52.913Z</time></trkpt><trkpt lat="41.2107624" lon="9.3991424"><ele>13.0</ele><time>2026-04-25T10:01:53.919Z</time></trkpt><trkpt lat="41.2106737" lon="9.3990586"><ele>13.0</ele><time>2026-04-25T10:01:54.916Z</time></trkpt><trkpt lat="41.2105957" lon="9.3989702"><ele>13.0</ele><time>2026-04-25T10:01:55.916Z</time></trkpt><trkpt lat="41.2105186" lon="9.3988962"><ele>13.0</ele><time>2026-04-25T10:01:56.915Z</time></trkpt><trkpt lat="41.2104544" lon="9.3988201"><ele>13.0</ele><time>2026-04-25T10:01:57.915Z</time></trkpt><trkpt lat="41.210389" lon="9.398748"><ele>10.8</ele><time>2026-04-25T10:01:58.915Z</time></trkpt><trkpt lat="41.2103332" lon="9.3986814"><ele>8.600000000000001</ele><time>2026-04-25T10:01:59.92Z</time></trkpt><trkpt lat="41.2102971" lon="9.3985325"><ele>6.4</ele><time>2026-04-25T10:02:01.91Z</time></trkpt><trkpt lat="41.2103157" lon="9.3984451"><ele>4.2</ele><time>2026-04-25T10:02:02.904Z</time></trkpt><trkpt lat="41.210416" lon="9.3983954"><ele>2.0</ele><time>2026-04-25T10:02:04.913Z</time></trkpt><trkpt lat="41.2105086" lon="9.3983843"><ele>1.9999999999999998</ele><time>2026-04-25T10:02:05.92Z</time></trkpt><trkpt lat="41.2106052" lon="9.3983736"><ele>2.0</ele><time>2026-04-25T10:02:06.931Z</time></trkpt><trkpt lat="41.2107029" lon="9.398368"><ele>2.0</ele><time>2026-04-25T10:02:07.924Z</time></trkpt><trkpt lat="41.2107789" lon="9.3983331"><ele>2.0</ele><time>2026-04-25T10:02:08.916Z</time></trkpt><trkpt lat="41.2108441" lon="9.3982908"><ele>1.9999999999999998</ele><time>2026-04-25T10:02:09.917Z</time></trkpt><trkpt lat="41.2108914" lon="9.3982169"><ele>2.0</ele><time>2026-04-25T10:02:10.919Z</time></trkpt><trkpt lat="41.2109185" lon="9.3981277"><ele>2.6666666666666665</ele><time>2026-04-25T10:02:11.912Z</time></trkpt><trkpt lat="41.2109187" lon="9.3980213"><ele>3.333333333333333</ele><time>2026-04-25T10:02:12.919Z</time></trkpt><trkpt lat="41.2109131" lon="9.3979107"><ele>4.0</ele><time>2026-04-25T10:02:13.919Z</time></trkpt><trkpt lat="41.2108997" lon="9.3977949"><ele>4.666666666666667</ele><time>2026-04-25T10:02:14.921Z</time></trkpt><trkpt lat="41.210882" lon="9.3976761"><ele>5.333333333333333</ele><time>2026-04-25T10:02:15.931Z</time></trkpt><trkpt lat="41.2108569" lon="9.397554"><ele>6.0</ele><time>2026-04-25T10:02:16.92Z</time></trkpt><trkpt lat="41.2108244" lon="9.397421"><ele>6.0</ele><time>2026-04-25T10:02:17.925Z</time></trkpt><trkpt lat="41.2107916" lon="9.3972854"><ele>6.0</ele><time>2026-04-25T10:02:18.924Z</time></trkpt><trkpt lat="41.2107661" lon="9.3971455"><ele>6.0</ele><time>2026-04-25T10:02:19.922Z</time></trkpt><trkpt lat="41.2107451" lon="9.3970005"><ele>6.0</ele><time>2026-04-25T10:02:20.924Z</time></trkpt><trkpt lat="41.2107242" lon="9.3968384"><ele>6.75</ele><time>2026-04-25T10:02:21.916Z</time></trkpt><trkpt lat="41.210701" lon="9.3966764"><ele>7.5</ele><time>2026-04-25T10:02:22.922Z</time></trkpt><trkpt lat="41.2106745" lon="9.3965232"><ele>8.25</ele><time>2026-04-25T10:02:23.92Z</time></trkpt><trkpt lat="41.2106602" lon="9.396381"><ele>9.0</ele><time>2026-04-25T10:02:24.923Z</time></trkpt><trkpt lat="41.2106452" lon="9.3962424"><ele>9.0</ele><time>2026-04-25T10:02:25.916Z</time></trkpt><trkpt lat="41.2106372" lon="9.3960942"><ele>9.0</ele><time>2026-04-25T10:02:26.929Z</time></trkpt><trkpt lat="41.2106351" lon="9.3959409"><ele>9.0</ele><time>2026-04-25T10:02:27.924Z</time></trkpt><trkpt lat="41.2106527" lon="9.3957851"><ele>9.0</ele><time>2026-04-25T10:02:28.926Z</time></trkpt><trkpt lat="41.2106705" lon="9.3956227"><ele>8.0</ele><time>2026-04-25T10:02:29.931Z</time></trkpt><trkpt lat="41.2106796" lon="9.3954568"><ele>7.0</ele><time>2026-04-25T10:02:30.928Z</time></trkpt><trkpt lat="41.2106911" lon="9.3953034"><ele>6.0</ele><time>2026-04-25T10:02:31.928Z</time></trkpt><trkpt lat="41.2107057" lon="9.3951576"><ele>5.0</ele><time>2026-04-25T10:02:32.928Z</time></trkpt><trkpt lat="41.2107269" lon="9.3950092"><ele>5.0</ele><time>2026-04-25T10:02:33.928Z</time></trkpt><trkpt lat="41.2107443" lon="9.3948491"><ele>5.0</ele><time>2026-04-25T10:02:34.926Z</time></trkpt><trkpt lat="41.2107704" lon="9.3946884"><ele>5.0</ele><time>2026-04-25T10:02:35.927Z</time></trkpt><trkpt lat="41.2107979" lon="9.3945452"><ele>5.0</ele><time>2026-04-25T10:02:36.936Z</time></trkpt><trkpt lat="41.2108292" lon="9.3944133"><ele>4.8</ele><time>2026-04-25T10:02:37.929Z</time></trkpt><trkpt lat="41.2108618" lon="9.3942767"><ele>4.6</ele><time>2026-04-25T10:02:38.928Z</time></trkpt><trkpt lat="41.2108955" lon="9.394138"><ele>4.4</ele><time>2026-04-25T10:02:39.93Z</time></trkpt><trkpt lat="41.2109342" lon="9.3939986"><ele>4.2</ele><time>2026-04-25T10:02:40.928Z</time></trkpt><trkpt lat="41.2109778" lon="9.3938574"><ele>4.0</ele><time>2026-04-25T10:02:41.928Z</time></trkpt><trkpt lat="41.2110189" lon="9.3937205"><ele>3.4000000000000004</ele><time>2026-04-25T10:02:42.929Z</time></trkpt><trkpt lat="41.2110663" lon="9.3935863"><ele>2.8000000000000003</ele><time>2026-04-25T10:02:43.929Z</time></trkpt><trkpt lat="41.2111134" lon="9.3934531"><ele>2.2</ele><time>2026-04-25T10:02:44.927Z</time></trkpt><trkpt lat="41.2111555" lon="9.3933123"><ele>1.6</ele><time>2026-04-25T10:02:45.928Z</time></trkpt><trkpt lat="41.2111959" lon="9.3931723"><ele>1.0</ele><time>2026-04-25T10:02:46.934Z</time></trkpt><trkpt lat="41.2112381" lon="9.3930347"><ele>0.8</ele><time>2026-04-25T10:02:47.93Z</time></trkpt><trkpt lat="41.211278" lon="9.3928907"><ele>0.6000000000000001</ele><time>2026-04-25T10:02:48.928Z</time></trkpt><trkpt lat="41.2113164" lon="9.3927538"><ele>0.4</ele><time>2026-04-25T10:02:49.926Z</time></trkpt><trkpt lat="41.211359" lon="9.392617"><ele>0.2</ele><time>2026-04-25T10:02:50.923Z</time></trkpt><trkpt lat="41.2113958" lon="9.3925045"><ele>0.0</ele><time>2026-04-25T10:02:51.922Z</time></trkpt><trkpt lat="41.2114323" lon="9.3923834"><ele>0.0</ele><time>2026-04-25T10:02:52.921Z</time></trkpt><trkpt lat="41.2114623" lon="9.3922523"><ele>0.0</ele><time>2026-04-25T10:02:53.922Z</time></trkpt><trkpt lat="41.2114946" lon="9.3921235"><ele>0.0</ele><time>2026-04-25T10:02:54.921Z</time></trkpt><trkpt lat="41.211521" lon="9.3919982"><ele>0.0</ele><time>2026-04-25T10:02:55.924Z</time></trkpt><trkpt lat="41.2115205" lon="9.3918588"><ele>0.0</ele><time>2026-04-25T10:02:56.922Z</time></trkpt><trkpt lat="41.2115119" lon="9.3917191"><ele>0.0</ele><time>2026-04-25T10:02:57.924Z</time></trkpt><trkpt lat="41.2114911" lon="9.3915735"><ele>0.0</ele><time>2026-04-25T10:02:58.921Z</time></trkpt><trkpt lat="41.2114693" lon="9.3914276"><ele>0.0</ele><time>2026-04-25T10:02:59.923Z</time></trkpt><trkpt lat="41.2114416" lon="9.3912842"><ele>0.0</ele><time>2026-04-25T10:03:00.921Z</time></trkpt><trkpt lat="41.2114189" lon="9.391136"><ele>0.0</ele><time>2026-04-25T10:03:01.922Z</time></trkpt><trkpt lat="41.2113937" lon="9.3909904"><ele>0.2</ele><time>2026-04-25T10:03:02.923Z</time></trkpt><trkpt lat="41.2113772" lon="9.3908541"><ele>0.4</ele><time>2026-04-25T10:03:03.922Z</time></trkpt><trkpt lat="41.2113566" lon="9.3907221"><ele>0.6000000000000001</ele><time>2026-04-25T10:03:04.918Z</time></trkpt><trkpt lat="41.2113492" lon="9.3906021"><ele>0.8</ele><time>2026-04-25T10:03:05.923Z</time></trkpt><trkpt lat="41.2113521" lon="9.3904797"><ele>1.0</ele><time>2026-04-25T10:03:06.928Z</time></trkpt><trkpt lat="41.2113701" lon="9.3903459"><ele>1.6</ele><time>2026-04-25T10:03:07.922Z</time></trkpt><trkpt lat="41.2114026" lon="9.3902129"><ele>2.2</ele><time>2026-04-25T10:03:08.919Z</time></trkpt><trkpt lat="41.2114481" lon="9.3900835"><ele>2.8000000000000003</ele><time>2026-04-25T10:03:09.918Z</time></trkpt><trkpt lat="41.2114944" lon="9.3899606"><ele>3.4000000000000004</ele><time>2026-04-25T10:03:10.922Z</time></trkpt><trkpt lat="41.2115304" lon="9.3898427"><ele>4.0</ele><time>2026-04-25T10:03:11.916Z</time></trkpt><trkpt lat="41.2115561" lon="9.3897095"><ele>5.0</ele><time>2026-04-25T10:03:12.913Z</time></trkpt><trkpt lat="41.2115709" lon="9.3895726"><ele>6.0</ele><time>2026-04-25T10:03:13.913Z</time></trkpt><trkpt lat="41.2115685" lon="9.3894475"><ele>7.0</ele><time>2026-04-25T10:03:14.915Z</time></trkpt><trkpt lat="41.2115445" lon="9.389318"><ele>8.0</ele><time>2026-04-25T10:03:15.926Z</time></trkpt><trkpt lat="41.2114831" lon="9.3891837"><ele>9.0</ele><time>2026-04-25T10:03:16.916Z</time></trkpt><trkpt lat="41.2114248" lon="9.3890537"><ele>9.0</ele><time>2026-04-25T10:03:17.918Z</time></trkpt><trkpt lat="41.2113366" lon="9.3889236"><ele>9.0</ele><time>2026-04-25T10:03:18.909Z</time></trkpt><trkpt lat="41.2112446" lon="9.3888081"><ele>9.0</ele><time>2026-04-25T10:03:19.918Z</time></trkpt><trkpt lat="41.2111396" lon="9.3887041"><ele>9.0</ele><time>2026-04-25T10:03:20.909Z</time></trkpt><trkpt lat="41.2110213" lon="9.3886092"><ele>10.0</ele><time>2026-04-25T10:03:21.92Z</time></trkpt><trkpt lat="41.2109105" lon="9.3885289"><ele>11.0</ele><time>2026-04-25T10:03:22.919Z</time></trkpt><trkpt lat="41.2108198" lon="9.3884427"><ele>12.0</ele><time>2026-04-25T10:03:23.92Z</time></trkpt><trkpt lat="41.210742" lon="9.3883448"><ele>13.0</ele><time>2026-04-25T10:03:24.918Z</time></trkpt><trkpt lat="41.2106728" lon="9.3882399"><ele>10.75</ele><time>2026-04-25T10:03:25.914Z</time></trkpt><trkpt lat="41.2106191" lon="9.3881171"><ele>8.5</ele><time>2026-04-25T10:03:26.91Z</time></trkpt><trkpt lat="41.2105737" lon="9.3879833"><ele>6.25</ele><time>2026-04-25T10:03:27.914Z</time></trkpt><trkpt lat="41.2105448" lon="9.3878337"><ele>4.0</ele><time>2026-04-25T10:03:28.915Z</time></trkpt><trkpt lat="41.2105268" lon="9.3876692"><ele>3.75</ele><time>2026-04-25T10:03:29.915Z</time></trkpt><trkpt lat="41.210525" lon="9.3875124"><ele>3.5</ele><time>2026-04-25T10:03:30.924Z</time></trkpt><trkpt lat="41.210557" lon="9.3873581"><ele>3.25</ele><time>2026-04-25T10:03:31.923Z</time></trkpt><trkpt lat="41.2106159" lon="9.3872118"><ele>3.0</ele><time>2026-04-25T10:03:32.927Z</time></trkpt><trkpt lat="41.2106741" lon="9.3870603"><ele>3.75</ele><time>2026-04-25T10:03:33.929Z</time></trkpt><trkpt lat="41.2107433" lon="9.3868934"><ele>4.5</ele><time>2026-04-25T10:03:34.925Z</time></trkpt><trkpt lat="41.2108089" lon="9.3867364"><ele>5.25</ele><time>2026-04-25T10:03:35.924Z</time></trkpt><trkpt lat="41.2108547" lon="9.3865699"><ele>6.0</ele><time>2026-04-25T10:03:36.935Z</time></trkpt><trkpt lat="41.2109198" lon="9.3864191"><ele>4.75</ele><time>2026-04-25T10:03:37.925Z</time></trkpt><trkpt lat="41.2109914" lon="9.3862808"><ele>3.5</ele><time>2026-04-25T10:03:38.919Z</time></trkpt><trkpt lat="41.2110741" lon="9.386161"><ele>2.25</ele><time>2026-04-25T10:03:39.915Z</time></trkpt><trkpt lat="41.2111601" lon="9.3860554"><ele>1.0</ele><time>2026-04-25T10:03:40.919Z</time></trkpt><trkpt lat="41.2112724" lon="9.3860033"><ele>1.0</ele><time>2026-04-25T10:03:41.912Z</time></trkpt><trkpt lat="41.2113719" lon="9.3859237"><ele>1.0</ele><time>2026-04-25T10:03:42.918Z</time></trkpt><trkpt lat="41.2114754" lon="9.3858514"><ele>1.0</ele><time>2026-04-25T10:03:43.913Z</time></trkpt><trkpt lat="41.2115892" lon="9.3858158"><ele>1.0</ele><time>2026-04-25T10:03:44.924Z</time></trkpt><trkpt lat="41.211707" lon="9.3857959"><ele>1.75</ele><time>2026-04-25T10:03:45.92Z</time></trkpt><trkpt lat="41.2118229" lon="9.3857891"><ele>2.5</ele><time>2026-04-25T10:03:46.924Z</time></trkpt><trkpt lat="41.2119381" lon="9.3858012"><ele>3.25</ele><time>2026-04-25T10:03:47.921Z</time></trkpt><trkpt lat="41.21208" lon="9.3858323"><ele>4.0</ele><time>2026-04-25T10:03:48.928Z</time></trkpt><trkpt lat="41.2122217" lon="9.3858819"><ele>4.666666666666666</ele><time>2026-04-25T10:03:49.918Z</time></trkpt><trkpt lat="41.2123948" lon="9.3859632"><ele>5.333333333333333</ele><time>2026-04-25T10:03:50.921Z</time></trkpt><trkpt lat="41.2125598" lon="9.3860137"><ele>6.0</ele><time>2026-04-25T10:03:51.917Z</time></trkpt><trkpt lat="41.2127415" lon="9.3860606"><ele>6.0</ele><time>2026-04-25T10:03:52.919Z</time></trkpt><trkpt lat="41.2129022" lon="9.3861032"><ele>6.0</ele><time>2026-04-25T10:03:53.92Z</time></trkpt><trkpt lat="41.2130704" lon="9.3861412"><ele>6.0</ele><time>2026-04-25T10:03:54.919Z</time></trkpt><trkpt lat="41.2132218" lon="9.3861858"><ele>6.25</ele><time>2026-04-25T10:03:55.921Z</time></trkpt><trkpt lat="41.2133753" lon="9.3862127"><ele>6.5</ele><time>2026-04-25T10:03:56.916Z</time></trkpt><trkpt lat="41.2135129" lon="9.3862491"><ele>6.75</ele><time>2026-04-25T10:03:57.92Z</time></trkpt><trkpt lat="41.2136618" lon="9.3862845"><ele>7.0</ele><time>2026-04-25T10:03:58.913Z</time></trkpt><trkpt lat="41.2137939" lon="9.3863012"><ele>7.0</ele><time>2026-04-25T10:03:59.918Z</time></trkpt><trkpt lat="41.2139355" lon="9.3863295"><ele>7.0</ele><time>2026-04-25T10:04:00.923Z</time></trkpt><trkpt lat="41.2140468" lon="9.3862936"><ele>7.0</ele><time>2026-04-25T10:04:01.921Z</time></trkpt><trkpt lat="41.21418" lon="9.3862249"><ele>7.0</ele><time>2026-04-25T10:04:02.917Z</time></trkpt><trkpt lat="41.2143134" lon="9.3861399"><ele>6.75</ele><time>2026-04-25T10:04:03.926Z</time></trkpt><trkpt lat="41.2144279" lon="9.3860516"><ele>6.5</ele><time>2026-04-25T10:04:04.929Z</time></trkpt><trkpt lat="41.2145299" lon="9.3859501"><ele>6.25</ele><time>2026-04-25T10:04:05.922Z</time></trkpt><trkpt lat="41.2146581" lon="9.3858638"><ele>6.0</ele><time>2026-04-25T10:04:06.929Z</time></trkpt><trkpt lat="41.214795" lon="9.3857597"><ele>5.25</ele><time>2026-04-25T10:04:07.926Z</time></trkpt><trkpt lat="41.2149135" lon="9.3856743"><ele>4.5</ele><time>2026-04-25T10:04:08.923Z</time></trkpt><trkpt lat="41.2150323" lon="9.3855939"><ele>3.75</ele><time>2026-04-25T10:04:09.928Z</time></trkpt><trkpt lat="41.2151573" lon="9.3855268"><ele>3.0</ele><time>2026-04-25T10:04:10.926Z</time></trkpt><trkpt lat="41.2152894" lon="9.3854698"><ele>3.0</ele><time>2026-04-25T10:04:11.929Z</time></trkpt><trkpt lat="41.2154083" lon="9.3853766"><ele>3.0</ele><time>2026-04-25T10:04:12.922Z</time></trkpt><trkpt lat="41.2155252" lon="9.3853019"><ele>3.0</ele><time>2026-04-25T10:04:13.927Z</time></trkpt><trkpt lat="41.2156447" lon="9.3852373"><ele>3.0</ele><time>2026-04-25T10:04:14.927Z</time></trkpt><trkpt lat="41.2157545" lon="9.3851558"><ele>3.0</ele><time>2026-04-25T10:04:15.926Z</time></trkpt><trkpt lat="41.2158453" lon="9.3850454"><ele>3.0</ele><time>2026-04-25T10:04:16.928Z</time></trkpt><trkpt lat="41.2159174" lon="9.3848951"><ele>3.0</ele><time>2026-04-25T10:04:17.924Z</time></trkpt><trkpt lat="41.2159563" lon="9.3847212"><ele>3.0</ele><time>2026-04-25T10:04:18.919Z</time></trkpt><trkpt lat="41.2159645" lon="9.3845256"><ele>2.3333333333333335</ele><time>2026-04-25T10:04:19.928Z</time></trkpt><trkpt lat="41.2159957" lon="9.3843185"><ele>1.6666666666666665</ele><time>2026-04-25T10:04:20.926Z</time></trkpt><trkpt lat="41.2160424" lon="9.3841297"><ele>1.0</ele><time>2026-04-25T10:04:21.929Z</time></trkpt><trkpt lat="41.2160999" lon="9.3839327"><ele>1.0</ele><time>2026-04-25T10:04:22.924Z</time></trkpt><trkpt lat="41.2161501" lon="9.3837529"><ele>1.0</ele><time>2026-04-25T10:04:23.928Z</time></trkpt><trkpt lat="41.2161881" lon="9.3835511"><ele>1.0</ele><time>2026-04-25T10:04:24.928Z</time></trkpt><trkpt lat="41.2162247" lon="9.3833587"><ele>1.0</ele><time>2026-04-25T10:04:25.927Z</time></trkpt><trkpt lat="41.2162653" lon="9.3831659"><ele>1.0</ele><time>2026-04-25T10:04:26.929Z</time></trkpt><trkpt lat="41.2163127" lon="9.3829949"><ele>1.0</ele><time>2026-04-25T10:04:27.926Z</time></trkpt><trkpt lat="41.2163508" lon="9.3828487"><ele>1.0</ele><time>2026-04-25T10:04:28.924Z</time></trkpt><trkpt lat="41.2164122" lon="9.3826968"><ele>1.0</ele><time>2026-04-25T10:04:29.925Z</time></trkpt><trkpt lat="41.2164591" lon="9.382557"><ele>1.0</ele><time>2026-04-25T10:04:30.923Z</time></trkpt><trkpt lat="41.2164595" lon="9.3823939"><ele>1.0</ele><time>2026-04-25T10:04:31.922Z</time></trkpt><trkpt lat="41.2164811" lon="9.382247"><ele>1.0</ele><time>2026-04-25T10:04:32.928Z</time></trkpt><trkpt lat="41.2164646" lon="9.3820832"><ele>1.0</ele><time>2026-04-25T10:04:33.926Z</time></trkpt><trkpt lat="41.2164186" lon="9.3819463"><ele>1.0</ele><time>2026-04-25T10:04:34.919Z</time></trkpt><trkpt lat="41.2163613" lon="9.3818048"><ele>1.0</ele><time>2026-04-25T10:04:35.924Z</time></trkpt><trkpt lat="41.2163125" lon="9.381666"><ele>1.0</ele><time>2026-04-25T10:04:36.929Z</time></trkpt><trkpt lat="41.216274" lon="9.3815316"><ele>1.0</ele><time>2026-04-25T10:04:37.917Z</time></trkpt><trkpt lat="41.2162572" lon="9.3813979"><ele>1.0</ele><time>2026-04-25T10:04:38.93Z</time></trkpt><trkpt lat="41.216275" lon="9.3812831"><ele>1.0</ele><time>2026-04-25T10:04:39.921Z</time></trkpt><trkpt lat="41.2163169" lon="9.3811748"><ele>1.0</ele><time>2026-04-25T10:04:40.924Z</time></trkpt><trkpt lat="41.216348" lon="9.3810698"><ele>1.0</ele><time>2026-04-25T10:04:41.915Z</time></trkpt><trkpt lat="41.2164422" lon="9.3810029"><ele>2.0</ele><time>2026-04-25T10:04:42.915Z</time></trkpt><trkpt lat="41.2165494" lon="9.3809577"><ele>3.0</ele><time>2026-04-25T10:04:43.92Z</time></trkpt><trkpt lat="41.2166737" lon="9.3809234"><ele>4.0</ele><time>2026-04-25T10:04:44.916Z</time></trkpt><trkpt lat="41.2168067" lon="9.380898"><ele>5.0</ele><time>2026-04-25T10:04:45.923Z</time></trkpt><trkpt lat="41.2169682" lon="9.3808904"><ele>5.0</ele><time>2026-04-25T10:04:46.919Z</time></trkpt><trkpt lat="41.2171341" lon="9.3809256"><ele>5.0</ele><time>2026-04-25T10:04:47.92Z</time></trkpt><trkpt lat="41.2173013" lon="9.3809959"><ele>5.0</ele><time>2026-04-25T10:04:48.917Z</time></trkpt><trkpt lat="41.2174951" lon="9.38114"><ele>6.666666666666667</ele><time>2026-04-25T10:04:49.92Z</time></trkpt><trkpt lat="41.2176688" lon="9.3812256"><ele>8.333333333333334</ele><time>2026-04-25T10:04:50.926Z</time></trkpt><trkpt lat="41.2178348" lon="9.3813008"><ele>10.0</ele><time>2026-04-25T10:04:51.92Z</time></trkpt><trkpt lat="41.2179843" lon="9.3813171"><ele>10.0</ele><time>2026-04-25T10:04:52.916Z</time></trkpt><trkpt lat="41.2181292" lon="9.3813338"><ele>10.0</ele><time>2026-04-25T10:04:53.918Z</time></trkpt><trkpt lat="41.218274" lon="9.3813204"><ele>10.0</ele><time>2026-04-25T10:04:54.915Z</time></trkpt><trkpt lat="41.2184361" lon="9.3812888"><ele>11.333333333333334</ele><time>2026-04-25T10:04:55.918Z</time></trkpt><trkpt lat="41.218611" lon="9.381261"><ele>12.666666666666668</ele><time>2026-04-25T10:04:56.911Z</time></trkpt><trkpt lat="41.2187718" lon="9.3812549"><ele>14.0</ele><time>2026-04-25T10:04:57.913Z</time></trkpt><trkpt lat="41.2189494" lon="9.3812553"><ele>15.0</ele><time>2026-04-25T10:04:58.919Z</time></trkpt><trkpt lat="41.2191226" lon="9.3812587"><ele>16.0</ele><time>2026-04-25T10:04:59.922Z</time></trkpt><trkpt lat="41.2192845" lon="9.3812825"><ele>17.0</ele><time>2026-04-25T10:05:00.922Z</time></trkpt><trkpt lat="41.2194288" lon="9.3812631"><ele>17.0</ele><time>2026-04-25T10:05:01.916Z</time></trkpt><trkpt lat="41.2196029" lon="9.3812324"><ele>17.0</ele><time>2026-04-25T10:05:02.918Z</time></trkpt><trkpt lat="41.2197463" lon="9.3812429"><ele>17.0</ele><time>2026-04-25T10:05:03.92Z</time></trkpt><trkpt lat="41.219883" lon="9.3812553"><ele>18.5</ele><time>2026-04-25T10:05:04.916Z</time></trkpt><trkpt lat="41.2199951" lon="9.3812578"><ele>20.0</ele><time>2026-04-25T10:05:05.912Z</time></trkpt><trkpt lat="41.2201321" lon="9.3811792"><ele>21.5</ele><time>2026-04-25T10:05:06.92Z</time></trkpt><trkpt lat="41.2202502" lon="9.3811023"><ele>23.0</ele><time>2026-04-25T10:05:07.912Z</time></trkpt><trkpt lat="41.2203714" lon="9.3810245"><ele>23.0</ele><time>2026-04-25T10:05:08.913Z</time></trkpt><trkpt lat="41.2204793" lon="9.3809741"><ele>23.0</ele><time>2026-04-25T10:05:09.916Z</time></trkpt><trkpt lat="41.2206145" lon="9.3809515"><ele>23.0</ele><time>2026-04-25T10:05:10.917Z</time></trkpt><trkpt lat="41.2207705" lon="9.3809123"><ele>23.0</ele><time>2026-04-25T10:05:11.921Z</time></trkpt><trkpt lat="41.2209178" lon="9.3809237"><ele>24.0</ele><time>2026-04-25T10:05:12.924Z</time></trkpt><trkpt lat="41.2210468" lon="9.3809585"><ele>25.0</ele><time>2026-04-25T10:05:13.922Z</time></trkpt><trkpt lat="41.2211813" lon="9.3809601"><ele>26.0</ele><time>2026-04-25T10:05:14.92Z</time></trkpt><trkpt lat="41.2212928" lon="9.3809677"><ele>27.0</ele><time>2026-04-25T10:05:15.92Z</time></trkpt><trkpt lat="41.2213949" lon="9.3809247"><ele>26.400000000000002</ele><time>2026-04-25T10:05:16.92Z</time></trkpt><trkpt lat="41.221506" lon="9.3809094"><ele>25.800000000000004</ele><time>2026-04-25T10:05:17.914Z</time></trkpt><trkpt lat="41.2215916" lon="9.3808682"><ele>25.2</ele><time>2026-04-25T10:05:18.92Z</time></trkpt><trkpt lat="41.2217029" lon="9.3808228"><ele>24.6</ele><time>2026-04-25T10:05:19.915Z</time></trkpt><trkpt lat="41.2217985" lon="9.3807578"><ele>24.0</ele><time>2026-04-25T10:05:20.922Z</time></trkpt><trkpt lat="41.2219034" lon="9.3806816"><ele>24.0</ele><time>2026-04-25T10:05:21.924Z</time></trkpt><trkpt lat="41.2220143" lon="9.3806217"><ele>24.0</ele><time>2026-04-25T10:05:22.912Z</time></trkpt><trkpt lat="41.2221356" lon="9.3805905"><ele>24.0</ele><time>2026-04-25T10:05:23.917Z</time></trkpt><trkpt lat="41.2222619" lon="9.3805695"><ele>24.0</ele><time>2026-04-25T10:05:24.913Z</time></trkpt><trkpt lat="41.2224026" lon="9.3805505"><ele>22.666666666666668</ele><time>2026-04-25T10:05:25.917Z</time></trkpt><trkpt lat="41.2225433" lon="9.3805293"><ele>21.333333333333336</ele><time>2026-04-25T10:05:26.917Z</time></trkpt><trkpt lat="41.2226916" lon="9.380507"><ele>20.0</ele><time>2026-04-25T10:05:27.919Z</time></trkpt><trkpt lat="41.2228611" lon="9.3804876"><ele>17.666666666666668</ele><time>2026-04-25T10:05:28.917Z</time></trkpt><trkpt lat="41.2230189" lon="9.3804649"><ele>15.333333333333332</ele><time>2026-04-25T10:05:29.924Z</time></trkpt><trkpt lat="41.2231709" lon="9.3804435"><ele>13.0</ele><time>2026-04-25T10:05:30.92Z</time></trkpt><trkpt lat="41.2233224" lon="9.3804062"><ele>13.0</ele><time>2026-04-25T10:05:31.919Z</time></trkpt><trkpt lat="41.2234581" lon="9.380402"><ele>13.0</ele><time>2026-04-25T10:05:32.92Z</time></trkpt><trkpt lat="41.2236112" lon="9.3804016"><ele>13.0</ele><time>2026-04-25T10:05:33.919Z</time></trkpt><trkpt lat="41.223746" lon="9.3803821"><ele>13.0</ele><time>2026-04-25T10:05:34.92Z</time></trkpt><trkpt lat="41.2238949" lon="9.3803544"><ele>13.0</ele><time>2026-04-25T10:05:35.92Z</time></trkpt><trkpt lat="41.2240199" lon="9.3803407"><ele>13.0</ele><time>2026-04-25T10:05:36.925Z</time></trkpt><trkpt lat="41.2241389" lon="9.3803367"><ele>13.0</ele><time>2026-04-25T10:05:37.918Z</time></trkpt><trkpt lat="41.224235" lon="9.3803423"><ele>13.0</ele><time>2026-04-25T10:05:38.92Z</time></trkpt><trkpt lat="41.2243325" lon="9.3803352"><ele>13.0</ele><time>2026-04-25T10:05:39.92Z</time></trkpt><trkpt lat="41.2244269" lon="9.3803292"><ele>13.0</ele><time>2026-04-25T10:05:40.923Z</time></trkpt><trkpt lat="41.224523" lon="9.3803238"><ele>13.0</ele><time>2026-04-25T10:05:41.918Z</time></trkpt><trkpt lat="41.2246336" lon="9.3803172"><ele>13.0</ele><time>2026-04-25T10:05:42.922Z</time></trkpt><trkpt lat="41.2247582" lon="9.3803295"><ele>13.0</ele><time>2026-04-25T10:05:43.923Z</time></trkpt><trkpt lat="41.2248811" lon="9.3803563"><ele>12.5</ele><time>2026-04-25T10:05:44.926Z</time></trkpt><trkpt lat="41.225" lon="9.3803921"><ele>12.0</ele><time>2026-04-25T10:05:45.922Z</time></trkpt><trkpt lat="41.2251113" lon="9.3804473"><ele>11.5</ele><time>2026-04-25T10:05:46.924Z</time></trkpt><trkpt lat="41.2252252" lon="9.3805093"><ele>11.0</ele><time>2026-04-25T10:05:47.923Z</time></trkpt><trkpt lat="41.2253624" lon="9.3805882"><ele>13.0</ele><time>2026-04-25T10:05:48.92Z</time></trkpt><trkpt lat="41.2255192" lon="9.380655"><ele>15.0</ele><time>2026-04-25T10:05:49.918Z</time></trkpt><trkpt lat="41.2256906" lon="9.3807144"><ele>17.0</ele><time>2026-04-25T10:05:50.917Z</time></trkpt><trkpt lat="41.2258622" lon="9.3808332"><ele>17.0</ele><time>2026-04-25T10:05:51.921Z</time></trkpt><trkpt lat="41.2260309" lon="9.3809471"><ele>17.0</ele><time>2026-04-25T10:05:52.925Z</time></trkpt><trkpt lat="41.2261979" lon="9.3810405"><ele>17.0</ele><time>2026-04-25T10:05:53.92Z</time></trkpt><trkpt lat="41.2263663" lon="9.3811168"><ele>18.0</ele><time>2026-04-25T10:05:54.918Z</time></trkpt><trkpt lat="41.2265206" lon="9.3812051"><ele>19.0</ele><time>2026-04-25T10:05:55.916Z</time></trkpt><trkpt lat="41.2266864" lon="9.3813206"><ele>20.0</ele><time>2026-04-25T10:05:56.916Z</time></trkpt><trkpt lat="41.2268396" lon="9.3814339"><ele>22.0</ele><time>2026-04-25T10:05:57.919Z</time></trkpt><trkpt lat="41.2270052" lon="9.3815607"><ele>24.0</ele><time>2026-04-25T10:05:58.917Z</time></trkpt><trkpt lat="41.2271582" lon="9.3816572"><ele>26.0</ele><time>2026-04-25T10:05:59.916Z</time></trkpt><trkpt lat="41.227309" lon="9.3817803"><ele>28.666666666666664</ele><time>2026-04-25T10:06:00.912Z</time></trkpt><trkpt lat="41.227462" lon="9.3818717"><ele>31.333333333333336</ele><time>2026-04-25T10:06:01.916Z</time></trkpt><trkpt lat="41.2276077" lon="9.3819629"><ele>34.0</ele><time>2026-04-25T10:06:02.915Z</time></trkpt><trkpt lat="41.2277263" lon="9.3820391"><ele>34.0</ele><time>2026-04-25T10:06:03.92Z</time></trkpt><trkpt lat="41.2278569" lon="9.3821371"><ele>34.0</ele><time>2026-04-25T10:06:04.918Z</time></trkpt><trkpt lat="41.2279674" lon="9.3822227"><ele>34.0</ele><time>2026-04-25T10:06:05.917Z</time></trkpt><trkpt lat="41.2280607" lon="9.3822864"><ele>34.0</ele><time>2026-04-25T10:06:06.926Z</time></trkpt><trkpt lat="41.2281474" lon="9.38237"><ele>37.0</ele><time>2026-04-25T10:06:07.917Z</time></trkpt><trkpt lat="41.2282105" lon="9.3824724"><ele>40.0</ele><time>2026-04-25T10:06:08.912Z</time></trkpt><trkpt lat="41.2282675" lon="9.3825962"><ele>43.0</ele><time>2026-04-25T10:06:09.909Z</time></trkpt><trkpt lat="41.2283171" lon="9.3827225"><ele>46.0</ele><time>2026-04-25T10:06:10.91Z</time></trkpt><trkpt lat="41.2283604" lon="9.3828288"><ele>49.0</ele><time>2026-04-25T10:06:11.912Z</time></trkpt><trkpt lat="41.2283946" lon="9.3829101"><ele>49.400000000000006</ele><time>2026-04-25T10:06:12.914Z</time></trkpt><trkpt lat="41.2284889" lon="9.383054"><ele>49.8</ele><time>2026-04-25T10:06:14.913Z</time></trkpt><trkpt lat="41.2285487" lon="9.38314"><ele>50.2</ele><time>2026-04-25T10:06:15.918Z</time></trkpt><trkpt lat="41.2286141" lon="9.3832164"><ele>50.599999999999994</ele><time>2026-04-25T10:06:16.914Z</time></trkpt><trkpt lat="41.2286819" lon="9.3832825"><ele>51.0</ele><time>2026-04-25T10:06:17.916Z</time></trkpt><trkpt lat="41.2287423" lon="9.3833459"><ele>51.0</ele><time>2026-04-25T10:06:18.916Z</time></trkpt><trkpt lat="41.2288" lon="9.3834115"><ele>51.0</ele><time>2026-04-25T10:06:19.911Z</time></trkpt><trkpt lat="41.2288424" lon="9.3835056"><ele>51.0</ele><time>2026-04-25T10:06:20.918Z</time></trkpt><trkpt lat="41.2288697" lon="9.383598"><ele>51.0</ele><time>2026-04-25T10:06:21.918Z</time></trkpt><trkpt lat="41.2288739" lon="9.3837096"><ele>51.0</ele><time>2026-04-25T10:06:22.914Z</time></trkpt><trkpt lat="41.2288586" lon="9.3838305"><ele>51.0</ele><time>2026-04-25T10:06:23.921Z</time></trkpt><trkpt lat="41.2288066" lon="9.3839294"><ele>53.4</ele><time>2026-04-25T10:06:24.915Z</time></trkpt><trkpt lat="41.2287534" lon="9.3840125"><ele>55.8</ele><time>2026-04-25T10:06:25.915Z</time></trkpt><trkpt lat="41.2286786" lon="9.3840818"><ele>58.199999999999996</ele><time>2026-04-25T10:06:26.907Z</time></trkpt><trkpt lat="41.2285898" lon="9.3841743"><ele>60.599999999999994</ele><time>2026-04-25T10:06:27.928Z</time></trkpt><trkpt lat="41.2284695" lon="9.3842404"><ele>63.0</ele><time>2026-04-25T10:06:28.915Z</time></trkpt><trkpt lat="41.2283164" lon="9.3842904"><ele>63.0</ele><time>2026-04-25T10:06:29.92Z</time></trkpt><trkpt lat="41.2281444" lon="9.3843324"><ele>63.0</ele><time>2026-04-25T10:06:30.913Z</time></trkpt><trkpt lat="41.2279633" lon="9.3843727"><ele>63.0</ele><time>2026-04-25T10:06:31.914Z</time></trkpt><trkpt lat="41.2278236" lon="9.384428"><ele>62.8</ele><time>2026-04-25T10:06:32.916Z</time></trkpt><trkpt lat="41.227684" lon="9.3844611"><ele>62.599999999999994</ele><time>2026-04-25T10:06:33.915Z</time></trkpt><trkpt lat="41.2275779" lon="9.3844625"><ele>62.400000000000006</ele><time>2026-04-25T10:06:34.911Z</time></trkpt><trkpt lat="41.2274686" lon="9.3844409"><ele>62.2</ele><time>2026-04-25T10:06:35.914Z</time></trkpt><trkpt lat="41.2274018" lon="9.3843958"><ele>62.0</ele><time>2026-04-25T10:06:36.928Z</time></trkpt><trkpt lat="41.2273235" lon="9.3843676"><ele>63.28571428571429</ele><time>2026-04-25T10:06:37.931Z</time></trkpt><trkpt lat="41.2272551" lon="9.3843475"><ele>64.57142857142858</ele><time>2026-04-25T10:06:38.916Z</time></trkpt><trkpt lat="41.227187" lon="9.3843151"><ele>65.85714285714286</ele><time>2026-04-25T10:06:39.922Z</time></trkpt><trkpt lat="41.2271185" lon="9.3842759"><ele>67.14285714285714</ele><time>2026-04-25T10:06:40.915Z</time></trkpt><trkpt lat="41.2270534" lon="9.3842375"><ele>68.42857142857142</ele><time>2026-04-25T10:06:41.918Z</time></trkpt><trkpt lat="41.2269807" lon="9.3842264"><ele>69.71428571428571</ele><time>2026-04-25T10:06:42.917Z</time></trkpt><trkpt lat="41.2269051" lon="9.3842195"><ele>71.0</ele><time>2026-04-25T10:06:43.917Z</time></trkpt><trkpt lat="41.2268308" lon="9.3842185"><ele>71.0</ele><time>2026-04-25T10:06:44.914Z</time></trkpt><trkpt lat="41.226761" lon="9.3842203"><ele>71.0</ele><time>2026-04-25T10:06:45.916Z</time></trkpt><trkpt lat="41.2266909" lon="9.3842234"><ele>71.0</ele><time>2026-04-25T10:06:46.916Z</time></trkpt><trkpt lat="41.2265713" lon="9.3842927"><ele>71.0</ele><time>2026-04-25T10:06:48.916Z</time></trkpt><trkpt lat="41.2265021" lon="9.3843546"><ele>71.0</ele><time>2026-04-25T10:06:49.912Z</time></trkpt><trkpt lat="41.226429" lon="9.3844329"><ele>71.0</ele><time>2026-04-25T10:06:50.916Z</time></trkpt><trkpt lat="41.2263549" lon="9.3845401"><ele>70.75</ele><time>2026-04-25T10:06:51.917Z</time></trkpt><trkpt lat="41.2262932" lon="9.384657"><ele>70.5</ele><time>2026-04-25T10:06:52.915Z</time></trkpt><trkpt lat="41.2262665" lon="9.3847981"><ele>70.25</ele><time>2026-04-25T10:06:53.915Z</time></trkpt><trkpt lat="41.2262805" lon="9.3849499"><ele>70.0</ele><time>2026-04-25T10:06:54.917Z</time></trkpt><trkpt lat="41.2263237" lon="9.3850973"><ele>72.0</ele><time>2026-04-25T10:06:55.923Z</time></trkpt><trkpt lat="41.2263823" lon="9.3852147"><ele>74.0</ele><time>2026-04-25T10:06:56.921Z</time></trkpt><trkpt lat="41.2265022" lon="9.3853191"><ele>76.0</ele><time>2026-04-25T10:06:57.94Z</time></trkpt><trkpt lat="41.2266539" lon="9.3854112"><ele>78.0</ele><time>2026-04-25T10:06:58.916Z</time></trkpt><trkpt lat="41.2268091" lon="9.3854383"><ele>79.0</ele><time>2026-04-25T10:06:59.918Z</time></trkpt><trkpt lat="41.2269673" lon="9.385454"><ele>80.0</ele><time>2026-04-25T10:07:00.921Z</time></trkpt><trkpt lat="41.227135" lon="9.385482"><ele>81.0</ele><time>2026-04-25T10:07:01.917Z</time></trkpt><trkpt lat="41.2272963" lon="9.3855351"><ele>85.0</ele><time>2026-04-25T10:07:02.918Z</time></trkpt><trkpt lat="41.2274743" lon="9.3855982"><ele>89.0</ele><time>2026-04-25T10:07:03.923Z</time></trkpt><trkpt lat="41.2276625" lon="9.385619"><ele>93.0</ele><time>2026-04-25T10:07:04.918Z</time></trkpt><trkpt lat="41.2278227" lon="9.3855986"><ele>93.0</ele><time>2026-04-25T10:07:05.918Z</time></trkpt><trkpt lat="41.2279507" lon="9.3855666"><ele>93.0</ele><time>2026-04-25T10:07:06.924Z</time></trkpt><trkpt lat="41.2280835" lon="9.3854455"><ele>93.0</ele><time>2026-04-25T10:07:07.935Z</time></trkpt><trkpt lat="41.2282483" lon="9.3853554"><ele>90.75</ele><time>2026-04-25T10:07:08.917Z</time></trkpt><trkpt lat="41.2283949" lon="9.3852764"><ele>88.5</ele><time>2026-04-25T10:07:09.92Z</time></trkpt><trkpt lat="41.2285365" lon="9.3852555"><ele>86.25</ele><time>2026-04-25T10:07:10.918Z</time></trkpt><trkpt lat="41.2286717" lon="9.3852674"><ele>84.0</ele><time>2026-04-25T10:07:11.917Z</time></trkpt><trkpt lat="41.228831" lon="9.3852215"><ele>85.33333333333333</ele><time>2026-04-25T10:07:12.92Z</time></trkpt><trkpt lat="41.2290093" lon="9.385188"><ele>86.66666666666666</ele><time>2026-04-25T10:07:13.921Z</time></trkpt><trkpt lat="41.2291467" lon="9.3851586"><ele>88.0</ele><time>2026-04-25T10:07:14.923Z</time></trkpt><trkpt lat="41.2292865" lon="9.3851959"><ele>88.0</ele><time>2026-04-25T10:07:15.921Z</time></trkpt><trkpt lat="41.2294183" lon="9.3851949"><ele>88.0</ele><time>2026-04-25T10:07:16.919Z</time></trkpt><trkpt lat="41.2295269" lon="9.3852148"><ele>88.0</ele><time>2026-04-25T10:07:17.935Z</time></trkpt><trkpt lat="41.2296129" lon="9.3851987"><ele>88.0</ele><time>2026-04-25T10:07:18.918Z</time></trkpt><trkpt lat="41.2296856" lon="9.3852024"><ele>88.0</ele><time>2026-04-25T10:07:19.923Z</time></trkpt><trkpt lat="41.2297708" lon="9.3852422"><ele>88.0</ele><time>2026-04-25T10:07:20.928Z</time></trkpt><trkpt lat="41.2298539" lon="9.3853063"><ele>88.0</ele><time>2026-04-25T10:07:21.923Z</time></trkpt><trkpt lat="41.2299431" lon="9.3853917"><ele>88.0</ele><time>2026-04-25T10:07:22.918Z</time></trkpt><trkpt lat="41.2300233" lon="9.3854938"><ele>88.0</ele><time>2026-04-25T10:07:23.911Z</time></trkpt><trkpt lat="41.230093" lon="9.385607"><ele>88.0</ele><time>2026-04-25T10:07:24.925Z</time></trkpt><trkpt lat="41.2301382" lon="9.3857662"><ele>91.0</ele><time>2026-04-25T10:07:25.919Z</time></trkpt><trkpt lat="41.2301788" lon="9.3859267"><ele>94.0</ele><time>2026-04-25T10:07:26.917Z</time></trkpt><trkpt lat="41.2302159" lon="9.386088"><ele>97.0</ele><time>2026-04-25T10:07:27.934Z</time></trkpt><trkpt lat="41.2302494" lon="9.3862484"><ele>100.0</ele><time>2026-04-25T10:07:28.912Z</time></trkpt><trkpt lat="41.2302766" lon="9.386431"><ele>100.6</ele><time>2026-04-25T10:07:29.919Z</time></trkpt><trkpt lat="41.230286" lon="9.386589"><ele>101.2</ele><time>2026-04-25T10:07:30.923Z</time></trkpt><trkpt lat="41.2302848" lon="9.3867287"><ele>101.80000000000001</ele><time>2026-04-25T10:07:31.925Z</time></trkpt><trkpt lat="41.2302809" lon="9.3868564"><ele>102.4</ele><time>2026-04-25T10:07:32.924Z</time></trkpt><trkpt lat="41.2302746" lon="9.3869428"><ele>103.0</ele><time>2026-04-25T10:07:33.916Z</time></trkpt><trkpt lat="41.230269" lon="9.3870335"><ele>103.0</ele><time>2026-04-25T10:07:36.931Z</time></trkpt><trkpt lat="41.2301803" lon="9.3871195"><ele>103.0</ele><time>2026-04-25T10:09:05.919Z</time></trkpt><trkpt lat="41.2301256" lon="9.3871772"><ele>103.0</ele><time>2026-04-25T10:09:06.921Z</time></trkpt><trkpt lat="41.2300666" lon="9.3872561"><ele>103.0</ele><time>2026-04-25T10:09:07.93Z</time></trkpt><trkpt lat="41.2299926" lon="9.3873876"><ele>103.0</ele><time>2026-04-25T10:09:08.922Z</time></trkpt><trkpt lat="41.2299289" lon="9.3874924"><ele>103.25</ele><time>2026-04-25T10:09:09.945Z</time></trkpt><trkpt lat="41.2298238" lon="9.3875697"><ele>103.5</ele><time>2026-04-25T10:09:10.919Z</time></trkpt><trkpt lat="41.2296951" lon="9.3876525"><ele>103.75</ele><time>2026-04-25T10:09:11.922Z</time></trkpt><trkpt lat="41.2295616" lon="9.3876993"><ele>104.0</ele><time>2026-04-25T10:09:12.916Z</time></trkpt><trkpt lat="41.2294221" lon="9.3877291"><ele>105.75</ele><time>2026-04-25T10:09:13.929Z</time></trkpt><trkpt lat="41.2292823" lon="9.3877597"><ele>107.5</ele><time>2026-04-25T10:09:14.922Z</time></trkpt><trkpt lat="41.2291556" lon="9.3878"><ele>109.25</ele><time>2026-04-25T10:09:15.92Z</time></trkpt><trkpt lat="41.2290431" lon="9.3878571"><ele>111.0</ele><time>2026-04-25T10:09:16.913Z</time></trkpt><trkpt lat="41.2289519" lon="9.3879535"><ele>112.25</ele><time>2026-04-25T10:09:17.915Z</time></trkpt><trkpt lat="41.2288634" lon="9.3880727"><ele>113.5</ele><time>2026-04-25T10:09:18.917Z</time></trkpt><trkpt lat="41.2287782" lon="9.3881647"><ele>114.75</ele><time>2026-04-25T10:09:19.926Z</time></trkpt><trkpt lat="41.2287014" lon="9.3882741"><ele>116.0</ele><time>2026-04-25T10:09:20.923Z</time></trkpt><trkpt lat="41.2286103" lon="9.3883918"><ele>116.0</ele><time>2026-04-25T10:09:21.925Z</time></trkpt><trkpt lat="41.2284913" lon="9.3884755"><ele>116.0</ele><time>2026-04-25T10:09:22.921Z</time></trkpt><trkpt lat="41.2283867" lon="9.3885696"><ele>116.0</ele><time>2026-04-25T10:09:23.929Z</time></trkpt><trkpt lat="41.2282916" lon="9.3886584"><ele>116.0</ele><time>2026-04-25T10:09:24.92Z</time></trkpt><trkpt lat="41.228197" lon="9.3887569"><ele>117.0</ele><time>2026-04-25T10:09:25.919Z</time></trkpt><trkpt lat="41.2281011" lon="9.3888683"><ele>118.0</ele><time>2026-04-25T10:09:26.92Z</time></trkpt><trkpt lat="41.2280106" lon="9.3889768"><ele>119.0</ele><time>2026-04-25T10:09:27.925Z</time></trkpt><trkpt lat="41.2279621" lon="9.3891443"><ele>120.0</ele><time>2026-04-25T10:09:28.92Z</time></trkpt><trkpt lat="41.2279483" lon="9.389316"><ele>120.0</ele><time>2026-04-25T10:09:29.951Z</time></trkpt><trkpt lat="41.2279386" lon="9.3894923"><ele>120.0</ele><time>2026-04-25T10:09:30.944Z</time></trkpt><trkpt lat="41.22792" lon="9.3896769"><ele>120.0</ele><time>2026-04-25T10:09:31.922Z</time></trkpt><trkpt lat="41.2278886" lon="9.3898624"><ele>120.0</ele><time>2026-04-25T10:09:32.928Z</time></trkpt><trkpt lat="41.2278351" lon="9.3900318"><ele>117.75</ele><time>2026-04-25T10:09:33.927Z</time></trkpt><trkpt lat="41.227743" lon="9.3901851"><ele>115.5</ele><time>2026-04-25T10:09:34.916Z</time></trkpt><trkpt lat="41.2276389" lon="9.3903307"><ele>113.25</ele><time>2026-04-25T10:09:35.923Z</time></trkpt><trkpt lat="41.2275558" lon="9.3904734"><ele>111.0</ele><time>2026-04-25T10:09:36.92Z</time></trkpt><trkpt lat="41.2274604" lon="9.3906162"><ele>111.66666666666666</ele><time>2026-04-25T10:09:37.921Z</time></trkpt><trkpt lat="41.2273294" lon="9.3907496"><ele>112.33333333333333</ele><time>2026-04-25T10:09:38.918Z</time></trkpt><trkpt lat="41.2272252" lon="9.3908882"><ele>113.0</ele><time>2026-04-25T10:09:39.918Z</time></trkpt><trkpt lat="41.2271089" lon="9.3910415"><ele>113.0</ele><time>2026-04-25T10:09:40.908Z</time></trkpt><trkpt lat="41.2269581" lon="9.3911783"><ele>113.0</ele><time>2026-04-25T10:09:41.916Z</time></trkpt><trkpt lat="41.2268229" lon="9.391286"><ele>113.0</ele><time>2026-04-25T10:09:42.909Z</time></trkpt><trkpt lat="41.2267054" lon="9.3913826"><ele>111.25</ele><time>2026-04-25T10:09:43.91Z</time></trkpt><trkpt lat="41.226557" lon="9.3913675"><ele>109.5</ele><time>2026-04-25T10:09:44.919Z</time></trkpt><trkpt lat="41.2264293" lon="9.3913206"><ele>107.75</ele><time>2026-04-25T10:09:45.909Z</time></trkpt><trkpt lat="41.2263033" lon="9.391235"><ele>106.0</ele><time>2026-04-25T10:09:46.905Z</time></trkpt><trkpt lat="41.2261574" lon="9.391187"><ele>110.66666666666667</ele><time>2026-04-25T10:09:47.908Z</time></trkpt><trkpt lat="41.2260056" lon="9.3911232"><ele>115.33333333333334</ele><time>2026-04-25T10:09:48.91Z</time></trkpt><trkpt lat="41.2258526" lon="9.3911184"><ele>120.0</ele><time>2026-04-25T10:09:49.912Z</time></trkpt><trkpt lat="41.225689" lon="9.3910737"><ele>122.0</ele><time>2026-04-25T10:09:50.92Z</time></trkpt><trkpt lat="41.2255273" lon="9.391113"><ele>124.0</ele><time>2026-04-25T10:09:51.909Z</time></trkpt><trkpt lat="41.2253754" lon="9.3912075"><ele>126.0</ele><time>2026-04-25T10:09:52.906Z</time></trkpt><trkpt lat="41.2252181" lon="9.3912902"><ele>124.25</ele><time>2026-04-25T10:09:53.906Z</time></trkpt><trkpt lat="41.2251031" lon="9.3914083"><ele>122.5</ele><time>2026-04-25T10:09:54.919Z</time></trkpt><trkpt lat="41.2250249" lon="9.3915324"><ele>120.75</ele><time>2026-04-25T10:09:55.909Z</time></trkpt><trkpt lat="41.224911" lon="9.3916801"><ele>119.0</ele><time>2026-04-25T10:09:56.926Z</time></trkpt><trkpt lat="41.2248118" lon="9.3918423"><ele>119.0</ele><time>2026-04-25T10:09:57.922Z</time></trkpt><trkpt lat="41.2247186" lon="9.3919833"><ele>119.0</ele><time>2026-04-25T10:09:58.923Z</time></trkpt><trkpt lat="41.2246132" lon="9.3921006"><ele>119.0</ele><time>2026-04-25T10:09:59.923Z</time></trkpt><trkpt lat="41.2245178" lon="9.3922116"><ele>119.0</ele><time>2026-04-25T10:10:00.922Z</time></trkpt><trkpt lat="41.2243991" lon="9.3923002"><ele>118.5</ele><time>2026-04-25T10:10:01.921Z</time></trkpt><trkpt lat="41.2242748" lon="9.3923916"><ele>118.0</ele><time>2026-04-25T10:10:02.923Z</time></trkpt><trkpt lat="41.224185" lon="9.392533"><ele>117.5</ele><time>2026-04-25T10:10:03.92Z</time></trkpt><trkpt lat="41.2240883" lon="9.3926365"><ele>117.0</ele><time>2026-04-25T10:10:04.928Z</time></trkpt><trkpt lat="41.2239823" lon="9.3927604"><ele>117.5</ele><time>2026-04-25T10:10:05.912Z</time></trkpt><trkpt lat="41.2239316" lon="9.3928881"><ele>118.0</ele><time>2026-04-25T10:10:06.914Z</time></trkpt><trkpt lat="41.2239743" lon="9.3930824"><ele>118.5</ele><time>2026-04-25T10:10:07.91Z</time></trkpt><trkpt lat="41.2240332" lon="9.3932542"><ele>119.0</ele><time>2026-04-25T10:10:08.918Z</time></trkpt><trkpt lat="41.2241085" lon="9.3934407"><ele>119.5</ele><time>2026-04-25T10:10:09.917Z</time></trkpt><trkpt lat="41.2241591" lon="9.3935922"><ele>120.0</ele><time>2026-04-25T10:10:10.92Z</time></trkpt><trkpt lat="41.2241808" lon="9.3937653"><ele>120.5</ele><time>2026-04-25T10:10:11.916Z</time></trkpt><trkpt lat="41.2241121" lon="9.3938773"><ele>121.0</ele><time>2026-04-25T10:10:12.919Z</time></trkpt><trkpt lat="41.2240517" lon="9.3940413"><ele>124.75</ele><time>2026-04-25T10:10:13.918Z</time></trkpt><trkpt lat="41.2239401" lon="9.3941494"><ele>128.5</ele><time>2026-04-25T10:10:14.918Z</time></trkpt><trkpt lat="41.2237881" lon="9.3942008"><ele>132.25</ele><time>2026-04-25T10:10:15.902Z</time></trkpt><trkpt lat="41.2236711" lon="9.3942988"><ele>136.0</ele><time>2026-04-25T10:10:16.901Z</time></trkpt><trkpt lat="41.2235447" lon="9.3944012"><ele>136.0</ele><time>2026-04-25T10:10:17.906Z</time></trkpt><trkpt lat="41.2234476" lon="9.3944814"><ele>136.0</ele><time>2026-04-25T10:10:18.916Z</time></trkpt><trkpt lat="41.2233362" lon="9.3945659"><ele>136.0</ele><time>2026-04-25T10:10:19.913Z</time></trkpt><trkpt lat="41.2232102" lon="9.3946383"><ele>136.0</ele><time>2026-04-25T10:10:20.918Z</time></trkpt><trkpt lat="41.2230901" lon="9.3947117"><ele>135.5</ele><time>2026-04-25T10:10:21.921Z</time></trkpt><trkpt lat="41.2229506" lon="9.3947678"><ele>135.0</ele><time>2026-04-25T10:10:22.921Z</time></trkpt><trkpt lat="41.222836" lon="9.3948828"><ele>134.5</ele><time>2026-04-25T10:10:23.921Z</time></trkpt><trkpt lat="41.2227409" lon="9.3949972"><ele>134.0</ele><time>2026-04-25T10:10:24.934Z</time></trkpt><trkpt lat="41.2226286" lon="9.3951183"><ele>134.0</ele><time>2026-04-25T10:10:25.914Z</time></trkpt><trkpt lat="41.2225247" lon="9.3952665"><ele>134.0</ele><time>2026-04-25T10:10:26.918Z</time></trkpt><trkpt lat="41.2224255" lon="9.3953986"><ele>134.0</ele><time>2026-04-25T10:10:27.926Z</time></trkpt><trkpt lat="41.2223612" lon="9.3955053"><ele>134.0</ele><time>2026-04-25T10:10:28.921Z</time></trkpt><trkpt lat="41.2223428" lon="9.3956471"><ele>133.8</ele><time>2026-04-25T10:10:29.917Z</time></trkpt><trkpt lat="41.2223658" lon="9.395792"><ele>133.60000000000002</ele><time>2026-04-25T10:10:30.922Z</time></trkpt><trkpt lat="41.2223904" lon="9.3959247"><ele>133.4</ele><time>2026-04-25T10:10:31.921Z</time></trkpt><trkpt lat="41.2224277" lon="9.3960372"><ele>133.20000000000002</ele><time>2026-04-25T10:10:32.919Z</time></trkpt><trkpt lat="41.2225017" lon="9.3961556"><ele>133.0</ele><time>2026-04-25T10:10:33.922Z</time></trkpt><trkpt lat="41.2225686" lon="9.396264"><ele>131.25</ele><time>2026-04-25T10:10:34.927Z</time></trkpt><trkpt lat="41.2226307" lon="9.3963761"><ele>129.5</ele><time>2026-04-25T10:10:35.914Z</time></trkpt><trkpt lat="41.2226779" lon="9.3965246"><ele>127.75</ele><time>2026-04-25T10:10:36.927Z</time></trkpt><trkpt lat="41.222711" lon="9.3966643"><ele>126.0</ele><time>2026-04-25T10:10:37.922Z</time></trkpt><trkpt lat="41.2227343" lon="9.3968301"><ele>126.0</ele><time>2026-04-25T10:10:38.915Z</time></trkpt><trkpt lat="41.2227381" lon="9.3969827"><ele>126.0</ele><time>2026-04-25T10:10:39.917Z</time></trkpt><trkpt lat="41.2227295" lon="9.3971434"><ele>126.0</ele><time>2026-04-25T10:10:40.919Z</time></trkpt><trkpt lat="41.2227231" lon="9.3972966"><ele>126.0</ele><time>2026-04-25T10:10:41.916Z</time></trkpt><trkpt lat="41.2227197" lon="9.3974502"><ele>126.0</ele><time>2026-04-25T10:10:42.923Z</time></trkpt><trkpt lat="41.2227015" lon="9.3975984"><ele>126.0</ele><time>2026-04-25T10:10:43.914Z</time></trkpt><trkpt lat="41.2226592" lon="9.3977382"><ele>126.0</ele><time>2026-04-25T10:10:44.929Z</time></trkpt><trkpt lat="41.2225962" lon="9.3978617"><ele>126.0</ele><time>2026-04-25T10:10:45.919Z</time></trkpt><trkpt lat="41.2225138" lon="9.3979789"><ele>127.25</ele><time>2026-04-25T10:10:46.91Z</time></trkpt><trkpt lat="41.2224022" lon="9.3980795"><ele>128.5</ele><time>2026-04-25T10:10:47.907Z</time></trkpt><trkpt lat="41.2222714" lon="9.398119"><ele>129.75</ele><time>2026-04-25T10:10:48.911Z</time></trkpt><trkpt lat="41.2221215" lon="9.3980965"><ele>131.0</ele><time>2026-04-25T10:10:49.916Z</time></trkpt><trkpt lat="41.2219665" lon="9.3980365"><ele>128.75</ele><time>2026-04-25T10:10:50.918Z</time></trkpt><trkpt lat="41.2218178" lon="9.3979943"><ele>126.5</ele><time>2026-04-25T10:10:51.916Z</time></trkpt><trkpt lat="41.2216844" lon="9.3979727"><ele>124.25</ele><time>2026-04-25T10:10:52.916Z</time></trkpt><trkpt lat="41.2215594" lon="9.3979567"><ele>122.0</ele><time>2026-04-25T10:10:53.913Z</time></trkpt><trkpt lat="41.2214468" lon="9.3979488"><ele>121.6</ele><time>2026-04-25T10:10:54.916Z</time></trkpt><trkpt lat="41.2213468" lon="9.3979466"><ele>121.19999999999999</ele><time>2026-04-25T10:10:55.917Z</time></trkpt><trkpt lat="41.2212494" lon="9.3979494"><ele>120.8</ele><time>2026-04-25T10:10:56.911Z</time></trkpt><trkpt lat="41.2211576" lon="9.3979748"><ele>120.4</ele><time>2026-04-25T10:10:57.921Z</time></trkpt><trkpt lat="41.2210641" lon="9.3980471"><ele>120.0</ele><time>2026-04-25T10:10:58.908Z</time></trkpt><trkpt lat="41.2209727" lon="9.3981355"><ele>118.75</ele><time>2026-04-25T10:10:59.923Z</time></trkpt><trkpt lat="41.2208647" lon="9.3982303"><ele>117.5</ele><time>2026-04-25T10:11:00.912Z</time></trkpt><trkpt lat="41.2207614" lon="9.3983341"><ele>116.25</ele><time>2026-04-25T10:11:01.918Z</time></trkpt><trkpt lat="41.2206745" lon="9.3984513"><ele>115.0</ele><time>2026-04-25T10:11:02.919Z</time></trkpt><trkpt lat="41.2205972" lon="9.3985728"><ele>115.0</ele><time>2026-04-25T10:11:03.921Z</time></trkpt><trkpt lat="41.2205177" lon="9.3987064"><ele>115.0</ele><time>2026-04-25T10:11:04.919Z</time></trkpt><trkpt lat="41.2204614" lon="9.3988423"><ele>115.0</ele><time>2026-04-25T10:11:05.921Z</time></trkpt><trkpt lat="41.2203938" lon="9.3989888"><ele>115.0</ele><time>2026-04-25T10:11:06.928Z</time></trkpt><trkpt lat="41.2203524" lon="9.3991336"><ele>115.2</ele><time>2026-04-25T10:11:07.923Z</time></trkpt><trkpt lat="41.2203189" lon="9.3992763"><ele>115.4</ele><time>2026-04-25T10:11:08.924Z</time></trkpt><trkpt lat="41.2203029" lon="9.3994152"><ele>115.6</ele><time>2026-04-25T10:11:09.915Z</time></trkpt><trkpt lat="41.2203022" lon="9.3995552"><ele>115.8</ele><time>2026-04-25T10:11:10.918Z</time></trkpt><trkpt lat="41.2203228" lon="9.3997024"><ele>116.0</ele><time>2026-04-25T10:11:11.913Z</time></trkpt><trkpt lat="41.2203565" lon="9.3998376"><ele>115.19999999999999</ele><time>2026-04-25T10:11:12.919Z</time></trkpt><trkpt lat="41.2204087" lon="9.3999622"><ele>114.39999999999999</ele><time>2026-04-25T10:11:13.92Z</time></trkpt><trkpt lat="41.2204709" lon="9.4000758"><ele>113.6</ele><time>2026-04-25T10:11:14.912Z</time></trkpt><trkpt lat="41.2205385" lon="9.4001846"><ele>112.8</ele><time>2026-04-25T10:11:15.915Z</time></trkpt><trkpt lat="41.2206208" lon="9.4002818"><ele>112.0</ele><time>2026-04-25T10:11:16.915Z</time></trkpt><trkpt lat="41.220725" lon="9.4003804"><ele>112.0</ele><time>2026-04-25T10:11:17.922Z</time></trkpt><trkpt lat="41.2208368" lon="9.4004514"><ele>112.0</ele><time>2026-04-25T10:11:18.919Z</time></trkpt><trkpt lat="41.2209577" lon="9.4004928"><ele>112.0</ele><time>2026-04-25T10:11:19.918Z</time></trkpt><trkpt lat="41.2210868" lon="9.4005186"><ele>112.0</ele><time>2026-04-25T10:11:20.919Z</time></trkpt><trkpt lat="41.221221" lon="9.4005282"><ele>112.0</ele><time>2026-04-25T10:11:21.92Z</time></trkpt><trkpt lat="41.2213433" lon="9.4005356"><ele>111.99999999999999</ele><time>2026-04-25T10:11:22.916Z</time></trkpt><trkpt lat="41.221458" lon="9.4005466"><ele>111.99999999999999</ele><time>2026-04-25T10:11:23.918Z</time></trkpt><trkpt lat="41.2215625" lon="9.400558"><ele>112.0</ele><time>2026-04-25T10:11:24.916Z</time></trkpt><trkpt lat="41.2216435" lon="9.4005758"><ele>112.0</ele><time>2026-04-25T10:11:25.912Z</time></trkpt><trkpt lat="41.2217172" lon="9.4005807"><ele>113.0</ele><time>2026-04-25T10:11:26.915Z</time></trkpt><trkpt lat="41.2218011" lon="9.4006147"><ele>113.99999999999999</ele><time>2026-04-25T10:11:28.908Z</time></trkpt><trkpt lat="41.2218725" lon="9.4005732"><ele>114.99999999999999</ele><time>2026-04-25T10:11:35.918Z</time></trkpt><trkpt lat="41.2219944" lon="9.4005069"><ele>116.0</ele><time>2026-04-25T10:11:37.909Z</time></trkpt><trkpt lat="41.2220683" lon="9.4004829"><ele>117.0</ele><time>2026-04-25T10:11:38.912Z</time></trkpt><trkpt lat="41.2221623" lon="9.40052"><ele>117.0</ele><time>2026-04-25T10:11:39.911Z</time></trkpt><trkpt lat="41.2222291" lon="9.4005849"><ele>117.0</ele><time>2026-04-25T10:11:40.904Z</time></trkpt><trkpt lat="41.2222975" lon="9.400698"><ele>117.0</ele><time>2026-04-25T10:11:41.91Z</time></trkpt><trkpt lat="41.2223539" lon="9.4009297"><ele>117.0</ele><time>2026-04-25T10:11:42.916Z</time></trkpt><trkpt lat="41.2223839" lon="9.4011217"><ele>119.33333333333334</ele><time>2026-04-25T10:11:43.916Z</time></trkpt><trkpt lat="41.2224187" lon="9.4013294"><ele>121.66666666666667</ele><time>2026-04-25T10:11:44.916Z</time></trkpt><trkpt lat="41.2224943" lon="9.4015449"><ele>124.0</ele><time>2026-04-25T10:11:45.919Z</time></trkpt><trkpt lat="41.222583" lon="9.4017645"><ele>124.0</ele><time>2026-04-25T10:11:46.917Z</time></trkpt><trkpt lat="41.2226491" lon="9.4019551"><ele>124.0</ele><time>2026-04-25T10:11:47.911Z</time></trkpt><trkpt lat="41.2226953" lon="9.4021005"><ele>124.0</ele><time>2026-04-25T10:11:48.91Z</time></trkpt><trkpt lat="41.2227848" lon="9.4022279"><ele>124.0</ele><time>2026-04-25T10:11:49.918Z</time></trkpt><trkpt lat="41.2228637" lon="9.4023501"><ele>124.6</ele><time>2026-04-25T10:11:50.911Z</time></trkpt><trkpt lat="41.2229489" lon="9.4024191"><ele>125.2</ele><time>2026-04-25T10:11:51.916Z</time></trkpt><trkpt lat="41.2230505" lon="9.4024392"><ele>125.79999999999998</ele><time>2026-04-25T10:11:52.912Z</time></trkpt><trkpt lat="41.2231279" lon="9.4024702"><ele>126.39999999999999</ele><time>2026-04-25T10:11:53.919Z</time></trkpt><trkpt lat="41.2232422" lon="9.4024289"><ele>127.0</ele><time>2026-04-25T10:11:54.914Z</time></trkpt><trkpt lat="41.2233226" lon="9.4023317"><ele>127.25</ele><time>2026-04-25T10:11:55.913Z</time></trkpt><trkpt lat="41.2234086" lon="9.4022214"><ele>127.5</ele><time>2026-04-25T10:11:56.91Z</time></trkpt><trkpt lat="41.2234794" lon="9.4020676"><ele>127.75</ele><time>2026-04-25T10:11:57.913Z</time></trkpt><trkpt lat="41.2235565" lon="9.4018976"><ele>128.0</ele><time>2026-04-25T10:11:58.914Z</time></trkpt><trkpt lat="41.2236561" lon="9.4017648"><ele>129.0</ele><time>2026-04-25T10:11:59.923Z</time></trkpt><trkpt lat="41.2237674" lon="9.4016798"><ele>130.0</ele><time>2026-04-25T10:12:00.917Z</time></trkpt><trkpt lat="41.2239061" lon="9.4016098"><ele>131.0</ele><time>2026-04-25T10:12:01.91Z</time></trkpt><trkpt lat="41.2240699" lon="9.4015716"><ele>132.0</ele><time>2026-04-25T10:12:02.906Z</time></trkpt><trkpt lat="41.2242432" lon="9.401628"><ele>132.0</ele><time>2026-04-25T10:12:03.906Z</time></trkpt><trkpt lat="41.2243887" lon="9.4016542"><ele>132.0</ele><time>2026-04-25T10:12:04.916Z</time></trkpt><trkpt lat="41.2245512" lon="9.401629"><ele>132.0</ele><time>2026-04-25T10:12:05.914Z</time></trkpt><trkpt lat="41.2246961" lon="9.4016031"><ele>132.33333333333334</ele><time>2026-04-25T10:12:06.92Z</time></trkpt><trkpt lat="41.2248617" lon="9.4015874"><ele>132.66666666666669</ele><time>2026-04-25T10:12:07.918Z</time></trkpt><trkpt lat="41.2250256" lon="9.4016301"><ele>133.0</ele><time>2026-04-25T10:12:08.916Z</time></trkpt><trkpt lat="41.2252003" lon="9.4016712"><ele>133.0</ele><time>2026-04-25T10:12:09.918Z</time></trkpt><trkpt lat="41.2253598" lon="9.4017749"><ele>133.0</ele><time>2026-04-25T10:12:10.919Z</time></trkpt><trkpt lat="41.2255214" lon="9.4018316"><ele>133.0</ele><time>2026-04-25T10:12:11.923Z</time></trkpt><trkpt lat="41.2257012" lon="9.4018756"><ele>133.33333333333334</ele><time>2026-04-25T10:12:12.922Z</time></trkpt><trkpt lat="41.2258674" lon="9.4019417"><ele>133.66666666666666</ele><time>2026-04-25T10:12:13.921Z</time></trkpt><trkpt lat="41.2260051" lon="9.4019898"><ele>134.0</ele><time>2026-04-25T10:12:14.917Z</time></trkpt><trkpt lat="41.2261597" lon="9.4020107"><ele>134.0</ele><time>2026-04-25T10:12:15.919Z</time></trkpt><trkpt lat="41.2262754" lon="9.4020493"><ele>134.0</ele><time>2026-04-25T10:12:16.919Z</time></trkpt><trkpt lat="41.2263733" lon="9.4020905"><ele>134.0</ele><time>2026-04-25T10:12:17.913Z</time></trkpt><trkpt lat="41.2264661" lon="9.4021674"><ele>134.0</ele><time>2026-04-25T10:12:18.913Z</time></trkpt><trkpt lat="41.2264755" lon="9.4023552"><ele>131.66666666666666</ele><time>2026-04-25T10:12:19.92Z</time></trkpt><trkpt lat="41.2263546" lon="9.4025784"><ele>129.33333333333334</ele><time>2026-04-25T10:12:21.908Z</time></trkpt><trkpt lat="41.2262811" lon="9.4027116"><ele>127.0</ele><time>2026-04-25T10:12:22.903Z</time></trkpt><trkpt lat="41.2262044" lon="9.4028423"><ele>127.0</ele><time>2026-04-25T10:12:23.907Z</time></trkpt><trkpt lat="41.2261229" lon="9.4029446"><ele>127.0</ele><time>2026-04-25T10:12:24.91Z</time></trkpt><trkpt lat="41.2259985" lon="9.403022"><ele>127.0</ele><time>2026-04-25T10:12:25.907Z</time></trkpt><trkpt lat="41.2258602" lon="9.4030875"><ele>127.0</ele><time>2026-04-25T10:12:26.908Z</time></trkpt><trkpt lat="41.2257403" lon="9.4031274"><ele>125.6</ele><time>2026-04-25T10:12:27.909Z</time></trkpt><trkpt lat="41.2255954" lon="9.4031477"><ele>124.19999999999999</ele><time>2026-04-25T10:12:28.905Z</time></trkpt><trkpt lat="41.225469" lon="9.4031848"><ele>122.8</ele><time>2026-04-25T10:12:29.908Z</time></trkpt><trkpt lat="41.2253913" lon="9.4032143"><ele>121.4</ele><time>2026-04-25T10:12:30.909Z</time></trkpt><trkpt lat="41.2253187" lon="9.4032572"><ele>120.0</ele><time>2026-04-25T10:12:31.91Z</time></trkpt><trkpt lat="41.2253067" lon="9.4034191"><ele>120.0</ele><time>2026-04-25T10:12:33.909Z</time></trkpt><trkpt lat="41.2253563" lon="9.4035015"><ele>120.0</ele><time>2026-04-25T10:12:34.909Z</time></trkpt><trkpt lat="41.225422" lon="9.4035995"><ele>120.0</ele><time>2026-04-25T10:12:35.912Z</time></trkpt><trkpt lat="41.2255369" lon="9.4036572"><ele>120.0</ele><time>2026-04-25T10:12:36.921Z</time></trkpt><trkpt lat="41.2257073" lon="9.4036997"><ele>120.66666666666666</ele><time>2026-04-25T10:12:37.908Z</time></trkpt><trkpt lat="41.2258829" lon="9.4037392"><ele>121.33333333333333</ele><time>2026-04-25T10:12:38.922Z</time></trkpt><trkpt lat="41.2260546" lon="9.4037881"><ele>122.0</ele><time>2026-04-25T10:12:39.924Z</time></trkpt><trkpt lat="41.2262152" lon="9.4038592"><ele>122.0</ele><time>2026-04-25T10:12:40.916Z</time></trkpt><trkpt lat="41.2263572" lon="9.4039239"><ele>122.0</ele><time>2026-04-25T10:12:41.916Z</time></trkpt><trkpt lat="41.2265296" lon="9.403969"><ele>122.0</ele><time>2026-04-25T10:12:42.919Z</time></trkpt><trkpt lat="41.2266872" lon="9.4039904"><ele>123.75</ele><time>2026-04-25T10:12:43.915Z</time></trkpt><trkpt lat="41.2268147" lon="9.4040155"><ele>125.5</ele><time>2026-04-25T10:12:44.914Z</time></trkpt><trkpt lat="41.226957" lon="9.4040421"><ele>127.25</ele><time>2026-04-25T10:12:45.914Z</time></trkpt><trkpt lat="41.2270758" lon="9.4040644"><ele>129.0</ele><time>2026-04-25T10:12:46.919Z</time></trkpt><trkpt lat="41.227206" lon="9.4041007"><ele>129.5</ele><time>2026-04-25T10:12:47.924Z</time></trkpt><trkpt lat="41.2273319" lon="9.4041365"><ele>130.0</ele><time>2026-04-25T10:12:48.921Z</time></trkpt><trkpt lat="41.2274592" lon="9.4041246"><ele>130.5</ele><time>2026-04-25T10:12:49.922Z</time></trkpt><trkpt lat="41.2275942" lon="9.4041836"><ele>131.0</ele><time>2026-04-25T10:12:50.921Z</time></trkpt><trkpt lat="41.2277211" lon="9.4042603"><ele>131.0</ele><time>2026-04-25T10:12:51.924Z</time></trkpt><trkpt lat="41.2278475" lon="9.4043308"><ele>131.0</ele><time>2026-04-25T10:12:52.92Z</time></trkpt><trkpt lat="41.2279698" lon="9.4044027"><ele>131.0</ele><time>2026-04-25T10:12:53.918Z</time></trkpt><trkpt lat="41.2280906" lon="9.4044502"><ele>131.0</ele><time>2026-04-25T10:12:54.917Z</time></trkpt><trkpt lat="41.2282083" lon="9.4045056"><ele>131.5</ele><time>2026-04-25T10:12:55.918Z</time></trkpt><trkpt lat="41.2283209" lon="9.4045467"><ele>132.0</ele><time>2026-04-25T10:12:56.92Z</time></trkpt><trkpt lat="41.2284338" lon="9.4045908"><ele>132.5</ele><time>2026-04-25T10:12:57.921Z</time></trkpt><trkpt lat="41.2285537" lon="9.4046306"><ele>133.0</ele><time>2026-04-25T10:12:58.92Z</time></trkpt><trkpt lat="41.2286722" lon="9.4046589"><ele>130.25</ele><time>2026-04-25T10:12:59.918Z</time></trkpt><trkpt lat="41.2288022" lon="9.4046711"><ele>127.5</ele><time>2026-04-25T10:13:00.916Z</time></trkpt><trkpt lat="41.2289276" lon="9.4046724"><ele>124.75</ele><time>2026-04-25T10:13:01.914Z</time></trkpt><trkpt lat="41.2290623" lon="9.4046803"><ele>122.0</ele><time>2026-04-25T10:13:02.909Z</time></trkpt><trkpt lat="41.2291882" lon="9.4046977"><ele>121.0</ele><time>2026-04-25T10:13:03.914Z</time></trkpt><trkpt lat="41.2293129" lon="9.4047249"><ele>120.0</ele><time>2026-04-25T10:13:04.918Z</time></trkpt><trkpt lat="41.2294418" lon="9.4047527"><ele>119.0</ele><time>2026-04-25T10:13:05.919Z</time></trkpt><trkpt lat="41.2295668" lon="9.4048097"><ele>118.0</ele><time>2026-04-25T10:13:06.932Z</time></trkpt><trkpt lat="41.2296988" lon="9.404846"><ele>116.0</ele><time>2026-04-25T10:13:07.922Z</time></trkpt><trkpt lat="41.2298301" lon="9.4048434"><ele>114.0</ele><time>2026-04-25T10:13:08.917Z</time></trkpt><trkpt lat="41.2299592" lon="9.4048322"><ele>112.0</ele><time>2026-04-25T10:13:09.92Z</time></trkpt><trkpt lat="41.2300877" lon="9.404824"><ele>110.0</ele><time>2026-04-25T10:13:10.919Z</time></trkpt><trkpt lat="41.2302111" lon="9.4048237"><ele>110.0</ele><time>2026-04-25T10:13:11.918Z</time></trkpt><trkpt lat="41.2303398" lon="9.4048338"><ele>110.0</ele><time>2026-04-25T10:13:12.919Z</time></trkpt><trkpt lat="41.2304585" lon="9.4048557"><ele>110.0</ele><time>2026-04-25T10:13:13.918Z</time></trkpt><trkpt lat="41.2305935" lon="9.4049007"><ele>110.0</ele><time>2026-04-25T10:13:14.919Z</time></trkpt><trkpt lat="41.230731" lon="9.4049539"><ele>109.0</ele><time>2026-04-25T10:13:15.921Z</time></trkpt><trkpt lat="41.2308842" lon="9.40504"><ele>108.0</ele><time>2026-04-25T10:13:16.918Z</time></trkpt><trkpt lat="41.2310255" lon="9.4050864"><ele>107.0</ele><time>2026-04-25T10:13:17.92Z</time></trkpt><trkpt lat="41.2311358" lon="9.405113"><ele>106.0</ele><time>2026-04-25T10:13:18.92Z</time></trkpt><trkpt lat="41.2312417" lon="9.4051746"><ele>106.0</ele><time>2026-04-25T10:13:19.916Z</time></trkpt><trkpt lat="41.2313451" lon="9.4052747"><ele>106.0</ele><time>2026-04-25T10:13:20.916Z</time></trkpt><trkpt lat="41.2314486" lon="9.4054229"><ele>106.0</ele><time>2026-04-25T10:13:21.916Z</time></trkpt><trkpt lat="41.2315448" lon="9.4055621"><ele>106.0</ele><time>2026-04-25T10:13:22.914Z</time></trkpt><trkpt lat="41.2316368" lon="9.4057558"><ele>105.66666666666667</ele><time>2026-04-25T10:13:23.92Z</time></trkpt><trkpt lat="41.2317118" lon="9.4059199"><ele>105.33333333333334</ele><time>2026-04-25T10:13:24.921Z</time></trkpt><trkpt lat="41.2318112" lon="9.4060815"><ele>105.0</ele><time>2026-04-25T10:13:25.918Z</time></trkpt><trkpt lat="41.2319329" lon="9.4062834"><ele>104.0</ele><time>2026-04-25T10:13:26.92Z</time></trkpt><trkpt lat="41.23205" lon="9.4064676"><ele>103.0</ele><time>2026-04-25T10:13:27.92Z</time></trkpt><trkpt lat="41.2321853" lon="9.406611"><ele>102.0</ele><time>2026-04-25T10:13:28.917Z</time></trkpt><trkpt lat="41.2323397" lon="9.4067766"><ele>102.33333333333334</ele><time>2026-04-25T10:13:29.917Z</time></trkpt><trkpt lat="41.2324846" lon="9.4069253"><ele>102.66666666666667</ele><time>2026-04-25T10:13:30.918Z</time></trkpt><trkpt lat="41.2325996" lon="9.4070632"><ele>103.0</ele><time>2026-04-25T10:13:31.917Z</time></trkpt><trkpt lat="41.232735" lon="9.4072125"><ele>103.0</ele><time>2026-04-25T10:13:32.915Z</time></trkpt><trkpt lat="41.2328409" lon="9.4073504"><ele>103.0</ele><time>2026-04-25T10:13:33.911Z</time></trkpt><trkpt lat="41.2328881" lon="9.4074891"><ele>103.0</ele><time>2026-04-25T10:13:34.91Z</time></trkpt><trkpt lat="41.2329463" lon="9.4076469"><ele>103.0</ele><time>2026-04-25T10:13:35.913Z</time></trkpt><trkpt lat="41.2330512" lon="9.4078539"><ele>102.33333333333334</ele><time>2026-04-25T10:13:36.917Z</time></trkpt><trkpt lat="41.233178" lon="9.4079807"><ele>101.66666666666666</ele><time>2026-04-25T10:13:37.912Z</time></trkpt><trkpt lat="41.2332988" lon="9.4081269"><ele>101.0</ele><time>2026-04-25T10:13:38.918Z</time></trkpt><trkpt lat="41.2333986" lon="9.4082612"><ele>100.25</ele><time>2026-04-25T10:13:39.913Z</time></trkpt><trkpt lat="41.233509" lon="9.4083858"><ele>99.5</ele><time>2026-04-25T10:13:40.92Z</time></trkpt><trkpt lat="41.2336068" lon="9.4085298"><ele>98.75</ele><time>2026-04-25T10:13:41.918Z</time></trkpt><trkpt lat="41.233692" lon="9.4086186"><ele>98.0</ele><time>2026-04-25T10:13:42.922Z</time></trkpt><trkpt lat="41.2338263" lon="9.4086757"><ele>98.0</ele><time>2026-04-25T10:13:43.918Z</time></trkpt><trkpt lat="41.2339337" lon="9.4087269"><ele>98.0</ele><time>2026-04-25T10:13:44.921Z</time></trkpt><trkpt lat="41.2341109" lon="9.4088356"><ele>98.0</ele><time>2026-04-25T10:13:45.917Z</time></trkpt><trkpt lat="41.2342582" lon="9.4089123"><ele>96.33333333333333</ele><time>2026-04-25T10:13:46.917Z</time></trkpt><trkpt lat="41.2343856" lon="9.4090042"><ele>94.66666666666666</ele><time>2026-04-25T10:13:47.915Z</time></trkpt><trkpt lat="41.2344954" lon="9.4091179"><ele>93.0</ele><time>2026-04-25T10:13:48.914Z</time></trkpt><trkpt lat="41.2346259" lon="9.4092661"><ele>93.0</ele><time>2026-04-25T10:13:49.919Z</time></trkpt><trkpt lat="41.2347391" lon="9.4094143"><ele>93.0</ele><time>2026-04-25T10:13:50.919Z</time></trkpt><trkpt lat="41.2348381" lon="9.4095437"><ele>93.0</ele><time>2026-04-25T10:13:51.921Z</time></trkpt><trkpt lat="41.2349106" lon="9.409682"><ele>93.0</ele><time>2026-04-25T10:13:52.915Z</time></trkpt><trkpt lat="41.235" lon="9.4098059"><ele>91.25</ele><time>2026-04-25T10:13:53.913Z</time></trkpt><trkpt lat="41.2351244" lon="9.409903"><ele>89.5</ele><time>2026-04-25T10:13:54.91Z</time></trkpt><trkpt lat="41.2352249" lon="9.4100263"><ele>87.75</ele><time>2026-04-25T10:13:55.916Z</time></trkpt><trkpt lat="41.2353648" lon="9.4101245"><ele>86.0</ele><time>2026-04-25T10:13:56.909Z</time></trkpt><trkpt lat="41.2354912" lon="9.4101862"><ele>85.33333333333334</ele><time>2026-04-25T10:13:57.913Z</time></trkpt><trkpt lat="41.2356426" lon="9.4102764"><ele>84.66666666666667</ele><time>2026-04-25T10:13:58.917Z</time></trkpt><trkpt lat="41.2357894" lon="9.4103629"><ele>84.0</ele><time>2026-04-25T10:13:59.918Z</time></trkpt><trkpt lat="41.2359178" lon="9.4104998"><ele>81.33333333333333</ele><time>2026-04-25T10:14:00.913Z</time></trkpt><trkpt lat="41.2360577" lon="9.4106028"><ele>78.66666666666666</ele><time>2026-04-25T10:14:01.916Z</time></trkpt><trkpt lat="41.236166" lon="9.4107272"><ele>76.0</ele><time>2026-04-25T10:14:02.912Z</time></trkpt><trkpt lat="41.2362763" lon="9.4108717"><ele>76.0</ele><time>2026-04-25T10:14:03.917Z</time></trkpt><trkpt lat="41.2363449" lon="9.4109888"><ele>76.0</ele><time>2026-04-25T10:14:04.908Z</time></trkpt><trkpt lat="41.2364216" lon="9.4110732"><ele>76.0</ele><time>2026-04-25T10:14:05.908Z</time></trkpt><trkpt lat="41.23647" lon="9.4111273"><ele>76.0</ele><time>2026-04-25T10:14:06.912Z</time></trkpt><trkpt lat="41.2365607" lon="9.4112185"><ele>76.0</ele><time>2026-04-25T10:14:07.909Z</time></trkpt><trkpt lat="41.2366316" lon="9.4112848"><ele>74.0</ele><time>2026-04-25T10:14:08.91Z</time></trkpt><trkpt lat="41.2366943" lon="9.4113322"><ele>72.0</ele><time>2026-04-25T10:14:09.906Z</time></trkpt><trkpt lat="41.2367751" lon="9.4113674"><ele>70.0</ele><time>2026-04-25T10:14:10.914Z</time></trkpt><trkpt lat="41.2368675" lon="9.4113751"><ele>68.0</ele><time>2026-04-25T10:14:11.92Z</time></trkpt><trkpt lat="41.2369837" lon="9.4113547"><ele>66.0</ele><time>2026-04-25T10:14:12.919Z</time></trkpt><trkpt lat="41.237112" lon="9.4113265"><ele>67.0</ele><time>2026-04-25T10:14:13.918Z</time></trkpt><trkpt lat="41.2372537" lon="9.4112841"><ele>68.0</ele><time>2026-04-25T10:14:14.916Z</time></trkpt><trkpt lat="41.2374036" lon="9.4112358"><ele>69.0</ele><time>2026-04-25T10:14:15.917Z</time></trkpt><trkpt lat="41.2375621" lon="9.411204"><ele>69.0</ele><time>2026-04-25T10:14:16.919Z</time></trkpt><trkpt lat="41.2377208" lon="9.4111506"><ele>69.0</ele><time>2026-04-25T10:14:17.915Z</time></trkpt><trkpt lat="41.2378733" lon="9.4110957"><ele>69.0</ele><time>2026-04-25T10:14:18.913Z</time></trkpt><trkpt lat="41.2380197" lon="9.4110337"><ele>68.33333333333333</ele><time>2026-04-25T10:14:19.912Z</time></trkpt><trkpt lat="41.2381929" lon="9.410929"><ele>67.66666666666666</ele><time>2026-04-25T10:14:20.912Z</time></trkpt><trkpt lat="41.238362" lon="9.4108657"><ele>67.0</ele><time>2026-04-25T10:14:21.915Z</time></trkpt><trkpt lat="41.2385453" lon="9.4107775"><ele>67.0</ele><time>2026-04-25T10:14:22.908Z</time></trkpt><trkpt lat="41.2387111" lon="9.4106974"><ele>67.0</ele><time>2026-04-25T10:14:23.908Z</time></trkpt><trkpt lat="41.2388726" lon="9.410619"><ele>67.0</ele><time>2026-04-25T10:14:24.905Z</time></trkpt><trkpt lat="41.2389952" lon="9.410572"><ele>66.5</ele><time>2026-04-25T10:14:25.902Z</time></trkpt><trkpt lat="41.2391177" lon="9.4105042"><ele>66.0</ele><time>2026-04-25T10:14:26.902Z</time></trkpt><trkpt lat="41.2392272" lon="9.4104505"><ele>65.5</ele><time>2026-04-25T10:14:27.907Z</time></trkpt><trkpt lat="41.2393695" lon="9.4103719"><ele>65.0</ele><time>2026-04-25T10:14:28.905Z</time></trkpt><trkpt lat="41.2394906" lon="9.4102793"><ele>66.25</ele><time>2026-04-25T10:14:29.909Z</time></trkpt><trkpt lat="41.2396217" lon="9.4102031"><ele>67.5</ele><time>2026-04-25T10:14:30.906Z</time></trkpt><trkpt lat="41.2397727" lon="9.4101352"><ele>68.75</ele><time>2026-04-25T10:14:31.901Z</time></trkpt><trkpt lat="41.2399094" lon="9.4101441"><ele>70.0</ele><time>2026-04-25T10:14:32.9Z</time></trkpt><trkpt lat="41.2401043" lon="9.4101519"><ele>70.0</ele><time>2026-04-25T10:14:33.897Z</time></trkpt><trkpt lat="41.2402696" lon="9.4101833"><ele>70.0</ele><time>2026-04-25T10:14:34.902Z</time></trkpt><trkpt lat="41.2404296" lon="9.4101591"><ele>70.0</ele><time>2026-04-25T10:14:35.906Z</time></trkpt><trkpt lat="41.2406194" lon="9.4102215"><ele>69.33333333333333</ele><time>2026-04-25T10:14:36.915Z</time></trkpt><trkpt lat="41.2408126" lon="9.410261"><ele>68.66666666666667</ele><time>2026-04-25T10:14:37.916Z</time></trkpt><trkpt lat="41.2410016" lon="9.4103391"><ele>68.0</ele><time>2026-04-25T10:14:38.919Z</time></trkpt><trkpt lat="41.2411809" lon="9.410345"><ele>68.0</ele><time>2026-04-25T10:14:39.914Z</time></trkpt><trkpt lat="41.2413678" lon="9.4103327"><ele>68.0</ele><time>2026-04-25T10:14:40.916Z</time></trkpt><trkpt lat="41.2415487" lon="9.410349"><ele>68.0</ele><time>2026-04-25T10:14:41.917Z</time></trkpt><trkpt lat="41.2417312" lon="9.4103544"><ele>68.33333333333334</ele><time>2026-04-25T10:14:42.92Z</time></trkpt><trkpt lat="41.2419158" lon="9.4103602"><ele>68.66666666666667</ele><time>2026-04-25T10:14:43.916Z</time></trkpt><trkpt lat="41.2420835" lon="9.4104057"><ele>69.0</ele><time>2026-04-25T10:14:44.916Z</time></trkpt><trkpt lat="41.2422456" lon="9.4104169"><ele>69.0</ele><time>2026-04-25T10:14:45.919Z</time></trkpt><trkpt lat="41.2423977" lon="9.4104181"><ele>69.0</ele><time>2026-04-25T10:14:46.916Z</time></trkpt><trkpt lat="41.2425609" lon="9.4104455"><ele>69.0</ele><time>2026-04-25T10:14:47.92Z</time></trkpt><trkpt lat="41.242729" lon="9.4104835"><ele>69.0</ele><time>2026-04-25T10:14:48.916Z</time></trkpt><trkpt lat="41.2428705" lon="9.4104848"><ele>69.0</ele><time>2026-04-25T10:14:49.922Z</time></trkpt><trkpt lat="41.243009" lon="9.4104694"><ele>69.0</ele><time>2026-04-25T10:14:50.922Z</time></trkpt><trkpt lat="41.2431594" lon="9.4104964"><ele>69.0</ele><time>2026-04-25T10:14:51.92Z</time></trkpt><trkpt lat="41.2433028" lon="9.4104963"><ele>67.0</ele><time>2026-04-25T10:14:52.922Z</time></trkpt><trkpt lat="41.2434165" lon="9.4105174"><ele>65.0</ele><time>2026-04-25T10:14:53.918Z</time></trkpt><trkpt lat="41.2435489" lon="9.4105135"><ele>63.0</ele><time>2026-04-25T10:14:54.912Z</time></trkpt><trkpt lat="41.2436989" lon="9.4104338"><ele>61.0</ele><time>2026-04-25T10:14:55.911Z</time></trkpt><trkpt lat="41.2438575" lon="9.4103036"><ele>59.666666666666664</ele><time>2026-04-25T10:14:56.914Z</time></trkpt><trkpt lat="41.2439992" lon="9.4101856"><ele>58.33333333333333</ele><time>2026-04-25T10:14:57.911Z</time></trkpt><trkpt lat="41.2441358" lon="9.4101219"><ele>57.0</ele><time>2026-04-25T10:14:58.913Z</time></trkpt><trkpt lat="41.2442807" lon="9.4100443"><ele>57.0</ele><time>2026-04-25T10:14:59.918Z</time></trkpt><trkpt lat="41.2444079" lon="9.4099907"><ele>57.0</ele><time>2026-04-25T10:15:00.913Z</time></trkpt><trkpt lat="41.2445268" lon="9.4099269"><ele>57.0</ele><time>2026-04-25T10:15:01.912Z</time></trkpt><trkpt lat="41.2446452" lon="9.4098488"><ele>57.0</ele><time>2026-04-25T10:15:02.912Z</time></trkpt><trkpt lat="41.2447684" lon="9.4097356"><ele>56.0</ele><time>2026-04-25T10:15:03.912Z</time></trkpt><trkpt lat="41.2448808" lon="9.4095998"><ele>55.0</ele><time>2026-04-25T10:15:04.904Z</time></trkpt><trkpt lat="41.2449866" lon="9.409472"><ele>54.0</ele><time>2026-04-25T10:15:05.905Z</time></trkpt><trkpt lat="41.2451138" lon="9.4093549"><ele>53.0</ele><time>2026-04-25T10:15:06.908Z</time></trkpt><trkpt lat="41.2452394" lon="9.4092521"><ele>53.0</ele><time>2026-04-25T10:15:07.904Z</time></trkpt><trkpt lat="41.2453585" lon="9.4091621"><ele>53.0</ele><time>2026-04-25T10:15:08.908Z</time></trkpt><trkpt lat="41.2454874" lon="9.409048"><ele>53.0</ele><time>2026-04-25T10:15:09.908Z</time></trkpt><trkpt lat="41.2456123" lon="9.4089732"><ele>53.0</ele><time>2026-04-25T10:15:10.912Z</time></trkpt><trkpt lat="41.2457545" lon="9.4089088"><ele>48.25</ele><time>2026-04-25T10:15:11.912Z</time></trkpt><trkpt lat="41.2458924" lon="9.4088669"><ele>43.5</ele><time>2026-04-25T10:15:12.919Z</time></trkpt><trkpt lat="41.2460294" lon="9.4088416"><ele>38.75</ele><time>2026-04-25T10:15:13.919Z</time></trkpt><trkpt lat="41.2461753" lon="9.4088262"><ele>34.0</ele><time>2026-04-25T10:15:14.916Z</time></trkpt><trkpt lat="41.2463152" lon="9.4088504"><ele>34.0</ele><time>2026-04-25T10:15:15.916Z</time></trkpt><trkpt lat="41.2464534" lon="9.4088758"><ele>34.0</ele><time>2026-04-25T10:15:16.913Z</time></trkpt><trkpt lat="41.2465866" lon="9.408876"><ele>34.0</ele><time>2026-04-25T10:15:17.914Z</time></trkpt><trkpt lat="41.2467056" lon="9.4088925"><ele>34.0</ele><time>2026-04-25T10:15:18.918Z</time></trkpt><trkpt lat="41.24684" lon="9.4088935"><ele>33.75</ele><time>2026-04-25T10:15:19.92Z</time></trkpt><trkpt lat="41.2469649" lon="9.4088947"><ele>33.5</ele><time>2026-04-25T10:15:20.919Z</time></trkpt><trkpt lat="41.2471089" lon="9.4088794"><ele>33.25</ele><time>2026-04-25T10:15:21.919Z</time></trkpt><trkpt lat="41.247216" lon="9.4088901"><ele>33.0</ele><time>2026-04-25T10:15:22.913Z</time></trkpt><trkpt lat="41.24732" lon="9.4089097"><ele>32.199999999999996</ele><time>2026-04-25T10:15:23.917Z</time></trkpt><trkpt lat="41.2474161" lon="9.4089226"><ele>31.4</ele><time>2026-04-25T10:15:24.914Z</time></trkpt><trkpt lat="41.2475215" lon="9.4089571"><ele>30.599999999999998</ele><time>2026-04-25T10:15:25.913Z</time></trkpt><trkpt lat="41.2476351" lon="9.4089872"><ele>29.799999999999997</ele><time>2026-04-25T10:15:26.917Z</time></trkpt><trkpt lat="41.2477536" lon="9.4090258"><ele>29.0</ele><time>2026-04-25T10:15:27.921Z</time></trkpt><trkpt lat="41.2478664" lon="9.4090533"><ele>29.0</ele><time>2026-04-25T10:15:28.917Z</time></trkpt><trkpt lat="41.2479794" lon="9.4090784"><ele>29.0</ele><time>2026-04-25T10:15:29.919Z</time></trkpt><trkpt lat="41.2480943" lon="9.4091068"><ele>29.0</ele><time>2026-04-25T10:15:30.916Z</time></trkpt><trkpt lat="41.2482142" lon="9.4091472"><ele>29.0</ele><time>2026-04-25T10:15:31.918Z</time></trkpt><trkpt lat="41.2483356" lon="9.4091871"><ele>29.0</ele><time>2026-04-25T10:15:32.917Z</time></trkpt><trkpt lat="41.2484564" lon="9.4092152"><ele>29.0</ele><time>2026-04-25T10:15:33.916Z</time></trkpt><trkpt lat="41.2485688" lon="9.4092361"><ele>29.0</ele><time>2026-04-25T10:15:34.915Z</time></trkpt><trkpt lat="41.2486845" lon="9.4092528"><ele>29.0</ele><time>2026-04-25T10:15:35.915Z</time></trkpt><trkpt lat="41.2488031" lon="9.4092696"><ele>29.0</ele><time>2026-04-25T10:15:36.924Z</time></trkpt><trkpt lat="41.2489235" lon="9.4093094"><ele>29.0</ele><time>2026-04-25T10:15:37.916Z</time></trkpt><trkpt lat="41.249047" lon="9.4093578"><ele>29.0</ele><time>2026-04-25T10:15:38.913Z</time></trkpt><trkpt lat="41.2491603" lon="9.4094208"><ele>29.0</ele><time>2026-04-25T10:15:39.915Z</time></trkpt><trkpt lat="41.2492646" lon="9.4094833"><ele>27.6</ele><time>2026-04-25T10:15:40.914Z</time></trkpt><trkpt lat="41.2493814" lon="9.4095266"><ele>26.2</ele><time>2026-04-25T10:15:41.918Z</time></trkpt><trkpt lat="41.2495024" lon="9.4095425"><ele>24.8</ele><time>2026-04-25T10:15:42.913Z</time></trkpt><trkpt lat="41.2495987" lon="9.4095522"><ele>23.400000000000002</ele><time>2026-04-25T10:15:43.913Z</time></trkpt><trkpt lat="41.2496855" lon="9.4095841"><ele>22.0</ele><time>2026-04-25T10:15:44.913Z</time></trkpt><trkpt lat="41.2497502" lon="9.4096371"><ele>22.6</ele><time>2026-04-25T10:15:45.906Z</time></trkpt><trkpt lat="41.2497976" lon="9.409706"><ele>23.200000000000003</ele><time>2026-04-25T10:15:46.916Z</time></trkpt><trkpt lat="41.249797" lon="9.4098182"><ele>23.8</ele><time>2026-04-25T10:15:47.924Z</time></trkpt><trkpt lat="41.2497584" lon="9.409944"><ele>24.4</ele><time>2026-04-25T10:15:48.91Z</time></trkpt><trkpt lat="41.2497243" lon="9.4100846"><ele>25.0</ele><time>2026-04-25T10:15:49.907Z</time></trkpt><trkpt lat="41.2497047" lon="9.4102426"><ele>25.0</ele><time>2026-04-25T10:15:50.919Z</time></trkpt><trkpt lat="41.2496821" lon="9.4104203"><ele>25.0</ele><time>2026-04-25T10:15:51.913Z</time></trkpt><trkpt lat="41.2496683" lon="9.4106072"><ele>25.0</ele><time>2026-04-25T10:15:52.912Z</time></trkpt><trkpt lat="41.2496617" lon="9.4107904"><ele>25.0</ele><time>2026-04-25T10:15:53.918Z</time></trkpt><trkpt lat="41.2496458" lon="9.4110055"><ele>25.666666666666668</ele><time>2026-04-25T10:15:54.912Z</time></trkpt><trkpt lat="41.249622" lon="9.4112695"><ele>26.333333333333336</ele><time>2026-04-25T10:15:55.915Z</time></trkpt><trkpt lat="41.2495622" lon="9.4115023"><ele>27.0</ele><time>2026-04-25T10:15:56.915Z</time></trkpt><trkpt lat="41.2494678" lon="9.4116997"><ele>23.0</ele><time>2026-04-25T10:15:57.914Z</time></trkpt><trkpt lat="41.2493642" lon="9.4118899"><ele>19.0</ele><time>2026-04-25T10:15:58.919Z</time></trkpt><trkpt lat="41.2492561" lon="9.4120662"><ele>15.0</ele><time>2026-04-25T10:15:59.917Z</time></trkpt><trkpt lat="41.2492026" lon="9.4122213"><ele>13.0</ele><time>2026-04-25T10:16:00.915Z</time></trkpt><trkpt lat="41.2491813" lon="9.4123488"><ele>11.0</ele><time>2026-04-25T10:16:01.915Z</time></trkpt><trkpt lat="41.2491856" lon="9.4125077"><ele>9.0</ele><time>2026-04-25T10:16:02.91Z</time></trkpt><trkpt lat="41.24925" lon="9.4126973"><ele>7.0</ele><time>2026-04-25T10:16:03.913Z</time></trkpt><trkpt lat="41.2492971" lon="9.4129031"><ele>7.333333333333334</ele><time>2026-04-25T10:16:04.914Z</time></trkpt><trkpt lat="41.2493521" lon="9.4130858"><ele>7.666666666666666</ele><time>2026-04-25T10:16:05.915Z</time></trkpt><trkpt lat="41.2494014" lon="9.4132916"><ele>8.0</ele><time>2026-04-25T10:16:06.915Z</time></trkpt><trkpt lat="41.2493613" lon="9.4134778"><ele>8.0</ele><time>2026-04-25T10:16:07.907Z</time></trkpt><trkpt lat="41.2493436" lon="9.4136821"><ele>8.0</ele><time>2026-04-25T10:16:08.91Z</time></trkpt><trkpt lat="41.2493161" lon="9.413896"><ele>8.0</ele><time>2026-04-25T10:16:09.913Z</time></trkpt><trkpt lat="41.2492843" lon="9.4140995"><ele>7.25</ele><time>2026-04-25T10:16:10.914Z</time></trkpt><trkpt lat="41.2492564" lon="9.4142725"><ele>6.5</ele><time>2026-04-25T10:16:11.912Z</time></trkpt><trkpt lat="41.249245" lon="9.4144467"><ele>5.75</ele><time>2026-04-25T10:16:12.913Z</time></trkpt><trkpt lat="41.249267" lon="9.4146324"><ele>5.0</ele><time>2026-04-25T10:16:13.917Z</time></trkpt><trkpt lat="41.2493242" lon="9.4148291"><ele>5.0</ele><time>2026-04-25T10:16:14.916Z</time></trkpt><trkpt lat="41.2494175" lon="9.4150295"><ele>5.0</ele><time>2026-04-25T10:16:15.92Z</time></trkpt><trkpt lat="41.2494854" lon="9.4151594"><ele>5.0</ele><time>2026-04-25T10:16:16.909Z</time></trkpt><trkpt lat="41.2495983" lon="9.415328"><ele>5.0</ele><time>2026-04-25T10:16:17.914Z</time></trkpt><trkpt lat="41.2496926" lon="9.4154567"><ele>5.0</ele><time>2026-04-25T10:16:18.915Z</time></trkpt><trkpt lat="41.2497972" lon="9.4155767"><ele>5.0</ele><time>2026-04-25T10:16:19.918Z</time></trkpt><trkpt lat="41.2499339" lon="9.4157149"><ele>5.0</ele><time>2026-04-25T10:16:20.914Z</time></trkpt><trkpt lat="41.2500975" lon="9.4158547"><ele>5.0</ele><time>2026-04-25T10:16:21.916Z</time></trkpt><trkpt lat="41.2502537" lon="9.4159106"><ele>5.0</ele><time>2026-04-25T10:16:22.914Z</time></trkpt><trkpt lat="41.2503931" lon="9.4159934"><ele>5.0</ele><time>2026-04-25T10:16:23.913Z</time></trkpt><trkpt lat="41.2505368" lon="9.4160406"><ele>4.25</ele><time>2026-04-25T10:16:24.913Z</time></trkpt><trkpt lat="41.2506848" lon="9.4160658"><ele>3.5</ele><time>2026-04-25T10:16:25.914Z</time></trkpt><trkpt lat="41.2508289" lon="9.4161007"><ele>2.75</ele><time>2026-04-25T10:16:26.916Z</time></trkpt><trkpt lat="41.2509803" lon="9.4161044"><ele>2.0</ele><time>2026-04-25T10:16:27.915Z</time></trkpt><trkpt lat="41.2511213" lon="9.4160735"><ele>2.0</ele><time>2026-04-25T10:16:28.916Z</time></trkpt><trkpt lat="41.2512662" lon="9.4160031"><ele>2.0</ele><time>2026-04-25T10:16:29.908Z</time></trkpt><trkpt lat="41.2513805" lon="9.4159041"><ele>2.0</ele><time>2026-04-25T10:16:30.902Z</time></trkpt><trkpt lat="41.2514855" lon="9.4157769"><ele>2.0</ele><time>2026-04-25T10:16:31.908Z</time></trkpt><trkpt lat="41.2515814" lon="9.4156151"><ele>2.6666666666666665</ele><time>2026-04-25T10:16:32.916Z</time></trkpt><trkpt lat="41.2517086" lon="9.415499"><ele>3.333333333333333</ele><time>2026-04-25T10:16:33.903Z</time></trkpt><trkpt lat="41.2518304" lon="9.4153489"><ele>4.0</ele><time>2026-04-25T10:16:34.915Z</time></trkpt><trkpt lat="41.2519649" lon="9.4152302"><ele>4.0</ele><time>2026-04-25T10:16:35.919Z</time></trkpt><trkpt lat="41.2520982" lon="9.4150786"><ele>4.0</ele><time>2026-04-25T10:16:36.916Z</time></trkpt><trkpt lat="41.2522086" lon="9.4149996"><ele>4.0</ele><time>2026-04-25T10:16:37.909Z</time></trkpt><trkpt lat="41.2523534" lon="9.4149585"><ele>4.0</ele><time>2026-04-25T10:16:38.907Z</time></trkpt><trkpt lat="41.2525283" lon="9.4149387"><ele>5.25</ele><time>2026-04-25T10:16:39.903Z</time></trkpt><trkpt lat="41.2526773" lon="9.4149425"><ele>6.5</ele><time>2026-04-25T10:16:40.912Z</time></trkpt><trkpt lat="41.2528232" lon="9.4149861"><ele>7.75</ele><time>2026-04-25T10:16:41.917Z</time></trkpt><trkpt lat="41.2529497" lon="9.4150187"><ele>9.0</ele><time>2026-04-25T10:16:42.917Z</time></trkpt><trkpt lat="41.2530918" lon="9.4150677"><ele>7.333333333333333</ele><time>2026-04-25T10:16:43.921Z</time></trkpt><trkpt lat="41.2532379" lon="9.4151772"><ele>5.666666666666666</ele><time>2026-04-25T10:16:44.92Z</time></trkpt><trkpt lat="41.2534047" lon="9.4152569"><ele>4.0</ele><time>2026-04-25T10:16:45.921Z</time></trkpt><trkpt lat="41.2535378" lon="9.4153128"><ele>4.0</ele><time>2026-04-25T10:16:46.913Z</time></trkpt><trkpt lat="41.2536806" lon="9.4153851"><ele>4.0</ele><time>2026-04-25T10:16:47.916Z</time></trkpt><trkpt lat="41.25383" lon="9.4154555"><ele>4.0</ele><time>2026-04-25T10:16:48.913Z</time></trkpt><trkpt lat="41.2539513" lon="9.4155178"><ele>4.0</ele><time>2026-04-25T10:16:49.915Z</time></trkpt><trkpt lat="41.2541012" lon="9.4155943"><ele>4.25</ele><time>2026-04-25T10:16:50.918Z</time></trkpt><trkpt lat="41.2542492" lon="9.4156599"><ele>4.5</ele><time>2026-04-25T10:16:51.926Z</time></trkpt><trkpt lat="41.2543921" lon="9.4156891"><ele>4.75</ele><time>2026-04-25T10:16:52.915Z</time></trkpt><trkpt lat="41.2545367" lon="9.4157152"><ele>5.0</ele><time>2026-04-25T10:16:53.917Z</time></trkpt><trkpt lat="41.2546728" lon="9.4156985"><ele>5.25</ele><time>2026-04-25T10:16:54.918Z</time></trkpt><trkpt lat="41.2548429" lon="9.4156686"><ele>5.5</ele><time>2026-04-25T10:16:55.918Z</time></trkpt><trkpt lat="41.2549782" lon="9.415671"><ele>5.75</ele><time>2026-04-25T10:16:56.917Z</time></trkpt><trkpt lat="41.255114" lon="9.4156478"><ele>6.0</ele><time>2026-04-25T10:16:57.91Z</time></trkpt><trkpt lat="41.2552379" lon="9.4156452"><ele>6.0</ele><time>2026-04-25T10:16:58.909Z</time></trkpt><trkpt lat="41.2553552" lon="9.4155555"><ele>6.0</ele><time>2026-04-25T10:16:59.915Z</time></trkpt><trkpt lat="41.2554759" lon="9.4155083"><ele>6.0</ele><time>2026-04-25T10:17:00.914Z</time></trkpt><trkpt lat="41.2555938" lon="9.4155414"><ele>6.0</ele><time>2026-04-25T10:17:01.911Z</time></trkpt><trkpt lat="41.2557051" lon="9.4156423"><ele>5.0</ele><time>2026-04-25T10:17:02.918Z</time></trkpt><trkpt lat="41.2557917" lon="9.4157375"><ele>3.9999999999999996</ele><time>2026-04-25T10:17:03.908Z</time></trkpt><trkpt lat="41.2558618" lon="9.4158173"><ele>3.0</ele><time>2026-04-25T10:17:04.906Z</time></trkpt><trkpt lat="41.2559157" lon="9.4159533"><ele>2.0</ele><time>2026-04-25T10:17:05.907Z</time></trkpt><trkpt lat="41.2559726" lon="9.4160841"><ele>1.0</ele><time>2026-04-25T10:17:06.908Z</time></trkpt><trkpt lat="41.2560246" lon="9.4162483"><ele>2.25</ele><time>2026-04-25T10:17:07.904Z</time></trkpt><trkpt lat="41.2560186" lon="9.4164441"><ele>3.5</ele><time>2026-04-25T10:17:08.912Z</time></trkpt><trkpt lat="41.2559991" lon="9.4166244"><ele>4.75</ele><time>2026-04-25T10:17:09.907Z</time></trkpt><trkpt lat="41.2559441" lon="9.416808"><ele>6.0</ele><time>2026-04-25T10:17:10.91Z</time></trkpt><trkpt lat="41.2558731" lon="9.4169595"><ele>6.0</ele><time>2026-04-25T10:17:11.906Z</time></trkpt><trkpt lat="41.2557687" lon="9.4170771"><ele>6.0</ele><time>2026-04-25T10:17:12.908Z</time></trkpt><trkpt lat="41.2556572" lon="9.417201"><ele>6.0</ele><time>2026-04-25T10:17:13.907Z</time></trkpt><trkpt lat="41.2555456" lon="9.4173086"><ele>6.0</ele><time>2026-04-25T10:17:14.909Z</time></trkpt><trkpt lat="41.2554295" lon="9.4174255"><ele>7.75</ele><time>2026-04-25T10:17:15.912Z</time></trkpt><trkpt lat="41.2553129" lon="9.4175278"><ele>9.5</ele><time>2026-04-25T10:17:16.907Z</time></trkpt><trkpt lat="41.2552079" lon="9.4176416"><ele>11.25</ele><time>2026-04-25T10:17:17.903Z</time></trkpt><trkpt lat="41.2551073" lon="9.4177665"><ele>13.0</ele><time>2026-04-25T10:17:18.905Z</time></trkpt><trkpt lat="41.2550336" lon="9.4178969"><ele>12.0</ele><time>2026-04-25T10:17:19.902Z</time></trkpt><trkpt lat="41.2549665" lon="9.4180203"><ele>11.0</ele><time>2026-04-25T10:17:20.905Z</time></trkpt><trkpt lat="41.2549344" lon="9.4181589"><ele>10.0</ele><time>2026-04-25T10:17:21.907Z</time></trkpt><trkpt lat="41.2549373" lon="9.4183114"><ele>9.0</ele><time>2026-04-25T10:17:22.905Z</time></trkpt><trkpt lat="41.2549518" lon="9.4184365"><ele>8.0</ele><time>2026-04-25T10:17:23.91Z</time></trkpt><trkpt lat="41.2550203" lon="9.4185278"><ele>8.0</ele><time>2026-04-25T10:17:24.911Z</time></trkpt><trkpt lat="41.2551141" lon="9.4185977"><ele>8.0</ele><time>2026-04-25T10:17:25.909Z</time></trkpt><trkpt lat="41.255233" lon="9.418629"><ele>8.0</ele><time>2026-04-25T10:17:26.908Z</time></trkpt><trkpt lat="41.2553706" lon="9.4186288"><ele>8.0</ele><time>2026-04-25T10:17:27.907Z</time></trkpt><trkpt lat="41.2554939" lon="9.4185458"><ele>10.0</ele><time>2026-04-25T10:17:28.911Z</time></trkpt><trkpt lat="41.2556228" lon="9.4184151"><ele>12.0</ele><time>2026-04-25T10:17:29.902Z</time></trkpt><trkpt lat="41.2557482" lon="9.4182982"><ele>14.0</ele><time>2026-04-25T10:17:30.908Z</time></trkpt><trkpt lat="41.2558808" lon="9.4182344"><ele>14.0</ele><time>2026-04-25T10:17:31.913Z</time></trkpt><trkpt lat="41.2560432" lon="9.4181681"><ele>14.0</ele><time>2026-04-25T10:17:32.907Z</time></trkpt><trkpt lat="41.2562198" lon="9.4181178"><ele>14.0</ele><time>2026-04-25T10:17:33.904Z</time></trkpt><trkpt lat="41.2563773" lon="9.4180921"><ele>14.0</ele><time>2026-04-25T10:17:34.913Z</time></trkpt><trkpt lat="41.2565377" lon="9.4180577"><ele>14.0</ele><time>2026-04-25T10:17:35.91Z</time></trkpt><trkpt lat="41.2566698" lon="9.4180282"><ele>14.0</ele><time>2026-04-25T10:17:36.912Z</time></trkpt><trkpt lat="41.2568088" lon="9.4180216"><ele>14.0</ele><time>2026-04-25T10:17:37.911Z</time></trkpt><trkpt lat="41.2569448" lon="9.4179906"><ele>14.0</ele><time>2026-04-25T10:17:38.912Z</time></trkpt><trkpt lat="41.257053" lon="9.4180021"><ele>13.999999999999998</ele><time>2026-04-25T10:17:39.913Z</time></trkpt><trkpt lat="41.2571705" lon="9.4180073"><ele>13.999999999999998</ele><time>2026-04-25T10:17:40.91Z</time></trkpt><trkpt lat="41.2572225" lon="9.4181216"><ele>14.0</ele><time>2026-04-25T10:17:41.911Z</time></trkpt><trkpt lat="41.2572734" lon="9.4182512"><ele>14.0</ele><time>2026-04-25T10:17:42.919Z</time></trkpt><trkpt lat="41.2572901" lon="9.4184143"><ele>14.333333333333334</ele><time>2026-04-25T10:17:43.91Z</time></trkpt><trkpt lat="41.2573166" lon="9.4185979"><ele>14.666666666666668</ele><time>2026-04-25T10:17:44.911Z</time></trkpt><trkpt lat="41.2573312" lon="9.4188028"><ele>15.0</ele><time>2026-04-25T10:17:45.913Z</time></trkpt><trkpt lat="41.2573313" lon="9.4190165"><ele>15.0</ele><time>2026-04-25T10:17:46.904Z</time></trkpt><trkpt lat="41.2573087" lon="9.4192842"><ele>15.0</ele><time>2026-04-25T10:17:47.909Z</time></trkpt><trkpt lat="41.2573503" lon="9.4195508"><ele>15.0</ele><time>2026-04-25T10:17:48.912Z</time></trkpt><trkpt lat="41.2573678" lon="9.419791"><ele>17.333333333333332</ele><time>2026-04-25T10:17:49.913Z</time></trkpt><trkpt lat="41.2573405" lon="9.4200243"><ele>19.666666666666664</ele><time>2026-04-25T10:17:50.914Z</time></trkpt><trkpt lat="41.2573227" lon="9.4203017"><ele>22.0</ele><time>2026-04-25T10:17:51.92Z</time></trkpt><trkpt lat="41.2573282" lon="9.420579"><ele>23.333333333333332</ele><time>2026-04-25T10:17:52.917Z</time></trkpt><trkpt lat="41.2573406" lon="9.4208318"><ele>24.666666666666664</ele><time>2026-04-25T10:17:53.916Z</time></trkpt><trkpt lat="41.2573493" lon="9.4210768"><ele>26.0</ele><time>2026-04-25T10:17:54.915Z</time></trkpt><trkpt lat="41.2573611" lon="9.42133"><ele>26.333333333333332</ele><time>2026-04-25T10:17:55.916Z</time></trkpt><trkpt lat="41.2573899" lon="9.4216046"><ele>26.666666666666664</ele><time>2026-04-25T10:17:56.913Z</time></trkpt><trkpt lat="41.2574119" lon="9.4218366"><ele>27.0</ele><time>2026-04-25T10:17:57.914Z</time></trkpt><trkpt lat="41.2573988" lon="9.422014"><ele>26.666666666666664</ele><time>2026-04-25T10:17:58.913Z</time></trkpt><trkpt lat="41.2574156" lon="9.4222387"><ele>26.333333333333332</ele><time>2026-04-25T10:17:59.915Z</time></trkpt><trkpt lat="41.2574123" lon="9.4224681"><ele>26.0</ele><time>2026-04-25T10:18:00.912Z</time></trkpt><trkpt lat="41.2573555" lon="9.422638"><ele>26.0</ele><time>2026-04-25T10:18:01.913Z</time></trkpt><trkpt lat="41.2573516" lon="9.4228544"><ele>26.0</ele><time>2026-04-25T10:18:02.917Z</time></trkpt><trkpt lat="41.2573402" lon="9.4230336"><ele>26.0</ele><time>2026-04-25T10:18:03.912Z</time></trkpt><trkpt lat="41.2573072" lon="9.4232193"><ele>26.0</ele><time>2026-04-25T10:18:04.915Z</time></trkpt><trkpt lat="41.2573073" lon="9.4234122"><ele>27.0</ele><time>2026-04-25T10:18:05.917Z</time></trkpt><trkpt lat="41.2572991" lon="9.4236322"><ele>28.0</ele><time>2026-04-25T10:18:06.919Z</time></trkpt><trkpt lat="41.2572903" lon="9.4238248"><ele>29.0</ele><time>2026-04-25T10:18:07.92Z</time></trkpt><trkpt lat="41.2572514" lon="9.4239597"><ele>30.0</ele><time>2026-04-25T10:18:08.915Z</time></trkpt><trkpt lat="41.2572144" lon="9.4241547"><ele>30.0</ele><time>2026-04-25T10:18:09.917Z</time></trkpt><trkpt lat="41.2571675" lon="9.4243291"><ele>30.0</ele><time>2026-04-25T10:18:10.918Z</time></trkpt><trkpt lat="41.2571054" lon="9.4245039"><ele>30.0</ele><time>2026-04-25T10:18:11.918Z</time></trkpt><trkpt lat="41.2570552" lon="9.4246859"><ele>30.0</ele><time>2026-04-25T10:18:12.92Z</time></trkpt><trkpt lat="41.2570836" lon="9.4248716"><ele>28.333333333333336</ele><time>2026-04-25T10:18:13.919Z</time></trkpt><trkpt lat="41.2571165" lon="9.4251135"><ele>26.666666666666668</ele><time>2026-04-25T10:18:14.918Z</time></trkpt><trkpt lat="41.2571381" lon="9.4253329"><ele>25.0</ele><time>2026-04-25T10:18:15.921Z</time></trkpt><trkpt lat="41.2571225" lon="9.4255272"><ele>23.75</ele><time>2026-04-25T10:18:16.921Z</time></trkpt><trkpt lat="41.2570951" lon="9.425727"><ele>22.5</ele><time>2026-04-25T10:18:17.916Z</time></trkpt><trkpt lat="41.257034" lon="9.4258556"><ele>21.25</ele><time>2026-04-25T10:18:18.922Z</time></trkpt><trkpt lat="41.2569833" lon="9.4260163"><ele>20.0</ele><time>2026-04-25T10:18:19.92Z</time></trkpt><trkpt lat="41.2569318" lon="9.4261654"><ele>17.0</ele><time>2026-04-25T10:18:20.922Z</time></trkpt><trkpt lat="41.2568673" lon="9.4263124"><ele>14.0</ele><time>2026-04-25T10:18:21.924Z</time></trkpt><trkpt lat="41.2567959" lon="9.4264414"><ele>11.0</ele><time>2026-04-25T10:18:22.914Z</time></trkpt><trkpt lat="41.2567377" lon="9.426583"><ele>8.0</ele><time>2026-04-25T10:18:23.918Z</time></trkpt><trkpt lat="41.2566794" lon="9.426736"><ele>8.0</ele><time>2026-04-25T10:18:24.916Z</time></trkpt><trkpt lat="41.2566064" lon="9.4268745"><ele>8.0</ele><time>2026-04-25T10:18:25.915Z</time></trkpt><trkpt lat="41.2565208" lon="9.4269753"><ele>8.0</ele><time>2026-04-25T10:18:26.912Z</time></trkpt><trkpt lat="41.2563936" lon="9.4270203"><ele>8.0</ele><time>2026-04-25T10:18:27.91Z</time></trkpt><trkpt lat="41.2562557" lon="9.4270946"><ele>9.333333333333332</ele><time>2026-04-25T10:18:28.909Z</time></trkpt><trkpt lat="41.2561091" lon="9.427176"><ele>10.666666666666666</ele><time>2026-04-25T10:18:29.912Z</time></trkpt><trkpt lat="41.255955" lon="9.4272849"><ele>12.0</ele><time>2026-04-25T10:18:30.908Z</time></trkpt><trkpt lat="41.2558581" lon="9.427407"><ele>12.0</ele><time>2026-04-25T10:18:31.915Z</time></trkpt><trkpt lat="41.255772" lon="9.427574"><ele>12.0</ele><time>2026-04-25T10:18:32.914Z</time></trkpt><trkpt lat="41.2556863" lon="9.4277752"><ele>12.0</ele><time>2026-04-25T10:18:33.916Z</time></trkpt><trkpt lat="41.2556219" lon="9.427957"><ele>10.5</ele><time>2026-04-25T10:18:34.918Z</time></trkpt><trkpt lat="41.2555607" lon="9.4280874"><ele>9.0</ele><time>2026-04-25T10:18:35.916Z</time></trkpt><trkpt lat="41.255499" lon="9.4282176"><ele>7.5</ele><time>2026-04-25T10:18:36.914Z</time></trkpt><trkpt lat="41.2553716" lon="9.4282774"><ele>6.0</ele><time>2026-04-25T10:18:37.905Z</time></trkpt><trkpt lat="41.2552188" lon="9.428318"><ele>6.0</ele><time>2026-04-25T10:18:38.905Z</time></trkpt><trkpt lat="41.2550799" lon="9.4283028"><ele>6.0</ele><time>2026-04-25T10:18:39.906Z</time></trkpt><trkpt lat="41.254907" lon="9.4282538"><ele>6.0</ele><time>2026-04-25T10:18:40.909Z</time></trkpt><trkpt lat="41.254738" lon="9.4281528"><ele>8.0</ele><time>2026-04-25T10:18:41.911Z</time></trkpt><trkpt lat="41.2545705" lon="9.4280915"><ele>10.0</ele><time>2026-04-25T10:18:42.915Z</time></trkpt><trkpt lat="41.2543964" lon="9.4280138"><ele>12.0</ele><time>2026-04-25T10:18:43.914Z</time></trkpt><trkpt lat="41.2542418" lon="9.4279708"><ele>14.25</ele><time>2026-04-25T10:18:44.914Z</time></trkpt><trkpt lat="41.2541085" lon="9.4279288"><ele>16.5</ele><time>2026-04-25T10:18:45.915Z</time></trkpt><trkpt lat="41.2539878" lon="9.4278919"><ele>18.75</ele><time>2026-04-25T10:18:46.909Z</time></trkpt><trkpt lat="41.2538355" lon="9.4279574"><ele>21.0</ele><time>2026-04-25T10:18:47.912Z</time></trkpt><trkpt lat="41.2537025" lon="9.428089"><ele>21.0</ele><time>2026-04-25T10:18:48.902Z</time></trkpt><trkpt lat="41.2535632" lon="9.4281924"><ele>21.0</ele><time>2026-04-25T10:18:49.911Z</time></trkpt><trkpt lat="41.2534033" lon="9.4282963"><ele>21.0</ele><time>2026-04-25T10:18:50.915Z</time></trkpt><trkpt lat="41.2532559" lon="9.4283886"><ele>21.0</ele><time>2026-04-25T10:18:51.917Z</time></trkpt><trkpt lat="41.2531081" lon="9.4284749"><ele>21.0</ele><time>2026-04-25T10:18:52.914Z</time></trkpt><trkpt lat="41.2529714" lon="9.4285173"><ele>21.0</ele><time>2026-04-25T10:18:53.913Z</time></trkpt><trkpt lat="41.2528474" lon="9.428542"><ele>21.0</ele><time>2026-04-25T10:18:54.912Z</time></trkpt><trkpt lat="41.252735" lon="9.4285015"><ele>21.0</ele><time>2026-04-25T10:18:55.903Z</time></trkpt><trkpt lat="41.2526315" lon="9.4283757"><ele>21.0</ele><time>2026-04-25T10:18:56.908Z</time></trkpt><trkpt lat="41.2525531" lon="9.4282526"><ele>21.0</ele><time>2026-04-25T10:18:57.905Z</time></trkpt><trkpt lat="41.2524638" lon="9.4280924"><ele>21.0</ele><time>2026-04-25T10:18:58.906Z</time></trkpt><trkpt lat="41.2523906" lon="9.4278922"><ele>24.25</ele><time>2026-04-25T10:18:59.905Z</time></trkpt><trkpt lat="41.2522642" lon="9.4278064"><ele>27.5</ele><time>2026-04-25T10:19:00.904Z</time></trkpt><trkpt lat="41.2521546" lon="9.4276972"><ele>30.75</ele><time>2026-04-25T10:19:01.909Z</time></trkpt><trkpt lat="41.2520518" lon="9.4276373"><ele>34.0</ele><time>2026-04-25T10:19:02.908Z</time></trkpt><trkpt lat="41.2519765" lon="9.4276383"><ele>34.0</ele><time>2026-04-25T10:19:03.91Z</time></trkpt><trkpt lat="41.2519003" lon="9.4277066"><ele>34.0</ele><time>2026-04-25T10:19:04.911Z</time></trkpt><trkpt lat="41.2517986" lon="9.4278224"><ele>34.0</ele><time>2026-04-25T10:19:05.915Z</time></trkpt><trkpt lat="41.2516924" lon="9.4279223"><ele>34.0</ele><time>2026-04-25T10:19:06.915Z</time></trkpt><trkpt lat="41.2515926" lon="9.4280073"><ele>30.2</ele><time>2026-04-25T10:19:07.912Z</time></trkpt><trkpt lat="41.2514933" lon="9.428059"><ele>26.4</ele><time>2026-04-25T10:19:08.909Z</time></trkpt><trkpt lat="41.2513958" lon="9.4281162"><ele>22.6</ele><time>2026-04-25T10:19:09.909Z</time></trkpt><trkpt lat="41.2512972" lon="9.4281618"><ele>18.8</ele><time>2026-04-25T10:19:10.909Z</time></trkpt><trkpt lat="41.251212" lon="9.4281731"><ele>15.0</ele><time>2026-04-25T10:19:11.908Z</time></trkpt><trkpt lat="41.2510984" lon="9.4281548"><ele>15.0</ele><time>2026-04-25T10:19:12.913Z</time></trkpt><trkpt lat="41.250982" lon="9.4281027"><ele>15.0</ele><time>2026-04-25T10:19:13.908Z</time></trkpt><trkpt lat="41.2508647" lon="9.4280568"><ele>15.0</ele><time>2026-04-25T10:19:14.906Z</time></trkpt><trkpt lat="41.2507451" lon="9.4280438"><ele>15.0</ele><time>2026-04-25T10:19:15.911Z</time></trkpt><trkpt lat="41.2506039" lon="9.4280289"><ele>12.75</ele><time>2026-04-25T10:19:16.914Z</time></trkpt><trkpt lat="41.250464" lon="9.4280077"><ele>10.5</ele><time>2026-04-25T10:19:17.914Z</time></trkpt><trkpt lat="41.2503196" lon="9.4279722"><ele>8.25</ele><time>2026-04-25T10:19:18.919Z</time></trkpt><trkpt lat="41.2501681" lon="9.4279028"><ele>6.0</ele><time>2026-04-25T10:19:19.914Z</time></trkpt><trkpt lat="41.250041" lon="9.427849"><ele>6.5</ele><time>2026-04-25T10:19:20.912Z</time></trkpt><trkpt lat="41.2499383" lon="9.4277848"><ele>7.0</ele><time>2026-04-25T10:19:21.92Z</time></trkpt><trkpt lat="41.2498129" lon="9.4276843"><ele>7.5</ele><time>2026-04-25T10:19:22.906Z</time></trkpt><trkpt lat="41.2496909" lon="9.4275903"><ele>8.0</ele><time>2026-04-25T10:19:23.916Z</time></trkpt><trkpt lat="41.2495836" lon="9.4275355"><ele>8.0</ele><time>2026-04-25T10:19:24.916Z</time></trkpt><trkpt lat="41.2494895" lon="9.4274545"><ele>8.0</ele><time>2026-04-25T10:19:25.918Z</time></trkpt><trkpt lat="41.2493847" lon="9.427361"><ele>8.0</ele><time>2026-04-25T10:19:26.92Z</time></trkpt><trkpt lat="41.2492788" lon="9.4272818"><ele>8.0</ele><time>2026-04-25T10:19:27.921Z</time></trkpt><trkpt lat="41.2491744" lon="9.4272218"><ele>8.0</ele><time>2026-04-25T10:19:28.917Z</time></trkpt><trkpt lat="41.2490749" lon="9.4271683"><ele>8.0</ele><time>2026-04-25T10:19:29.916Z</time></trkpt><trkpt lat="41.2489736" lon="9.4271391"><ele>8.0</ele><time>2026-04-25T10:19:30.916Z</time></trkpt><trkpt lat="41.2488607" lon="9.4271542"><ele>8.0</ele><time>2026-04-25T10:19:31.922Z</time></trkpt><trkpt lat="41.2487492" lon="9.4271781"><ele>8.0</ele><time>2026-04-25T10:19:32.911Z</time></trkpt><trkpt lat="41.2486413" lon="9.4272376"><ele>8.0</ele><time>2026-04-25T10:19:33.916Z</time></trkpt><trkpt lat="41.2485458" lon="9.4272975"><ele>8.0</ele><time>2026-04-25T10:19:34.911Z</time></trkpt><trkpt lat="41.2484711" lon="9.4273788"><ele>8.0</ele><time>2026-04-25T10:19:35.917Z</time></trkpt><trkpt lat="41.2483983" lon="9.4274792"><ele>8.0</ele><time>2026-04-25T10:19:36.918Z</time></trkpt><trkpt lat="41.248334" lon="9.4275811"><ele>8.0</ele><time>2026-04-25T10:19:37.916Z</time></trkpt><trkpt lat="41.2482665" lon="9.4277258"><ele>8.0</ele><time>2026-04-25T10:19:38.917Z</time></trkpt><trkpt lat="41.2481841" lon="9.4278662"><ele>8.0</ele><time>2026-04-25T10:19:39.911Z</time></trkpt><trkpt lat="41.2481098" lon="9.4280283"><ele>8.0</ele><time>2026-04-25T10:19:40.914Z</time></trkpt><trkpt lat="41.2480294" lon="9.4281744"><ele>8.0</ele><time>2026-04-25T10:19:41.916Z</time></trkpt><trkpt lat="41.2479457" lon="9.4283081"><ele>7.25</ele><time>2026-04-25T10:19:42.913Z</time></trkpt><trkpt lat="41.2478496" lon="9.4284153"><ele>6.5</ele><time>2026-04-25T10:19:43.912Z</time></trkpt><trkpt lat="41.2477152" lon="9.428497"><ele>5.75</ele><time>2026-04-25T10:19:44.913Z</time></trkpt><trkpt lat="41.2475869" lon="9.4285854"><ele>5.0</ele><time>2026-04-25T10:19:45.921Z</time></trkpt><trkpt lat="41.2474645" lon="9.4286656"><ele>5.0</ele><time>2026-04-25T10:19:46.918Z</time></trkpt><trkpt lat="41.247343" lon="9.4287435"><ele>5.0</ele><time>2026-04-25T10:19:47.915Z</time></trkpt><trkpt lat="41.2472247" lon="9.4288149"><ele>5.0</ele><time>2026-04-25T10:19:48.915Z</time></trkpt><trkpt lat="41.2471083" lon="9.4288737"><ele>5.0</ele><time>2026-04-25T10:19:49.916Z</time></trkpt><trkpt lat="41.2469933" lon="9.4289075"><ele>5.5</ele><time>2026-04-25T10:19:50.909Z</time></trkpt><trkpt lat="41.246877" lon="9.4289221"><ele>6.0</ele><time>2026-04-25T10:19:51.911Z</time></trkpt><trkpt lat="41.2467525" lon="9.4289041"><ele>6.5</ele><time>2026-04-25T10:19:52.908Z</time></trkpt><trkpt lat="41.2466187" lon="9.4288504"><ele>7.0</ele><time>2026-04-25T10:19:53.907Z</time></trkpt><trkpt lat="41.2464731" lon="9.4287924"><ele>6.0</ele><time>2026-04-25T10:19:54.914Z</time></trkpt><trkpt lat="41.2462989" lon="9.4286912"><ele>5.0</ele><time>2026-04-25T10:19:55.912Z</time></trkpt><trkpt lat="41.2461472" lon="9.4286411"><ele>4.0</ele><time>2026-04-25T10:19:56.913Z</time></trkpt><trkpt lat="41.2460155" lon="9.4286169"><ele>4.0</ele><time>2026-04-25T10:19:57.914Z</time></trkpt><trkpt lat="41.2458755" lon="9.428595"><ele>4.0</ele><time>2026-04-25T10:19:58.918Z</time></trkpt><trkpt lat="41.2457206" lon="9.4285479"><ele>4.0</ele><time>2026-04-25T10:19:59.919Z</time></trkpt><trkpt lat="41.245575" lon="9.4285215"><ele>4.0</ele><time>2026-04-25T10:20:00.919Z</time></trkpt><trkpt lat="41.2454499" lon="9.4284616"><ele>4.25</ele><time>2026-04-25T10:20:01.916Z</time></trkpt><trkpt lat="41.2453221" lon="9.4283917"><ele>4.5</ele><time>2026-04-25T10:20:02.916Z</time></trkpt><trkpt lat="41.2452073" lon="9.4282709"><ele>4.75</ele><time>2026-04-25T10:20:03.916Z</time></trkpt><trkpt lat="41.2451193" lon="9.4281806"><ele>5.0</ele><time>2026-04-25T10:20:04.909Z</time></trkpt><trkpt lat="41.2450275" lon="9.4281141"><ele>5.0</ele><time>2026-04-25T10:20:05.914Z</time></trkpt><trkpt lat="41.2449131" lon="9.4281845"><ele>5.0</ele><time>2026-04-25T10:20:06.915Z</time></trkpt><trkpt lat="41.2448211" lon="9.4282423"><ele>5.0</ele><time>2026-04-25T10:20:07.905Z</time></trkpt><trkpt lat="41.2447516" lon="9.4283296"><ele>5.0</ele><time>2026-04-25T10:20:08.903Z</time></trkpt><trkpt lat="41.2446256" lon="9.4284397"><ele>6.25</ele><time>2026-04-25T10:20:09.906Z</time></trkpt><trkpt lat="41.2445016" lon="9.4285661"><ele>7.5</ele><time>2026-04-25T10:20:10.908Z</time></trkpt><trkpt lat="41.2443707" lon="9.4286737"><ele>8.75</ele><time>2026-04-25T10:20:11.905Z</time></trkpt><trkpt lat="41.2442448" lon="9.4287394"><ele>10.0</ele><time>2026-04-25T10:20:12.905Z</time></trkpt><trkpt lat="41.2440987" lon="9.4287734"><ele>13.0</ele><time>2026-04-25T10:20:13.9Z</time></trkpt><trkpt lat="41.2439237" lon="9.428773"><ele>16.0</ele><time>2026-04-25T10:20:14.906Z</time></trkpt><trkpt lat="41.243767" lon="9.4287887"><ele>19.0</ele><time>2026-04-25T10:20:15.911Z</time></trkpt><trkpt lat="41.2435975" lon="9.4287879"><ele>19.0</ele><time>2026-04-25T10:20:16.918Z</time></trkpt><trkpt lat="41.243415" lon="9.4288038"><ele>19.0</ele><time>2026-04-25T10:20:17.916Z</time></trkpt><trkpt lat="41.2433038" lon="9.4287751"><ele>19.0</ele><time>2026-04-25T10:20:18.914Z</time></trkpt><trkpt lat="41.2432025" lon="9.4286126"><ele>21.333333333333332</ele><time>2026-04-25T10:20:19.909Z</time></trkpt><trkpt lat="41.2431302" lon="9.4284228"><ele>23.666666666666664</ele><time>2026-04-25T10:20:20.91Z</time></trkpt><trkpt lat="41.2430344" lon="9.4282274"><ele>26.0</ele><time>2026-04-25T10:20:21.913Z</time></trkpt><trkpt lat="41.2429694" lon="9.4280433"><ele>24.25</ele><time>2026-04-25T10:20:22.906Z</time></trkpt><trkpt lat="41.24288" lon="9.4279008"><ele>22.5</ele><time>2026-04-25T10:20:23.91Z</time></trkpt><trkpt lat="41.2427985" lon="9.4277742"><ele>20.75</ele><time>2026-04-25T10:20:24.913Z</time></trkpt><trkpt lat="41.2427085" lon="9.4276238"><ele>19.0</ele><time>2026-04-25T10:20:25.914Z</time></trkpt><trkpt lat="41.2426166" lon="9.4274874"><ele>19.0</ele><time>2026-04-25T10:20:26.913Z</time></trkpt><trkpt lat="41.2424793" lon="9.4274253"><ele>19.0</ele><time>2026-04-25T10:20:27.911Z</time></trkpt><trkpt lat="41.2423192" lon="9.4274774"><ele>19.0</ele><time>2026-04-25T10:20:28.908Z</time></trkpt><trkpt lat="41.2421795" lon="9.4275161"><ele>20.5</ele><time>2026-04-25T10:20:29.911Z</time></trkpt><trkpt lat="41.2420715" lon="9.4275885"><ele>22.0</ele><time>2026-04-25T10:20:30.906Z</time></trkpt><trkpt lat="41.241942" lon="9.4276362"><ele>23.5</ele><time>2026-04-25T10:20:31.909Z</time></trkpt><trkpt lat="41.2418238" lon="9.4277254"><ele>25.0</ele><time>2026-04-25T10:20:32.909Z</time></trkpt><trkpt lat="41.2416885" lon="9.4278647"><ele>26.75</ele><time>2026-04-25T10:20:33.911Z</time></trkpt><trkpt lat="41.241586" lon="9.4279965"><ele>28.5</ele><time>2026-04-25T10:20:34.908Z</time></trkpt><trkpt lat="41.2414796" lon="9.4280788"><ele>30.25</ele><time>2026-04-25T10:20:35.912Z</time></trkpt><trkpt lat="41.2413725" lon="9.428106"><ele>32.0</ele><time>2026-04-25T10:20:36.916Z</time></trkpt><trkpt lat="41.241279" lon="9.4280877"><ele>32.0</ele><time>2026-04-25T10:20:37.904Z</time></trkpt><trkpt lat="41.2411233" lon="9.4280165"><ele>32.0</ele><time>2026-04-25T10:20:38.908Z</time></trkpt><trkpt lat="41.2409934" lon="9.4279471"><ele>32.0</ele><time>2026-04-25T10:20:39.913Z</time></trkpt><trkpt lat="41.2408813" lon="9.4278313"><ele>32.0</ele><time>2026-04-25T10:20:40.912Z</time></trkpt><trkpt lat="41.2407671" lon="9.4277001"><ele>31.75</ele><time>2026-04-25T10:20:41.914Z</time></trkpt><trkpt lat="41.2406457" lon="9.4275707"><ele>31.5</ele><time>2026-04-25T10:20:42.915Z</time></trkpt><trkpt lat="41.2405382" lon="9.4274638"><ele>31.25</ele><time>2026-04-25T10:20:43.922Z</time></trkpt><trkpt lat="41.2404355" lon="9.4273583"><ele>31.0</ele><time>2026-04-25T10:20:44.919Z</time></trkpt><trkpt lat="41.2403284" lon="9.427281"><ele>30.5</ele><time>2026-04-25T10:20:45.918Z</time></trkpt><trkpt lat="41.2402292" lon="9.4272087"><ele>30.0</ele><time>2026-04-25T10:20:46.913Z</time></trkpt><trkpt lat="41.2401374" lon="9.4271444"><ele>29.5</ele><time>2026-04-25T10:20:47.917Z</time></trkpt><trkpt lat="41.2400184" lon="9.4270848"><ele>29.0</ele><time>2026-04-25T10:20:48.918Z</time></trkpt><trkpt lat="41.2399003" lon="9.4270469"><ele>28.25</ele><time>2026-04-25T10:20:49.919Z</time></trkpt><trkpt lat="41.2397906" lon="9.4270099"><ele>27.5</ele><time>2026-04-25T10:20:50.919Z</time></trkpt><trkpt lat="41.2396767" lon="9.4269693"><ele>26.75</ele><time>2026-04-25T10:20:51.92Z</time></trkpt><trkpt lat="41.2395631" lon="9.4269411"><ele>26.0</ele><time>2026-04-25T10:20:52.917Z</time></trkpt><trkpt lat="41.2394554" lon="9.4269225"><ele>26.0</ele><time>2026-04-25T10:20:53.922Z</time></trkpt><trkpt lat="41.2393474" lon="9.4269007"><ele>26.0</ele><time>2026-04-25T10:20:54.923Z</time></trkpt><trkpt lat="41.2392394" lon="9.4268642"><ele>26.0</ele><time>2026-04-25T10:20:55.917Z</time></trkpt><trkpt lat="41.2391369" lon="9.4268118"><ele>26.0</ele><time>2026-04-25T10:20:56.915Z</time></trkpt><trkpt lat="41.2390413" lon="9.4267272"><ele>26.0</ele><time>2026-04-25T10:20:57.919Z</time></trkpt><trkpt lat="41.2389551" lon="9.4266216"><ele>25.75</ele><time>2026-04-25T10:20:58.911Z</time></trkpt><trkpt lat="41.2388919" lon="9.4265055"><ele>25.5</ele><time>2026-04-25T10:20:59.912Z</time></trkpt><trkpt lat="41.2388266" lon="9.4263805"><ele>25.25</ele><time>2026-04-25T10:21:00.917Z</time></trkpt><trkpt lat="41.2387627" lon="9.4262286"><ele>25.0</ele><time>2026-04-25T10:21:01.919Z</time></trkpt><trkpt lat="41.2386709" lon="9.4260686"><ele>25.0</ele><time>2026-04-25T10:21:02.92Z</time></trkpt><trkpt lat="41.2385777" lon="9.4259074"><ele>25.0</ele><time>2026-04-25T10:21:03.92Z</time></trkpt><trkpt lat="41.2384832" lon="9.4257108"><ele>25.0</ele><time>2026-04-25T10:21:04.92Z</time></trkpt><trkpt lat="41.2383741" lon="9.425562"><ele>25.75</ele><time>2026-04-25T10:21:05.92Z</time></trkpt><trkpt lat="41.2382671" lon="9.4254092"><ele>26.5</ele><time>2026-04-25T10:21:06.924Z</time></trkpt><trkpt lat="41.2381617" lon="9.4252804"><ele>27.25</ele><time>2026-04-25T10:21:07.92Z</time></trkpt><trkpt lat="41.2380522" lon="9.4251562"><ele>28.0</ele><time>2026-04-25T10:21:08.917Z</time></trkpt><trkpt lat="41.2379336" lon="9.4250402"><ele>29.0</ele><time>2026-04-25T10:21:09.916Z</time></trkpt><trkpt lat="41.2378124" lon="9.4249483"><ele>30.0</ele><time>2026-04-25T10:21:10.914Z</time></trkpt><trkpt lat="41.2376563" lon="9.4248965"><ele>31.0</ele><time>2026-04-25T10:21:11.918Z</time></trkpt><trkpt lat="41.2375062" lon="9.4248434"><ele>31.0</ele><time>2026-04-25T10:21:12.919Z</time></trkpt><trkpt lat="41.23737" lon="9.4248058"><ele>31.0</ele><time>2026-04-25T10:21:13.916Z</time></trkpt><trkpt lat="41.2372031" lon="9.4247354"><ele>31.0</ele><time>2026-04-25T10:21:14.916Z</time></trkpt><trkpt lat="41.2370191" lon="9.4246556"><ele>34.66666666666667</ele><time>2026-04-25T10:21:15.916Z</time></trkpt><trkpt lat="41.2368394" lon="9.4246069"><ele>38.333333333333336</ele><time>2026-04-25T10:21:16.914Z</time></trkpt><trkpt lat="41.2366836" lon="9.4245268"><ele>42.0</ele><time>2026-04-25T10:21:17.916Z</time></trkpt><trkpt lat="41.2365335" lon="9.4244944"><ele>39.666666666666664</ele><time>2026-04-25T10:21:18.919Z</time></trkpt><trkpt lat="41.2363731" lon="9.4244403"><ele>37.33333333333333</ele><time>2026-04-25T10:21:19.917Z</time></trkpt><trkpt lat="41.2362068" lon="9.4243911"><ele>35.0</ele><time>2026-04-25T10:21:20.918Z</time></trkpt><trkpt lat="41.2360419" lon="9.4243292"><ele>35.0</ele><time>2026-04-25T10:21:21.921Z</time></trkpt><trkpt lat="41.235894" lon="9.4242637"><ele>35.0</ele><time>2026-04-25T10:21:22.921Z</time></trkpt><trkpt lat="41.2357355" lon="9.4241834"><ele>35.0</ele><time>2026-04-25T10:21:23.914Z</time></trkpt><trkpt lat="41.2355904" lon="9.4241021"><ele>33.0</ele><time>2026-04-25T10:21:24.918Z</time></trkpt><trkpt lat="41.2354439" lon="9.4240512"><ele>31.0</ele><time>2026-04-25T10:21:25.914Z</time></trkpt><trkpt lat="41.2352832" lon="9.4239919"><ele>29.0</ele><time>2026-04-25T10:21:26.913Z</time></trkpt><trkpt lat="41.2351235" lon="9.4239453"><ele>29.0</ele><time>2026-04-25T10:21:27.917Z</time></trkpt><trkpt lat="41.2349469" lon="9.4238654"><ele>29.0</ele><time>2026-04-25T10:21:28.917Z</time></trkpt><trkpt lat="41.2347717" lon="9.4238076"><ele>29.0</ele><time>2026-04-25T10:21:29.92Z</time></trkpt><trkpt lat="41.2346059" lon="9.4237598"><ele>27.0</ele><time>2026-04-25T10:21:30.92Z</time></trkpt><trkpt lat="41.234449" lon="9.4237232"><ele>25.0</ele><time>2026-04-25T10:21:31.92Z</time></trkpt><trkpt lat="41.2342525" lon="9.4236616"><ele>23.0</ele><time>2026-04-25T10:21:32.919Z</time></trkpt><trkpt lat="41.2340728" lon="9.4236092"><ele>21.666666666666668</ele><time>2026-04-25T10:21:33.92Z</time></trkpt><trkpt lat="41.2338884" lon="9.4235551"><ele>20.333333333333332</ele><time>2026-04-25T10:21:34.918Z</time></trkpt><trkpt lat="41.233716" lon="9.4234916"><ele>19.0</ele><time>2026-04-25T10:21:35.921Z</time></trkpt><trkpt lat="41.2335548" lon="9.4234068"><ele>19.0</ele><time>2026-04-25T10:21:36.926Z</time></trkpt><trkpt lat="41.2333938" lon="9.4233353"><ele>19.0</ele><time>2026-04-25T10:21:37.92Z</time></trkpt><trkpt lat="41.2332476" lon="9.4232699"><ele>19.0</ele><time>2026-04-25T10:21:38.92Z</time></trkpt><trkpt lat="41.2330921" lon="9.4232112"><ele>18.333333333333332</ele><time>2026-04-25T10:21:39.921Z</time></trkpt><trkpt lat="41.2329409" lon="9.4231481"><ele>17.666666666666668</ele><time>2026-04-25T10:21:40.921Z</time></trkpt><trkpt lat="41.2327756" lon="9.423073"><ele>17.0</ele><time>2026-04-25T10:21:41.919Z</time></trkpt><trkpt lat="41.2326019" lon="9.423021"><ele>17.0</ele><time>2026-04-25T10:21:42.922Z</time></trkpt><trkpt lat="41.23243" lon="9.4229884"><ele>17.0</ele><time>2026-04-25T10:21:43.92Z</time></trkpt><trkpt lat="41.2322719" lon="9.4229473"><ele>17.0</ele><time>2026-04-25T10:21:44.92Z</time></trkpt><trkpt lat="41.2321155" lon="9.4228925"><ele>18.666666666666668</ele><time>2026-04-25T10:21:45.923Z</time></trkpt><trkpt lat="41.23197" lon="9.4228343"><ele>20.333333333333332</ele><time>2026-04-25T10:21:46.92Z</time></trkpt><trkpt lat="41.2318016" lon="9.4227903"><ele>22.0</ele><time>2026-04-25T10:21:47.915Z</time></trkpt><trkpt lat="41.2316488" lon="9.422727"><ele>22.0</ele><time>2026-04-25T10:21:48.917Z</time></trkpt><trkpt lat="41.2314933" lon="9.4226606"><ele>22.0</ele><time>2026-04-25T10:21:49.916Z</time></trkpt><trkpt lat="41.2313372" lon="9.4225934"><ele>22.0</ele><time>2026-04-25T10:21:50.919Z</time></trkpt><trkpt lat="41.2311695" lon="9.4225091"><ele>22.666666666666664</ele><time>2026-04-25T10:21:51.916Z</time></trkpt><trkpt lat="41.2309928" lon="9.4224486"><ele>23.333333333333332</ele><time>2026-04-25T10:21:52.919Z</time></trkpt><trkpt lat="41.2308608" lon="9.4223462"><ele>24.0</ele><time>2026-04-25T10:21:53.923Z</time></trkpt><trkpt lat="41.2307442" lon="9.4222369"><ele>25.0</ele><time>2026-04-25T10:21:54.92Z</time></trkpt><trkpt lat="41.2306132" lon="9.4221598"><ele>26.0</ele><time>2026-04-25T10:21:55.921Z</time></trkpt><trkpt lat="41.2304835" lon="9.4220669"><ele>27.0</ele><time>2026-04-25T10:21:56.92Z</time></trkpt><trkpt lat="41.2303513" lon="9.4219782"><ele>28.0</ele><time>2026-04-25T10:21:57.921Z</time></trkpt><trkpt lat="41.2302122" lon="9.4219227"><ele>28.0</ele><time>2026-04-25T10:21:58.912Z</time></trkpt><trkpt lat="41.2301001" lon="9.4218341"><ele>28.0</ele><time>2026-04-25T10:21:59.917Z</time></trkpt><trkpt lat="41.2299436" lon="9.4218248"><ele>28.0</ele><time>2026-04-25T10:22:00.92Z</time></trkpt><trkpt lat="41.2297721" lon="9.4218006"><ele>29.666666666666668</ele><time>2026-04-25T10:22:01.92Z</time></trkpt><trkpt lat="41.2296151" lon="9.4217773"><ele>31.333333333333336</ele><time>2026-04-25T10:22:02.918Z</time></trkpt><trkpt lat="41.2294517" lon="9.421734"><ele>33.0</ele><time>2026-04-25T10:22:03.921Z</time></trkpt><trkpt lat="41.2292926" lon="9.4217187"><ele>33.0</ele><time>2026-04-25T10:22:04.918Z</time></trkpt><trkpt lat="41.2291367" lon="9.4217143"><ele>33.0</ele><time>2026-04-25T10:22:05.919Z</time></trkpt><trkpt lat="41.2289852" lon="9.421679"><ele>33.0</ele><time>2026-04-25T10:22:06.924Z</time></trkpt><trkpt lat="41.2288234" lon="9.4216779"><ele>34.0</ele><time>2026-04-25T10:22:07.918Z</time></trkpt><trkpt lat="41.2286699" lon="9.4216592"><ele>35.0</ele><time>2026-04-25T10:22:08.919Z</time></trkpt><trkpt lat="41.2285315" lon="9.4216384"><ele>36.0</ele><time>2026-04-25T10:22:09.918Z</time></trkpt><trkpt lat="41.2284056" lon="9.4216305"><ele>37.0</ele><time>2026-04-25T10:22:10.915Z</time></trkpt><trkpt lat="41.2282883" lon="9.4216198"><ele>37.0</ele><time>2026-04-25T10:22:11.917Z</time></trkpt><trkpt lat="41.2282036" lon="9.4216229"><ele>37.0</ele><time>2026-04-25T10:22:12.914Z</time></trkpt><trkpt lat="41.22812" lon="9.4216093"><ele>37.0</ele><time>2026-04-25T10:22:13.913Z</time></trkpt><trkpt lat="41.2280292" lon="9.4215872"><ele>37.0</ele><time>2026-04-25T10:22:15.905Z</time></trkpt><trkpt lat="41.2279662" lon="9.4215636"><ele>37.0</ele><time>2026-04-25T10:22:17.902Z</time></trkpt><trkpt lat="41.2278769" lon="9.4216289"><ele>37.0</ele><time>2026-04-25T10:22:19.914Z</time></trkpt><trkpt lat="41.227816" lon="9.4217556"><ele>37.333333333333336</ele><time>2026-04-25T10:22:21.918Z</time></trkpt><trkpt lat="41.2278147" lon="9.4218607"><ele>37.66666666666667</ele><time>2026-04-25T10:22:22.908Z</time></trkpt><trkpt lat="41.2278326" lon="9.4219646"><ele>38.0</ele><time>2026-04-25T10:22:23.912Z</time></trkpt><trkpt lat="41.2278579" lon="9.422085"><ele>38.333333333333336</ele><time>2026-04-25T10:22:24.92Z</time></trkpt><trkpt lat="41.2278623" lon="9.4222074"><ele>38.666666666666664</ele><time>2026-04-25T10:22:25.917Z</time></trkpt><trkpt lat="41.227869" lon="9.4223402"><ele>39.0</ele><time>2026-04-25T10:22:26.916Z</time></trkpt><trkpt lat="41.2278793" lon="9.4224834"><ele>38.0</ele><time>2026-04-25T10:22:27.925Z</time></trkpt><trkpt lat="41.2278905" lon="9.4226395"><ele>37.0</ele><time>2026-04-25T10:22:28.92Z</time></trkpt><trkpt lat="41.2278911" lon="9.4227774"><ele>36.0</ele><time>2026-04-25T10:22:29.918Z</time></trkpt><trkpt lat="41.2279027" lon="9.4229271"><ele>35.0</ele><time>2026-04-25T10:22:30.917Z</time></trkpt><trkpt lat="41.2279192" lon="9.4230763"><ele>34.0</ele><time>2026-04-25T10:22:31.918Z</time></trkpt><trkpt lat="41.2279283" lon="9.4232173"><ele>33.0</ele><time>2026-04-25T10:22:32.917Z</time></trkpt><trkpt lat="41.2279319" lon="9.4233633"><ele>32.0</ele><time>2026-04-25T10:22:33.918Z</time></trkpt><trkpt lat="41.2279384" lon="9.423509"><ele>31.0</ele><time>2026-04-25T10:22:34.923Z</time></trkpt><trkpt lat="41.2279504" lon="9.4236735"><ele>30.0</ele><time>2026-04-25T10:22:35.919Z</time></trkpt><trkpt lat="41.2279567" lon="9.4238401"><ele>29.0</ele><time>2026-04-25T10:22:36.925Z</time></trkpt><trkpt lat="41.2279661" lon="9.4240096"><ele>28.0</ele><time>2026-04-25T10:22:37.92Z</time></trkpt><trkpt lat="41.2279816" lon="9.4241896"><ele>27.0</ele><time>2026-04-25T10:22:38.915Z</time></trkpt><trkpt lat="41.2279888" lon="9.4243638"><ele>26.0</ele><time>2026-04-25T10:22:39.919Z</time></trkpt><trkpt lat="41.2279826" lon="9.4245311"><ele>25.4</ele><time>2026-04-25T10:22:40.918Z</time></trkpt><trkpt lat="41.2279656" lon="9.4246898"><ele>24.8</ele><time>2026-04-25T10:22:41.922Z</time></trkpt><trkpt lat="41.2279285" lon="9.4248484"><ele>24.2</ele><time>2026-04-25T10:22:42.917Z</time></trkpt><trkpt lat="41.227889" lon="9.4249835"><ele>23.599999999999998</ele><time>2026-04-25T10:22:43.914Z</time></trkpt><trkpt lat="41.227822" lon="9.4250697"><ele>23.0</ele><time>2026-04-25T10:22:44.917Z</time></trkpt><trkpt lat="41.2277213" lon="9.42513"><ele>23.0</ele><time>2026-04-25T10:22:45.908Z</time></trkpt><trkpt lat="41.2276178" lon="9.4251627"><ele>23.0</ele><time>2026-04-25T10:22:46.903Z</time></trkpt><trkpt lat="41.2274757" lon="9.4251696"><ele>23.0</ele><time>2026-04-25T10:22:47.901Z</time></trkpt><trkpt lat="41.2273443" lon="9.4251847"><ele>23.0</ele><time>2026-04-25T10:22:48.905Z</time></trkpt><trkpt lat="41.2272184" lon="9.4252114"><ele>23.5</ele><time>2026-04-25T10:22:49.902Z</time></trkpt><trkpt lat="41.2271094" lon="9.4252559"><ele>24.0</ele><time>2026-04-25T10:22:50.906Z</time></trkpt><trkpt lat="41.2270099" lon="9.4253431"><ele>24.5</ele><time>2026-04-25T10:22:51.906Z</time></trkpt><trkpt lat="41.226911" lon="9.4254411"><ele>25.0</ele><time>2026-04-25T10:22:52.909Z</time></trkpt><trkpt lat="41.2268256" lon="9.4255514"><ele>24.8</ele><time>2026-04-25T10:22:53.904Z</time></trkpt><trkpt lat="41.2267444" lon="9.4256653"><ele>24.6</ele><time>2026-04-25T10:22:54.922Z</time></trkpt><trkpt lat="41.2266766" lon="9.4257882"><ele>24.4</ele><time>2026-04-25T10:22:55.922Z</time></trkpt><trkpt lat="41.2266084" lon="9.4258999"><ele>24.2</ele><time>2026-04-25T10:22:56.92Z</time></trkpt><trkpt lat="41.2265409" lon="9.4260024"><ele>24.0</ele><time>2026-04-25T10:22:57.914Z</time></trkpt><trkpt lat="41.2264627" lon="9.4260734"><ele>24.0</ele><time>2026-04-25T10:22:58.914Z</time></trkpt><trkpt lat="41.2263587" lon="9.426095"><ele>24.0</ele><time>2026-04-25T10:22:59.915Z</time></trkpt><trkpt lat="41.2262518" lon="9.4261122"><ele>24.0</ele><time>2026-04-25T10:23:00.915Z</time></trkpt><trkpt lat="41.226142" lon="9.426152"><ele>24.0</ele><time>2026-04-25T10:23:01.913Z</time></trkpt><trkpt lat="41.2260299" lon="9.4261981"><ele>24.0</ele><time>2026-04-25T10:23:02.912Z</time></trkpt><trkpt lat="41.2259146" lon="9.426252"><ele>24.0</ele><time>2026-04-25T10:23:03.914Z</time></trkpt><trkpt lat="41.2257989" lon="9.4263068"><ele>24.0</ele><time>2026-04-25T10:23:04.922Z</time></trkpt><trkpt lat="41.2256786" lon="9.4263582"><ele>24.0</ele><time>2026-04-25T10:23:05.915Z</time></trkpt><trkpt lat="41.2255692" lon="9.4264036"><ele>24.0</ele><time>2026-04-25T10:23:06.914Z</time></trkpt><trkpt lat="41.2254558" lon="9.4264506"><ele>23.0</ele><time>2026-04-25T10:23:07.912Z</time></trkpt><trkpt lat="41.2253393" lon="9.4265013"><ele>22.0</ele><time>2026-04-25T10:23:08.91Z</time></trkpt><trkpt lat="41.2252268" lon="9.426562"><ele>21.0</ele><time>2026-04-25T10:23:09.91Z</time></trkpt><trkpt lat="41.2251166" lon="9.4266118"><ele>20.0</ele><time>2026-04-25T10:23:10.91Z</time></trkpt><trkpt lat="41.2250034" lon="9.426674"><ele>20.0</ele><time>2026-04-25T10:23:11.912Z</time></trkpt><trkpt lat="41.2248855" lon="9.4267267"><ele>20.0</ele><time>2026-04-25T10:23:12.911Z</time></trkpt><trkpt lat="41.2247703" lon="9.4267782"><ele>20.0</ele><time>2026-04-25T10:23:13.914Z</time></trkpt><trkpt lat="41.2246593" lon="9.4268266"><ele>20.0</ele><time>2026-04-25T10:23:14.921Z</time></trkpt><trkpt lat="41.2245623" lon="9.4268883"><ele>20.2</ele><time>2026-04-25T10:23:15.912Z</time></trkpt><trkpt lat="41.224472" lon="9.4269672"><ele>20.4</ele><time>2026-04-25T10:23:16.914Z</time></trkpt><trkpt lat="41.2243898" lon="9.4270505"><ele>20.6</ele><time>2026-04-25T10:23:17.912Z</time></trkpt><trkpt lat="41.2243137" lon="9.427144"><ele>20.8</ele><time>2026-04-25T10:23:18.912Z</time></trkpt><trkpt lat="41.2242495" lon="9.4272627"><ele>21.0</ele><time>2026-04-25T10:23:19.917Z</time></trkpt><trkpt lat="41.2242063" lon="9.427397"><ele>20.2</ele><time>2026-04-25T10:23:20.917Z</time></trkpt><trkpt lat="41.224187" lon="9.4275254"><ele>19.400000000000002</ele><time>2026-04-25T10:23:21.916Z</time></trkpt><trkpt lat="41.2241772" lon="9.4276502"><ele>18.6</ele><time>2026-04-25T10:23:22.913Z</time></trkpt><trkpt lat="41.2241915" lon="9.4277822"><ele>17.8</ele><time>2026-04-25T10:23:23.92Z</time></trkpt><trkpt lat="41.2242221" lon="9.4279182"><ele>17.0</ele><time>2026-04-25T10:23:24.93Z</time></trkpt><trkpt lat="41.2242513" lon="9.4280451"><ele>16.2</ele><time>2026-04-25T10:23:25.922Z</time></trkpt><trkpt lat="41.2242874" lon="9.4281767"><ele>15.399999999999999</ele><time>2026-04-25T10:23:26.923Z</time></trkpt><trkpt lat="41.2243103" lon="9.4283014"><ele>14.600000000000001</ele><time>2026-04-25T10:23:27.919Z</time></trkpt><trkpt lat="41.2243312" lon="9.4284387"><ele>13.8</ele><time>2026-04-25T10:23:28.918Z</time></trkpt><trkpt lat="41.2243389" lon="9.4285736"><ele>13.0</ele><time>2026-04-25T10:23:29.917Z</time></trkpt><trkpt lat="41.2243455" lon="9.4287016"><ele>12.200000000000001</ele><time>2026-04-25T10:23:30.922Z</time></trkpt><trkpt lat="41.2243441" lon="9.4288397"><ele>11.4</ele><time>2026-04-25T10:23:31.921Z</time></trkpt><trkpt lat="41.2243258" lon="9.4289585"><ele>10.600000000000001</ele><time>2026-04-25T10:23:32.919Z</time></trkpt><trkpt lat="41.2243078" lon="9.4290913"><ele>9.8</ele><time>2026-04-25T10:23:33.92Z</time></trkpt><trkpt lat="41.2242794" lon="9.4292057"><ele>9.0</ele><time>2026-04-25T10:23:34.93Z</time></trkpt><trkpt lat="41.2242386" lon="9.4293133"><ele>9.0</ele><time>2026-04-25T10:23:35.922Z</time></trkpt><trkpt lat="41.2241994" lon="9.4294285"><ele>9.0</ele><time>2026-04-25T10:23:36.927Z</time></trkpt><trkpt lat="41.2241604" lon="9.4295331"><ele>9.0</ele><time>2026-04-25T10:23:37.924Z</time></trkpt><trkpt lat="41.2241233" lon="9.4296459"><ele>9.0</ele><time>2026-04-25T10:23:38.922Z</time></trkpt><trkpt lat="41.2240836" lon="9.4297548"><ele>9.0</ele><time>2026-04-25T10:23:39.923Z</time></trkpt><trkpt lat="41.2240388" lon="9.4298649"><ele>8.5</ele><time>2026-04-25T10:23:40.922Z</time></trkpt><trkpt lat="41.2239936" lon="9.4299799"><ele>8.0</ele><time>2026-04-25T10:23:41.92Z</time></trkpt><trkpt lat="41.2239511" lon="9.4300823"><ele>7.5</ele><time>2026-04-25T10:23:42.921Z</time></trkpt><trkpt lat="41.223919" lon="9.4301911"><ele>7.0</ele><time>2026-04-25T10:23:43.921Z</time></trkpt><trkpt lat="41.2238888" lon="9.4302945"><ele>6.5</ele><time>2026-04-25T10:23:44.93Z</time></trkpt><trkpt lat="41.2238488" lon="9.4303953"><ele>6.0</ele><time>2026-04-25T10:23:45.918Z</time></trkpt><trkpt lat="41.2238096" lon="9.4304979"><ele>5.333333333333333</ele><time>2026-04-25T10:23:46.92Z</time></trkpt><trkpt lat="41.223777" lon="9.4305951"><ele>4.666666666666667</ele><time>2026-04-25T10:23:47.921Z</time></trkpt><trkpt lat="41.2237448" lon="9.4306883"><ele>4.0</ele><time>2026-04-25T10:23:48.919Z</time></trkpt><trkpt lat="41.2237093" lon="9.4307743"><ele>3.333333333333333</ele><time>2026-04-25T10:23:49.924Z</time></trkpt><trkpt lat="41.223675" lon="9.4308656"><ele>2.6666666666666665</ele><time>2026-04-25T10:23:50.92Z</time></trkpt><trkpt lat="41.223643" lon="9.4309619"><ele>2.0</ele><time>2026-04-25T10:23:51.921Z</time></trkpt><trkpt lat="41.2236108" lon="9.4310704"><ele>1.9999999999999998</ele><time>2026-04-25T10:23:52.917Z</time></trkpt><trkpt lat="41.2235716" lon="9.4311775"><ele>2.0</ele><time>2026-04-25T10:23:53.923Z</time></trkpt><trkpt lat="41.2235361" lon="9.431274"><ele>2.0</ele><time>2026-04-25T10:23:54.93Z</time></trkpt><trkpt lat="41.2234913" lon="9.4313521"><ele>2.0</ele><time>2026-04-25T10:23:55.916Z</time></trkpt><trkpt lat="41.2234407" lon="9.4314137"><ele>1.9999999999999998</ele><time>2026-04-25T10:23:56.914Z</time></trkpt><trkpt lat="41.2233102" lon="9.4314326"><ele>2.0</ele><time>2026-04-25T10:23:58.917Z</time></trkpt><trkpt lat="41.2232352" lon="9.4314069"><ele>1.8333333333333333</ele><time>2026-04-25T10:23:59.917Z</time></trkpt><trkpt lat="41.2231571" lon="9.4313733"><ele>1.6666666666666665</ele><time>2026-04-25T10:24:00.914Z</time></trkpt><trkpt lat="41.2230785" lon="9.4313257"><ele>1.5</ele><time>2026-04-25T10:24:01.924Z</time></trkpt><trkpt lat="41.2230044" lon="9.4312879"><ele>1.3333333333333333</ele><time>2026-04-25T10:24:02.921Z</time></trkpt><trkpt lat="41.2229258" lon="9.4312647"><ele>1.1666666666666665</ele><time>2026-04-25T10:24:03.918Z</time></trkpt><trkpt lat="41.2228524" lon="9.431262"><ele>1.0</ele><time>2026-04-25T10:24:04.927Z</time></trkpt><trkpt lat="41.2227777" lon="9.4312861"><ele>0.9999999999999999</ele><time>2026-04-25T10:24:05.915Z</time></trkpt><trkpt lat="41.2227099" lon="9.4313494"><ele>1.0</ele><time>2026-04-25T10:24:06.917Z</time></trkpt><trkpt lat="41.2226464" lon="9.4314396"><ele>1.0</ele><time>2026-04-25T10:24:07.914Z</time></trkpt><trkpt lat="41.2226091" lon="9.4315543"><ele>1.0</ele><time>2026-04-25T10:24:08.906Z</time></trkpt><trkpt lat="41.2225761" lon="9.4316653"><ele>0.9999999999999999</ele><time>2026-04-25T10:24:09.913Z</time></trkpt><trkpt lat="41.2225318" lon="9.4317522"><ele>1.0</ele><time>2026-04-25T10:24:10.913Z</time></trkpt><trkpt lat="41.2224807" lon="9.431824"><ele>0.9999999999999999</ele><time>2026-04-25T10:24:11.915Z</time></trkpt><trkpt lat="41.22242" lon="9.431868"><ele>1.0</ele><time>2026-04-25T10:24:12.914Z</time></trkpt><trkpt lat="41.2223435" lon="9.4319226"><ele>1.0</ele><time>2026-04-25T10:24:13.917Z</time></trkpt><trkpt lat="41.2222651" lon="9.4319754"><ele>1.0</ele><time>2026-04-25T10:24:14.928Z</time></trkpt><trkpt lat="41.2221916" lon="9.4320386"><ele>0.9999999999999999</ele><time>2026-04-25T10:24:15.919Z</time></trkpt><trkpt lat="41.222118" lon="9.4321055"><ele>1.0</ele><time>2026-04-25T10:24:16.919Z</time></trkpt><trkpt lat="41.22206" lon="9.4321717"><ele>1.1666666666666665</ele><time>2026-04-25T10:24:17.921Z</time></trkpt><trkpt lat="41.2220059" lon="9.432251"><ele>1.3333333333333333</ele><time>2026-04-25T10:24:18.918Z</time></trkpt><trkpt lat="41.2219609" lon="9.4323485"><ele>1.5</ele><time>2026-04-25T10:24:19.916Z</time></trkpt><trkpt lat="41.2219197" lon="9.4324563"><ele>1.6666666666666665</ele><time>2026-04-25T10:24:20.916Z</time></trkpt><trkpt lat="41.2218883" lon="9.4325744"><ele>1.8333333333333333</ele><time>2026-04-25T10:24:21.919Z</time></trkpt><trkpt lat="41.221858" lon="9.4326917"><ele>2.0</ele><time>2026-04-25T10:24:22.917Z</time></trkpt><trkpt lat="41.2218323" lon="9.4328216"><ele>2.0</ele><time>2026-04-25T10:24:23.918Z</time></trkpt><trkpt lat="41.2218126" lon="9.4329525"><ele>2.0</ele><time>2026-04-25T10:24:24.929Z</time></trkpt><trkpt lat="41.2217984" lon="9.4330882"><ele>2.0</ele><time>2026-04-25T10:24:25.918Z</time></trkpt><trkpt lat="41.2217879" lon="9.4332119"><ele>2.0</ele><time>2026-04-25T10:24:26.919Z</time></trkpt><trkpt lat="41.2217751" lon="9.4333373"><ele>2.0</ele><time>2026-04-25T10:24:27.921Z</time></trkpt><trkpt lat="41.2217576" lon="9.4334639"><ele>1.9999999999999998</ele><time>2026-04-25T10:24:28.921Z</time></trkpt><trkpt lat="41.221742" lon="9.4335904"><ele>2.0</ele><time>2026-04-25T10:24:29.916Z</time></trkpt><trkpt lat="41.2217247" lon="9.4337111"><ele>2.0</ele><time>2026-04-25T10:24:30.916Z</time></trkpt><trkpt lat="41.2217018" lon="9.4338119"><ele>2.0</ele><time>2026-04-25T10:24:31.915Z</time></trkpt><trkpt lat="41.2216862" lon="9.4339293"><ele>1.9999999999999998</ele><time>2026-04-25T10:24:32.916Z</time></trkpt><trkpt lat="41.2216876" lon="9.4340476"><ele>2.0</ele><time>2026-04-25T10:24:33.915Z</time></trkpt><trkpt lat="41.2216933" lon="9.4341745"><ele>3.0</ele><time>2026-04-25T10:24:34.924Z</time></trkpt><trkpt lat="41.2217013" lon="9.4342875"><ele>3.0</ele><time>2026-04-25T10:24:35.915Z</time></trkpt><trkpt lat="41.2217234" lon="9.4343945"><ele>3.0</ele><time>2026-04-25T10:24:36.916Z</time></trkpt><trkpt lat="41.2217499" lon="9.4345033"><ele>3.0</ele><time>2026-04-25T10:24:37.91Z</time></trkpt><trkpt lat="41.2217594" lon="9.4346375"><ele>3.0</ele><time>2026-04-25T10:24:39.915Z</time></trkpt><trkpt lat="41.2217883" lon="9.4347397"><ele>5.0</ele><time>2026-04-25T10:24:41.915Z</time></trkpt></trkseg></trk></gpx>